<?xml version="1.0" encoding="UTF-8" standalone="no" ?>
<gpx xmlns="http://www.topografix.com/GPX/1/1" xmlns:xsi="http://www.w3.org/2001/XMLSchema-instance" xsi:schemaLocation="http://www.topografix.com/GPX/1/1 http://www.topografix.com/GPX/1/1/gpx.xsd" version="1.1" creator="VisuGPX - https://www.visugpx.com">
  <metadata>
    <name>zz003-63-1600-tour-du-lac-ainsa-40-single</name>
  </metadata>
  <trk>
    <name><![CDATA[02-JUIN-14 15:41:39]]></name>
    <trkseg>
      <trkpt lat="42.41618" lon="0.14015">
        <ele>547.61</ele>
        <time>2014-06-02T06:08:01Z</time>
      </trkpt>
      <trkpt lat="42.41616" lon="0.14012">
        <ele>543.28</ele>
        <time>2014-06-02T06:08:02Z</time>
      </trkpt>
      <trkpt lat="42.41615" lon="0.14011">
        <ele>548.09</ele>
        <time>2014-06-02T06:08:03Z</time>
      </trkpt>
      <trkpt lat="42.41614" lon="0.14009">
        <ele>549.53</ele>
        <time>2014-06-02T06:08:05Z</time>
      </trkpt>
      <trkpt lat="42.41613" lon="0.14009">
        <ele>553.38</ele>
        <time>2014-06-02T06:08:06Z</time>
      </trkpt>
      <trkpt lat="42.41608" lon="0.14006">
        <ele>553.86</ele>
        <time>2014-06-02T06:08:11Z</time>
      </trkpt>
      <trkpt lat="42.41603" lon="0.14">
        <ele>556.74</ele>
        <time>2014-06-02T06:08:22Z</time>
      </trkpt>
      <trkpt lat="42.41599" lon="0.13997">
        <ele>560.11</ele>
        <time>2014-06-02T06:08:29Z</time>
      </trkpt>
      <trkpt lat="42.41595" lon="0.13993">
        <ele>561.07</ele>
        <time>2014-06-02T06:08:33Z</time>
      </trkpt>
      <trkpt lat="42.41592" lon="0.1399">
        <ele>562.99</ele>
        <time>2014-06-02T06:08:37Z</time>
      </trkpt>
      <trkpt lat="42.41591" lon="0.13987">
        <ele>565.87</ele>
        <time>2014-06-02T06:08:42Z</time>
      </trkpt>
      <trkpt lat="42.41594" lon="0.13988">
        <ele>569.24</ele>
        <time>2014-06-02T06:08:50Z</time>
      </trkpt>
      <trkpt lat="42.41598" lon="0.13987">
        <ele>570.2</ele>
        <time>2014-06-02T06:08:53Z</time>
      </trkpt>
      <trkpt lat="42.41603" lon="0.13981">
        <ele>571.16</ele>
        <time>2014-06-02T06:08:58Z</time>
      </trkpt>
      <trkpt lat="42.41599" lon="0.13983">
        <ele>573.08</ele>
        <time>2014-06-02T06:09:10Z</time>
      </trkpt>
      <trkpt lat="42.41599" lon="0.13983">
        <ele>575.01</ele>
        <time>2014-06-02T06:09:13Z</time>
      </trkpt>
      <trkpt lat="42.41599" lon="0.13983">
        <ele>576.45</ele>
        <time>2014-06-02T06:09:17Z</time>
      </trkpt>
      <trkpt lat="42.41599" lon="0.13983">
        <ele>579.81</ele>
        <time>2014-06-02T06:09:28Z</time>
      </trkpt>
      <trkpt lat="42.41597" lon="0.13983">
        <ele>582.22</ele>
        <time>2014-06-02T06:09:43Z</time>
      </trkpt>
      <trkpt lat="42.41589" lon="0.13985">
        <ele>582.22</ele>
        <time>2014-06-02T06:09:48Z</time>
      </trkpt>
      <trkpt lat="42.41568" lon="0.13986">
        <ele>578.85</ele>
        <time>2014-06-02T06:09:55Z</time>
      </trkpt>
      <trkpt lat="42.41562" lon="0.13983">
        <ele>577.41</ele>
        <time>2014-06-02T06:09:58Z</time>
      </trkpt>
      <trkpt lat="42.41557" lon="0.13985">
        <ele>576.93</ele>
        <time>2014-06-02T06:10:00Z</time>
      </trkpt>
      <trkpt lat="42.41553" lon="0.13982">
        <ele>576.45</ele>
        <time>2014-06-02T06:10:01Z</time>
      </trkpt>
      <trkpt lat="42.41554" lon="0.13954">
        <ele>575.01</ele>
        <time>2014-06-02T06:10:07Z</time>
      </trkpt>
      <trkpt lat="42.41558" lon="0.13936">
        <ele>574.04</ele>
        <time>2014-06-02T06:10:16Z</time>
      </trkpt>
      <trkpt lat="42.41556" lon="0.13935">
        <ele>578.85</ele>
        <time>2014-06-02T06:10:23Z</time>
      </trkpt>
      <trkpt lat="42.41556" lon="0.13935">
        <ele>573.08</ele>
        <time>2014-06-02T06:10:24Z</time>
      </trkpt>
      <trkpt lat="42.41556" lon="0.13935">
        <ele>578.37</ele>
        <time>2014-06-02T06:10:36Z</time>
      </trkpt>
      <trkpt lat="42.41556" lon="0.13935">
        <ele>576.45</ele>
        <time>2014-06-02T06:10:37Z</time>
      </trkpt>
      <trkpt lat="42.41556" lon="0.13935">
        <ele>566.83</ele>
        <time>2014-06-02T06:10:41Z</time>
      </trkpt>
      <trkpt lat="42.41556" lon="0.13935">
        <ele>575.49</ele>
        <time>2014-06-02T06:10:42Z</time>
      </trkpt>
      <trkpt lat="42.41556" lon="0.13935">
        <ele>570.68</ele>
        <time>2014-06-02T06:10:43Z</time>
      </trkpt>
      <trkpt lat="42.41556" lon="0.13935">
        <ele>573.56</ele>
        <time>2014-06-02T06:10:44Z</time>
      </trkpt>
      <trkpt lat="42.41556" lon="0.13936">
        <ele>573.08</ele>
        <time>2014-06-02T06:11:10Z</time>
      </trkpt>
      <trkpt lat="42.41556" lon="0.13936">
        <ele>573.08</ele>
        <time>2014-06-02T06:11:15Z</time>
      </trkpt>
      <trkpt lat="42.41552" lon="0.13943">
        <ele>572.12</ele>
        <time>2014-06-02T06:11:19Z</time>
      </trkpt>
      <trkpt lat="42.4154" lon="0.13962">
        <ele>570.2</ele>
        <time>2014-06-02T06:11:23Z</time>
      </trkpt>
      <trkpt lat="42.41529" lon="0.13974">
        <ele>568.76</ele>
        <time>2014-06-02T06:11:25Z</time>
      </trkpt>
      <trkpt lat="42.41503" lon="0.13972">
        <ele>564.43</ele>
        <time>2014-06-02T06:11:29Z</time>
      </trkpt>
      <trkpt lat="42.41502" lon="0.13951">
        <ele>563.47</ele>
        <time>2014-06-02T06:11:31Z</time>
      </trkpt>
      <trkpt lat="42.41514" lon="0.13918">
        <ele>560.59</ele>
        <time>2014-06-02T06:11:34Z</time>
      </trkpt>
      <trkpt lat="42.41535" lon="0.13883">
        <ele>557.7</ele>
        <time>2014-06-02T06:11:38Z</time>
      </trkpt>
      <trkpt lat="42.41543" lon="0.13873">
        <ele>556.26</ele>
        <time>2014-06-02T06:11:39Z</time>
      </trkpt>
      <trkpt lat="42.41578" lon="0.13832">
        <ele>552.41</ele>
        <time>2014-06-02T06:11:43Z</time>
      </trkpt>
      <trkpt lat="42.4159" lon="0.13817">
        <ele>551.45</ele>
        <time>2014-06-02T06:11:45Z</time>
      </trkpt>
      <trkpt lat="42.41597" lon="0.13804">
        <ele>550.97</ele>
        <time>2014-06-02T06:11:50Z</time>
      </trkpt>
      <trkpt lat="42.41595" lon="0.13803">
        <ele>550.49</ele>
        <time>2014-06-02T06:11:51Z</time>
      </trkpt>
      <trkpt lat="42.41587" lon="0.13808">
        <ele>550.01</ele>
        <time>2014-06-02T06:11:54Z</time>
      </trkpt>
      <trkpt lat="42.41569" lon="0.13807">
        <ele>546.17</ele>
        <time>2014-06-02T06:11:59Z</time>
      </trkpt>
      <trkpt lat="42.4156" lon="0.1381">
        <ele>542.8</ele>
        <time>2014-06-02T06:12:02Z</time>
      </trkpt>
      <trkpt lat="42.41538" lon="0.13815">
        <ele>541.36</ele>
        <time>2014-06-02T06:12:08Z</time>
      </trkpt>
      <trkpt lat="42.41522" lon="0.13828">
        <ele>540.4</ele>
        <time>2014-06-02T06:12:12Z</time>
      </trkpt>
      <trkpt lat="42.41507" lon="0.13845">
        <ele>539.92</ele>
        <time>2014-06-02T06:12:16Z</time>
      </trkpt>
      <trkpt lat="42.41464" lon="0.13905">
        <ele>538.96</ele>
        <time>2014-06-02T06:12:27Z</time>
      </trkpt>
      <trkpt lat="42.41454" lon="0.13965">
        <ele>537.51</ele>
        <time>2014-06-02T06:12:34Z</time>
      </trkpt>
      <trkpt lat="42.41473" lon="0.14101">
        <ele>535.59</ele>
        <time>2014-06-02T06:12:50Z</time>
      </trkpt>
      <trkpt lat="42.41479" lon="0.14149">
        <ele>535.59</ele>
        <time>2014-06-02T06:12:56Z</time>
      </trkpt>
      <trkpt lat="42.41479" lon="0.14182">
        <ele>535.59</ele>
        <time>2014-06-02T06:13:00Z</time>
      </trkpt>
      <trkpt lat="42.41493" lon="0.14288">
        <ele>536.07</ele>
        <time>2014-06-02T06:13:15Z</time>
      </trkpt>
      <trkpt lat="42.41497" lon="0.14316">
        <ele>536.07</ele>
        <time>2014-06-02T06:13:19Z</time>
      </trkpt>
      <trkpt lat="42.41509" lon="0.14402">
        <ele>535.59</ele>
        <time>2014-06-02T06:13:31Z</time>
      </trkpt>
      <trkpt lat="42.41508" lon="0.14431">
        <ele>534.15</ele>
        <time>2014-06-02T06:13:35Z</time>
      </trkpt>
      <trkpt lat="42.4153" lon="0.14451">
        <ele>535.59</ele>
        <time>2014-06-02T06:13:41Z</time>
      </trkpt>
      <trkpt lat="42.41549" lon="0.14467">
        <ele>534.15</ele>
        <time>2014-06-02T06:13:48Z</time>
      </trkpt>
      <trkpt lat="42.41554" lon="0.14482">
        <ele>532.71</ele>
        <time>2014-06-02T06:13:51Z</time>
      </trkpt>
      <trkpt lat="42.41576" lon="0.14569">
        <ele>532.23</ele>
        <time>2014-06-02T06:14:05Z</time>
      </trkpt>
      <trkpt lat="42.41609" lon="0.14651">
        <ele>532.71</ele>
        <time>2014-06-02T06:14:19Z</time>
      </trkpt>
      <trkpt lat="42.41623" lon="0.14672">
        <ele>532.71</ele>
        <time>2014-06-02T06:14:23Z</time>
      </trkpt>
      <trkpt lat="42.41677" lon="0.14747">
        <ele>534.15</ele>
        <time>2014-06-02T06:14:39Z</time>
      </trkpt>
      <trkpt lat="42.41714" lon="0.14789">
        <ele>535.11</ele>
        <time>2014-06-02T06:14:49Z</time>
      </trkpt>
      <trkpt lat="42.41749" lon="0.14811">
        <ele>536.07</ele>
        <time>2014-06-02T06:14:57Z</time>
      </trkpt>
      <trkpt lat="42.41758" lon="0.14815">
        <ele>536.07</ele>
        <time>2014-06-02T06:14:59Z</time>
      </trkpt>
      <trkpt lat="42.41799" lon="0.14824">
        <ele>537.03</ele>
        <time>2014-06-02T06:15:08Z</time>
      </trkpt>
      <trkpt lat="42.41882" lon="0.14836">
        <ele>538.48</ele>
        <time>2014-06-02T06:15:26Z</time>
      </trkpt>
      <trkpt lat="42.41886" lon="0.14837">
        <ele>538.48</ele>
        <time>2014-06-02T06:15:27Z</time>
      </trkpt>
      <trkpt lat="42.41904" lon="0.14842">
        <ele>538.96</ele>
        <time>2014-06-02T06:15:31Z</time>
      </trkpt>
      <trkpt lat="42.41948" lon="0.14876">
        <ele>539.44</ele>
        <time>2014-06-02T06:15:42Z</time>
      </trkpt>
      <trkpt lat="42.41992" lon="0.14967">
        <ele>541.84</ele>
        <time>2014-06-02T06:15:59Z</time>
      </trkpt>
      <trkpt lat="42.42005" lon="0.15095">
        <ele>541.36</ele>
        <time>2014-06-02T06:16:18Z</time>
      </trkpt>
      <trkpt lat="42.42031" lon="0.15187">
        <ele>543.28</ele>
        <time>2014-06-02T06:16:33Z</time>
      </trkpt>
      <trkpt lat="42.42037" lon="0.15198">
        <ele>543.28</ele>
        <time>2014-06-02T06:16:35Z</time>
      </trkpt>
      <trkpt lat="42.42084" lon="0.15252">
        <ele>545.2</ele>
        <time>2014-06-02T06:16:48Z</time>
      </trkpt>
      <trkpt lat="42.42093" lon="0.15264">
        <ele>545.69</ele>
        <time>2014-06-02T06:16:51Z</time>
      </trkpt>
      <trkpt lat="42.42137" lon="0.15318">
        <ele>545.2</ele>
        <time>2014-06-02T06:17:03Z</time>
      </trkpt>
      <trkpt lat="42.42188" lon="0.15389">
        <ele>546.17</ele>
        <time>2014-06-02T06:17:19Z</time>
      </trkpt>
      <trkpt lat="42.42211" lon="0.15419">
        <ele>548.57</ele>
        <time>2014-06-02T06:17:28Z</time>
      </trkpt>
      <trkpt lat="42.42234" lon="0.15452">
        <ele>551.45</ele>
        <time>2014-06-02T06:17:39Z</time>
      </trkpt>
      <trkpt lat="42.42285" lon="0.15504">
        <ele>553.38</ele>
        <time>2014-06-02T06:17:57Z</time>
      </trkpt>
      <trkpt lat="42.42337" lon="0.15563">
        <ele>555.78</ele>
        <time>2014-06-02T06:18:16Z</time>
      </trkpt>
      <trkpt lat="42.42373" lon="0.15592">
        <ele>557.22</ele>
        <time>2014-06-02T06:18:28Z</time>
      </trkpt>
      <trkpt lat="42.42438" lon="0.15634">
        <ele>556.26</ele>
        <time>2014-06-02T06:18:46Z</time>
      </trkpt>
      <trkpt lat="42.42463" lon="0.15664">
        <ele>556.74</ele>
        <time>2014-06-02T06:18:54Z</time>
      </trkpt>
      <trkpt lat="42.42472" lon="0.15684">
        <ele>556.74</ele>
        <time>2014-06-02T06:18:58Z</time>
      </trkpt>
      <trkpt lat="42.42491" lon="0.15719">
        <ele>555.78</ele>
        <time>2014-06-02T06:19:05Z</time>
      </trkpt>
      <trkpt lat="42.42496" lon="0.15742">
        <ele>555.78</ele>
        <time>2014-06-02T06:19:09Z</time>
      </trkpt>
      <trkpt lat="42.42494" lon="0.15767">
        <ele>555.78</ele>
        <time>2014-06-02T06:19:13Z</time>
      </trkpt>
      <trkpt lat="42.42468" lon="0.15835">
        <ele>556.74</ele>
        <time>2014-06-02T06:19:26Z</time>
      </trkpt>
      <trkpt lat="42.42457" lon="0.15882">
        <ele>558.18</ele>
        <time>2014-06-02T06:19:35Z</time>
      </trkpt>
      <trkpt lat="42.42464" lon="0.15911">
        <ele>557.7</ele>
        <time>2014-06-02T06:19:41Z</time>
      </trkpt>
      <trkpt lat="42.42469" lon="0.15922">
        <ele>558.18</ele>
        <time>2014-06-02T06:19:43Z</time>
      </trkpt>
      <trkpt lat="42.42477" lon="0.15946">
        <ele>559.14</ele>
        <time>2014-06-02T06:19:48Z</time>
      </trkpt>
      <trkpt lat="42.42483" lon="0.15963">
        <ele>559.62</ele>
        <time>2014-06-02T06:19:58Z</time>
      </trkpt>
      <trkpt lat="42.42483" lon="0.15963">
        <ele>558.66</ele>
        <time>2014-06-02T06:20:21Z</time>
      </trkpt>
      <trkpt lat="42.42483" lon="0.15963">
        <ele>559.14</ele>
        <time>2014-06-02T06:20:49Z</time>
      </trkpt>
      <trkpt lat="42.42483" lon="0.15963">
        <ele>559.14</ele>
        <time>2014-06-02T06:20:53Z</time>
      </trkpt>
      <trkpt lat="42.4247" lon="0.15985">
        <ele>557.7</ele>
        <time>2014-06-02T06:21:02Z</time>
      </trkpt>
      <trkpt lat="42.42468" lon="0.15991">
        <ele>558.18</ele>
        <time>2014-06-02T06:21:09Z</time>
      </trkpt>
      <trkpt lat="42.42461" lon="0.15994">
        <ele>559.14</ele>
        <time>2014-06-02T06:21:14Z</time>
      </trkpt>
      <trkpt lat="42.42461" lon="0.16015">
        <ele>558.66</ele>
        <time>2014-06-02T06:21:24Z</time>
      </trkpt>
      <trkpt lat="42.42457" lon="0.16041">
        <ele>559.14</ele>
        <time>2014-06-02T06:21:33Z</time>
      </trkpt>
      <trkpt lat="42.42452" lon="0.16079">
        <ele>559.62</ele>
        <time>2014-06-02T06:21:45Z</time>
      </trkpt>
      <trkpt lat="42.42448" lon="0.16095">
        <ele>560.59</ele>
        <time>2014-06-02T06:21:50Z</time>
      </trkpt>
      <trkpt lat="42.42448" lon="0.16102">
        <ele>560.59</ele>
        <time>2014-06-02T06:21:53Z</time>
      </trkpt>
      <trkpt lat="42.42441" lon="0.16125">
        <ele>560.11</ele>
        <time>2014-06-02T06:22:01Z</time>
      </trkpt>
      <trkpt lat="42.42439" lon="0.16141">
        <ele>559.62</ele>
        <time>2014-06-02T06:22:08Z</time>
      </trkpt>
      <trkpt lat="42.42433" lon="0.16186">
        <ele>561.07</ele>
        <time>2014-06-02T06:22:22Z</time>
      </trkpt>
      <trkpt lat="42.42428" lon="0.16218">
        <ele>562.03</ele>
        <time>2014-06-02T06:22:32Z</time>
      </trkpt>
      <trkpt lat="42.4243" lon="0.16257">
        <ele>562.51</ele>
        <time>2014-06-02T06:22:43Z</time>
      </trkpt>
      <trkpt lat="42.42448" lon="0.1628">
        <ele>563.47</ele>
        <time>2014-06-02T06:22:52Z</time>
      </trkpt>
      <trkpt lat="42.42457" lon="0.16307">
        <ele>563.95</ele>
        <time>2014-06-02T06:23:03Z</time>
      </trkpt>
      <trkpt lat="42.42436" lon="0.16327">
        <ele>564.91</ele>
        <time>2014-06-02T06:23:13Z</time>
      </trkpt>
      <trkpt lat="42.42414" lon="0.16345">
        <ele>565.87</ele>
        <time>2014-06-02T06:23:24Z</time>
      </trkpt>
      <trkpt lat="42.42402" lon="0.16356">
        <ele>565.87</ele>
        <time>2014-06-02T06:23:30Z</time>
      </trkpt>
      <trkpt lat="42.42403" lon="0.16374">
        <ele>566.35</ele>
        <time>2014-06-02T06:23:36Z</time>
      </trkpt>
      <trkpt lat="42.42404" lon="0.1638">
        <ele>566.35</ele>
        <time>2014-06-02T06:23:38Z</time>
      </trkpt>
      <trkpt lat="42.42405" lon="0.16404">
        <ele>566.83</ele>
        <time>2014-06-02T06:23:47Z</time>
      </trkpt>
      <trkpt lat="42.42386" lon="0.16427">
        <ele>567.32</ele>
        <time>2014-06-02T06:23:58Z</time>
      </trkpt>
      <trkpt lat="42.42374" lon="0.16461">
        <ele>568.28</ele>
        <time>2014-06-02T06:24:10Z</time>
      </trkpt>
      <trkpt lat="42.42362" lon="0.16504">
        <ele>569.24</ele>
        <time>2014-06-02T06:24:25Z</time>
      </trkpt>
      <trkpt lat="42.42354" lon="0.16537">
        <ele>570.2</ele>
        <time>2014-06-02T06:24:38Z</time>
      </trkpt>
      <trkpt lat="42.42331" lon="0.16562">
        <ele>570.68</ele>
        <time>2014-06-02T06:24:50Z</time>
      </trkpt>
      <trkpt lat="42.42325" lon="0.16605">
        <ele>571.64</ele>
        <time>2014-06-02T06:25:03Z</time>
      </trkpt>
      <trkpt lat="42.42313" lon="0.16636">
        <ele>573.08</ele>
        <time>2014-06-02T06:25:14Z</time>
      </trkpt>
      <trkpt lat="42.4231" lon="0.16674">
        <ele>573.08</ele>
        <time>2014-06-02T06:25:25Z</time>
      </trkpt>
      <trkpt lat="42.42309" lon="0.1671">
        <ele>573.56</ele>
        <time>2014-06-02T06:25:36Z</time>
      </trkpt>
      <trkpt lat="42.42305" lon="0.16758">
        <ele>574.53</ele>
        <time>2014-06-02T06:25:50Z</time>
      </trkpt>
      <trkpt lat="42.42283" lon="0.1679">
        <ele>575.01</ele>
        <time>2014-06-02T06:26:02Z</time>
      </trkpt>
      <trkpt lat="42.42268" lon="0.16817">
        <ele>575.97</ele>
        <time>2014-06-02T06:26:12Z</time>
      </trkpt>
      <trkpt lat="42.42254" lon="0.16834">
        <ele>577.41</ele>
        <time>2014-06-02T06:26:20Z</time>
      </trkpt>
      <trkpt lat="42.42218" lon="0.16861">
        <ele>578.85</ele>
        <time>2014-06-02T06:26:34Z</time>
      </trkpt>
      <trkpt lat="42.42195" lon="0.16877">
        <ele>580.77</ele>
        <time>2014-06-02T06:26:44Z</time>
      </trkpt>
      <trkpt lat="42.42185" lon="0.16867">
        <ele>583.66</ele>
        <time>2014-06-02T06:26:49Z</time>
      </trkpt>
      <trkpt lat="42.42166" lon="0.16861">
        <ele>587.02</ele>
        <time>2014-06-02T06:26:57Z</time>
      </trkpt>
      <trkpt lat="42.42147" lon="0.16876">
        <ele>589.91</ele>
        <time>2014-06-02T06:27:06Z</time>
      </trkpt>
      <trkpt lat="42.42129" lon="0.16881">
        <ele>592.31</ele>
        <time>2014-06-02T06:27:14Z</time>
      </trkpt>
      <trkpt lat="42.42122" lon="0.1687">
        <ele>593.27</ele>
        <time>2014-06-02T06:27:19Z</time>
      </trkpt>
      <trkpt lat="42.421" lon="0.16849">
        <ele>596.15</ele>
        <time>2014-06-02T06:27:32Z</time>
      </trkpt>
      <trkpt lat="42.42094" lon="0.16846">
        <ele>600.48</ele>
        <time>2014-06-02T06:27:35Z</time>
      </trkpt>
      <trkpt lat="42.42092" lon="0.16845">
        <ele>597.12</ele>
        <time>2014-06-02T06:27:36Z</time>
      </trkpt>
      <trkpt lat="42.42085" lon="0.16847">
        <ele>597.6</ele>
        <time>2014-06-02T06:27:39Z</time>
      </trkpt>
      <trkpt lat="42.42074" lon="0.16843">
        <ele>599.04</ele>
        <time>2014-06-02T06:27:44Z</time>
      </trkpt>
      <trkpt lat="42.42054" lon="0.16834">
        <ele>601.44</ele>
        <time>2014-06-02T06:27:54Z</time>
      </trkpt>
      <trkpt lat="42.4204" lon="0.16848">
        <ele>599.52</ele>
        <time>2014-06-02T06:28:01Z</time>
      </trkpt>
      <trkpt lat="42.42038" lon="0.16853">
        <ele>600</ele>
        <time>2014-06-02T06:28:02Z</time>
      </trkpt>
      <trkpt lat="42.42035" lon="0.16863">
        <ele>600.48</ele>
        <time>2014-06-02T06:28:10Z</time>
      </trkpt>
      <trkpt lat="42.42034" lon="0.16864">
        <ele>600.48</ele>
        <time>2014-06-02T06:28:25Z</time>
      </trkpt>
      <trkpt lat="42.42034" lon="0.16864">
        <ele>600</ele>
        <time>2014-06-02T06:28:45Z</time>
      </trkpt>
      <trkpt lat="42.42034" lon="0.16864">
        <ele>600</ele>
        <time>2014-06-02T06:29:08Z</time>
      </trkpt>
      <trkpt lat="42.42034" lon="0.16864">
        <ele>599.52</ele>
        <time>2014-06-02T06:29:12Z</time>
      </trkpt>
      <trkpt lat="42.4203" lon="0.16867">
        <ele>599.52</ele>
        <time>2014-06-02T06:29:15Z</time>
      </trkpt>
      <trkpt lat="42.4201" lon="0.16883">
        <ele>597.6</ele>
        <time>2014-06-02T06:29:22Z</time>
      </trkpt>
      <trkpt lat="42.42002" lon="0.16892">
        <ele>598.08</ele>
        <time>2014-06-02T06:29:25Z</time>
      </trkpt>
      <trkpt lat="42.41996" lon="0.16894">
        <ele>600</ele>
        <time>2014-06-02T06:29:28Z</time>
      </trkpt>
      <trkpt lat="42.41992" lon="0.16894">
        <ele>600.96</ele>
        <time>2014-06-02T06:29:30Z</time>
      </trkpt>
      <trkpt lat="42.41975" lon="0.1691">
        <ele>601.92</ele>
        <time>2014-06-02T06:29:38Z</time>
      </trkpt>
      <trkpt lat="42.41949" lon="0.16929">
        <ele>604.81</ele>
        <time>2014-06-02T06:29:50Z</time>
      </trkpt>
      <trkpt lat="42.41926" lon="0.16937">
        <ele>607.21</ele>
        <time>2014-06-02T06:30:00Z</time>
      </trkpt>
      <trkpt lat="42.41909" lon="0.16935">
        <ele>608.65</ele>
        <time>2014-06-02T06:30:08Z</time>
      </trkpt>
      <trkpt lat="42.41892" lon="0.16949">
        <ele>610.57</ele>
        <time>2014-06-02T06:30:16Z</time>
      </trkpt>
      <trkpt lat="42.41869" lon="0.16961">
        <ele>607.69</ele>
        <time>2014-06-02T06:30:21Z</time>
      </trkpt>
      <trkpt lat="42.41851" lon="0.16976">
        <ele>610.09</ele>
        <time>2014-06-02T06:30:26Z</time>
      </trkpt>
      <trkpt lat="42.41851" lon="0.16982">
        <ele>610.57</ele>
        <time>2014-06-02T06:30:28Z</time>
      </trkpt>
      <trkpt lat="42.41846" lon="0.16994">
        <ele>611.54</ele>
        <time>2014-06-02T06:30:32Z</time>
      </trkpt>
      <trkpt lat="42.41825" lon="0.17011">
        <ele>614.42</ele>
        <time>2014-06-02T06:30:45Z</time>
      </trkpt>
      <trkpt lat="42.41818" lon="0.17017">
        <ele>616.34</ele>
        <time>2014-06-02T06:30:49Z</time>
      </trkpt>
      <trkpt lat="42.41804" lon="0.17018">
        <ele>618.75</ele>
        <time>2014-06-02T06:30:58Z</time>
      </trkpt>
      <trkpt lat="42.418" lon="0.17011">
        <ele>620.67</ele>
        <time>2014-06-02T06:31:02Z</time>
      </trkpt>
      <trkpt lat="42.41792" lon="0.16999">
        <ele>622.59</ele>
        <time>2014-06-02T06:31:09Z</time>
      </trkpt>
      <trkpt lat="42.4177" lon="0.16993">
        <ele>626.44</ele>
        <time>2014-06-02T06:31:23Z</time>
      </trkpt>
      <trkpt lat="42.41764" lon="0.16989">
        <ele>627.4</ele>
        <time>2014-06-02T06:31:27Z</time>
      </trkpt>
      <trkpt lat="42.41759" lon="0.16983">
        <ele>628.36</ele>
        <time>2014-06-02T06:31:31Z</time>
      </trkpt>
      <trkpt lat="42.41745" lon="0.16954">
        <ele>631.72</ele>
        <time>2014-06-02T06:31:45Z</time>
      </trkpt>
      <trkpt lat="42.41726" lon="0.16943">
        <ele>633.65</ele>
        <time>2014-06-02T06:31:56Z</time>
      </trkpt>
      <trkpt lat="42.41708" lon="0.16935">
        <ele>636.53</ele>
        <time>2014-06-02T06:32:06Z</time>
      </trkpt>
      <trkpt lat="42.41687" lon="0.16935">
        <ele>635.57</ele>
        <time>2014-06-02T06:32:16Z</time>
      </trkpt>
      <trkpt lat="42.41673" lon="0.16935">
        <ele>634.61</ele>
        <time>2014-06-02T06:32:19Z</time>
      </trkpt>
      <trkpt lat="42.41651" lon="0.16938">
        <ele>632.2</ele>
        <time>2014-06-02T06:32:23Z</time>
      </trkpt>
      <trkpt lat="42.41629" lon="0.16935">
        <ele>628.84</ele>
        <time>2014-06-02T06:32:27Z</time>
      </trkpt>
      <trkpt lat="42.41622" lon="0.16931">
        <ele>627.88</ele>
        <time>2014-06-02T06:32:30Z</time>
      </trkpt>
      <trkpt lat="42.41609" lon="0.16911">
        <ele>624.99</ele>
        <time>2014-06-02T06:32:38Z</time>
      </trkpt>
      <trkpt lat="42.41605" lon="0.16929">
        <ele>624.51</ele>
        <time>2014-06-02T06:32:44Z</time>
      </trkpt>
      <trkpt lat="42.41606" lon="0.16985">
        <ele>625.96</ele>
        <time>2014-06-02T06:32:56Z</time>
      </trkpt>
      <trkpt lat="42.41609" lon="0.17032">
        <ele>627.4</ele>
        <time>2014-06-02T06:33:07Z</time>
      </trkpt>
      <trkpt lat="42.41621" lon="0.17098">
        <ele>628.84</ele>
        <time>2014-06-02T06:33:22Z</time>
      </trkpt>
      <trkpt lat="42.41646" lon="0.17165">
        <ele>629.32</ele>
        <time>2014-06-02T06:33:38Z</time>
      </trkpt>
      <trkpt lat="42.41657" lon="0.17213">
        <ele>632.2</ele>
        <time>2014-06-02T06:33:50Z</time>
      </trkpt>
      <trkpt lat="42.41678" lon="0.17275">
        <ele>634.13</ele>
        <time>2014-06-02T06:34:06Z</time>
      </trkpt>
      <trkpt lat="42.41698" lon="0.17358">
        <ele>633.65</ele>
        <time>2014-06-02T06:34:24Z</time>
      </trkpt>
      <trkpt lat="42.41698" lon="0.17406">
        <ele>633.17</ele>
        <time>2014-06-02T06:34:32Z</time>
      </trkpt>
      <trkpt lat="42.41695" lon="0.17429">
        <ele>633.17</ele>
        <time>2014-06-02T06:34:36Z</time>
      </trkpt>
      <trkpt lat="42.41692" lon="0.17447">
        <ele>633.17</ele>
        <time>2014-06-02T06:34:39Z</time>
      </trkpt>
      <trkpt lat="42.4169" lon="0.17471">
        <ele>632.68</ele>
        <time>2014-06-02T06:34:43Z</time>
      </trkpt>
      <trkpt lat="42.41695" lon="0.17502">
        <ele>632.68</ele>
        <time>2014-06-02T06:34:48Z</time>
      </trkpt>
      <trkpt lat="42.41719" lon="0.17549">
        <ele>635.57</ele>
        <time>2014-06-02T06:34:59Z</time>
      </trkpt>
      <trkpt lat="42.41746" lon="0.17593">
        <ele>635.57</ele>
        <time>2014-06-02T06:35:11Z</time>
      </trkpt>
      <trkpt lat="42.41779" lon="0.17633">
        <ele>638.93</ele>
        <time>2014-06-02T06:35:26Z</time>
      </trkpt>
      <trkpt lat="42.41788" lon="0.17643">
        <ele>640.86</ele>
        <time>2014-06-02T06:35:31Z</time>
      </trkpt>
      <trkpt lat="42.41794" lon="0.17654">
        <ele>642.3</ele>
        <time>2014-06-02T06:35:41Z</time>
      </trkpt>
      <trkpt lat="42.41793" lon="0.17656">
        <ele>642.3</ele>
        <time>2014-06-02T06:35:43Z</time>
      </trkpt>
      <trkpt lat="42.41799" lon="0.17679">
        <ele>644.22</ele>
        <time>2014-06-02T06:35:50Z</time>
      </trkpt>
      <trkpt lat="42.41808" lon="0.17726">
        <ele>648.07</ele>
        <time>2014-06-02T06:36:06Z</time>
      </trkpt>
      <trkpt lat="42.41812" lon="0.17776">
        <ele>650.47</ele>
        <time>2014-06-02T06:36:24Z</time>
      </trkpt>
      <trkpt lat="42.41811" lon="0.17783">
        <ele>651.43</ele>
        <time>2014-06-02T06:36:26Z</time>
      </trkpt>
      <trkpt lat="42.41822" lon="0.17843">
        <ele>654.8</ele>
        <time>2014-06-02T06:36:47Z</time>
      </trkpt>
      <trkpt lat="42.41844" lon="0.17873">
        <ele>658.16</ele>
        <time>2014-06-02T06:37:02Z</time>
      </trkpt>
      <trkpt lat="42.41859" lon="0.17912">
        <ele>659.12</ele>
        <time>2014-06-02T06:37:16Z</time>
      </trkpt>
      <trkpt lat="42.41869" lon="0.17959">
        <ele>661.52</ele>
        <time>2014-06-02T06:37:31Z</time>
      </trkpt>
      <trkpt lat="42.41878" lon="0.17989">
        <ele>662.97</ele>
        <time>2014-06-02T06:37:42Z</time>
      </trkpt>
      <trkpt lat="42.41882" lon="0.18036">
        <ele>663.93</ele>
        <time>2014-06-02T06:37:57Z</time>
      </trkpt>
      <trkpt lat="42.4187" lon="0.18068">
        <ele>666.33</ele>
        <time>2014-06-02T06:38:09Z</time>
      </trkpt>
      <trkpt lat="42.41877" lon="0.18091">
        <ele>668.73</ele>
        <time>2014-06-02T06:38:17Z</time>
      </trkpt>
      <trkpt lat="42.41899" lon="0.18108">
        <ele>669.7</ele>
        <time>2014-06-02T06:38:31Z</time>
      </trkpt>
      <trkpt lat="42.419" lon="0.18108">
        <ele>669.7</ele>
        <time>2014-06-02T06:38:33Z</time>
      </trkpt>
      <trkpt lat="42.41904" lon="0.18111">
        <ele>669.7</ele>
        <time>2014-06-02T06:38:37Z</time>
      </trkpt>
      <trkpt lat="42.41932" lon="0.18135">
        <ele>672.1</ele>
        <time>2014-06-02T06:38:53Z</time>
      </trkpt>
      <trkpt lat="42.41966" lon="0.18163">
        <ele>674.98</ele>
        <time>2014-06-02T06:39:10Z</time>
      </trkpt>
      <trkpt lat="42.41995" lon="0.18194">
        <ele>676.91</ele>
        <time>2014-06-02T06:39:26Z</time>
      </trkpt>
      <trkpt lat="42.41993" lon="0.18251">
        <ele>679.79</ele>
        <time>2014-06-02T06:39:41Z</time>
      </trkpt>
      <trkpt lat="42.42002" lon="0.18305">
        <ele>682.67</ele>
        <time>2014-06-02T06:39:58Z</time>
      </trkpt>
      <trkpt lat="42.42025" lon="0.18338">
        <ele>685.56</ele>
        <time>2014-06-02T06:40:13Z</time>
      </trkpt>
      <trkpt lat="42.42043" lon="0.18372">
        <ele>688.92</ele>
        <time>2014-06-02T06:40:27Z</time>
      </trkpt>
      <trkpt lat="42.4206" lon="0.18401">
        <ele>692.29</ele>
        <time>2014-06-02T06:40:40Z</time>
      </trkpt>
      <trkpt lat="42.42075" lon="0.18406">
        <ele>695.17</ele>
        <time>2014-06-02T06:40:48Z</time>
      </trkpt>
      <trkpt lat="42.42094" lon="0.18392">
        <ele>697.57</ele>
        <time>2014-06-02T06:41:00Z</time>
      </trkpt>
      <trkpt lat="42.42115" lon="0.18378">
        <ele>699.98</ele>
        <time>2014-06-02T06:41:12Z</time>
      </trkpt>
      <trkpt lat="42.42121" lon="0.18382">
        <ele>700.94</ele>
        <time>2014-06-02T06:41:15Z</time>
      </trkpt>
      <trkpt lat="42.42119" lon="0.18397">
        <ele>701.9</ele>
        <time>2014-06-02T06:41:21Z</time>
      </trkpt>
      <trkpt lat="42.421" lon="0.18426">
        <ele>705.26</ele>
        <time>2014-06-02T06:41:36Z</time>
      </trkpt>
      <trkpt lat="42.42099" lon="0.18436">
        <ele>705.75</ele>
        <time>2014-06-02T06:41:40Z</time>
      </trkpt>
      <trkpt lat="42.42104" lon="0.18465">
        <ele>709.11</ele>
        <time>2014-06-02T06:41:52Z</time>
      </trkpt>
      <trkpt lat="42.42119" lon="0.18482">
        <ele>712.47</ele>
        <time>2014-06-02T06:42:03Z</time>
      </trkpt>
      <trkpt lat="42.42143" lon="0.18506">
        <ele>714.88</ele>
        <time>2014-06-02T06:42:18Z</time>
      </trkpt>
      <trkpt lat="42.42153" lon="0.18549">
        <ele>717.76</ele>
        <time>2014-06-02T06:42:34Z</time>
      </trkpt>
      <trkpt lat="42.42156" lon="0.18589">
        <ele>720.16</ele>
        <time>2014-06-02T06:42:48Z</time>
      </trkpt>
      <trkpt lat="42.42158" lon="0.18624">
        <ele>722.57</ele>
        <time>2014-06-02T06:43:01Z</time>
      </trkpt>
      <trkpt lat="42.42153" lon="0.1867">
        <ele>725.93</ele>
        <time>2014-06-02T06:43:17Z</time>
      </trkpt>
      <trkpt lat="42.42154" lon="0.18675">
        <ele>725.93</ele>
        <time>2014-06-02T06:43:19Z</time>
      </trkpt>
      <trkpt lat="42.42166" lon="0.18668">
        <ele>728.34</ele>
        <time>2014-06-02T06:43:29Z</time>
      </trkpt>
      <trkpt lat="42.42167" lon="0.18656">
        <ele>729.78</ele>
        <time>2014-06-02T06:43:33Z</time>
      </trkpt>
      <trkpt lat="42.42173" lon="0.18606">
        <ele>731.22</ele>
        <time>2014-06-02T06:43:50Z</time>
      </trkpt>
      <trkpt lat="42.42186" lon="0.18562">
        <ele>733.62</ele>
        <time>2014-06-02T06:44:04Z</time>
      </trkpt>
      <trkpt lat="42.42198" lon="0.18559">
        <ele>734.1</ele>
        <time>2014-06-02T06:44:17Z</time>
      </trkpt>
      <trkpt lat="42.42197" lon="0.1856">
        <ele>734.58</ele>
        <time>2014-06-02T06:44:22Z</time>
      </trkpt>
      <trkpt lat="42.42199" lon="0.18551">
        <ele>732.66</ele>
        <time>2014-06-02T06:44:29Z</time>
      </trkpt>
      <trkpt lat="42.42204" lon="0.18549">
        <ele>733.14</ele>
        <time>2014-06-02T06:44:36Z</time>
      </trkpt>
      <trkpt lat="42.42204" lon="0.18549">
        <ele>729.3</ele>
        <time>2014-06-02T06:44:52Z</time>
      </trkpt>
      <trkpt lat="42.42204" lon="0.18549">
        <ele>733.62</ele>
        <time>2014-06-02T06:44:53Z</time>
      </trkpt>
      <trkpt lat="42.42204" lon="0.18549">
        <ele>733.62</ele>
        <time>2014-06-02T06:45:14Z</time>
      </trkpt>
      <trkpt lat="42.42204" lon="0.1855">
        <ele>733.14</ele>
        <time>2014-06-02T06:45:32Z</time>
      </trkpt>
      <trkpt lat="42.42204" lon="0.1855">
        <ele>733.14</ele>
        <time>2014-06-02T06:45:54Z</time>
      </trkpt>
      <trkpt lat="42.42204" lon="0.1855">
        <ele>733.62</ele>
        <time>2014-06-02T06:46:17Z</time>
      </trkpt>
      <trkpt lat="42.42204" lon="0.1855">
        <ele>733.14</ele>
        <time>2014-06-02T06:46:50Z</time>
      </trkpt>
      <trkpt lat="42.42204" lon="0.1855">
        <ele>733.14</ele>
        <time>2014-06-02T06:47:18Z</time>
      </trkpt>
      <trkpt lat="42.42204" lon="0.1855">
        <ele>733.62</ele>
        <time>2014-06-02T06:47:48Z</time>
      </trkpt>
      <trkpt lat="42.42204" lon="0.1855">
        <ele>733.14</ele>
        <time>2014-06-02T06:48:14Z</time>
      </trkpt>
      <trkpt lat="42.42202" lon="0.18549">
        <ele>733.62</ele>
        <time>2014-06-02T06:48:27Z</time>
      </trkpt>
      <trkpt lat="42.42202" lon="0.1855">
        <ele>733.62</ele>
        <time>2014-06-02T06:48:50Z</time>
      </trkpt>
      <trkpt lat="42.42202" lon="0.1855">
        <ele>733.14</ele>
        <time>2014-06-02T06:49:15Z</time>
      </trkpt>
      <trkpt lat="42.42203" lon="0.1855">
        <ele>733.62</ele>
        <time>2014-06-02T06:49:37Z</time>
      </trkpt>
      <trkpt lat="42.42203" lon="0.1855">
        <ele>734.1</ele>
        <time>2014-06-02T06:49:55Z</time>
      </trkpt>
      <trkpt lat="42.42204" lon="0.18551">
        <ele>733.62</ele>
        <time>2014-06-02T06:50:15Z</time>
      </trkpt>
      <trkpt lat="42.42204" lon="0.18551">
        <ele>733.62</ele>
        <time>2014-06-02T06:50:22Z</time>
      </trkpt>
      <trkpt lat="42.4223" lon="0.18567">
        <ele>734.1</ele>
        <time>2014-06-02T06:50:33Z</time>
      </trkpt>
      <trkpt lat="42.42237" lon="0.18575">
        <ele>734.58</ele>
        <time>2014-06-02T06:50:36Z</time>
      </trkpt>
      <trkpt lat="42.42244" lon="0.18584">
        <ele>735.07</ele>
        <time>2014-06-02T06:50:38Z</time>
      </trkpt>
      <trkpt lat="42.42249" lon="0.18595">
        <ele>735.55</ele>
        <time>2014-06-02T06:50:40Z</time>
      </trkpt>
      <trkpt lat="42.4226" lon="0.18674">
        <ele>736.99</ele>
        <time>2014-06-02T06:50:53Z</time>
      </trkpt>
      <trkpt lat="42.42269" lon="0.18708">
        <ele>738.91</ele>
        <time>2014-06-02T06:51:04Z</time>
      </trkpt>
      <trkpt lat="42.42272" lon="0.18716">
        <ele>742.28</ele>
        <time>2014-06-02T06:51:07Z</time>
      </trkpt>
      <trkpt lat="42.42288" lon="0.18751">
        <ele>742.76</ele>
        <time>2014-06-02T06:51:21Z</time>
      </trkpt>
      <trkpt lat="42.42294" lon="0.18758">
        <ele>743.24</ele>
        <time>2014-06-02T06:51:25Z</time>
      </trkpt>
      <trkpt lat="42.42311" lon="0.18783">
        <ele>745.64</ele>
        <time>2014-06-02T06:51:39Z</time>
      </trkpt>
      <trkpt lat="42.42325" lon="0.18809">
        <ele>749</ele>
        <time>2014-06-02T06:51:53Z</time>
      </trkpt>
      <trkpt lat="42.42326" lon="0.18813">
        <ele>749.49</ele>
        <time>2014-06-02T06:51:55Z</time>
      </trkpt>
      <trkpt lat="42.42337" lon="0.18831">
        <ele>750.45</ele>
        <time>2014-06-02T06:52:06Z</time>
      </trkpt>
      <trkpt lat="42.42339" lon="0.18838">
        <ele>751.89</ele>
        <time>2014-06-02T06:52:10Z</time>
      </trkpt>
      <trkpt lat="42.42343" lon="0.18848">
        <ele>747.56</ele>
        <time>2014-06-02T06:52:15Z</time>
      </trkpt>
      <trkpt lat="42.42343" lon="0.1885">
        <ele>753.33</ele>
        <time>2014-06-02T06:52:16Z</time>
      </trkpt>
      <trkpt lat="42.42344" lon="0.18852">
        <ele>753.33</ele>
        <time>2014-06-02T06:52:17Z</time>
      </trkpt>
      <trkpt lat="42.42351" lon="0.18864">
        <ele>754.77</ele>
        <time>2014-06-02T06:52:24Z</time>
      </trkpt>
      <trkpt lat="42.4235" lon="0.18873">
        <ele>755.73</ele>
        <time>2014-06-02T06:52:27Z</time>
      </trkpt>
      <trkpt lat="42.42345" lon="0.18881">
        <ele>757.18</ele>
        <time>2014-06-02T06:52:31Z</time>
      </trkpt>
      <trkpt lat="42.4232" lon="0.18885">
        <ele>760.54</ele>
        <time>2014-06-02T06:52:45Z</time>
      </trkpt>
      <trkpt lat="42.423" lon="0.18893">
        <ele>762.46</ele>
        <time>2014-06-02T06:52:57Z</time>
      </trkpt>
      <trkpt lat="42.42294" lon="0.18903">
        <ele>763.9</ele>
        <time>2014-06-02T06:53:02Z</time>
      </trkpt>
      <trkpt lat="42.423" lon="0.18933">
        <ele>767.27</ele>
        <time>2014-06-02T06:53:15Z</time>
      </trkpt>
      <trkpt lat="42.42316" lon="0.18952">
        <ele>770.15</ele>
        <time>2014-06-02T06:53:27Z</time>
      </trkpt>
      <trkpt lat="42.42335" lon="0.18969">
        <ele>773.52</ele>
        <time>2014-06-02T06:53:40Z</time>
      </trkpt>
      <trkpt lat="42.42354" lon="0.18993">
        <ele>775.44</ele>
        <time>2014-06-02T06:53:54Z</time>
      </trkpt>
      <trkpt lat="42.42373" lon="0.19019">
        <ele>777.36</ele>
        <time>2014-06-02T06:54:08Z</time>
      </trkpt>
      <trkpt lat="42.42396" lon="0.19047">
        <ele>778.81</ele>
        <time>2014-06-02T06:54:23Z</time>
      </trkpt>
      <trkpt lat="42.42413" lon="0.19088">
        <ele>779.77</ele>
        <time>2014-06-02T06:54:38Z</time>
      </trkpt>
      <trkpt lat="42.42418" lon="0.19112">
        <ele>779.77</ele>
        <time>2014-06-02T06:54:45Z</time>
      </trkpt>
      <trkpt lat="42.42399" lon="0.19133">
        <ele>782.65</ele>
        <time>2014-06-02T06:54:56Z</time>
      </trkpt>
      <trkpt lat="42.42372" lon="0.19151">
        <ele>783.61</ele>
        <time>2014-06-02T06:55:08Z</time>
      </trkpt>
      <trkpt lat="42.42336" lon="0.19169">
        <ele>785.05</ele>
        <time>2014-06-02T06:55:21Z</time>
      </trkpt>
      <trkpt lat="42.42308" lon="0.19188">
        <ele>787.94</ele>
        <time>2014-06-02T06:55:33Z</time>
      </trkpt>
      <trkpt lat="42.42298" lon="0.19224">
        <ele>791.3</ele>
        <time>2014-06-02T06:55:45Z</time>
      </trkpt>
      <trkpt lat="42.42291" lon="0.19282">
        <ele>792.26</ele>
        <time>2014-06-02T06:56:00Z</time>
      </trkpt>
      <trkpt lat="42.4229" lon="0.19298">
        <ele>791.78</ele>
        <time>2014-06-02T06:56:09Z</time>
      </trkpt>
      <trkpt lat="42.4229" lon="0.19299">
        <ele>792.26</ele>
        <time>2014-06-02T06:56:10Z</time>
      </trkpt>
      <trkpt lat="42.42285" lon="0.19306">
        <ele>792.26</ele>
        <time>2014-06-02T06:56:18Z</time>
      </trkpt>
      <trkpt lat="42.42272" lon="0.19301">
        <ele>792.26</ele>
        <time>2014-06-02T06:56:25Z</time>
      </trkpt>
      <trkpt lat="42.42244" lon="0.19272">
        <ele>793.71</ele>
        <time>2014-06-02T06:56:38Z</time>
      </trkpt>
      <trkpt lat="42.42208" lon="0.19275">
        <ele>795.15</ele>
        <time>2014-06-02T06:56:51Z</time>
      </trkpt>
      <trkpt lat="42.42183" lon="0.19285">
        <ele>798.51</ele>
        <time>2014-06-02T06:57:02Z</time>
      </trkpt>
      <trkpt lat="42.42175" lon="0.19292">
        <ele>799.47</ele>
        <time>2014-06-02T06:57:07Z</time>
      </trkpt>
      <trkpt lat="42.42169" lon="0.19294">
        <ele>800.92</ele>
        <time>2014-06-02T06:57:10Z</time>
      </trkpt>
      <trkpt lat="42.42142" lon="0.19291">
        <ele>803.8</ele>
        <time>2014-06-02T06:57:23Z</time>
      </trkpt>
      <trkpt lat="42.4212" lon="0.19295">
        <ele>805.72</ele>
        <time>2014-06-02T06:57:34Z</time>
      </trkpt>
      <trkpt lat="42.42092" lon="0.193">
        <ele>807.16</ele>
        <time>2014-06-02T06:57:47Z</time>
      </trkpt>
      <trkpt lat="42.42082" lon="0.19303">
        <ele>806.68</ele>
        <time>2014-06-02T06:57:52Z</time>
      </trkpt>
      <trkpt lat="42.42076" lon="0.19323">
        <ele>806.2</ele>
        <time>2014-06-02T06:57:58Z</time>
      </trkpt>
      <trkpt lat="42.42079" lon="0.19352">
        <ele>804.28</ele>
        <time>2014-06-02T06:58:03Z</time>
      </trkpt>
      <trkpt lat="42.42077" lon="0.19386">
        <ele>802.84</ele>
        <time>2014-06-02T06:58:08Z</time>
      </trkpt>
      <trkpt lat="42.42078" lon="0.19402">
        <ele>802.36</ele>
        <time>2014-06-02T06:58:10Z</time>
      </trkpt>
      <trkpt lat="42.42087" lon="0.19427">
        <ele>801.88</ele>
        <time>2014-06-02T06:58:17Z</time>
      </trkpt>
      <trkpt lat="42.42097" lon="0.19453">
        <ele>801.4</ele>
        <time>2014-06-02T06:58:25Z</time>
      </trkpt>
      <trkpt lat="42.42097" lon="0.19458">
        <ele>801.4</ele>
        <time>2014-06-02T06:58:26Z</time>
      </trkpt>
      <trkpt lat="42.42097" lon="0.19468">
        <ele>800.92</ele>
        <time>2014-06-02T06:58:28Z</time>
      </trkpt>
      <trkpt lat="42.42101" lon="0.19485">
        <ele>800.92</ele>
        <time>2014-06-02T06:58:31Z</time>
      </trkpt>
      <trkpt lat="42.4211" lon="0.1951">
        <ele>798.99</ele>
        <time>2014-06-02T06:58:36Z</time>
      </trkpt>
      <trkpt lat="42.42106" lon="0.19535">
        <ele>799.47</ele>
        <time>2014-06-02T06:58:48Z</time>
      </trkpt>
      <trkpt lat="42.42105" lon="0.19537">
        <ele>799.47</ele>
        <time>2014-06-02T06:58:49Z</time>
      </trkpt>
      <trkpt lat="42.42084" lon="0.19529">
        <ele>803.32</ele>
        <time>2014-06-02T06:58:59Z</time>
      </trkpt>
      <trkpt lat="42.4206" lon="0.19503">
        <ele>805.24</ele>
        <time>2014-06-02T06:59:13Z</time>
      </trkpt>
      <trkpt lat="42.42034" lon="0.19491">
        <ele>808.13</ele>
        <time>2014-06-02T06:59:25Z</time>
      </trkpt>
      <trkpt lat="42.42013" lon="0.19469">
        <ele>810.53</ele>
        <time>2014-06-02T06:59:36Z</time>
      </trkpt>
      <trkpt lat="42.41986" lon="0.19454">
        <ele>811.97</ele>
        <time>2014-06-02T06:59:48Z</time>
      </trkpt>
      <trkpt lat="42.41959" lon="0.19442">
        <ele>812.45</ele>
        <time>2014-06-02T06:59:58Z</time>
      </trkpt>
      <trkpt lat="42.41927" lon="0.19428">
        <ele>813.41</ele>
        <time>2014-06-02T07:00:09Z</time>
      </trkpt>
      <trkpt lat="42.41895" lon="0.19409">
        <ele>816.3</ele>
        <time>2014-06-02T07:00:20Z</time>
      </trkpt>
      <trkpt lat="42.41865" lon="0.19389">
        <ele>819.18</ele>
        <time>2014-06-02T07:00:32Z</time>
      </trkpt>
      <trkpt lat="42.41842" lon="0.19374">
        <ele>822.06</ele>
        <time>2014-06-02T07:00:44Z</time>
      </trkpt>
      <trkpt lat="42.41825" lon="0.19377">
        <ele>825.43</ele>
        <time>2014-06-02T07:00:52Z</time>
      </trkpt>
      <trkpt lat="42.41818" lon="0.19382">
        <ele>826.39</ele>
        <time>2014-06-02T07:00:56Z</time>
      </trkpt>
      <trkpt lat="42.41809" lon="0.19394">
        <ele>826.39</ele>
        <time>2014-06-02T07:01:02Z</time>
      </trkpt>
      <trkpt lat="42.418" lon="0.1944">
        <ele>825.91</ele>
        <time>2014-06-02T07:01:13Z</time>
      </trkpt>
      <trkpt lat="42.4179" lon="0.19486">
        <ele>823.03</ele>
        <time>2014-06-02T07:01:20Z</time>
      </trkpt>
      <trkpt lat="42.41783" lon="0.1953">
        <ele>822.06</ele>
        <time>2014-06-02T07:01:28Z</time>
      </trkpt>
      <trkpt lat="42.41775" lon="0.19539">
        <ele>822.06</ele>
        <time>2014-06-02T07:01:31Z</time>
      </trkpt>
      <trkpt lat="42.41749" lon="0.19549">
        <ele>824.95</ele>
        <time>2014-06-02T07:01:42Z</time>
      </trkpt>
      <trkpt lat="42.41728" lon="0.1957">
        <ele>827.83</ele>
        <time>2014-06-02T07:01:53Z</time>
      </trkpt>
      <trkpt lat="42.41715" lon="0.19585">
        <ele>830.24</ele>
        <time>2014-06-02T07:02:02Z</time>
      </trkpt>
      <trkpt lat="42.41695" lon="0.19614">
        <ele>833.6</ele>
        <time>2014-06-02T07:02:17Z</time>
      </trkpt>
      <trkpt lat="42.4169" lon="0.19621">
        <ele>835.04</ele>
        <time>2014-06-02T07:02:21Z</time>
      </trkpt>
      <trkpt lat="42.41672" lon="0.19643">
        <ele>837.45</ele>
        <time>2014-06-02T07:02:34Z</time>
      </trkpt>
      <trkpt lat="42.4167" lon="0.19647">
        <ele>837.93</ele>
        <time>2014-06-02T07:02:36Z</time>
      </trkpt>
      <trkpt lat="42.41659" lon="0.19658">
        <ele>838.89</ele>
        <time>2014-06-02T07:02:43Z</time>
      </trkpt>
      <trkpt lat="42.4164" lon="0.19676">
        <ele>842.25</ele>
        <time>2014-06-02T07:02:56Z</time>
      </trkpt>
      <trkpt lat="42.41631" lon="0.19699">
        <ele>845.14</ele>
        <time>2014-06-02T07:03:09Z</time>
      </trkpt>
      <trkpt lat="42.4164" lon="0.19702">
        <ele>846.1</ele>
        <time>2014-06-02T07:03:14Z</time>
      </trkpt>
      <trkpt lat="42.41668" lon="0.19684">
        <ele>847.06</ele>
        <time>2014-06-02T07:03:26Z</time>
      </trkpt>
      <trkpt lat="42.41697" lon="0.19666">
        <ele>849.46</ele>
        <time>2014-06-02T07:03:39Z</time>
      </trkpt>
      <trkpt lat="42.417" lon="0.19665">
        <ele>850.42</ele>
        <time>2014-06-02T07:03:41Z</time>
      </trkpt>
      <trkpt lat="42.41718" lon="0.19657">
        <ele>851.87</ele>
        <time>2014-06-02T07:03:52Z</time>
      </trkpt>
      <trkpt lat="42.41742" lon="0.19641">
        <ele>854.75</ele>
        <time>2014-06-02T07:04:05Z</time>
      </trkpt>
      <trkpt lat="42.41747" lon="0.1964">
        <ele>856.19</ele>
        <time>2014-06-02T07:04:08Z</time>
      </trkpt>
      <trkpt lat="42.41747" lon="0.19652">
        <ele>858.11</ele>
        <time>2014-06-02T07:04:15Z</time>
      </trkpt>
      <trkpt lat="42.41739" lon="0.19662">
        <ele>860.04</ele>
        <time>2014-06-02T07:04:27Z</time>
      </trkpt>
      <trkpt lat="42.41739" lon="0.19662">
        <ele>860.52</ele>
        <time>2014-06-02T07:04:59Z</time>
      </trkpt>
      <trkpt lat="42.41739" lon="0.19662">
        <ele>860.04</ele>
        <time>2014-06-02T07:05:27Z</time>
      </trkpt>
      <trkpt lat="42.41739" lon="0.19663">
        <ele>860.04</ele>
        <time>2014-06-02T07:06:01Z</time>
      </trkpt>
      <trkpt lat="42.41738" lon="0.19663">
        <ele>860.04</ele>
        <time>2014-06-02T07:06:39Z</time>
      </trkpt>
      <trkpt lat="42.41727" lon="0.19673">
        <ele>860.04</ele>
        <time>2014-06-02T07:06:50Z</time>
      </trkpt>
      <trkpt lat="42.41705" lon="0.197">
        <ele>863.88</ele>
        <time>2014-06-02T07:07:03Z</time>
      </trkpt>
      <trkpt lat="42.41689" lon="0.19723">
        <ele>867.25</ele>
        <time>2014-06-02T07:07:14Z</time>
      </trkpt>
      <trkpt lat="42.41687" lon="0.19725">
        <ele>867.73</ele>
        <time>2014-06-02T07:07:15Z</time>
      </trkpt>
      <trkpt lat="42.4167" lon="0.19744">
        <ele>871.09</ele>
        <time>2014-06-02T07:07:25Z</time>
      </trkpt>
      <trkpt lat="42.41656" lon="0.19762">
        <ele>873.98</ele>
        <time>2014-06-02T07:07:35Z</time>
      </trkpt>
      <trkpt lat="42.41637" lon="0.19781">
        <ele>876.86</ele>
        <time>2014-06-02T07:07:47Z</time>
      </trkpt>
      <trkpt lat="42.41621" lon="0.19795">
        <ele>877.82</ele>
        <time>2014-06-02T07:07:56Z</time>
      </trkpt>
      <trkpt lat="42.416" lon="0.19812">
        <ele>878.78</ele>
        <time>2014-06-02T07:08:08Z</time>
      </trkpt>
      <trkpt lat="42.41594" lon="0.19819">
        <ele>879.74</ele>
        <time>2014-06-02T07:08:12Z</time>
      </trkpt>
      <trkpt lat="42.41584" lon="0.19826">
        <ele>881.19</ele>
        <time>2014-06-02T07:08:17Z</time>
      </trkpt>
      <trkpt lat="42.41561" lon="0.19846">
        <ele>882.15</ele>
        <time>2014-06-02T07:08:28Z</time>
      </trkpt>
      <trkpt lat="42.41533" lon="0.19871">
        <ele>884.07</ele>
        <time>2014-06-02T07:08:40Z</time>
      </trkpt>
      <trkpt lat="42.41506" lon="0.19896">
        <ele>886.95</ele>
        <time>2014-06-02T07:08:53Z</time>
      </trkpt>
      <trkpt lat="42.41495" lon="0.19915">
        <ele>888.88</ele>
        <time>2014-06-02T07:09:01Z</time>
      </trkpt>
      <trkpt lat="42.41489" lon="0.19925">
        <ele>885.51</ele>
        <time>2014-06-02T07:09:06Z</time>
      </trkpt>
      <trkpt lat="42.41488" lon="0.19927">
        <ele>889.36</ele>
        <time>2014-06-02T07:09:07Z</time>
      </trkpt>
      <trkpt lat="42.41486" lon="0.19934">
        <ele>887.91</ele>
        <time>2014-06-02T07:09:18Z</time>
      </trkpt>
      <trkpt lat="42.41486" lon="0.19934">
        <ele>890.32</ele>
        <time>2014-06-02T07:09:20Z</time>
      </trkpt>
      <trkpt lat="42.41486" lon="0.19934">
        <ele>888.88</ele>
        <time>2014-06-02T07:09:53Z</time>
      </trkpt>
      <trkpt lat="42.41486" lon="0.19934">
        <ele>888.88</ele>
        <time>2014-06-02T07:10:21Z</time>
      </trkpt>
      <trkpt lat="42.41483" lon="0.19938">
        <ele>888.4</ele>
        <time>2014-06-02T07:10:27Z</time>
      </trkpt>
      <trkpt lat="42.4146" lon="0.19979">
        <ele>885.51</ele>
        <time>2014-06-02T07:10:35Z</time>
      </trkpt>
      <trkpt lat="42.41446" lon="0.20005">
        <ele>883.59</ele>
        <time>2014-06-02T07:10:39Z</time>
      </trkpt>
      <trkpt lat="42.41438" lon="0.20035">
        <ele>879.26</ele>
        <time>2014-06-02T07:10:44Z</time>
      </trkpt>
      <trkpt lat="42.41432" lon="0.20064">
        <ele>876.86</ele>
        <time>2014-06-02T07:10:47Z</time>
      </trkpt>
      <trkpt lat="42.41423" lon="0.20092">
        <ele>873.98</ele>
        <time>2014-06-02T07:10:50Z</time>
      </trkpt>
      <trkpt lat="42.41411" lon="0.2012">
        <ele>870.61</ele>
        <time>2014-06-02T07:10:53Z</time>
      </trkpt>
      <trkpt lat="42.41409" lon="0.20125">
        <ele>870.13</ele>
        <time>2014-06-02T07:10:54Z</time>
      </trkpt>
      <trkpt lat="42.41405" lon="0.20149">
        <ele>867.73</ele>
        <time>2014-06-02T07:10:56Z</time>
      </trkpt>
      <trkpt lat="42.41403" lon="0.20165">
        <ele>865.32</ele>
        <time>2014-06-02T07:10:58Z</time>
      </trkpt>
      <trkpt lat="42.41394" lon="0.20213">
        <ele>860.52</ele>
        <time>2014-06-02T07:11:03Z</time>
      </trkpt>
      <trkpt lat="42.41387" lon="0.20246">
        <ele>857.15</ele>
        <time>2014-06-02T07:11:07Z</time>
      </trkpt>
      <trkpt lat="42.41384" lon="0.20254">
        <ele>855.71</ele>
        <time>2014-06-02T07:11:08Z</time>
      </trkpt>
      <trkpt lat="42.41381" lon="0.20263">
        <ele>855.71</ele>
        <time>2014-06-02T07:11:09Z</time>
      </trkpt>
      <trkpt lat="42.41375" lon="0.20302">
        <ele>851.87</ele>
        <time>2014-06-02T07:11:14Z</time>
      </trkpt>
      <trkpt lat="42.41371" lon="0.20325">
        <ele>848.5</ele>
        <time>2014-06-02T07:11:17Z</time>
      </trkpt>
      <trkpt lat="42.41361" lon="0.20347">
        <ele>845.14</ele>
        <time>2014-06-02T07:11:20Z</time>
      </trkpt>
      <trkpt lat="42.41345" lon="0.20383">
        <ele>839.37</ele>
        <time>2014-06-02T07:11:25Z</time>
      </trkpt>
      <trkpt lat="42.41336" lon="0.20408">
        <ele>835.52</ele>
        <time>2014-06-02T07:11:29Z</time>
      </trkpt>
      <trkpt lat="42.41332" lon="0.20433">
        <ele>831.68</ele>
        <time>2014-06-02T07:11:33Z</time>
      </trkpt>
      <trkpt lat="42.41323" lon="0.20448">
        <ele>828.31</ele>
        <time>2014-06-02T07:11:37Z</time>
      </trkpt>
      <trkpt lat="42.41304" lon="0.20491">
        <ele>823.51</ele>
        <time>2014-06-02T07:11:43Z</time>
      </trkpt>
      <trkpt lat="42.41289" lon="0.20539">
        <ele>819.18</ele>
        <time>2014-06-02T07:11:48Z</time>
      </trkpt>
      <trkpt lat="42.41287" lon="0.20548">
        <ele>818.22</ele>
        <time>2014-06-02T07:11:49Z</time>
      </trkpt>
      <trkpt lat="42.41272" lon="0.20589">
        <ele>813.41</ele>
        <time>2014-06-02T07:11:54Z</time>
      </trkpt>
      <trkpt lat="42.41251" lon="0.20626">
        <ele>809.09</ele>
        <time>2014-06-02T07:12:00Z</time>
      </trkpt>
      <trkpt lat="42.41244" lon="0.20639">
        <ele>807.64</ele>
        <time>2014-06-02T07:12:02Z</time>
      </trkpt>
      <trkpt lat="42.41232" lon="0.20659">
        <ele>807.16</ele>
        <time>2014-06-02T07:12:05Z</time>
      </trkpt>
      <trkpt lat="42.41221" lon="0.20683">
        <ele>806.68</ele>
        <time>2014-06-02T07:12:09Z</time>
      </trkpt>
      <trkpt lat="42.41207" lon="0.20714">
        <ele>806.68</ele>
        <time>2014-06-02T07:12:19Z</time>
      </trkpt>
      <trkpt lat="42.41207" lon="0.20714">
        <ele>806.2</ele>
        <time>2014-06-02T07:12:36Z</time>
      </trkpt>
      <trkpt lat="42.41207" lon="0.20715">
        <ele>806.68</ele>
        <time>2014-06-02T07:12:55Z</time>
      </trkpt>
      <trkpt lat="42.41207" lon="0.20715">
        <ele>806.68</ele>
        <time>2014-06-02T07:13:13Z</time>
      </trkpt>
      <trkpt lat="42.41203" lon="0.20723">
        <ele>806.2</ele>
        <time>2014-06-02T07:13:32Z</time>
      </trkpt>
      <trkpt lat="42.41197" lon="0.20733">
        <ele>804.76</ele>
        <time>2014-06-02T07:13:35Z</time>
      </trkpt>
      <trkpt lat="42.41188" lon="0.20761">
        <ele>801.88</ele>
        <time>2014-06-02T07:13:39Z</time>
      </trkpt>
      <trkpt lat="42.41167" lon="0.20798">
        <ele>797.07</ele>
        <time>2014-06-02T07:13:44Z</time>
      </trkpt>
      <trkpt lat="42.41163" lon="0.20805">
        <ele>796.11</ele>
        <time>2014-06-02T07:13:45Z</time>
      </trkpt>
      <trkpt lat="42.41156" lon="0.20822">
        <ele>794.67</ele>
        <time>2014-06-02T07:13:47Z</time>
      </trkpt>
      <trkpt lat="42.41137" lon="0.20845">
        <ele>790.82</ele>
        <time>2014-06-02T07:13:51Z</time>
      </trkpt>
      <trkpt lat="42.41133" lon="0.20852">
        <ele>789.86</ele>
        <time>2014-06-02T07:13:52Z</time>
      </trkpt>
      <trkpt lat="42.41126" lon="0.20867">
        <ele>788.42</ele>
        <time>2014-06-02T07:13:54Z</time>
      </trkpt>
      <trkpt lat="42.41108" lon="0.20898">
        <ele>784.09</ele>
        <time>2014-06-02T07:13:58Z</time>
      </trkpt>
      <trkpt lat="42.41103" lon="0.20905">
        <ele>782.65</ele>
        <time>2014-06-02T07:13:59Z</time>
      </trkpt>
      <trkpt lat="42.41095" lon="0.20915">
        <ele>780.73</ele>
        <time>2014-06-02T07:14:01Z</time>
      </trkpt>
      <trkpt lat="42.41084" lon="0.20938">
        <ele>776.4</ele>
        <time>2014-06-02T07:14:05Z</time>
      </trkpt>
      <trkpt lat="42.41073" lon="0.2095">
        <ele>773.04</ele>
        <time>2014-06-02T07:14:08Z</time>
      </trkpt>
      <trkpt lat="42.41063" lon="0.20967">
        <ele>770.15</ele>
        <time>2014-06-02T07:14:12Z</time>
      </trkpt>
      <trkpt lat="42.41053" lon="0.20991">
        <ele>766.31</ele>
        <time>2014-06-02T07:14:16Z</time>
      </trkpt>
      <trkpt lat="42.4105" lon="0.20998">
        <ele>765.83</ele>
        <time>2014-06-02T07:14:17Z</time>
      </trkpt>
      <trkpt lat="42.41048" lon="0.21005">
        <ele>765.83</ele>
        <time>2014-06-02T07:14:26Z</time>
      </trkpt>
      <trkpt lat="42.41047" lon="0.21006">
        <ele>765.83</ele>
        <time>2014-06-02T07:14:38Z</time>
      </trkpt>
      <trkpt lat="42.41047" lon="0.21008">
        <ele>766.31</ele>
        <time>2014-06-02T07:15:00Z</time>
      </trkpt>
      <trkpt lat="42.41046" lon="0.21009">
        <ele>765.83</ele>
        <time>2014-06-02T07:15:30Z</time>
      </trkpt>
      <trkpt lat="42.41046" lon="0.21009">
        <ele>765.35</ele>
        <time>2014-06-02T07:15:54Z</time>
      </trkpt>
      <trkpt lat="42.41047" lon="0.21009">
        <ele>765.35</ele>
        <time>2014-06-02T07:16:21Z</time>
      </trkpt>
      <trkpt lat="42.41047" lon="0.21009">
        <ele>765.35</ele>
        <time>2014-06-02T07:16:43Z</time>
      </trkpt>
      <trkpt lat="42.41047" lon="0.21009">
        <ele>765.35</ele>
        <time>2014-06-02T07:17:11Z</time>
      </trkpt>
      <trkpt lat="42.41047" lon="0.21008">
        <ele>764.87</ele>
        <time>2014-06-02T07:17:28Z</time>
      </trkpt>
      <trkpt lat="42.41047" lon="0.21008">
        <ele>764.39</ele>
        <time>2014-06-02T07:17:58Z</time>
      </trkpt>
      <trkpt lat="42.41047" lon="0.21008">
        <ele>764.39</ele>
        <time>2014-06-02T07:18:25Z</time>
      </trkpt>
      <trkpt lat="42.41047" lon="0.21008">
        <ele>764.39</ele>
        <time>2014-06-02T07:18:58Z</time>
      </trkpt>
      <trkpt lat="42.41046" lon="0.21007">
        <ele>764.39</ele>
        <time>2014-06-02T07:19:28Z</time>
      </trkpt>
      <trkpt lat="42.41046" lon="0.21007">
        <ele>764.87</ele>
        <time>2014-06-02T07:20:05Z</time>
      </trkpt>
      <trkpt lat="42.41046" lon="0.21006">
        <ele>763.9</ele>
        <time>2014-06-02T07:20:53Z</time>
      </trkpt>
      <trkpt lat="42.41046" lon="0.21007">
        <ele>764.39</ele>
        <time>2014-06-02T07:21:34Z</time>
      </trkpt>
      <trkpt lat="42.41046" lon="0.21006">
        <ele>764.87</ele>
        <time>2014-06-02T07:22:18Z</time>
      </trkpt>
      <trkpt lat="42.41046" lon="0.21007">
        <ele>764.87</ele>
        <time>2014-06-02T07:22:52Z</time>
      </trkpt>
      <trkpt lat="42.41046" lon="0.21007">
        <ele>764.39</ele>
        <time>2014-06-02T07:23:33Z</time>
      </trkpt>
      <trkpt lat="42.41046" lon="0.21007">
        <ele>764.39</ele>
        <time>2014-06-02T07:24:05Z</time>
      </trkpt>
      <trkpt lat="42.41046" lon="0.21007">
        <ele>764.39</ele>
        <time>2014-06-02T07:24:38Z</time>
      </trkpt>
      <trkpt lat="42.41046" lon="0.21007">
        <ele>764.87</ele>
        <time>2014-06-02T07:25:21Z</time>
      </trkpt>
      <trkpt lat="42.41045" lon="0.21008">
        <ele>764.39</ele>
        <time>2014-06-02T07:26:02Z</time>
      </trkpt>
      <trkpt lat="42.41045" lon="0.21008">
        <ele>764.39</ele>
        <time>2014-06-02T07:26:41Z</time>
      </trkpt>
      <trkpt lat="42.41042" lon="0.2101">
        <ele>765.35</ele>
        <time>2014-06-02T07:26:53Z</time>
      </trkpt>
      <trkpt lat="42.41042" lon="0.21009">
        <ele>765.35</ele>
        <time>2014-06-02T07:27:04Z</time>
      </trkpt>
      <trkpt lat="42.41035" lon="0.21016">
        <ele>762.46</ele>
        <time>2014-06-02T07:27:07Z</time>
      </trkpt>
      <trkpt lat="42.41026" lon="0.21032">
        <ele>760.54</ele>
        <time>2014-06-02T07:27:10Z</time>
      </trkpt>
      <trkpt lat="42.41016" lon="0.21058">
        <ele>755.73</ele>
        <time>2014-06-02T07:27:14Z</time>
      </trkpt>
      <trkpt lat="42.41007" lon="0.21077">
        <ele>753.33</ele>
        <time>2014-06-02T07:27:18Z</time>
      </trkpt>
      <trkpt lat="42.40991" lon="0.21101">
        <ele>749</ele>
        <time>2014-06-02T07:27:22Z</time>
      </trkpt>
      <trkpt lat="42.40966" lon="0.21141">
        <ele>743.72</ele>
        <time>2014-06-02T07:27:28Z</time>
      </trkpt>
      <trkpt lat="42.4095" lon="0.21165">
        <ele>739.39</ele>
        <time>2014-06-02T07:27:32Z</time>
      </trkpt>
      <trkpt lat="42.40925" lon="0.212">
        <ele>734.1</ele>
        <time>2014-06-02T07:27:38Z</time>
      </trkpt>
      <trkpt lat="42.40907" lon="0.21222">
        <ele>731.22</ele>
        <time>2014-06-02T07:27:42Z</time>
      </trkpt>
      <trkpt lat="42.40895" lon="0.21239">
        <ele>728.34</ele>
        <time>2014-06-02T07:27:45Z</time>
      </trkpt>
      <trkpt lat="42.40888" lon="0.2127">
        <ele>724.49</ele>
        <time>2014-06-02T07:27:50Z</time>
      </trkpt>
      <trkpt lat="42.40886" lon="0.21276">
        <ele>723.05</ele>
        <time>2014-06-02T07:27:51Z</time>
      </trkpt>
      <trkpt lat="42.40872" lon="0.21297">
        <ele>718.24</ele>
        <time>2014-06-02T07:27:55Z</time>
      </trkpt>
      <trkpt lat="42.40868" lon="0.21302">
        <ele>717.28</ele>
        <time>2014-06-02T07:27:56Z</time>
      </trkpt>
      <trkpt lat="42.40855" lon="0.21325">
        <ele>712.47</ele>
        <time>2014-06-02T07:28:00Z</time>
      </trkpt>
      <trkpt lat="42.40847" lon="0.21336">
        <ele>710.55</ele>
        <time>2014-06-02T07:28:02Z</time>
      </trkpt>
      <trkpt lat="42.40826" lon="0.21365">
        <ele>706.71</ele>
        <time>2014-06-02T07:28:07Z</time>
      </trkpt>
      <trkpt lat="42.4082" lon="0.21369">
        <ele>706.23</ele>
        <time>2014-06-02T07:28:08Z</time>
      </trkpt>
      <trkpt lat="42.40806" lon="0.21392">
        <ele>702.38</ele>
        <time>2014-06-02T07:28:12Z</time>
      </trkpt>
      <trkpt lat="42.40797" lon="0.21403">
        <ele>700.94</ele>
        <time>2014-06-02T07:28:14Z</time>
      </trkpt>
      <trkpt lat="42.40794" lon="0.21409">
        <ele>700.46</ele>
        <time>2014-06-02T07:28:15Z</time>
      </trkpt>
      <trkpt lat="42.40782" lon="0.21425">
        <ele>698.05</ele>
        <time>2014-06-02T07:28:18Z</time>
      </trkpt>
      <trkpt lat="42.40769" lon="0.21443">
        <ele>695.65</ele>
        <time>2014-06-02T07:28:21Z</time>
      </trkpt>
      <trkpt lat="42.4075" lon="0.21456">
        <ele>693.73</ele>
        <time>2014-06-02T07:28:24Z</time>
      </trkpt>
      <trkpt lat="42.40729" lon="0.21473">
        <ele>692.29</ele>
        <time>2014-06-02T07:28:28Z</time>
      </trkpt>
      <trkpt lat="42.40714" lon="0.21486">
        <ele>690.36</ele>
        <time>2014-06-02T07:28:31Z</time>
      </trkpt>
      <trkpt lat="42.40707" lon="0.21496">
        <ele>689.88</ele>
        <time>2014-06-02T07:28:33Z</time>
      </trkpt>
      <trkpt lat="42.40694" lon="0.2151">
        <ele>686.52</ele>
        <time>2014-06-02T07:28:36Z</time>
      </trkpt>
      <trkpt lat="42.40685" lon="0.2152">
        <ele>684.6</ele>
        <time>2014-06-02T07:28:38Z</time>
      </trkpt>
      <trkpt lat="42.40677" lon="0.21531">
        <ele>682.19</ele>
        <time>2014-06-02T07:28:40Z</time>
      </trkpt>
      <trkpt lat="42.40657" lon="0.21556">
        <ele>677.87</ele>
        <time>2014-06-02T07:28:45Z</time>
      </trkpt>
      <trkpt lat="42.40647" lon="0.21571">
        <ele>674.98</ele>
        <time>2014-06-02T07:28:48Z</time>
      </trkpt>
      <trkpt lat="42.40635" lon="0.21573">
        <ele>671.62</ele>
        <time>2014-06-02T07:28:52Z</time>
      </trkpt>
      <trkpt lat="42.40632" lon="0.21573">
        <ele>670.66</ele>
        <time>2014-06-02T07:28:53Z</time>
      </trkpt>
      <trkpt lat="42.40619" lon="0.21589">
        <ele>666.33</ele>
        <time>2014-06-02T07:28:57Z</time>
      </trkpt>
      <trkpt lat="42.40614" lon="0.21606">
        <ele>662.97</ele>
        <time>2014-06-02T07:29:00Z</time>
      </trkpt>
      <trkpt lat="42.40612" lon="0.21616">
        <ele>659.6</ele>
        <time>2014-06-02T07:29:02Z</time>
      </trkpt>
      <trkpt lat="42.40604" lon="0.2163">
        <ele>656.72</ele>
        <time>2014-06-02T07:29:06Z</time>
      </trkpt>
      <trkpt lat="42.40604" lon="0.2164">
        <ele>653.83</ele>
        <time>2014-06-02T07:29:09Z</time>
      </trkpt>
      <trkpt lat="42.40596" lon="0.21657">
        <ele>649.51</ele>
        <time>2014-06-02T07:29:13Z</time>
      </trkpt>
      <trkpt lat="42.40589" lon="0.21672">
        <ele>646.14</ele>
        <time>2014-06-02T07:29:16Z</time>
      </trkpt>
      <trkpt lat="42.40584" lon="0.2168">
        <ele>644.7</ele>
        <time>2014-06-02T07:29:18Z</time>
      </trkpt>
      <trkpt lat="42.40569" lon="0.21704">
        <ele>639.89</ele>
        <time>2014-06-02T07:29:23Z</time>
      </trkpt>
      <trkpt lat="42.40562" lon="0.21716">
        <ele>638.93</ele>
        <time>2014-06-02T07:29:25Z</time>
      </trkpt>
      <trkpt lat="42.40554" lon="0.21725">
        <ele>637.01</ele>
        <time>2014-06-02T07:29:27Z</time>
      </trkpt>
      <trkpt lat="42.40533" lon="0.21732">
        <ele>633.65</ele>
        <time>2014-06-02T07:29:31Z</time>
      </trkpt>
      <trkpt lat="42.40522" lon="0.2173">
        <ele>631.72</ele>
        <time>2014-06-02T07:29:33Z</time>
      </trkpt>
      <trkpt lat="42.40495" lon="0.21717">
        <ele>628.36</ele>
        <time>2014-06-02T07:29:38Z</time>
      </trkpt>
      <trkpt lat="42.4049" lon="0.21714">
        <ele>626.92</ele>
        <time>2014-06-02T07:29:39Z</time>
      </trkpt>
      <trkpt lat="42.40467" lon="0.21699">
        <ele>620.67</ele>
        <time>2014-06-02T07:29:43Z</time>
      </trkpt>
      <trkpt lat="42.40446" lon="0.2169">
        <ele>614.9</ele>
        <time>2014-06-02T07:29:46Z</time>
      </trkpt>
      <trkpt lat="42.40423" lon="0.21684">
        <ele>608.65</ele>
        <time>2014-06-02T07:29:49Z</time>
      </trkpt>
      <trkpt lat="42.4039" lon="0.21668">
        <ele>603.36</ele>
        <time>2014-06-02T07:29:53Z</time>
      </trkpt>
      <trkpt lat="42.40374" lon="0.21673">
        <ele>602.4</ele>
        <time>2014-06-02T07:30:00Z</time>
      </trkpt>
      <trkpt lat="42.40374" lon="0.21675">
        <ele>602.88</ele>
        <time>2014-06-02T07:30:01Z</time>
      </trkpt>
      <trkpt lat="42.40373" lon="0.21682">
        <ele>602.4</ele>
        <time>2014-06-02T07:30:04Z</time>
      </trkpt>
      <trkpt lat="42.40372" lon="0.21707">
        <ele>602.4</ele>
        <time>2014-06-02T07:30:16Z</time>
      </trkpt>
      <trkpt lat="42.40372" lon="0.21707">
        <ele>601.92</ele>
        <time>2014-06-02T07:30:32Z</time>
      </trkpt>
      <trkpt lat="42.40372" lon="0.21707">
        <ele>602.4</ele>
        <time>2014-06-02T07:30:49Z</time>
      </trkpt>
      <trkpt lat="42.40372" lon="0.21707">
        <ele>602.88</ele>
        <time>2014-06-02T07:31:12Z</time>
      </trkpt>
      <trkpt lat="42.40372" lon="0.21707">
        <ele>602.4</ele>
        <time>2014-06-02T07:31:33Z</time>
      </trkpt>
      <trkpt lat="42.40372" lon="0.21708">
        <ele>602.88</ele>
        <time>2014-06-02T07:31:56Z</time>
      </trkpt>
      <trkpt lat="42.40373" lon="0.21717">
        <ele>601.92</ele>
        <time>2014-06-02T07:32:00Z</time>
      </trkpt>
      <trkpt lat="42.40374" lon="0.21724">
        <ele>601.44</ele>
        <time>2014-06-02T07:32:04Z</time>
      </trkpt>
      <trkpt lat="42.40372" lon="0.21724">
        <ele>600.96</ele>
        <time>2014-06-02T07:32:14Z</time>
      </trkpt>
      <trkpt lat="42.40369" lon="0.21736">
        <ele>600</ele>
        <time>2014-06-02T07:32:18Z</time>
      </trkpt>
      <trkpt lat="42.40358" lon="0.21763">
        <ele>595.19</ele>
        <time>2014-06-02T07:32:22Z</time>
      </trkpt>
      <trkpt lat="42.40352" lon="0.2178">
        <ele>593.75</ele>
        <time>2014-06-02T07:32:24Z</time>
      </trkpt>
      <trkpt lat="42.40348" lon="0.21811">
        <ele>590.39</ele>
        <time>2014-06-02T07:32:30Z</time>
      </trkpt>
      <trkpt lat="42.40346" lon="0.2182">
        <ele>588.95</ele>
        <time>2014-06-02T07:32:35Z</time>
      </trkpt>
      <trkpt lat="42.40343" lon="0.21822">
        <ele>589.43</ele>
        <time>2014-06-02T07:32:43Z</time>
      </trkpt>
      <trkpt lat="42.40343" lon="0.21822">
        <ele>589.43</ele>
        <time>2014-06-02T07:33:14Z</time>
      </trkpt>
      <trkpt lat="42.40343" lon="0.21823">
        <ele>588.95</ele>
        <time>2014-06-02T07:33:52Z</time>
      </trkpt>
      <trkpt lat="42.40343" lon="0.21823">
        <ele>589.43</ele>
        <time>2014-06-02T07:34:08Z</time>
      </trkpt>
      <trkpt lat="42.40344" lon="0.21823">
        <ele>588.95</ele>
        <time>2014-06-02T07:34:46Z</time>
      </trkpt>
      <trkpt lat="42.40344" lon="0.21823">
        <ele>588.95</ele>
        <time>2014-06-02T07:35:32Z</time>
      </trkpt>
      <trkpt lat="42.40343" lon="0.21822">
        <ele>588.95</ele>
        <time>2014-06-02T07:36:11Z</time>
      </trkpt>
      <trkpt lat="42.40342" lon="0.21822">
        <ele>587.98</ele>
        <time>2014-06-02T07:36:52Z</time>
      </trkpt>
      <trkpt lat="42.40343" lon="0.21822">
        <ele>588.46</ele>
        <time>2014-06-02T07:37:30Z</time>
      </trkpt>
      <trkpt lat="42.40343" lon="0.21825">
        <ele>588.46</ele>
        <time>2014-06-02T07:37:59Z</time>
      </trkpt>
      <trkpt lat="42.40342" lon="0.2184">
        <ele>587.98</ele>
        <time>2014-06-02T07:38:07Z</time>
      </trkpt>
      <trkpt lat="42.40316" lon="0.21863">
        <ele>583.66</ele>
        <time>2014-06-02T07:38:14Z</time>
      </trkpt>
      <trkpt lat="42.40302" lon="0.21856">
        <ele>583.18</ele>
        <time>2014-06-02T07:38:18Z</time>
      </trkpt>
      <trkpt lat="42.40241" lon="0.218">
        <ele>581.73</ele>
        <time>2014-06-02T07:38:34Z</time>
      </trkpt>
      <trkpt lat="42.40174" lon="0.21747">
        <ele>578.37</ele>
        <time>2014-06-02T07:38:47Z</time>
      </trkpt>
      <trkpt lat="42.40119" lon="0.21702">
        <ele>575.01</ele>
        <time>2014-06-02T07:38:56Z</time>
      </trkpt>
      <trkpt lat="42.40038" lon="0.21613">
        <ele>572.12</ele>
        <time>2014-06-02T07:39:10Z</time>
      </trkpt>
      <trkpt lat="42.39974" lon="0.21499">
        <ele>570.68</ele>
        <time>2014-06-02T07:39:26Z</time>
      </trkpt>
      <trkpt lat="42.39924" lon="0.21363">
        <ele>567.32</ele>
        <time>2014-06-02T07:39:42Z</time>
      </trkpt>
      <trkpt lat="42.39872" lon="0.21208">
        <ele>564.43</ele>
        <time>2014-06-02T07:39:59Z</time>
      </trkpt>
      <trkpt lat="42.39824" lon="0.21059">
        <ele>561.55</ele>
        <time>2014-06-02T07:40:15Z</time>
      </trkpt>
      <trkpt lat="42.39796" lon="0.20951">
        <ele>558.18</ele>
        <time>2014-06-02T07:40:26Z</time>
      </trkpt>
      <trkpt lat="42.39773" lon="0.20833">
        <ele>555.3</ele>
        <time>2014-06-02T07:40:37Z</time>
      </trkpt>
      <trkpt lat="42.39751" lon="0.20733">
        <ele>551.45</ele>
        <time>2014-06-02T07:40:46Z</time>
      </trkpt>
      <trkpt lat="42.3971" lon="0.20601">
        <ele>548.57</ele>
        <time>2014-06-02T07:40:59Z</time>
      </trkpt>
      <trkpt lat="42.39635" lon="0.20449">
        <ele>548.09</ele>
        <time>2014-06-02T07:41:17Z</time>
      </trkpt>
      <trkpt lat="42.39555" lon="0.20292">
        <ele>545.69</ele>
        <time>2014-06-02T07:41:36Z</time>
      </trkpt>
      <trkpt lat="42.39507" lon="0.20145">
        <ele>544.72</ele>
        <time>2014-06-02T07:41:52Z</time>
      </trkpt>
      <trkpt lat="42.39478" lon="0.19992">
        <ele>543.76</ele>
        <time>2014-06-02T07:42:08Z</time>
      </trkpt>
      <trkpt lat="42.39452" lon="0.19836">
        <ele>542.8</ele>
        <time>2014-06-02T07:42:24Z</time>
      </trkpt>
      <trkpt lat="42.39456" lon="0.19707">
        <ele>542.32</ele>
        <time>2014-06-02T07:42:37Z</time>
      </trkpt>
      <trkpt lat="42.39459" lon="0.19691">
        <ele>542.8</ele>
        <time>2014-06-02T07:42:39Z</time>
      </trkpt>
      <trkpt lat="42.39454" lon="0.19685">
        <ele>543.28</ele>
        <time>2014-06-02T07:42:45Z</time>
      </trkpt>
      <trkpt lat="42.39453" lon="0.19693">
        <ele>543.76</ele>
        <time>2014-06-02T07:42:47Z</time>
      </trkpt>
      <trkpt lat="42.39449" lon="0.19688">
        <ele>541.84</ele>
        <time>2014-06-02T07:42:51Z</time>
      </trkpt>
      <trkpt lat="42.39449" lon="0.19671">
        <ele>541.84</ele>
        <time>2014-06-02T07:42:54Z</time>
      </trkpt>
      <trkpt lat="42.39448" lon="0.19654">
        <ele>539.44</ele>
        <time>2014-06-02T07:42:56Z</time>
      </trkpt>
      <trkpt lat="42.39431" lon="0.19612">
        <ele>536.55</ele>
        <time>2014-06-02T07:43:01Z</time>
      </trkpt>
      <trkpt lat="42.39421" lon="0.19597">
        <ele>536.07</ele>
        <time>2014-06-02T07:43:05Z</time>
      </trkpt>
      <trkpt lat="42.39413" lon="0.19601">
        <ele>534.63</ele>
        <time>2014-06-02T07:43:09Z</time>
      </trkpt>
      <trkpt lat="42.39406" lon="0.19606">
        <ele>534.15</ele>
        <time>2014-06-02T07:43:16Z</time>
      </trkpt>
      <trkpt lat="42.3938" lon="0.19598">
        <ele>534.63</ele>
        <time>2014-06-02T07:43:33Z</time>
      </trkpt>
      <trkpt lat="42.3937" lon="0.19592">
        <ele>534.63</ele>
        <time>2014-06-02T07:43:40Z</time>
      </trkpt>
      <trkpt lat="42.39365" lon="0.19582">
        <ele>534.63</ele>
        <time>2014-06-02T07:43:45Z</time>
      </trkpt>
      <trkpt lat="42.39346" lon="0.19543">
        <ele>535.59</ele>
        <time>2014-06-02T07:43:59Z</time>
      </trkpt>
      <trkpt lat="42.39331" lon="0.19493">
        <ele>535.59</ele>
        <time>2014-06-02T07:44:12Z</time>
      </trkpt>
      <trkpt lat="42.39327" lon="0.19483">
        <ele>535.11</ele>
        <time>2014-06-02T07:44:25Z</time>
      </trkpt>
      <trkpt lat="42.39302" lon="0.19439">
        <ele>536.55</ele>
        <time>2014-06-02T07:44:35Z</time>
      </trkpt>
      <trkpt lat="42.39287" lon="0.19408">
        <ele>536.55</ele>
        <time>2014-06-02T07:44:41Z</time>
      </trkpt>
      <trkpt lat="42.39245" lon="0.19353">
        <ele>536.07</ele>
        <time>2014-06-02T07:44:55Z</time>
      </trkpt>
      <trkpt lat="42.392" lon="0.19326">
        <ele>536.07</ele>
        <time>2014-06-02T07:45:09Z</time>
      </trkpt>
      <trkpt lat="42.39175" lon="0.19325">
        <ele>536.55</ele>
        <time>2014-06-02T07:45:16Z</time>
      </trkpt>
      <trkpt lat="42.39179" lon="0.1936">
        <ele>539.44</ele>
        <time>2014-06-02T07:45:26Z</time>
      </trkpt>
      <trkpt lat="42.39196" lon="0.19404">
        <ele>542.8</ele>
        <time>2014-06-02T07:45:39Z</time>
      </trkpt>
      <trkpt lat="42.39223" lon="0.19433">
        <ele>544.72</ele>
        <time>2014-06-02T07:45:52Z</time>
      </trkpt>
      <trkpt lat="42.39254" lon="0.19469">
        <ele>548.09</ele>
        <time>2014-06-02T07:46:08Z</time>
      </trkpt>
      <trkpt lat="42.39274" lon="0.19502">
        <ele>550.01</ele>
        <time>2014-06-02T07:46:21Z</time>
      </trkpt>
      <trkpt lat="42.39287" lon="0.19536">
        <ele>553.38</ele>
        <time>2014-06-02T07:46:34Z</time>
      </trkpt>
      <trkpt lat="42.39296" lon="0.19575">
        <ele>555.78</ele>
        <time>2014-06-02T07:46:48Z</time>
      </trkpt>
      <trkpt lat="42.3929" lon="0.19607">
        <ele>558.18</ele>
        <time>2014-06-02T07:46:59Z</time>
      </trkpt>
      <trkpt lat="42.39271" lon="0.19603">
        <ele>560.11</ele>
        <time>2014-06-02T07:47:08Z</time>
      </trkpt>
      <trkpt lat="42.39236" lon="0.19582">
        <ele>562.51</ele>
        <time>2014-06-02T07:47:24Z</time>
      </trkpt>
      <trkpt lat="42.39208" lon="0.19551">
        <ele>564.91</ele>
        <time>2014-06-02T07:47:38Z</time>
      </trkpt>
      <trkpt lat="42.39185" lon="0.19518">
        <ele>568.28</ele>
        <time>2014-06-02T07:47:52Z</time>
      </trkpt>
      <trkpt lat="42.39154" lon="0.19506">
        <ele>571.16</ele>
        <time>2014-06-02T07:48:06Z</time>
      </trkpt>
      <trkpt lat="42.3912" lon="0.19496">
        <ele>573.56</ele>
        <time>2014-06-02T07:48:20Z</time>
      </trkpt>
      <trkpt lat="42.39088" lon="0.19469">
        <ele>576.45</ele>
        <time>2014-06-02T07:48:35Z</time>
      </trkpt>
      <trkpt lat="42.39059" lon="0.19452">
        <ele>578.85</ele>
        <time>2014-06-02T07:48:48Z</time>
      </trkpt>
      <trkpt lat="42.39035" lon="0.19434">
        <ele>579.81</ele>
        <time>2014-06-02T07:48:58Z</time>
      </trkpt>
      <trkpt lat="42.39023" lon="0.19409">
        <ele>582.7</ele>
        <time>2014-06-02T07:49:06Z</time>
      </trkpt>
      <trkpt lat="42.39011" lon="0.19405">
        <ele>584.14</ele>
        <time>2014-06-02T07:49:11Z</time>
      </trkpt>
      <trkpt lat="42.39008" lon="0.19414">
        <ele>584.62</ele>
        <time>2014-06-02T07:49:14Z</time>
      </trkpt>
      <trkpt lat="42.39024" lon="0.19463">
        <ele>588.46</ele>
        <time>2014-06-02T07:49:28Z</time>
      </trkpt>
      <trkpt lat="42.39024" lon="0.19467">
        <ele>588.95</ele>
        <time>2014-06-02T07:49:29Z</time>
      </trkpt>
      <trkpt lat="42.39038" lon="0.19497">
        <ele>591.83</ele>
        <time>2014-06-02T07:49:39Z</time>
      </trkpt>
      <trkpt lat="42.39065" lon="0.19526">
        <ele>594.23</ele>
        <time>2014-06-02T07:49:53Z</time>
      </trkpt>
      <trkpt lat="42.39084" lon="0.19556">
        <ele>597.12</ele>
        <time>2014-06-02T07:50:05Z</time>
      </trkpt>
      <trkpt lat="42.39088" lon="0.19568">
        <ele>599.04</ele>
        <time>2014-06-02T07:50:09Z</time>
      </trkpt>
      <trkpt lat="42.39075" lon="0.19572">
        <ele>600.48</ele>
        <time>2014-06-02T07:50:16Z</time>
      </trkpt>
      <trkpt lat="42.39036" lon="0.19541">
        <ele>603.85</ele>
        <time>2014-06-02T07:50:31Z</time>
      </trkpt>
      <trkpt lat="42.39008" lon="0.19514">
        <ele>605.77</ele>
        <time>2014-06-02T07:50:44Z</time>
      </trkpt>
      <trkpt lat="42.38986" lon="0.19478">
        <ele>608.65</ele>
        <time>2014-06-02T07:50:56Z</time>
      </trkpt>
      <trkpt lat="42.38967" lon="0.19443">
        <ele>612.5</ele>
        <time>2014-06-02T07:51:06Z</time>
      </trkpt>
      <trkpt lat="42.38963" lon="0.19436">
        <ele>610.09</ele>
        <time>2014-06-02T07:51:08Z</time>
      </trkpt>
      <trkpt lat="42.38922" lon="0.19418">
        <ele>612.5</ele>
        <time>2014-06-02T07:51:21Z</time>
      </trkpt>
      <trkpt lat="42.3888" lon="0.1941">
        <ele>614.9</ele>
        <time>2014-06-02T07:51:34Z</time>
      </trkpt>
      <trkpt lat="42.38863" lon="0.19361">
        <ele>616.34</ele>
        <time>2014-06-02T07:51:46Z</time>
      </trkpt>
      <trkpt lat="42.38839" lon="0.19334">
        <ele>618.75</ele>
        <time>2014-06-02T07:51:56Z</time>
      </trkpt>
      <trkpt lat="42.38834" lon="0.19332">
        <ele>619.23</ele>
        <time>2014-06-02T07:51:58Z</time>
      </trkpt>
      <trkpt lat="42.38828" lon="0.19335">
        <ele>619.23</ele>
        <time>2014-06-02T07:52:01Z</time>
      </trkpt>
      <trkpt lat="42.38825" lon="0.19335">
        <ele>619.23</ele>
        <time>2014-06-02T07:52:03Z</time>
      </trkpt>
      <trkpt lat="42.38826" lon="0.19333">
        <ele>619.23</ele>
        <time>2014-06-02T07:52:05Z</time>
      </trkpt>
      <trkpt lat="42.38833" lon="0.19334">
        <ele>618.75</ele>
        <time>2014-06-02T07:52:09Z</time>
      </trkpt>
      <trkpt lat="42.38839" lon="0.19334">
        <ele>618.75</ele>
        <time>2014-06-02T07:52:12Z</time>
      </trkpt>
      <trkpt lat="42.38835" lon="0.19331">
        <ele>619.23</ele>
        <time>2014-06-02T07:52:17Z</time>
      </trkpt>
      <trkpt lat="42.38803" lon="0.19341">
        <ele>620.67</ele>
        <time>2014-06-02T07:52:30Z</time>
      </trkpt>
      <trkpt lat="42.38774" lon="0.19351">
        <ele>623.07</ele>
        <time>2014-06-02T07:52:43Z</time>
      </trkpt>
      <trkpt lat="42.38741" lon="0.19366">
        <ele>625.96</ele>
        <time>2014-06-02T07:52:57Z</time>
      </trkpt>
      <trkpt lat="42.38711" lon="0.19384">
        <ele>628.84</ele>
        <time>2014-06-02T07:53:10Z</time>
      </trkpt>
      <trkpt lat="42.38682" lon="0.19391">
        <ele>632.2</ele>
        <time>2014-06-02T07:53:23Z</time>
      </trkpt>
      <trkpt lat="42.38676" lon="0.19397">
        <ele>633.17</ele>
        <time>2014-06-02T07:53:26Z</time>
      </trkpt>
      <trkpt lat="42.38679" lon="0.19408">
        <ele>633.65</ele>
        <time>2014-06-02T07:53:30Z</time>
      </trkpt>
      <trkpt lat="42.38711" lon="0.19435">
        <ele>637.01</ele>
        <time>2014-06-02T07:53:45Z</time>
      </trkpt>
      <trkpt lat="42.38715" lon="0.19439">
        <ele>637.49</ele>
        <time>2014-06-02T07:53:48Z</time>
      </trkpt>
      <trkpt lat="42.38722" lon="0.19451">
        <ele>638.93</ele>
        <time>2014-06-02T07:54:02Z</time>
      </trkpt>
      <trkpt lat="42.38726" lon="0.19454">
        <ele>638.93</ele>
        <time>2014-06-02T07:54:10Z</time>
      </trkpt>
      <trkpt lat="42.38741" lon="0.19491">
        <ele>640.38</ele>
        <time>2014-06-02T07:54:25Z</time>
      </trkpt>
      <trkpt lat="42.38761" lon="0.19527">
        <ele>643.74</ele>
        <time>2014-06-02T07:54:40Z</time>
      </trkpt>
      <trkpt lat="42.38783" lon="0.19562">
        <ele>646.62</ele>
        <time>2014-06-02T07:54:56Z</time>
      </trkpt>
      <trkpt lat="42.38805" lon="0.19584">
        <ele>649.51</ele>
        <time>2014-06-02T07:55:11Z</time>
      </trkpt>
      <trkpt lat="42.38827" lon="0.19605">
        <ele>651.91</ele>
        <time>2014-06-02T07:55:25Z</time>
      </trkpt>
      <trkpt lat="42.38848" lon="0.19629">
        <ele>654.31</ele>
        <time>2014-06-02T07:55:39Z</time>
      </trkpt>
      <trkpt lat="42.38869" lon="0.19663">
        <ele>657.2</ele>
        <time>2014-06-02T07:55:55Z</time>
      </trkpt>
      <trkpt lat="42.38884" lon="0.19698">
        <ele>660.56</ele>
        <time>2014-06-02T07:56:10Z</time>
      </trkpt>
      <trkpt lat="42.38899" lon="0.19735">
        <ele>663.45</ele>
        <time>2014-06-02T07:56:26Z</time>
      </trkpt>
      <trkpt lat="42.389" lon="0.1974">
        <ele>664.41</ele>
        <time>2014-06-02T07:56:28Z</time>
      </trkpt>
      <trkpt lat="42.38879" lon="0.19752">
        <ele>666.81</ele>
        <time>2014-06-02T07:56:39Z</time>
      </trkpt>
      <trkpt lat="42.38849" lon="0.19739">
        <ele>669.7</ele>
        <time>2014-06-02T07:56:54Z</time>
      </trkpt>
      <trkpt lat="42.38828" lon="0.19731">
        <ele>672.1</ele>
        <time>2014-06-02T07:57:06Z</time>
      </trkpt>
      <trkpt lat="42.38818" lon="0.19727">
        <ele>673.06</ele>
        <time>2014-06-02T07:57:11Z</time>
      </trkpt>
      <trkpt lat="42.38789" lon="0.19726">
        <ele>675.94</ele>
        <time>2014-06-02T07:57:27Z</time>
      </trkpt>
      <trkpt lat="42.38767" lon="0.19737">
        <ele>679.31</ele>
        <time>2014-06-02T07:57:39Z</time>
      </trkpt>
      <trkpt lat="42.38734" lon="0.19738">
        <ele>681.71</ele>
        <time>2014-06-02T07:57:55Z</time>
      </trkpt>
      <trkpt lat="42.38705" lon="0.19722">
        <ele>682.67</ele>
        <time>2014-06-02T07:58:09Z</time>
      </trkpt>
      <trkpt lat="42.38671" lon="0.197">
        <ele>685.56</ele>
        <time>2014-06-02T07:58:27Z</time>
      </trkpt>
      <trkpt lat="42.38663" lon="0.19704">
        <ele>686.52</ele>
        <time>2014-06-02T07:58:31Z</time>
      </trkpt>
      <trkpt lat="42.38668" lon="0.19717">
        <ele>687.96</ele>
        <time>2014-06-02T07:58:36Z</time>
      </trkpt>
      <trkpt lat="42.38698" lon="0.19754">
        <ele>691.33</ele>
        <time>2014-06-02T07:58:54Z</time>
      </trkpt>
      <trkpt lat="42.38723" lon="0.19792">
        <ele>694.21</ele>
        <time>2014-06-02T07:59:12Z</time>
      </trkpt>
      <trkpt lat="42.3872" lon="0.19804">
        <ele>695.17</ele>
        <time>2014-06-02T07:59:16Z</time>
      </trkpt>
      <trkpt lat="42.38703" lon="0.19803">
        <ele>696.61</ele>
        <time>2014-06-02T07:59:22Z</time>
      </trkpt>
      <trkpt lat="42.38669" lon="0.19775">
        <ele>699.98</ele>
        <time>2014-06-02T07:59:38Z</time>
      </trkpt>
      <trkpt lat="42.38652" lon="0.19774">
        <ele>701.42</ele>
        <time>2014-06-02T07:59:46Z</time>
      </trkpt>
      <trkpt lat="42.38654" lon="0.19786">
        <ele>702.86</ele>
        <time>2014-06-02T07:59:51Z</time>
      </trkpt>
      <trkpt lat="42.38663" lon="0.19797">
        <ele>703.82</ele>
        <time>2014-06-02T08:00:04Z</time>
      </trkpt>
      <trkpt lat="42.38665" lon="0.198">
        <ele>703.82</ele>
        <time>2014-06-02T08:00:20Z</time>
      </trkpt>
      <trkpt lat="42.38681" lon="0.19825">
        <ele>705.75</ele>
        <time>2014-06-02T08:00:33Z</time>
      </trkpt>
      <trkpt lat="42.38686" lon="0.19841">
        <ele>707.19</ele>
        <time>2014-06-02T08:00:41Z</time>
      </trkpt>
      <trkpt lat="42.38683" lon="0.19852">
        <ele>708.15</ele>
        <time>2014-06-02T08:00:46Z</time>
      </trkpt>
      <trkpt lat="42.3866" lon="0.19863">
        <ele>711.51</ele>
        <time>2014-06-02T08:01:01Z</time>
      </trkpt>
      <trkpt lat="42.38643" lon="0.19826">
        <ele>712.95</ele>
        <time>2014-06-02T08:01:15Z</time>
      </trkpt>
      <trkpt lat="42.3862" lon="0.1982">
        <ele>714.88</ele>
        <time>2014-06-02T08:01:27Z</time>
      </trkpt>
      <trkpt lat="42.38628" lon="0.19854">
        <ele>717.28</ele>
        <time>2014-06-02T08:01:40Z</time>
      </trkpt>
      <trkpt lat="42.38627" lon="0.1987">
        <ele>719.2</ele>
        <time>2014-06-02T08:01:46Z</time>
      </trkpt>
      <trkpt lat="42.38618" lon="0.19882">
        <ele>719.68</ele>
        <time>2014-06-02T08:01:52Z</time>
      </trkpt>
      <trkpt lat="42.38598" lon="0.1989">
        <ele>722.09</ele>
        <time>2014-06-02T08:02:02Z</time>
      </trkpt>
      <trkpt lat="42.38575" lon="0.199">
        <ele>725.93</ele>
        <time>2014-06-02T08:02:14Z</time>
      </trkpt>
      <trkpt lat="42.3855" lon="0.19912">
        <ele>728.82</ele>
        <time>2014-06-02T08:02:26Z</time>
      </trkpt>
      <trkpt lat="42.38538" lon="0.19933">
        <ele>730.26</ele>
        <time>2014-06-02T08:02:37Z</time>
      </trkpt>
      <trkpt lat="42.38538" lon="0.19935">
        <ele>730.26</ele>
        <time>2014-06-02T08:02:38Z</time>
      </trkpt>
      <trkpt lat="42.38537" lon="0.1994">
        <ele>731.22</ele>
        <time>2014-06-02T08:02:50Z</time>
      </trkpt>
      <trkpt lat="42.38535" lon="0.19946">
        <ele>730.74</ele>
        <time>2014-06-02T08:03:02Z</time>
      </trkpt>
      <trkpt lat="42.38532" lon="0.19955">
        <ele>730.74</ele>
        <time>2014-06-02T08:03:06Z</time>
      </trkpt>
      <trkpt lat="42.38524" lon="0.19993">
        <ele>732.18</ele>
        <time>2014-06-02T08:03:21Z</time>
      </trkpt>
      <trkpt lat="42.38524" lon="0.19993">
        <ele>732.18</ele>
        <time>2014-06-02T08:03:42Z</time>
      </trkpt>
      <trkpt lat="42.38524" lon="0.19993">
        <ele>732.66</ele>
        <time>2014-06-02T08:04:10Z</time>
      </trkpt>
      <trkpt lat="42.38524" lon="0.19993">
        <ele>731.7</ele>
        <time>2014-06-02T08:04:23Z</time>
      </trkpt>
      <trkpt lat="42.38523" lon="0.19993">
        <ele>731.7</ele>
        <time>2014-06-02T08:04:25Z</time>
      </trkpt>
      <trkpt lat="42.38516" lon="0.20001">
        <ele>733.14</ele>
        <time>2014-06-02T08:04:32Z</time>
      </trkpt>
      <trkpt lat="42.38514" lon="0.20009">
        <ele>733.14</ele>
        <time>2014-06-02T08:04:36Z</time>
      </trkpt>
      <trkpt lat="42.38512" lon="0.20009">
        <ele>733.14</ele>
        <time>2014-06-02T08:04:40Z</time>
      </trkpt>
      <trkpt lat="42.38518" lon="0.20002">
        <ele>733.14</ele>
        <time>2014-06-02T08:04:44Z</time>
      </trkpt>
      <trkpt lat="42.38526" lon="0.19982">
        <ele>732.18</ele>
        <time>2014-06-02T08:04:49Z</time>
      </trkpt>
      <trkpt lat="42.38531" lon="0.19945">
        <ele>731.22</ele>
        <time>2014-06-02T08:04:58Z</time>
      </trkpt>
      <trkpt lat="42.38531" lon="0.19946">
        <ele>730.74</ele>
        <time>2014-06-02T08:05:15Z</time>
      </trkpt>
      <trkpt lat="42.38533" lon="0.19946">
        <ele>730.74</ele>
        <time>2014-06-02T08:05:42Z</time>
      </trkpt>
      <trkpt lat="42.38533" lon="0.19947">
        <ele>730.74</ele>
        <time>2014-06-02T08:05:43Z</time>
      </trkpt>
      <trkpt lat="42.38531" lon="0.19955">
        <ele>731.22</ele>
        <time>2014-06-02T08:05:47Z</time>
      </trkpt>
      <trkpt lat="42.38521" lon="0.19997">
        <ele>732.18</ele>
        <time>2014-06-02T08:05:59Z</time>
      </trkpt>
      <trkpt lat="42.38515" lon="0.20009">
        <ele>733.62</ele>
        <time>2014-06-02T08:06:10Z</time>
      </trkpt>
      <trkpt lat="42.38515" lon="0.20009">
        <ele>733.14</ele>
        <time>2014-06-02T08:06:28Z</time>
      </trkpt>
      <trkpt lat="42.38515" lon="0.20009">
        <ele>732.66</ele>
        <time>2014-06-02T08:06:57Z</time>
      </trkpt>
      <trkpt lat="42.38515" lon="0.20009">
        <ele>733.14</ele>
        <time>2014-06-02T08:07:27Z</time>
      </trkpt>
      <trkpt lat="42.38515" lon="0.2001">
        <ele>733.14</ele>
        <time>2014-06-02T08:07:29Z</time>
      </trkpt>
      <trkpt lat="42.3851" lon="0.20019">
        <ele>733.14</ele>
        <time>2014-06-02T08:07:33Z</time>
      </trkpt>
      <trkpt lat="42.38512" lon="0.20071">
        <ele>733.14</ele>
        <time>2014-06-02T08:07:46Z</time>
      </trkpt>
      <trkpt lat="42.38536" lon="0.20147">
        <ele>734.58</ele>
        <time>2014-06-02T08:08:02Z</time>
      </trkpt>
      <trkpt lat="42.38536" lon="0.20194">
        <ele>736.99</ele>
        <time>2014-06-02T08:08:13Z</time>
      </trkpt>
      <trkpt lat="42.38513" lon="0.20228">
        <ele>739.87</ele>
        <time>2014-06-02T08:08:25Z</time>
      </trkpt>
      <trkpt lat="42.3847" lon="0.20242">
        <ele>742.28</ele>
        <time>2014-06-02T08:08:40Z</time>
      </trkpt>
      <trkpt lat="42.3844" lon="0.2027">
        <ele>743.72</ele>
        <time>2014-06-02T08:08:52Z</time>
      </trkpt>
      <trkpt lat="42.38409" lon="0.20321">
        <ele>746.6</ele>
        <time>2014-06-02T08:09:08Z</time>
      </trkpt>
      <trkpt lat="42.38374" lon="0.20318">
        <ele>749</ele>
        <time>2014-06-02T08:09:20Z</time>
      </trkpt>
      <trkpt lat="42.38333" lon="0.20309">
        <ele>751.41</ele>
        <time>2014-06-02T08:09:34Z</time>
      </trkpt>
      <trkpt lat="42.38292" lon="0.20293">
        <ele>753.81</ele>
        <time>2014-06-02T08:09:48Z</time>
      </trkpt>
      <trkpt lat="42.38245" lon="0.20286">
        <ele>754.29</ele>
        <time>2014-06-02T08:10:02Z</time>
      </trkpt>
      <trkpt lat="42.38196" lon="0.20292">
        <ele>756.69</ele>
        <time>2014-06-02T08:10:16Z</time>
      </trkpt>
      <trkpt lat="42.3818" lon="0.20324">
        <ele>759.1</ele>
        <time>2014-06-02T08:10:27Z</time>
      </trkpt>
      <trkpt lat="42.38186" lon="0.20367">
        <ele>760.54</ele>
        <time>2014-06-02T08:10:38Z</time>
      </trkpt>
      <trkpt lat="42.38185" lon="0.20379">
        <ele>758.62</ele>
        <time>2014-06-02T08:10:40Z</time>
      </trkpt>
      <trkpt lat="42.38188" lon="0.20402">
        <ele>754.77</ele>
        <time>2014-06-02T08:10:43Z</time>
      </trkpt>
      <trkpt lat="42.38191" lon="0.20411">
        <ele>757.18</ele>
        <time>2014-06-02T08:10:44Z</time>
      </trkpt>
      <trkpt lat="42.38202" lon="0.20448">
        <ele>756.21</ele>
        <time>2014-06-02T08:10:49Z</time>
      </trkpt>
      <trkpt lat="42.38188" lon="0.20493">
        <ele>759.1</ele>
        <time>2014-06-02T08:10:58Z</time>
      </trkpt>
      <trkpt lat="42.38178" lon="0.20496">
        <ele>760.54</ele>
        <time>2014-06-02T08:11:02Z</time>
      </trkpt>
      <trkpt lat="42.38145" lon="0.20515">
        <ele>761.02</ele>
        <time>2014-06-02T08:11:12Z</time>
      </trkpt>
      <trkpt lat="42.38138" lon="0.20519">
        <ele>761.02</ele>
        <time>2014-06-02T08:11:14Z</time>
      </trkpt>
      <trkpt lat="42.38125" lon="0.20516">
        <ele>760.54</ele>
        <time>2014-06-02T08:11:17Z</time>
      </trkpt>
      <trkpt lat="42.38122" lon="0.20511">
        <ele>761.02</ele>
        <time>2014-06-02T08:11:18Z</time>
      </trkpt>
      <trkpt lat="42.38105" lon="0.20459">
        <ele>761.5</ele>
        <time>2014-06-02T08:11:28Z</time>
      </trkpt>
      <trkpt lat="42.38101" lon="0.20449">
        <ele>761.02</ele>
        <time>2014-06-02T08:11:30Z</time>
      </trkpt>
      <trkpt lat="42.3808" lon="0.20415">
        <ele>757.18</ele>
        <time>2014-06-02T08:11:36Z</time>
      </trkpt>
      <trkpt lat="42.38076" lon="0.20408">
        <ele>756.69</ele>
        <time>2014-06-02T08:11:37Z</time>
      </trkpt>
      <trkpt lat="42.38051" lon="0.20378">
        <ele>757.18</ele>
        <time>2014-06-02T08:11:43Z</time>
      </trkpt>
      <trkpt lat="42.38036" lon="0.20368">
        <ele>757.18</ele>
        <time>2014-06-02T08:11:47Z</time>
      </trkpt>
      <trkpt lat="42.38029" lon="0.20361">
        <ele>756.69</ele>
        <time>2014-06-02T08:11:49Z</time>
      </trkpt>
      <trkpt lat="42.38005" lon="0.20347">
        <ele>757.18</ele>
        <time>2014-06-02T08:11:54Z</time>
      </trkpt>
      <trkpt lat="42.37998" lon="0.20333">
        <ele>756.21</ele>
        <time>2014-06-02T08:11:57Z</time>
      </trkpt>
      <trkpt lat="42.37997" lon="0.20327">
        <ele>755.73</ele>
        <time>2014-06-02T08:11:58Z</time>
      </trkpt>
      <trkpt lat="42.37987" lon="0.20289">
        <ele>752.37</ele>
        <time>2014-06-02T08:12:08Z</time>
      </trkpt>
      <trkpt lat="42.37985" lon="0.20286">
        <ele>751.89</ele>
        <time>2014-06-02T08:12:09Z</time>
      </trkpt>
      <trkpt lat="42.37972" lon="0.20264">
        <ele>749.49</ele>
        <time>2014-06-02T08:12:14Z</time>
      </trkpt>
      <trkpt lat="42.3796" lon="0.20237">
        <ele>746.6</ele>
        <time>2014-06-02T08:12:18Z</time>
      </trkpt>
      <trkpt lat="42.3795" lon="0.20184">
        <ele>744.2</ele>
        <time>2014-06-02T08:12:25Z</time>
      </trkpt>
      <trkpt lat="42.37935" lon="0.20158">
        <ele>741.79</ele>
        <time>2014-06-02T08:12:29Z</time>
      </trkpt>
      <trkpt lat="42.37917" lon="0.20139">
        <ele>741.79</ele>
        <time>2014-06-02T08:12:33Z</time>
      </trkpt>
      <trkpt lat="42.37908" lon="0.20129">
        <ele>741.31</ele>
        <time>2014-06-02T08:12:35Z</time>
      </trkpt>
      <trkpt lat="42.3789" lon="0.20112">
        <ele>740.83</ele>
        <time>2014-06-02T08:12:39Z</time>
      </trkpt>
      <trkpt lat="42.37873" lon="0.20091">
        <ele>739.39</ele>
        <time>2014-06-02T08:12:44Z</time>
      </trkpt>
      <trkpt lat="42.37873" lon="0.20086">
        <ele>738.91</ele>
        <time>2014-06-02T08:12:45Z</time>
      </trkpt>
      <trkpt lat="42.37876" lon="0.20054">
        <ele>737.47</ele>
        <time>2014-06-02T08:12:48Z</time>
      </trkpt>
      <trkpt lat="42.37877" lon="0.20025">
        <ele>736.03</ele>
        <time>2014-06-02T08:12:51Z</time>
      </trkpt>
      <trkpt lat="42.37845" lon="0.1999">
        <ele>732.18</ele>
        <time>2014-06-02T08:12:57Z</time>
      </trkpt>
      <trkpt lat="42.37841" lon="0.19983">
        <ele>732.18</ele>
        <time>2014-06-02T08:12:58Z</time>
      </trkpt>
      <trkpt lat="42.37838" lon="0.19974">
        <ele>731.22</ele>
        <time>2014-06-02T08:12:59Z</time>
      </trkpt>
      <trkpt lat="42.37822" lon="0.19934">
        <ele>725.45</ele>
        <time>2014-06-02T08:13:03Z</time>
      </trkpt>
      <trkpt lat="42.37807" lon="0.19921">
        <ele>724.49</ele>
        <time>2014-06-02T08:13:05Z</time>
      </trkpt>
      <trkpt lat="42.37781" lon="0.1991">
        <ele>724.97</ele>
        <time>2014-06-02T08:13:08Z</time>
      </trkpt>
      <trkpt lat="42.37753" lon="0.1989">
        <ele>725.45</ele>
        <time>2014-06-02T08:13:12Z</time>
      </trkpt>
      <trkpt lat="42.37748" lon="0.19886">
        <ele>726.41</ele>
        <time>2014-06-02T08:13:13Z</time>
      </trkpt>
      <trkpt lat="42.37735" lon="0.19881">
        <ele>724.97</ele>
        <time>2014-06-02T08:13:15Z</time>
      </trkpt>
      <trkpt lat="42.3772" lon="0.19878">
        <ele>723.53</ele>
        <time>2014-06-02T08:13:17Z</time>
      </trkpt>
      <trkpt lat="42.37689" lon="0.19875">
        <ele>724.01</ele>
        <time>2014-06-02T08:13:21Z</time>
      </trkpt>
      <trkpt lat="42.37658" lon="0.19872">
        <ele>725.45</ele>
        <time>2014-06-02T08:13:27Z</time>
      </trkpt>
      <trkpt lat="42.37643" lon="0.19832">
        <ele>725.93</ele>
        <time>2014-06-02T08:13:36Z</time>
      </trkpt>
      <trkpt lat="42.37643" lon="0.19814">
        <ele>726.41</ele>
        <time>2014-06-02T08:13:41Z</time>
      </trkpt>
      <trkpt lat="42.37642" lon="0.1981">
        <ele>725.93</ele>
        <time>2014-06-02T08:13:43Z</time>
      </trkpt>
      <trkpt lat="42.37643" lon="0.1982">
        <ele>726.89</ele>
        <time>2014-06-02T08:13:49Z</time>
      </trkpt>
      <trkpt lat="42.37637" lon="0.19823">
        <ele>727.37</ele>
        <time>2014-06-02T08:13:53Z</time>
      </trkpt>
      <trkpt lat="42.37615" lon="0.19812">
        <ele>731.22</ele>
        <time>2014-06-02T08:14:05Z</time>
      </trkpt>
      <trkpt lat="42.37586" lon="0.19831">
        <ele>734.58</ele>
        <time>2014-06-02T08:14:19Z</time>
      </trkpt>
      <trkpt lat="42.37561" lon="0.19847">
        <ele>737.47</ele>
        <time>2014-06-02T08:14:31Z</time>
      </trkpt>
      <trkpt lat="42.37531" lon="0.19857">
        <ele>740.35</ele>
        <time>2014-06-02T08:14:43Z</time>
      </trkpt>
      <trkpt lat="42.37495" lon="0.19887">
        <ele>743.72</ele>
        <time>2014-06-02T08:14:58Z</time>
      </trkpt>
      <trkpt lat="42.37485" lon="0.19903">
        <ele>745.64</ele>
        <time>2014-06-02T08:15:04Z</time>
      </trkpt>
      <trkpt lat="42.37474" lon="0.19922">
        <ele>749.49</ele>
        <time>2014-06-02T08:15:12Z</time>
      </trkpt>
      <trkpt lat="42.37472" lon="0.19923">
        <ele>748.52</ele>
        <time>2014-06-02T08:15:23Z</time>
      </trkpt>
      <trkpt lat="42.37472" lon="0.19923">
        <ele>748.52</ele>
        <time>2014-06-02T08:15:47Z</time>
      </trkpt>
      <trkpt lat="42.37472" lon="0.19924">
        <ele>748.52</ele>
        <time>2014-06-02T08:16:14Z</time>
      </trkpt>
      <trkpt lat="42.37473" lon="0.19924">
        <ele>748.52</ele>
        <time>2014-06-02T08:16:41Z</time>
      </trkpt>
      <trkpt lat="42.37473" lon="0.19924">
        <ele>749</ele>
        <time>2014-06-02T08:17:16Z</time>
      </trkpt>
      <trkpt lat="42.37473" lon="0.19924">
        <ele>749</ele>
        <time>2014-06-02T08:17:45Z</time>
      </trkpt>
      <trkpt lat="42.37473" lon="0.19924">
        <ele>749</ele>
        <time>2014-06-02T08:18:12Z</time>
      </trkpt>
      <trkpt lat="42.37473" lon="0.19924">
        <ele>749</ele>
        <time>2014-06-02T08:18:18Z</time>
      </trkpt>
      <trkpt lat="42.37452" lon="0.19924">
        <ele>747.08</ele>
        <time>2014-06-02T08:18:27Z</time>
      </trkpt>
      <trkpt lat="42.37442" lon="0.19927">
        <ele>745.64</ele>
        <time>2014-06-02T08:18:33Z</time>
      </trkpt>
      <trkpt lat="42.37447" lon="0.19979">
        <ele>746.12</ele>
        <time>2014-06-02T08:18:46Z</time>
      </trkpt>
      <trkpt lat="42.37448" lon="0.1999">
        <ele>745.64</ele>
        <time>2014-06-02T08:18:48Z</time>
      </trkpt>
      <trkpt lat="42.37447" lon="0.20011">
        <ele>745.16</ele>
        <time>2014-06-02T08:18:52Z</time>
      </trkpt>
      <trkpt lat="42.37448" lon="0.20021">
        <ele>744.68</ele>
        <time>2014-06-02T08:18:54Z</time>
      </trkpt>
      <trkpt lat="42.37448" lon="0.20034">
        <ele>743.72</ele>
        <time>2014-06-02T08:18:56Z</time>
      </trkpt>
      <trkpt lat="42.3745" lon="0.20046">
        <ele>744.2</ele>
        <time>2014-06-02T08:18:58Z</time>
      </trkpt>
      <trkpt lat="42.3745" lon="0.20069">
        <ele>743.72</ele>
        <time>2014-06-02T08:19:02Z</time>
      </trkpt>
      <trkpt lat="42.37447" lon="0.20095">
        <ele>743.24</ele>
        <time>2014-06-02T08:19:07Z</time>
      </trkpt>
      <trkpt lat="42.37436" lon="0.20108">
        <ele>743.72</ele>
        <time>2014-06-02T08:19:11Z</time>
      </trkpt>
      <trkpt lat="42.37432" lon="0.20139">
        <ele>745.16</ele>
        <time>2014-06-02T08:19:19Z</time>
      </trkpt>
      <trkpt lat="42.37429" lon="0.20165">
        <ele>743.24</ele>
        <time>2014-06-02T08:19:25Z</time>
      </trkpt>
      <trkpt lat="42.3743" lon="0.20174">
        <ele>743.72</ele>
        <time>2014-06-02T08:19:30Z</time>
      </trkpt>
      <trkpt lat="42.37415" lon="0.20176">
        <ele>744.68</ele>
        <time>2014-06-02T08:19:39Z</time>
      </trkpt>
      <trkpt lat="42.37399" lon="0.20175">
        <ele>745.16</ele>
        <time>2014-06-02T08:19:48Z</time>
      </trkpt>
      <trkpt lat="42.37392" lon="0.20178">
        <ele>745.16</ele>
        <time>2014-06-02T08:19:51Z</time>
      </trkpt>
      <trkpt lat="42.37382" lon="0.20195">
        <ele>745.16</ele>
        <time>2014-06-02T08:19:57Z</time>
      </trkpt>
      <trkpt lat="42.37378" lon="0.2021">
        <ele>745.16</ele>
        <time>2014-06-02T08:20:01Z</time>
      </trkpt>
      <trkpt lat="42.37366" lon="0.20237">
        <ele>742.28</ele>
        <time>2014-06-02T08:20:07Z</time>
      </trkpt>
      <trkpt lat="42.37347" lon="0.20296">
        <ele>744.2</ele>
        <time>2014-06-02T08:20:20Z</time>
      </trkpt>
      <trkpt lat="42.37344" lon="0.20304">
        <ele>745.16</ele>
        <time>2014-06-02T08:20:22Z</time>
      </trkpt>
      <trkpt lat="42.37341" lon="0.20312">
        <ele>745.64</ele>
        <time>2014-06-02T08:20:24Z</time>
      </trkpt>
      <trkpt lat="42.37332" lon="0.20333">
        <ele>744.2</ele>
        <time>2014-06-02T08:20:28Z</time>
      </trkpt>
      <trkpt lat="42.37322" lon="0.20351">
        <ele>742.76</ele>
        <time>2014-06-02T08:20:31Z</time>
      </trkpt>
      <trkpt lat="42.37317" lon="0.20366">
        <ele>741.79</ele>
        <time>2014-06-02T08:20:33Z</time>
      </trkpt>
      <trkpt lat="42.37315" lon="0.20382">
        <ele>742.28</ele>
        <time>2014-06-02T08:20:35Z</time>
      </trkpt>
      <trkpt lat="42.37314" lon="0.20401">
        <ele>742.76</ele>
        <time>2014-06-02T08:20:38Z</time>
      </trkpt>
      <trkpt lat="42.37307" lon="0.20424">
        <ele>739.39</ele>
        <time>2014-06-02T08:20:42Z</time>
      </trkpt>
      <trkpt lat="42.37296" lon="0.20445">
        <ele>736.51</ele>
        <time>2014-06-02T08:20:46Z</time>
      </trkpt>
      <trkpt lat="42.37292" lon="0.20444">
        <ele>736.99</ele>
        <time>2014-06-02T08:20:49Z</time>
      </trkpt>
      <trkpt lat="42.37289" lon="0.20437">
        <ele>737.47</ele>
        <time>2014-06-02T08:20:52Z</time>
      </trkpt>
      <trkpt lat="42.37279" lon="0.20416">
        <ele>740.83</ele>
        <time>2014-06-02T08:21:00Z</time>
      </trkpt>
      <trkpt lat="42.37276" lon="0.20411">
        <ele>741.31</ele>
        <time>2014-06-02T08:21:02Z</time>
      </trkpt>
      <trkpt lat="42.37271" lon="0.20394">
        <ele>742.76</ele>
        <time>2014-06-02T08:21:07Z</time>
      </trkpt>
      <trkpt lat="42.37267" lon="0.20382">
        <ele>743.24</ele>
        <time>2014-06-02T08:21:11Z</time>
      </trkpt>
      <trkpt lat="42.37263" lon="0.20367">
        <ele>744.2</ele>
        <time>2014-06-02T08:21:15Z</time>
      </trkpt>
      <trkpt lat="42.37259" lon="0.20353">
        <ele>744.68</ele>
        <time>2014-06-02T08:21:19Z</time>
      </trkpt>
      <trkpt lat="42.37258" lon="0.20346">
        <ele>745.64</ele>
        <time>2014-06-02T08:21:21Z</time>
      </trkpt>
      <trkpt lat="42.37245" lon="0.20321">
        <ele>748.04</ele>
        <time>2014-06-02T08:21:30Z</time>
      </trkpt>
      <trkpt lat="42.37242" lon="0.20316">
        <ele>748.52</ele>
        <time>2014-06-02T08:21:32Z</time>
      </trkpt>
      <trkpt lat="42.37233" lon="0.20294">
        <ele>749.49</ele>
        <time>2014-06-02T08:21:38Z</time>
      </trkpt>
      <trkpt lat="42.37214" lon="0.20251">
        <ele>750.93</ele>
        <time>2014-06-02T08:21:48Z</time>
      </trkpt>
      <trkpt lat="42.372" lon="0.20227">
        <ele>753.81</ele>
        <time>2014-06-02T08:21:56Z</time>
      </trkpt>
      <trkpt lat="42.37185" lon="0.20208">
        <ele>755.73</ele>
        <time>2014-06-02T08:22:05Z</time>
      </trkpt>
      <trkpt lat="42.37173" lon="0.20188">
        <ele>756.21</ele>
        <time>2014-06-02T08:22:13Z</time>
      </trkpt>
      <trkpt lat="42.37163" lon="0.20173">
        <ele>756.21</ele>
        <time>2014-06-02T08:22:19Z</time>
      </trkpt>
      <trkpt lat="42.37147" lon="0.20163">
        <ele>758.62</ele>
        <time>2014-06-02T08:22:26Z</time>
      </trkpt>
      <trkpt lat="42.37136" lon="0.20158">
        <ele>761.98</ele>
        <time>2014-06-02T08:22:32Z</time>
      </trkpt>
      <trkpt lat="42.37122" lon="0.20136">
        <ele>762.94</ele>
        <time>2014-06-02T08:22:42Z</time>
      </trkpt>
      <trkpt lat="42.37108" lon="0.20115">
        <ele>764.87</ele>
        <time>2014-06-02T08:22:52Z</time>
      </trkpt>
      <trkpt lat="42.371" lon="0.20106">
        <ele>765.83</ele>
        <time>2014-06-02T08:22:57Z</time>
      </trkpt>
      <trkpt lat="42.37093" lon="0.20103">
        <ele>767.27</ele>
        <time>2014-06-02T08:23:07Z</time>
      </trkpt>
      <trkpt lat="42.37083" lon="0.20098">
        <ele>770.63</ele>
        <time>2014-06-02T08:23:21Z</time>
      </trkpt>
      <trkpt lat="42.37074" lon="0.20095">
        <ele>773.04</ele>
        <time>2014-06-02T08:23:34Z</time>
      </trkpt>
      <trkpt lat="42.37073" lon="0.20095">
        <ele>773.52</ele>
        <time>2014-06-02T08:23:35Z</time>
      </trkpt>
      <trkpt lat="42.37071" lon="0.201">
        <ele>774.48</ele>
        <time>2014-06-02T08:23:40Z</time>
      </trkpt>
      <trkpt lat="42.37071" lon="0.20107">
        <ele>774.96</ele>
        <time>2014-06-02T08:23:49Z</time>
      </trkpt>
      <trkpt lat="42.37079" lon="0.20136">
        <ele>778.32</ele>
        <time>2014-06-02T08:24:02Z</time>
      </trkpt>
      <trkpt lat="42.37087" lon="0.20164">
        <ele>781.21</ele>
        <time>2014-06-02T08:24:15Z</time>
      </trkpt>
      <trkpt lat="42.37091" lon="0.20182">
        <ele>783.61</ele>
        <time>2014-06-02T08:24:23Z</time>
      </trkpt>
      <trkpt lat="42.37089" lon="0.20187">
        <ele>784.09</ele>
        <time>2014-06-02T08:24:26Z</time>
      </trkpt>
      <trkpt lat="42.37086" lon="0.20192">
        <ele>784.57</ele>
        <time>2014-06-02T08:24:37Z</time>
      </trkpt>
      <trkpt lat="42.37086" lon="0.20192">
        <ele>782.17</ele>
        <time>2014-06-02T08:24:44Z</time>
      </trkpt>
      <trkpt lat="42.37086" lon="0.20192">
        <ele>787.46</ele>
        <time>2014-06-02T08:24:45Z</time>
      </trkpt>
      <trkpt lat="42.37086" lon="0.20192">
        <ele>780.25</ele>
        <time>2014-06-02T08:24:47Z</time>
      </trkpt>
      <trkpt lat="42.37086" lon="0.20192">
        <ele>784.57</ele>
        <time>2014-06-02T08:24:48Z</time>
      </trkpt>
      <trkpt lat="42.37086" lon="0.20192">
        <ele>778.32</ele>
        <time>2014-06-02T08:24:53Z</time>
      </trkpt>
      <trkpt lat="42.37086" lon="0.20192">
        <ele>787.46</ele>
        <time>2014-06-02T08:24:54Z</time>
      </trkpt>
      <trkpt lat="42.37086" lon="0.20192">
        <ele>784.09</ele>
        <time>2014-06-02T08:24:56Z</time>
      </trkpt>
      <trkpt lat="42.37086" lon="0.20192">
        <ele>784.57</ele>
        <time>2014-06-02T08:24:57Z</time>
      </trkpt>
      <trkpt lat="42.37086" lon="0.20192">
        <ele>784.57</ele>
        <time>2014-06-02T08:25:28Z</time>
      </trkpt>
      <trkpt lat="42.37087" lon="0.20192">
        <ele>785.05</ele>
        <time>2014-06-02T08:25:59Z</time>
      </trkpt>
      <trkpt lat="42.37087" lon="0.20192">
        <ele>785.05</ele>
        <time>2014-06-02T08:26:29Z</time>
      </trkpt>
      <trkpt lat="42.37087" lon="0.20192">
        <ele>785.05</ele>
        <time>2014-06-02T08:26:59Z</time>
      </trkpt>
      <trkpt lat="42.37087" lon="0.20192">
        <ele>785.53</ele>
        <time>2014-06-02T08:27:23Z</time>
      </trkpt>
      <trkpt lat="42.37087" lon="0.20192">
        <ele>785.05</ele>
        <time>2014-06-02T08:27:55Z</time>
      </trkpt>
      <trkpt lat="42.37086" lon="0.20192">
        <ele>785.53</ele>
        <time>2014-06-02T08:28:12Z</time>
      </trkpt>
      <trkpt lat="42.37072" lon="0.20187">
        <ele>781.69</ele>
        <time>2014-06-02T08:28:17Z</time>
      </trkpt>
      <trkpt lat="42.37057" lon="0.2018">
        <ele>778.32</ele>
        <time>2014-06-02T08:28:20Z</time>
      </trkpt>
      <trkpt lat="42.3703" lon="0.20187">
        <ele>777.84</ele>
        <time>2014-06-02T08:28:27Z</time>
      </trkpt>
      <trkpt lat="42.37026" lon="0.20188">
        <ele>778.81</ele>
        <time>2014-06-02T08:28:29Z</time>
      </trkpt>
      <trkpt lat="42.37003" lon="0.20204">
        <ele>781.69</ele>
        <time>2014-06-02T08:28:41Z</time>
      </trkpt>
      <trkpt lat="42.36988" lon="0.2022">
        <ele>784.57</ele>
        <time>2014-06-02T08:28:50Z</time>
      </trkpt>
      <trkpt lat="42.36986" lon="0.20225">
        <ele>784.57</ele>
        <time>2014-06-02T08:28:53Z</time>
      </trkpt>
      <trkpt lat="42.36982" lon="0.20233">
        <ele>786.02</ele>
        <time>2014-06-02T08:28:58Z</time>
      </trkpt>
      <trkpt lat="42.36982" lon="0.20236">
        <ele>786.02</ele>
        <time>2014-06-02T08:29:00Z</time>
      </trkpt>
      <trkpt lat="42.36972" lon="0.20257">
        <ele>788.42</ele>
        <time>2014-06-02T08:29:11Z</time>
      </trkpt>
      <trkpt lat="42.36962" lon="0.20284">
        <ele>791.3</ele>
        <time>2014-06-02T08:29:25Z</time>
      </trkpt>
      <trkpt lat="42.36957" lon="0.20295">
        <ele>792.26</ele>
        <time>2014-06-02T08:29:31Z</time>
      </trkpt>
      <trkpt lat="42.36956" lon="0.20298">
        <ele>792.74</ele>
        <time>2014-06-02T08:29:33Z</time>
      </trkpt>
      <trkpt lat="42.36952" lon="0.20307">
        <ele>793.22</ele>
        <time>2014-06-02T08:29:38Z</time>
      </trkpt>
      <trkpt lat="42.36936" lon="0.2033">
        <ele>791.3</ele>
        <time>2014-06-02T08:29:47Z</time>
      </trkpt>
      <trkpt lat="42.3693" lon="0.20345">
        <ele>792.26</ele>
        <time>2014-06-02T08:29:56Z</time>
      </trkpt>
      <trkpt lat="42.36932" lon="0.20349">
        <ele>793.71</ele>
        <time>2014-06-02T08:30:03Z</time>
      </trkpt>
      <trkpt lat="42.36933" lon="0.20351">
        <ele>794.19</ele>
        <time>2014-06-02T08:30:05Z</time>
      </trkpt>
      <trkpt lat="42.36931" lon="0.20361">
        <ele>795.15</ele>
        <time>2014-06-02T08:30:16Z</time>
      </trkpt>
      <trkpt lat="42.36928" lon="0.20371">
        <ele>795.63</ele>
        <time>2014-06-02T08:30:21Z</time>
      </trkpt>
      <trkpt lat="42.3692" lon="0.2037">
        <ele>797.07</ele>
        <time>2014-06-02T08:30:26Z</time>
      </trkpt>
      <trkpt lat="42.36914" lon="0.20365">
        <ele>796.59</ele>
        <time>2014-06-02T08:30:29Z</time>
      </trkpt>
      <trkpt lat="42.36908" lon="0.20361">
        <ele>795.63</ele>
        <time>2014-06-02T08:30:31Z</time>
      </trkpt>
      <trkpt lat="42.369" lon="0.20359">
        <ele>795.63</ele>
        <time>2014-06-02T08:30:33Z</time>
      </trkpt>
      <trkpt lat="42.36873" lon="0.20394">
        <ele>795.15</ele>
        <time>2014-06-02T08:30:46Z</time>
      </trkpt>
      <trkpt lat="42.36873" lon="0.20397">
        <ele>795.63</ele>
        <time>2014-06-02T08:30:47Z</time>
      </trkpt>
      <trkpt lat="42.36864" lon="0.20411">
        <ele>794.67</ele>
        <time>2014-06-02T08:30:53Z</time>
      </trkpt>
      <trkpt lat="42.36853" lon="0.20431">
        <ele>794.19</ele>
        <time>2014-06-02T08:30:58Z</time>
      </trkpt>
      <trkpt lat="42.36843" lon="0.20443">
        <ele>794.19</ele>
        <time>2014-06-02T08:31:01Z</time>
      </trkpt>
      <trkpt lat="42.36827" lon="0.2045">
        <ele>795.15</ele>
        <time>2014-06-02T08:31:05Z</time>
      </trkpt>
      <trkpt lat="42.36818" lon="0.20462">
        <ele>795.63</ele>
        <time>2014-06-02T08:31:10Z</time>
      </trkpt>
      <trkpt lat="42.36823" lon="0.2049">
        <ele>791.3</ele>
        <time>2014-06-02T08:31:16Z</time>
      </trkpt>
      <trkpt lat="42.36825" lon="0.20506">
        <ele>789.86</ele>
        <time>2014-06-02T08:31:18Z</time>
      </trkpt>
      <trkpt lat="42.36834" lon="0.20534">
        <ele>788.9</ele>
        <time>2014-06-02T08:31:22Z</time>
      </trkpt>
      <trkpt lat="42.36844" lon="0.20571">
        <ele>788.42</ele>
        <time>2014-06-02T08:31:28Z</time>
      </trkpt>
      <trkpt lat="42.36845" lon="0.20582">
        <ele>788.42</ele>
        <time>2014-06-02T08:31:30Z</time>
      </trkpt>
      <trkpt lat="42.36853" lon="0.20617">
        <ele>787.46</ele>
        <time>2014-06-02T08:31:37Z</time>
      </trkpt>
      <trkpt lat="42.36881" lon="0.20672">
        <ele>787.94</ele>
        <time>2014-06-02T08:31:49Z</time>
      </trkpt>
      <trkpt lat="42.36891" lon="0.20708">
        <ele>787.46</ele>
        <time>2014-06-02T08:31:54Z</time>
      </trkpt>
      <trkpt lat="42.36901" lon="0.20745">
        <ele>787.94</ele>
        <time>2014-06-02T08:32:00Z</time>
      </trkpt>
      <trkpt lat="42.36918" lon="0.20791">
        <ele>788.9</ele>
        <time>2014-06-02T08:32:09Z</time>
      </trkpt>
      <trkpt lat="42.36926" lon="0.2082">
        <ele>789.38</ele>
        <time>2014-06-02T08:32:14Z</time>
      </trkpt>
      <trkpt lat="42.36934" lon="0.20838">
        <ele>788.42</ele>
        <time>2014-06-02T08:32:17Z</time>
      </trkpt>
      <trkpt lat="42.3695" lon="0.20862">
        <ele>789.86</ele>
        <time>2014-06-02T08:32:22Z</time>
      </trkpt>
      <trkpt lat="42.36961" lon="0.20885">
        <ele>790.34</ele>
        <time>2014-06-02T08:32:27Z</time>
      </trkpt>
      <trkpt lat="42.36966" lon="0.20903">
        <ele>788.42</ele>
        <time>2014-06-02T08:32:30Z</time>
      </trkpt>
      <trkpt lat="42.36968" lon="0.20909">
        <ele>788.42</ele>
        <time>2014-06-02T08:32:31Z</time>
      </trkpt>
      <trkpt lat="42.36971" lon="0.20922">
        <ele>787.94</ele>
        <time>2014-06-02T08:32:33Z</time>
      </trkpt>
      <trkpt lat="42.36973" lon="0.20944">
        <ele>786.98</ele>
        <time>2014-06-02T08:32:36Z</time>
      </trkpt>
      <trkpt lat="42.36974" lon="0.20967">
        <ele>786.5</ele>
        <time>2014-06-02T08:32:39Z</time>
      </trkpt>
      <trkpt lat="42.36975" lon="0.2099">
        <ele>786.02</ele>
        <time>2014-06-02T08:32:42Z</time>
      </trkpt>
      <trkpt lat="42.36984" lon="0.21034">
        <ele>787.46</ele>
        <time>2014-06-02T08:32:50Z</time>
      </trkpt>
      <trkpt lat="42.36987" lon="0.21048">
        <ele>786.5</ele>
        <time>2014-06-02T08:32:52Z</time>
      </trkpt>
      <trkpt lat="42.36987" lon="0.21079">
        <ele>785.05</ele>
        <time>2014-06-02T08:32:56Z</time>
      </trkpt>
      <trkpt lat="42.36993" lon="0.21126">
        <ele>786.5</ele>
        <time>2014-06-02T08:33:06Z</time>
      </trkpt>
      <trkpt lat="42.36991" lon="0.2114">
        <ele>786.02</ele>
        <time>2014-06-02T08:33:12Z</time>
      </trkpt>
      <trkpt lat="42.36991" lon="0.21195">
        <ele>784.09</ele>
        <time>2014-06-02T08:33:20Z</time>
      </trkpt>
      <trkpt lat="42.36989" lon="0.21217">
        <ele>784.09</ele>
        <time>2014-06-02T08:33:23Z</time>
      </trkpt>
      <trkpt lat="42.36986" lon="0.21269">
        <ele>784.57</ele>
        <time>2014-06-02T08:33:30Z</time>
      </trkpt>
      <trkpt lat="42.36989" lon="0.21274">
        <ele>786.02</ele>
        <time>2014-06-02T08:33:39Z</time>
      </trkpt>
      <trkpt lat="42.36989" lon="0.21276">
        <ele>785.53</ele>
        <time>2014-06-02T08:33:44Z</time>
      </trkpt>
      <trkpt lat="42.36986" lon="0.21281">
        <ele>785.53</ele>
        <time>2014-06-02T08:33:49Z</time>
      </trkpt>
      <trkpt lat="42.36985" lon="0.21283">
        <ele>785.53</ele>
        <time>2014-06-02T08:33:51Z</time>
      </trkpt>
      <trkpt lat="42.36983" lon="0.21285">
        <ele>785.05</ele>
        <time>2014-06-02T08:33:53Z</time>
      </trkpt>
      <trkpt lat="42.36967" lon="0.21295">
        <ele>782.17</ele>
        <time>2014-06-02T08:33:58Z</time>
      </trkpt>
      <trkpt lat="42.3696" lon="0.21303">
        <ele>782.65</ele>
        <time>2014-06-02T08:34:01Z</time>
      </trkpt>
      <trkpt lat="42.36956" lon="0.21317">
        <ele>781.69</ele>
        <time>2014-06-02T08:34:06Z</time>
      </trkpt>
      <trkpt lat="42.36955" lon="0.21327">
        <ele>780.73</ele>
        <time>2014-06-02T08:34:10Z</time>
      </trkpt>
      <trkpt lat="42.3696" lon="0.21344">
        <ele>777.84</ele>
        <time>2014-06-02T08:34:14Z</time>
      </trkpt>
      <trkpt lat="42.36963" lon="0.21375">
        <ele>770.63</ele>
        <time>2014-06-02T08:34:18Z</time>
      </trkpt>
      <trkpt lat="42.36965" lon="0.21397">
        <ele>768.71</ele>
        <time>2014-06-02T08:34:21Z</time>
      </trkpt>
      <trkpt lat="42.36963" lon="0.21428">
        <ele>765.35</ele>
        <time>2014-06-02T08:34:26Z</time>
      </trkpt>
      <trkpt lat="42.36973" lon="0.21448">
        <ele>762.46</ele>
        <time>2014-06-02T08:34:30Z</time>
      </trkpt>
      <trkpt lat="42.36991" lon="0.21467">
        <ele>759.58</ele>
        <time>2014-06-02T08:34:34Z</time>
      </trkpt>
      <trkpt lat="42.36997" lon="0.21493">
        <ele>756.69</ele>
        <time>2014-06-02T08:34:40Z</time>
      </trkpt>
      <trkpt lat="42.37004" lon="0.21518">
        <ele>750.93</ele>
        <time>2014-06-02T08:34:46Z</time>
      </trkpt>
      <trkpt lat="42.37009" lon="0.21536">
        <ele>749.97</ele>
        <time>2014-06-02T08:34:53Z</time>
      </trkpt>
      <trkpt lat="42.3701" lon="0.21544">
        <ele>749.97</ele>
        <time>2014-06-02T08:34:55Z</time>
      </trkpt>
      <trkpt lat="42.37013" lon="0.21555">
        <ele>749.49</ele>
        <time>2014-06-02T08:34:57Z</time>
      </trkpt>
      <trkpt lat="42.37018" lon="0.21581">
        <ele>749.97</ele>
        <time>2014-06-02T08:35:02Z</time>
      </trkpt>
      <trkpt lat="42.3702" lon="0.21591">
        <ele>749.97</ele>
        <time>2014-06-02T08:35:04Z</time>
      </trkpt>
      <trkpt lat="42.37014" lon="0.21612">
        <ele>749.97</ele>
        <time>2014-06-02T08:35:08Z</time>
      </trkpt>
      <trkpt lat="42.37006" lon="0.21639">
        <ele>749.97</ele>
        <time>2014-06-02T08:35:13Z</time>
      </trkpt>
      <trkpt lat="42.37015" lon="0.2168">
        <ele>746.12</ele>
        <time>2014-06-02T08:35:21Z</time>
      </trkpt>
      <trkpt lat="42.3703" lon="0.21705">
        <ele>742.76</ele>
        <time>2014-06-02T08:35:26Z</time>
      </trkpt>
      <trkpt lat="42.37038" lon="0.21708">
        <ele>740.35</ele>
        <time>2014-06-02T08:35:29Z</time>
      </trkpt>
      <trkpt lat="42.37041" lon="0.21712">
        <ele>740.83</ele>
        <time>2014-06-02T08:35:33Z</time>
      </trkpt>
      <trkpt lat="42.37043" lon="0.21724">
        <ele>740.83</ele>
        <time>2014-06-02T08:35:38Z</time>
      </trkpt>
      <trkpt lat="42.37049" lon="0.21767">
        <ele>742.28</ele>
        <time>2014-06-02T08:35:47Z</time>
      </trkpt>
      <trkpt lat="42.37051" lon="0.21778">
        <ele>741.79</ele>
        <time>2014-06-02T08:35:49Z</time>
      </trkpt>
      <trkpt lat="42.37055" lon="0.21787">
        <ele>740.83</ele>
        <time>2014-06-02T08:35:51Z</time>
      </trkpt>
      <trkpt lat="42.37062" lon="0.21804">
        <ele>739.87</ele>
        <time>2014-06-02T08:35:54Z</time>
      </trkpt>
      <trkpt lat="42.37067" lon="0.21829">
        <ele>740.83</ele>
        <time>2014-06-02T08:36:01Z</time>
      </trkpt>
      <trkpt lat="42.37065" lon="0.2185">
        <ele>743.24</ele>
        <time>2014-06-02T08:36:15Z</time>
      </trkpt>
      <trkpt lat="42.37065" lon="0.21855">
        <ele>744.2</ele>
        <time>2014-06-02T08:36:19Z</time>
      </trkpt>
      <trkpt lat="42.37061" lon="0.21893">
        <ele>743.24</ele>
        <time>2014-06-02T08:36:29Z</time>
      </trkpt>
      <trkpt lat="42.37063" lon="0.21937">
        <ele>741.31</ele>
        <time>2014-06-02T08:36:39Z</time>
      </trkpt>
      <trkpt lat="42.37064" lon="0.21944">
        <ele>742.28</ele>
        <time>2014-06-02T08:36:44Z</time>
      </trkpt>
      <trkpt lat="42.37054" lon="0.21953">
        <ele>742.76</ele>
        <time>2014-06-02T08:36:56Z</time>
      </trkpt>
      <trkpt lat="42.37052" lon="0.21954">
        <ele>743.72</ele>
        <time>2014-06-02T08:36:58Z</time>
      </trkpt>
      <trkpt lat="42.37048" lon="0.21964">
        <ele>744.68</ele>
        <time>2014-06-02T08:37:05Z</time>
      </trkpt>
      <trkpt lat="42.37036" lon="0.21982">
        <ele>744.68</ele>
        <time>2014-06-02T08:37:15Z</time>
      </trkpt>
      <trkpt lat="42.37036" lon="0.21987">
        <ele>744.68</ele>
        <time>2014-06-02T08:37:25Z</time>
      </trkpt>
      <trkpt lat="42.37036" lon="0.21987">
        <ele>744.68</ele>
        <time>2014-06-02T08:37:50Z</time>
      </trkpt>
      <trkpt lat="42.37036" lon="0.21986">
        <ele>741.31</ele>
        <time>2014-06-02T08:38:09Z</time>
      </trkpt>
      <trkpt lat="42.37036" lon="0.21986">
        <ele>744.68</ele>
        <time>2014-06-02T08:38:10Z</time>
      </trkpt>
      <trkpt lat="42.37036" lon="0.21986">
        <ele>744.2</ele>
        <time>2014-06-02T08:38:14Z</time>
      </trkpt>
      <trkpt lat="42.37033" lon="0.21985">
        <ele>744.68</ele>
        <time>2014-06-02T08:38:19Z</time>
      </trkpt>
      <trkpt lat="42.37035" lon="0.21985">
        <ele>744.68</ele>
        <time>2014-06-02T08:38:37Z</time>
      </trkpt>
      <trkpt lat="42.37035" lon="0.21986">
        <ele>748.52</ele>
        <time>2014-06-02T08:38:43Z</time>
      </trkpt>
      <trkpt lat="42.37035" lon="0.21986">
        <ele>744.68</ele>
        <time>2014-06-02T08:38:45Z</time>
      </trkpt>
      <trkpt lat="42.37035" lon="0.21986">
        <ele>739.87</ele>
        <time>2014-06-02T08:38:47Z</time>
      </trkpt>
      <trkpt lat="42.37035" lon="0.21986">
        <ele>745.64</ele>
        <time>2014-06-02T08:38:48Z</time>
      </trkpt>
      <trkpt lat="42.37035" lon="0.21986">
        <ele>741.79</ele>
        <time>2014-06-02T08:38:55Z</time>
      </trkpt>
      <trkpt lat="42.37035" lon="0.21986">
        <ele>743.72</ele>
        <time>2014-06-02T08:38:56Z</time>
      </trkpt>
      <trkpt lat="42.37035" lon="0.21986">
        <ele>745.64</ele>
        <time>2014-06-02T08:38:58Z</time>
      </trkpt>
      <trkpt lat="42.37035" lon="0.21985">
        <ele>745.16</ele>
        <time>2014-06-02T08:39:23Z</time>
      </trkpt>
      <trkpt lat="42.37035" lon="0.21985">
        <ele>745.16</ele>
        <time>2014-06-02T08:39:36Z</time>
      </trkpt>
      <trkpt lat="42.37036" lon="0.21986">
        <ele>744.68</ele>
        <time>2014-06-02T08:39:38Z</time>
      </trkpt>
      <trkpt lat="42.37045" lon="0.22005">
        <ele>743.72</ele>
        <time>2014-06-02T08:39:45Z</time>
      </trkpt>
      <trkpt lat="42.37049" lon="0.22016">
        <ele>742.28</ele>
        <time>2014-06-02T08:39:47Z</time>
      </trkpt>
      <trkpt lat="42.37064" lon="0.22042">
        <ele>740.83</ele>
        <time>2014-06-02T08:39:55Z</time>
      </trkpt>
      <trkpt lat="42.37066" lon="0.22042">
        <ele>741.79</ele>
        <time>2014-06-02T08:40:05Z</time>
      </trkpt>
      <trkpt lat="42.37067" lon="0.22043">
        <ele>741.79</ele>
        <time>2014-06-02T08:40:10Z</time>
      </trkpt>
      <trkpt lat="42.3707" lon="0.22051">
        <ele>741.79</ele>
        <time>2014-06-02T08:40:14Z</time>
      </trkpt>
      <trkpt lat="42.37072" lon="0.22056">
        <ele>741.31</ele>
        <time>2014-06-02T08:40:16Z</time>
      </trkpt>
      <trkpt lat="42.37083" lon="0.22082">
        <ele>740.35</ele>
        <time>2014-06-02T08:40:24Z</time>
      </trkpt>
      <trkpt lat="42.37084" lon="0.22124">
        <ele>741.31</ele>
        <time>2014-06-02T08:40:32Z</time>
      </trkpt>
      <trkpt lat="42.37078" lon="0.22146">
        <ele>740.35</ele>
        <time>2014-06-02T08:40:36Z</time>
      </trkpt>
      <trkpt lat="42.37074" lon="0.22182">
        <ele>739.39</ele>
        <time>2014-06-02T08:40:42Z</time>
      </trkpt>
      <trkpt lat="42.37084" lon="0.22212">
        <ele>741.31</ele>
        <time>2014-06-02T08:40:48Z</time>
      </trkpt>
      <trkpt lat="42.37094" lon="0.22239">
        <ele>742.28</ele>
        <time>2014-06-02T08:40:55Z</time>
      </trkpt>
      <trkpt lat="42.37092" lon="0.22233">
        <ele>741.79</ele>
        <time>2014-06-02T08:41:03Z</time>
      </trkpt>
      <trkpt lat="42.37089" lon="0.22234">
        <ele>741.79</ele>
        <time>2014-06-02T08:41:06Z</time>
      </trkpt>
      <trkpt lat="42.3709" lon="0.22242">
        <ele>740.83</ele>
        <time>2014-06-02T08:41:08Z</time>
      </trkpt>
      <trkpt lat="42.37092" lon="0.22253">
        <ele>740.35</ele>
        <time>2014-06-02T08:41:10Z</time>
      </trkpt>
      <trkpt lat="42.37094" lon="0.22271">
        <ele>739.87</ele>
        <time>2014-06-02T08:41:13Z</time>
      </trkpt>
      <trkpt lat="42.37095" lon="0.22296">
        <ele>739.87</ele>
        <time>2014-06-02T08:41:17Z</time>
      </trkpt>
      <trkpt lat="42.37098" lon="0.22336">
        <ele>739.87</ele>
        <time>2014-06-02T08:41:26Z</time>
      </trkpt>
      <trkpt lat="42.37109" lon="0.22364">
        <ele>741.31</ele>
        <time>2014-06-02T08:41:36Z</time>
      </trkpt>
      <trkpt lat="42.37111" lon="0.22372">
        <ele>741.79</ele>
        <time>2014-06-02T08:41:47Z</time>
      </trkpt>
      <trkpt lat="42.37111" lon="0.22373">
        <ele>741.79</ele>
        <time>2014-06-02T08:41:48Z</time>
      </trkpt>
      <trkpt lat="42.37116" lon="0.22379">
        <ele>742.28</ele>
        <time>2014-06-02T08:41:58Z</time>
      </trkpt>
      <trkpt lat="42.37121" lon="0.22374">
        <ele>742.76</ele>
        <time>2014-06-02T08:42:05Z</time>
      </trkpt>
      <trkpt lat="42.37124" lon="0.22388">
        <ele>743.72</ele>
        <time>2014-06-02T08:42:15Z</time>
      </trkpt>
      <trkpt lat="42.37125" lon="0.22388">
        <ele>743.72</ele>
        <time>2014-06-02T08:42:23Z</time>
      </trkpt>
      <trkpt lat="42.37125" lon="0.22408">
        <ele>744.68</ele>
        <time>2014-06-02T08:42:32Z</time>
      </trkpt>
      <trkpt lat="42.37126" lon="0.22411">
        <ele>744.68</ele>
        <time>2014-06-02T08:42:33Z</time>
      </trkpt>
      <trkpt lat="42.37132" lon="0.22433">
        <ele>747.08</ele>
        <time>2014-06-02T08:42:41Z</time>
      </trkpt>
      <trkpt lat="42.37136" lon="0.22462">
        <ele>749</ele>
        <time>2014-06-02T08:42:54Z</time>
      </trkpt>
      <trkpt lat="42.37139" lon="0.22468">
        <ele>749.97</ele>
        <time>2014-06-02T08:42:57Z</time>
      </trkpt>
      <trkpt lat="42.37144" lon="0.22478">
        <ele>750.93</ele>
        <time>2014-06-02T08:43:02Z</time>
      </trkpt>
      <trkpt lat="42.37144" lon="0.22484">
        <ele>750.93</ele>
        <time>2014-06-02T08:43:04Z</time>
      </trkpt>
      <trkpt lat="42.37151" lon="0.22496">
        <ele>752.37</ele>
        <time>2014-06-02T08:43:10Z</time>
      </trkpt>
      <trkpt lat="42.37158" lon="0.22517">
        <ele>753.81</ele>
        <time>2014-06-02T08:43:20Z</time>
      </trkpt>
      <trkpt lat="42.37162" lon="0.22525">
        <ele>754.77</ele>
        <time>2014-06-02T08:43:25Z</time>
      </trkpt>
      <trkpt lat="42.37164" lon="0.22529">
        <ele>755.25</ele>
        <time>2014-06-02T08:43:27Z</time>
      </trkpt>
      <trkpt lat="42.37169" lon="0.22543">
        <ele>756.21</ele>
        <time>2014-06-02T08:43:34Z</time>
      </trkpt>
      <trkpt lat="42.37177" lon="0.22569">
        <ele>756.69</ele>
        <time>2014-06-02T08:43:44Z</time>
      </trkpt>
      <trkpt lat="42.37178" lon="0.22573">
        <ele>756.21</ele>
        <time>2014-06-02T08:43:45Z</time>
      </trkpt>
      <trkpt lat="42.37169" lon="0.22615">
        <ele>758.14</ele>
        <time>2014-06-02T08:43:56Z</time>
      </trkpt>
      <trkpt lat="42.37161" lon="0.22644">
        <ele>761.5</ele>
        <time>2014-06-02T08:44:05Z</time>
      </trkpt>
      <trkpt lat="42.37153" lon="0.22685">
        <ele>763.42</ele>
        <time>2014-06-02T08:44:19Z</time>
      </trkpt>
      <trkpt lat="42.37145" lon="0.22711">
        <ele>766.31</ele>
        <time>2014-06-02T08:44:30Z</time>
      </trkpt>
      <trkpt lat="42.37136" lon="0.22748">
        <ele>768.71</ele>
        <time>2014-06-02T08:44:44Z</time>
      </trkpt>
      <trkpt lat="42.37116" lon="0.2278">
        <ele>770.15</ele>
        <time>2014-06-02T08:44:58Z</time>
      </trkpt>
      <trkpt lat="42.37087" lon="0.22794">
        <ele>773.04</ele>
        <time>2014-06-02T08:45:12Z</time>
      </trkpt>
      <trkpt lat="42.37086" lon="0.22825">
        <ele>776.4</ele>
        <time>2014-06-02T08:45:24Z</time>
      </trkpt>
      <trkpt lat="42.37094" lon="0.22852">
        <ele>779.29</ele>
        <time>2014-06-02T08:45:35Z</time>
      </trkpt>
      <trkpt lat="42.37093" lon="0.22891">
        <ele>781.69</ele>
        <time>2014-06-02T08:45:49Z</time>
      </trkpt>
      <trkpt lat="42.37091" lon="0.22901">
        <ele>782.17</ele>
        <time>2014-06-02T08:45:53Z</time>
      </trkpt>
      <trkpt lat="42.37093" lon="0.2291">
        <ele>782.17</ele>
        <time>2014-06-02T08:46:04Z</time>
      </trkpt>
      <trkpt lat="42.37092" lon="0.22911">
        <ele>782.17</ele>
        <time>2014-06-02T08:46:42Z</time>
      </trkpt>
      <trkpt lat="42.37092" lon="0.22911">
        <ele>782.17</ele>
        <time>2014-06-02T08:46:48Z</time>
      </trkpt>
      <trkpt lat="42.37091" lon="0.22909">
        <ele>782.65</ele>
        <time>2014-06-02T08:46:53Z</time>
      </trkpt>
      <trkpt lat="42.37079" lon="0.22928">
        <ele>783.61</ele>
        <time>2014-06-02T08:47:03Z</time>
      </trkpt>
      <trkpt lat="42.37057" lon="0.22949">
        <ele>785.53</ele>
        <time>2014-06-02T08:47:15Z</time>
      </trkpt>
      <trkpt lat="42.37029" lon="0.22973">
        <ele>786.98</ele>
        <time>2014-06-02T08:47:28Z</time>
      </trkpt>
      <trkpt lat="42.37005" lon="0.23014">
        <ele>789.86</ele>
        <time>2014-06-02T08:47:42Z</time>
      </trkpt>
      <trkpt lat="42.37003" lon="0.23019">
        <ele>789.86</ele>
        <time>2014-06-02T08:47:43Z</time>
      </trkpt>
      <trkpt lat="42.36976" lon="0.23048">
        <ele>790.34</ele>
        <time>2014-06-02T08:47:51Z</time>
      </trkpt>
      <trkpt lat="42.36959" lon="0.23073">
        <ele>790.34</ele>
        <time>2014-06-02T08:47:56Z</time>
      </trkpt>
      <trkpt lat="42.36928" lon="0.23104">
        <ele>791.78</ele>
        <time>2014-06-02T08:48:04Z</time>
      </trkpt>
      <trkpt lat="42.36897" lon="0.23107">
        <ele>790.82</ele>
        <time>2014-06-02T08:48:10Z</time>
      </trkpt>
      <trkpt lat="42.36888" lon="0.23109">
        <ele>790.82</ele>
        <time>2014-06-02T08:48:11Z</time>
      </trkpt>
      <trkpt lat="42.36886" lon="0.23111">
        <ele>790.82</ele>
        <time>2014-06-02T08:48:12Z</time>
      </trkpt>
      <trkpt lat="42.36876" lon="0.23127">
        <ele>792.26</ele>
        <time>2014-06-02T08:48:15Z</time>
      </trkpt>
      <trkpt lat="42.36873" lon="0.23141">
        <ele>793.22</ele>
        <time>2014-06-02T08:48:17Z</time>
      </trkpt>
      <trkpt lat="42.36869" lon="0.23153">
        <ele>793.71</ele>
        <time>2014-06-02T08:48:19Z</time>
      </trkpt>
      <trkpt lat="42.36834" lon="0.23218">
        <ele>794.67</ele>
        <time>2014-06-02T08:48:31Z</time>
      </trkpt>
      <trkpt lat="42.36797" lon="0.23271">
        <ele>796.59</ele>
        <time>2014-06-02T08:48:45Z</time>
      </trkpt>
      <trkpt lat="42.36782" lon="0.2328">
        <ele>798.51</ele>
        <time>2014-06-02T08:48:51Z</time>
      </trkpt>
      <trkpt lat="42.36758" lon="0.23293">
        <ele>800.44</ele>
        <time>2014-06-02T08:49:02Z</time>
      </trkpt>
      <trkpt lat="42.36705" lon="0.23297">
        <ele>799.47</ele>
        <time>2014-06-02T08:49:18Z</time>
      </trkpt>
      <trkpt lat="42.36693" lon="0.23296">
        <ele>799.47</ele>
        <time>2014-06-02T08:49:21Z</time>
      </trkpt>
      <trkpt lat="42.36684" lon="0.23319">
        <ele>798.99</ele>
        <time>2014-06-02T08:49:26Z</time>
      </trkpt>
      <trkpt lat="42.36678" lon="0.23354">
        <ele>802.36</ele>
        <time>2014-06-02T08:49:36Z</time>
      </trkpt>
      <trkpt lat="42.36674" lon="0.23358">
        <ele>803.32</ele>
        <time>2014-06-02T08:49:38Z</time>
      </trkpt>
      <trkpt lat="42.36668" lon="0.23363">
        <ele>804.28</ele>
        <time>2014-06-02T08:49:41Z</time>
      </trkpt>
      <trkpt lat="42.36666" lon="0.23383">
        <ele>804.76</ele>
        <time>2014-06-02T08:49:47Z</time>
      </trkpt>
      <trkpt lat="42.3667" lon="0.23439">
        <ele>807.16</ele>
        <time>2014-06-02T08:50:03Z</time>
      </trkpt>
      <trkpt lat="42.36639" lon="0.23462">
        <ele>808.13</ele>
        <time>2014-06-02T08:50:15Z</time>
      </trkpt>
      <trkpt lat="42.36621" lon="0.23481">
        <ele>809.57</ele>
        <time>2014-06-02T08:50:24Z</time>
      </trkpt>
      <trkpt lat="42.36613" lon="0.23518">
        <ele>810.05</ele>
        <time>2014-06-02T08:50:35Z</time>
      </trkpt>
      <trkpt lat="42.36612" lon="0.23527">
        <ele>810.05</ele>
        <time>2014-06-02T08:50:37Z</time>
      </trkpt>
      <trkpt lat="42.36596" lon="0.2356">
        <ele>807.64</ele>
        <time>2014-06-02T08:50:44Z</time>
      </trkpt>
      <trkpt lat="42.36589" lon="0.23571">
        <ele>807.16</ele>
        <time>2014-06-02T08:50:46Z</time>
      </trkpt>
      <trkpt lat="42.36579" lon="0.2358">
        <ele>806.2</ele>
        <time>2014-06-02T08:50:48Z</time>
      </trkpt>
      <trkpt lat="42.36545" lon="0.23586">
        <ele>806.2</ele>
        <time>2014-06-02T08:50:54Z</time>
      </trkpt>
      <trkpt lat="42.36528" lon="0.23593">
        <ele>807.16</ele>
        <time>2014-06-02T08:50:57Z</time>
      </trkpt>
      <trkpt lat="42.36476" lon="0.23627">
        <ele>804.28</ele>
        <time>2014-06-02T08:51:06Z</time>
      </trkpt>
      <trkpt lat="42.36469" lon="0.23633">
        <ele>803.8</ele>
        <time>2014-06-02T08:51:07Z</time>
      </trkpt>
      <trkpt lat="42.36457" lon="0.23646">
        <ele>803.32</ele>
        <time>2014-06-02T08:51:09Z</time>
      </trkpt>
      <trkpt lat="42.36411" lon="0.23642">
        <ele>804.28</ele>
        <time>2014-06-02T08:51:16Z</time>
      </trkpt>
      <trkpt lat="42.3639" lon="0.23654">
        <ele>805.24</ele>
        <time>2014-06-02T08:51:20Z</time>
      </trkpt>
      <trkpt lat="42.36385" lon="0.23671">
        <ele>804.76</ele>
        <time>2014-06-02T08:51:22Z</time>
      </trkpt>
      <trkpt lat="42.3637" lon="0.23688">
        <ele>800.44</ele>
        <time>2014-06-02T08:51:25Z</time>
      </trkpt>
      <trkpt lat="42.36363" lon="0.23691">
        <ele>804.28</ele>
        <time>2014-06-02T08:51:26Z</time>
      </trkpt>
      <trkpt lat="42.36357" lon="0.23694">
        <ele>800.92</ele>
        <time>2014-06-02T08:51:27Z</time>
      </trkpt>
      <trkpt lat="42.3635" lon="0.23698">
        <ele>803.32</ele>
        <time>2014-06-02T08:51:28Z</time>
      </trkpt>
      <trkpt lat="42.36308" lon="0.23695">
        <ele>802.84</ele>
        <time>2014-06-02T08:51:34Z</time>
      </trkpt>
      <trkpt lat="42.36277" lon="0.23679">
        <ele>802.84</ele>
        <time>2014-06-02T08:51:39Z</time>
      </trkpt>
      <trkpt lat="42.3625" lon="0.2369">
        <ele>804.28</ele>
        <time>2014-06-02T08:51:44Z</time>
      </trkpt>
      <trkpt lat="42.36243" lon="0.23709">
        <ele>805.24</ele>
        <time>2014-06-02T08:51:47Z</time>
      </trkpt>
      <trkpt lat="42.36235" lon="0.23723">
        <ele>805.72</ele>
        <time>2014-06-02T08:51:50Z</time>
      </trkpt>
      <trkpt lat="42.36223" lon="0.23734">
        <ele>805.72</ele>
        <time>2014-06-02T08:51:53Z</time>
      </trkpt>
      <trkpt lat="42.36205" lon="0.23747">
        <ele>806.2</ele>
        <time>2014-06-02T08:51:57Z</time>
      </trkpt>
      <trkpt lat="42.3618" lon="0.23754">
        <ele>807.16</ele>
        <time>2014-06-02T08:52:02Z</time>
      </trkpt>
      <trkpt lat="42.3617" lon="0.23752">
        <ele>807.16</ele>
        <time>2014-06-02T08:52:04Z</time>
      </trkpt>
      <trkpt lat="42.36145" lon="0.23774">
        <ele>806.68</ele>
        <time>2014-06-02T08:52:10Z</time>
      </trkpt>
      <trkpt lat="42.36131" lon="0.23806">
        <ele>803.32</ele>
        <time>2014-06-02T08:52:14Z</time>
      </trkpt>
      <trkpt lat="42.36124" lon="0.23839">
        <ele>800.92</ele>
        <time>2014-06-02T08:52:17Z</time>
      </trkpt>
      <trkpt lat="42.36121" lon="0.23886">
        <ele>797.55</ele>
        <time>2014-06-02T08:52:21Z</time>
      </trkpt>
      <trkpt lat="42.3611" lon="0.23893">
        <ele>797.55</ele>
        <time>2014-06-02T08:52:27Z</time>
      </trkpt>
      <trkpt lat="42.36107" lon="0.23888">
        <ele>797.55</ele>
        <time>2014-06-02T08:52:28Z</time>
      </trkpt>
      <trkpt lat="42.36092" lon="0.23864">
        <ele>797.07</ele>
        <time>2014-06-02T08:52:32Z</time>
      </trkpt>
      <trkpt lat="42.36078" lon="0.23846">
        <ele>796.59</ele>
        <time>2014-06-02T08:52:35Z</time>
      </trkpt>
      <trkpt lat="42.36054" lon="0.23829">
        <ele>795.15</ele>
        <time>2014-06-02T08:52:39Z</time>
      </trkpt>
      <trkpt lat="42.36047" lon="0.23829">
        <ele>794.19</ele>
        <time>2014-06-02T08:52:40Z</time>
      </trkpt>
      <trkpt lat="42.35998" lon="0.23829">
        <ele>789.86</ele>
        <time>2014-06-02T08:52:47Z</time>
      </trkpt>
      <trkpt lat="42.35983" lon="0.23829">
        <ele>788.9</ele>
        <time>2014-06-02T08:52:49Z</time>
      </trkpt>
      <trkpt lat="42.35968" lon="0.23824">
        <ele>787.94</ele>
        <time>2014-06-02T08:52:51Z</time>
      </trkpt>
      <trkpt lat="42.35943" lon="0.23816">
        <ele>787.46</ele>
        <time>2014-06-02T08:52:55Z</time>
      </trkpt>
      <trkpt lat="42.359" lon="0.23839">
        <ele>786.02</ele>
        <time>2014-06-02T08:53:03Z</time>
      </trkpt>
      <trkpt lat="42.35879" lon="0.23847">
        <ele>784.57</ele>
        <time>2014-06-02T08:53:06Z</time>
      </trkpt>
      <trkpt lat="42.35864" lon="0.23848">
        <ele>783.13</ele>
        <time>2014-06-02T08:53:08Z</time>
      </trkpt>
      <trkpt lat="42.35841" lon="0.23846">
        <ele>782.17</ele>
        <time>2014-06-02T08:53:11Z</time>
      </trkpt>
      <trkpt lat="42.35821" lon="0.23843">
        <ele>780.25</ele>
        <time>2014-06-02T08:53:14Z</time>
      </trkpt>
      <trkpt lat="42.3579" lon="0.23832">
        <ele>776.4</ele>
        <time>2014-06-02T08:53:18Z</time>
      </trkpt>
      <trkpt lat="42.35764" lon="0.23844">
        <ele>772.08</ele>
        <time>2014-06-02T08:53:22Z</time>
      </trkpt>
      <trkpt lat="42.35744" lon="0.23872">
        <ele>768.71</ele>
        <time>2014-06-02T08:53:26Z</time>
      </trkpt>
      <trkpt lat="42.3575" lon="0.23904">
        <ele>765.35</ele>
        <time>2014-06-02T08:53:30Z</time>
      </trkpt>
      <trkpt lat="42.35767" lon="0.23927">
        <ele>761.5</ele>
        <time>2014-06-02T08:53:34Z</time>
      </trkpt>
      <trkpt lat="42.35747" lon="0.23942">
        <ele>758.14</ele>
        <time>2014-06-02T08:53:38Z</time>
      </trkpt>
      <trkpt lat="42.35712" lon="0.23953">
        <ele>754.29</ele>
        <time>2014-06-02T08:53:42Z</time>
      </trkpt>
      <trkpt lat="42.35695" lon="0.23962">
        <ele>752.37</ele>
        <time>2014-06-02T08:53:44Z</time>
      </trkpt>
      <trkpt lat="42.35655" lon="0.23984">
        <ele>750.45</ele>
        <time>2014-06-02T08:53:49Z</time>
      </trkpt>
      <trkpt lat="42.35625" lon="0.23992">
        <ele>749</ele>
        <time>2014-06-02T08:53:53Z</time>
      </trkpt>
      <trkpt lat="42.35613" lon="0.23995">
        <ele>749.49</ele>
        <time>2014-06-02T08:53:55Z</time>
      </trkpt>
      <trkpt lat="42.356" lon="0.24001">
        <ele>752.85</ele>
        <time>2014-06-02T08:54:00Z</time>
      </trkpt>
      <trkpt lat="42.35572" lon="0.23994">
        <ele>746.12</ele>
        <time>2014-06-02T08:54:10Z</time>
      </trkpt>
      <trkpt lat="42.35567" lon="0.23991">
        <ele>746.6</ele>
        <time>2014-06-02T08:54:11Z</time>
      </trkpt>
      <trkpt lat="42.35553" lon="0.2398">
        <ele>744.68</ele>
        <time>2014-06-02T08:54:14Z</time>
      </trkpt>
      <trkpt lat="42.35515" lon="0.23952">
        <ele>745.16</ele>
        <time>2014-06-02T08:54:25Z</time>
      </trkpt>
      <trkpt lat="42.35512" lon="0.23952">
        <ele>745.16</ele>
        <time>2014-06-02T08:54:26Z</time>
      </trkpt>
      <trkpt lat="42.35483" lon="0.23969">
        <ele>746.12</ele>
        <time>2014-06-02T08:54:35Z</time>
      </trkpt>
      <trkpt lat="42.35477" lon="0.23969">
        <ele>746.6</ele>
        <time>2014-06-02T08:54:37Z</time>
      </trkpt>
      <trkpt lat="42.35464" lon="0.23963">
        <ele>746.6</ele>
        <time>2014-06-02T08:54:41Z</time>
      </trkpt>
      <trkpt lat="42.35453" lon="0.23965">
        <ele>746.12</ele>
        <time>2014-06-02T08:54:44Z</time>
      </trkpt>
      <trkpt lat="42.35451" lon="0.23987">
        <ele>745.64</ele>
        <time>2014-06-02T08:54:47Z</time>
      </trkpt>
      <trkpt lat="42.35457" lon="0.24007">
        <ele>747.08</ele>
        <time>2014-06-02T08:54:51Z</time>
      </trkpt>
      <trkpt lat="42.35458" lon="0.24023">
        <ele>747.08</ele>
        <time>2014-06-02T08:54:54Z</time>
      </trkpt>
      <trkpt lat="42.35454" lon="0.24032">
        <ele>748.52</ele>
        <time>2014-06-02T08:54:57Z</time>
      </trkpt>
      <trkpt lat="42.35447" lon="0.24034">
        <ele>749.97</ele>
        <time>2014-06-02T08:55:00Z</time>
      </trkpt>
      <trkpt lat="42.35415" lon="0.24048">
        <ele>751.41</ele>
        <time>2014-06-02T08:55:11Z</time>
      </trkpt>
      <trkpt lat="42.354" lon="0.24054">
        <ele>750.45</ele>
        <time>2014-06-02T08:55:15Z</time>
      </trkpt>
      <trkpt lat="42.35379" lon="0.24063">
        <ele>749.97</ele>
        <time>2014-06-02T08:55:20Z</time>
      </trkpt>
      <trkpt lat="42.35347" lon="0.2409">
        <ele>745.64</ele>
        <time>2014-06-02T08:55:28Z</time>
      </trkpt>
      <trkpt lat="42.35324" lon="0.24111">
        <ele>741.31</ele>
        <time>2014-06-02T08:55:33Z</time>
      </trkpt>
      <trkpt lat="42.35295" lon="0.24137">
        <ele>739.87</ele>
        <time>2014-06-02T08:55:43Z</time>
      </trkpt>
      <trkpt lat="42.35279" lon="0.24139">
        <ele>740.35</ele>
        <time>2014-06-02T08:55:48Z</time>
      </trkpt>
      <trkpt lat="42.35271" lon="0.24139">
        <ele>742.28</ele>
        <time>2014-06-02T08:55:58Z</time>
      </trkpt>
      <trkpt lat="42.35272" lon="0.24141">
        <ele>741.79</ele>
        <time>2014-06-02T08:56:15Z</time>
      </trkpt>
      <trkpt lat="42.35272" lon="0.24141">
        <ele>740.83</ele>
        <time>2014-06-02T08:56:34Z</time>
      </trkpt>
      <trkpt lat="42.35273" lon="0.24142">
        <ele>741.31</ele>
        <time>2014-06-02T08:56:51Z</time>
      </trkpt>
      <trkpt lat="42.35272" lon="0.24143">
        <ele>741.31</ele>
        <time>2014-06-02T08:57:05Z</time>
      </trkpt>
      <trkpt lat="42.35272" lon="0.24143">
        <ele>741.31</ele>
        <time>2014-06-02T08:57:07Z</time>
      </trkpt>
      <trkpt lat="42.35269" lon="0.24143">
        <ele>742.28</ele>
        <time>2014-06-02T08:57:19Z</time>
      </trkpt>
      <trkpt lat="42.35272" lon="0.24144">
        <ele>740.83</ele>
        <time>2014-06-02T08:57:30Z</time>
      </trkpt>
      <trkpt lat="42.35276" lon="0.24144">
        <ele>740.35</ele>
        <time>2014-06-02T08:57:36Z</time>
      </trkpt>
      <trkpt lat="42.35284" lon="0.24144">
        <ele>739.87</ele>
        <time>2014-06-02T08:57:41Z</time>
      </trkpt>
      <trkpt lat="42.35287" lon="0.24141">
        <ele>739.87</ele>
        <time>2014-06-02T08:57:43Z</time>
      </trkpt>
      <trkpt lat="42.3531" lon="0.24133">
        <ele>740.35</ele>
        <time>2014-06-02T08:57:53Z</time>
      </trkpt>
      <trkpt lat="42.35312" lon="0.24132">
        <ele>739.87</ele>
        <time>2014-06-02T08:57:56Z</time>
      </trkpt>
      <trkpt lat="42.35314" lon="0.24127">
        <ele>740.83</ele>
        <time>2014-06-02T08:58:04Z</time>
      </trkpt>
      <trkpt lat="42.35313" lon="0.2413">
        <ele>740.35</ele>
        <time>2014-06-02T08:58:16Z</time>
      </trkpt>
      <trkpt lat="42.35313" lon="0.24135">
        <ele>738.91</ele>
        <time>2014-06-02T08:58:27Z</time>
      </trkpt>
      <trkpt lat="42.35315" lon="0.24135">
        <ele>738.43</ele>
        <time>2014-06-02T08:58:41Z</time>
      </trkpt>
      <trkpt lat="42.35317" lon="0.24135">
        <ele>737.47</ele>
        <time>2014-06-02T08:58:52Z</time>
      </trkpt>
      <trkpt lat="42.35317" lon="0.24136">
        <ele>736.99</ele>
        <time>2014-06-02T08:58:55Z</time>
      </trkpt>
      <trkpt lat="42.35312" lon="0.24143">
        <ele>736.51</ele>
        <time>2014-06-02T08:58:59Z</time>
      </trkpt>
      <trkpt lat="42.35308" lon="0.24147">
        <ele>735.55</ele>
        <time>2014-06-02T08:59:01Z</time>
      </trkpt>
      <trkpt lat="42.3528" lon="0.24159">
        <ele>732.66</ele>
        <time>2014-06-02T08:59:09Z</time>
      </trkpt>
      <trkpt lat="42.35276" lon="0.24158">
        <ele>732.66</ele>
        <time>2014-06-02T08:59:10Z</time>
      </trkpt>
      <trkpt lat="42.35241" lon="0.24146">
        <ele>732.18</ele>
        <time>2014-06-02T08:59:20Z</time>
      </trkpt>
      <trkpt lat="42.35235" lon="0.24141">
        <ele>731.7</ele>
        <time>2014-06-02T08:59:23Z</time>
      </trkpt>
      <trkpt lat="42.35229" lon="0.24142">
        <ele>732.18</ele>
        <time>2014-06-02T08:59:33Z</time>
      </trkpt>
      <trkpt lat="42.35227" lon="0.24146">
        <ele>732.66</ele>
        <time>2014-06-02T08:59:37Z</time>
      </trkpt>
      <trkpt lat="42.35226" lon="0.2415">
        <ele>732.66</ele>
        <time>2014-06-02T08:59:40Z</time>
      </trkpt>
      <trkpt lat="42.35229" lon="0.24167">
        <ele>732.18</ele>
        <time>2014-06-02T08:59:46Z</time>
      </trkpt>
      <trkpt lat="42.35228" lon="0.2417">
        <ele>732.66</ele>
        <time>2014-06-02T08:59:47Z</time>
      </trkpt>
      <trkpt lat="42.35221" lon="0.24182">
        <ele>733.62</ele>
        <time>2014-06-02T08:59:52Z</time>
      </trkpt>
      <trkpt lat="42.35214" lon="0.24184">
        <ele>735.55</ele>
        <time>2014-06-02T08:59:56Z</time>
      </trkpt>
      <trkpt lat="42.35195" lon="0.24199">
        <ele>736.03</ele>
        <time>2014-06-02T09:00:08Z</time>
      </trkpt>
      <trkpt lat="42.35188" lon="0.24206">
        <ele>736.03</ele>
        <time>2014-06-02T09:00:11Z</time>
      </trkpt>
      <trkpt lat="42.35178" lon="0.24212">
        <ele>736.51</ele>
        <time>2014-06-02T09:00:16Z</time>
      </trkpt>
      <trkpt lat="42.35169" lon="0.24218">
        <ele>736.99</ele>
        <time>2014-06-02T09:00:20Z</time>
      </trkpt>
      <trkpt lat="42.35154" lon="0.24226">
        <ele>737.95</ele>
        <time>2014-06-02T09:00:28Z</time>
      </trkpt>
      <trkpt lat="42.3514" lon="0.24233">
        <ele>740.83</ele>
        <time>2014-06-02T09:00:35Z</time>
      </trkpt>
      <trkpt lat="42.3513" lon="0.24238">
        <ele>743.24</ele>
        <time>2014-06-02T09:00:42Z</time>
      </trkpt>
      <trkpt lat="42.35126" lon="0.24242">
        <ele>744.2</ele>
        <time>2014-06-02T09:00:46Z</time>
      </trkpt>
      <trkpt lat="42.35112" lon="0.24254">
        <ele>746.12</ele>
        <time>2014-06-02T09:00:57Z</time>
      </trkpt>
      <trkpt lat="42.351" lon="0.24261">
        <ele>746.6</ele>
        <time>2014-06-02T09:01:04Z</time>
      </trkpt>
      <trkpt lat="42.35077" lon="0.24266">
        <ele>744.2</ele>
        <time>2014-06-02T09:01:12Z</time>
      </trkpt>
      <trkpt lat="42.35058" lon="0.24269">
        <ele>742.28</ele>
        <time>2014-06-02T09:01:16Z</time>
      </trkpt>
      <trkpt lat="42.35037" lon="0.2428">
        <ele>740.83</ele>
        <time>2014-06-02T09:01:22Z</time>
      </trkpt>
      <trkpt lat="42.35029" lon="0.24282">
        <ele>740.83</ele>
        <time>2014-06-02T09:01:24Z</time>
      </trkpt>
      <trkpt lat="42.35017" lon="0.24287">
        <ele>738.91</ele>
        <time>2014-06-02T09:01:28Z</time>
      </trkpt>
      <trkpt lat="42.3501" lon="0.24285">
        <ele>738.43</ele>
        <time>2014-06-02T09:01:30Z</time>
      </trkpt>
      <trkpt lat="42.34999" lon="0.24277">
        <ele>738.43</ele>
        <time>2014-06-02T09:01:35Z</time>
      </trkpt>
      <trkpt lat="42.34996" lon="0.24275">
        <ele>738.91</ele>
        <time>2014-06-02T09:01:36Z</time>
      </trkpt>
      <trkpt lat="42.34988" lon="0.2429">
        <ele>737.47</ele>
        <time>2014-06-02T09:01:45Z</time>
      </trkpt>
      <trkpt lat="42.34987" lon="0.24316">
        <ele>736.03</ele>
        <time>2014-06-02T09:01:51Z</time>
      </trkpt>
      <trkpt lat="42.34975" lon="0.24325">
        <ele>735.55</ele>
        <time>2014-06-02T09:01:56Z</time>
      </trkpt>
      <trkpt lat="42.34958" lon="0.24334">
        <ele>733.62</ele>
        <time>2014-06-02T09:02:03Z</time>
      </trkpt>
      <trkpt lat="42.34928" lon="0.24346">
        <ele>731.22</ele>
        <time>2014-06-02T09:02:12Z</time>
      </trkpt>
      <trkpt lat="42.34919" lon="0.24348">
        <ele>730.26</ele>
        <time>2014-06-02T09:02:14Z</time>
      </trkpt>
      <trkpt lat="42.34898" lon="0.24359">
        <ele>729.3</ele>
        <time>2014-06-02T09:02:20Z</time>
      </trkpt>
      <trkpt lat="42.34895" lon="0.2436">
        <ele>729.3</ele>
        <time>2014-06-02T09:02:21Z</time>
      </trkpt>
      <trkpt lat="42.34891" lon="0.24361">
        <ele>728.82</ele>
        <time>2014-06-02T09:02:22Z</time>
      </trkpt>
      <trkpt lat="42.34889" lon="0.24362">
        <ele>728.34</ele>
        <time>2014-06-02T09:02:23Z</time>
      </trkpt>
      <trkpt lat="42.34877" lon="0.2437">
        <ele>729.3</ele>
        <time>2014-06-02T09:02:26Z</time>
      </trkpt>
      <trkpt lat="42.34848" lon="0.24389">
        <ele>730.26</ele>
        <time>2014-06-02T09:02:35Z</time>
      </trkpt>
      <trkpt lat="42.34834" lon="0.24395">
        <ele>730.74</ele>
        <time>2014-06-02T09:02:38Z</time>
      </trkpt>
      <trkpt lat="42.34819" lon="0.24402">
        <ele>730.74</ele>
        <time>2014-06-02T09:02:40Z</time>
      </trkpt>
      <trkpt lat="42.34802" lon="0.24405">
        <ele>730.74</ele>
        <time>2014-06-02T09:02:44Z</time>
      </trkpt>
      <trkpt lat="42.34774" lon="0.24402">
        <ele>729.3</ele>
        <time>2014-06-02T09:02:48Z</time>
      </trkpt>
      <trkpt lat="42.3474" lon="0.24406">
        <ele>724.49</ele>
        <time>2014-06-02T09:02:54Z</time>
      </trkpt>
      <trkpt lat="42.34707" lon="0.24415">
        <ele>719.68</ele>
        <time>2014-06-02T09:03:00Z</time>
      </trkpt>
      <trkpt lat="42.34699" lon="0.24415">
        <ele>718.24</ele>
        <time>2014-06-02T09:03:02Z</time>
      </trkpt>
      <trkpt lat="42.34691" lon="0.24404">
        <ele>715.36</ele>
        <time>2014-06-02T09:03:07Z</time>
      </trkpt>
      <trkpt lat="42.34685" lon="0.24406">
        <ele>713.44</ele>
        <time>2014-06-02T09:03:10Z</time>
      </trkpt>
      <trkpt lat="42.34681" lon="0.2439">
        <ele>708.63</ele>
        <time>2014-06-02T09:03:15Z</time>
      </trkpt>
      <trkpt lat="42.34677" lon="0.24386">
        <ele>707.19</ele>
        <time>2014-06-02T09:03:17Z</time>
      </trkpt>
      <trkpt lat="42.34672" lon="0.24383">
        <ele>706.71</ele>
        <time>2014-06-02T09:03:19Z</time>
      </trkpt>
      <trkpt lat="42.34659" lon="0.24382">
        <ele>705.26</ele>
        <time>2014-06-02T09:03:27Z</time>
      </trkpt>
      <trkpt lat="42.34658" lon="0.24379">
        <ele>705.26</ele>
        <time>2014-06-02T09:03:28Z</time>
      </trkpt>
      <trkpt lat="42.34636" lon="0.24365">
        <ele>707.19</ele>
        <time>2014-06-02T09:03:41Z</time>
      </trkpt>
      <trkpt lat="42.34614" lon="0.24349">
        <ele>710.55</ele>
        <time>2014-06-02T09:03:52Z</time>
      </trkpt>
      <trkpt lat="42.34604" lon="0.24343">
        <ele>711.99</ele>
        <time>2014-06-02T09:03:58Z</time>
      </trkpt>
      <trkpt lat="42.34584" lon="0.2434">
        <ele>711.03</ele>
        <time>2014-06-02T09:04:05Z</time>
      </trkpt>
      <trkpt lat="42.34565" lon="0.2434">
        <ele>709.59</ele>
        <time>2014-06-02T09:04:09Z</time>
      </trkpt>
      <trkpt lat="42.34534" lon="0.2434">
        <ele>711.51</ele>
        <time>2014-06-02T09:04:19Z</time>
      </trkpt>
      <trkpt lat="42.34505" lon="0.24362">
        <ele>713.92</ele>
        <time>2014-06-02T09:04:33Z</time>
      </trkpt>
      <trkpt lat="42.34501" lon="0.24367">
        <ele>711.99</ele>
        <time>2014-06-02T09:04:38Z</time>
      </trkpt>
      <trkpt lat="42.34498" lon="0.24367">
        <ele>713.44</ele>
        <time>2014-06-02T09:04:41Z</time>
      </trkpt>
      <trkpt lat="42.34497" lon="0.24367">
        <ele>712.47</ele>
        <time>2014-06-02T09:04:44Z</time>
      </trkpt>
      <trkpt lat="42.34486" lon="0.24367">
        <ele>712.47</ele>
        <time>2014-06-02T09:04:50Z</time>
      </trkpt>
      <trkpt lat="42.34467" lon="0.24366">
        <ele>715.36</ele>
        <time>2014-06-02T09:04:58Z</time>
      </trkpt>
      <trkpt lat="42.34454" lon="0.24366">
        <ele>716.32</ele>
        <time>2014-06-02T09:05:09Z</time>
      </trkpt>
      <trkpt lat="42.34433" lon="0.24354">
        <ele>716.32</ele>
        <time>2014-06-02T09:05:19Z</time>
      </trkpt>
      <trkpt lat="42.34416" lon="0.24338">
        <ele>713.92</ele>
        <time>2014-06-02T09:05:26Z</time>
      </trkpt>
      <trkpt lat="42.34412" lon="0.24335">
        <ele>713.92</ele>
        <time>2014-06-02T09:05:27Z</time>
      </trkpt>
      <trkpt lat="42.34397" lon="0.24328">
        <ele>712.47</ele>
        <time>2014-06-02T09:05:31Z</time>
      </trkpt>
      <trkpt lat="42.34369" lon="0.24336">
        <ele>711.03</ele>
        <time>2014-06-02T09:05:38Z</time>
      </trkpt>
      <trkpt lat="42.34345" lon="0.2432">
        <ele>711.03</ele>
        <time>2014-06-02T09:05:48Z</time>
      </trkpt>
      <trkpt lat="42.34331" lon="0.24315">
        <ele>711.99</ele>
        <time>2014-06-02T09:05:52Z</time>
      </trkpt>
      <trkpt lat="42.34314" lon="0.24312">
        <ele>710.07</ele>
        <time>2014-06-02T09:05:56Z</time>
      </trkpt>
      <trkpt lat="42.34313" lon="0.24312">
        <ele>710.55</ele>
        <time>2014-06-02T09:05:57Z</time>
      </trkpt>
      <trkpt lat="42.34291" lon="0.24305">
        <ele>710.07</ele>
        <time>2014-06-02T09:06:02Z</time>
      </trkpt>
      <trkpt lat="42.34269" lon="0.24306">
        <ele>711.03</ele>
        <time>2014-06-02T09:06:10Z</time>
      </trkpt>
      <trkpt lat="42.34258" lon="0.24298">
        <ele>709.59</ele>
        <time>2014-06-02T09:06:13Z</time>
      </trkpt>
      <trkpt lat="42.34238" lon="0.24286">
        <ele>709.59</ele>
        <time>2014-06-02T09:06:18Z</time>
      </trkpt>
      <trkpt lat="42.34231" lon="0.2428">
        <ele>710.07</ele>
        <time>2014-06-02T09:06:20Z</time>
      </trkpt>
      <trkpt lat="42.34208" lon="0.24262">
        <ele>707.67</ele>
        <time>2014-06-02T09:06:26Z</time>
      </trkpt>
      <trkpt lat="42.34196" lon="0.24256">
        <ele>705.26</ele>
        <time>2014-06-02T09:06:29Z</time>
      </trkpt>
      <trkpt lat="42.34179" lon="0.24244">
        <ele>701.42</ele>
        <time>2014-06-02T09:06:33Z</time>
      </trkpt>
      <trkpt lat="42.34175" lon="0.24241">
        <ele>700.46</ele>
        <time>2014-06-02T09:06:34Z</time>
      </trkpt>
      <trkpt lat="42.3415" lon="0.24233">
        <ele>697.09</ele>
        <time>2014-06-02T09:06:39Z</time>
      </trkpt>
      <trkpt lat="42.34145" lon="0.24232">
        <ele>696.13</ele>
        <time>2014-06-02T09:06:40Z</time>
      </trkpt>
      <trkpt lat="42.34136" lon="0.24233">
        <ele>696.13</ele>
        <time>2014-06-02T09:06:42Z</time>
      </trkpt>
      <trkpt lat="42.34129" lon="0.24229">
        <ele>696.61</ele>
        <time>2014-06-02T09:06:54Z</time>
      </trkpt>
      <trkpt lat="42.34127" lon="0.24227">
        <ele>695.17</ele>
        <time>2014-06-02T09:06:59Z</time>
      </trkpt>
      <trkpt lat="42.34121" lon="0.24225">
        <ele>692.29</ele>
        <time>2014-06-02T09:07:06Z</time>
      </trkpt>
      <trkpt lat="42.34121" lon="0.24225">
        <ele>692.29</ele>
        <time>2014-06-02T09:07:07Z</time>
      </trkpt>
      <trkpt lat="42.34106" lon="0.2422">
        <ele>687.96</ele>
        <time>2014-06-02T09:07:13Z</time>
      </trkpt>
      <trkpt lat="42.3409" lon="0.24216">
        <ele>685.08</ele>
        <time>2014-06-02T09:07:17Z</time>
      </trkpt>
      <trkpt lat="42.34073" lon="0.24218">
        <ele>683.63</ele>
        <time>2014-06-02T09:07:25Z</time>
      </trkpt>
      <trkpt lat="42.34073" lon="0.24218">
        <ele>683.15</ele>
        <time>2014-06-02T09:07:53Z</time>
      </trkpt>
      <trkpt lat="42.34073" lon="0.24219">
        <ele>682.67</ele>
        <time>2014-06-02T09:08:23Z</time>
      </trkpt>
      <trkpt lat="42.34073" lon="0.24218">
        <ele>683.15</ele>
        <time>2014-06-02T09:08:49Z</time>
      </trkpt>
      <trkpt lat="42.34073" lon="0.24218">
        <ele>682.19</ele>
        <time>2014-06-02T09:09:16Z</time>
      </trkpt>
      <trkpt lat="42.34072" lon="0.24218">
        <ele>682.67</ele>
        <time>2014-06-02T09:09:30Z</time>
      </trkpt>
      <trkpt lat="42.34067" lon="0.24209">
        <ele>681.23</ele>
        <time>2014-06-02T09:09:36Z</time>
      </trkpt>
      <trkpt lat="42.3407" lon="0.24201">
        <ele>679.79</ele>
        <time>2014-06-02T09:09:39Z</time>
      </trkpt>
      <trkpt lat="42.34071" lon="0.24195">
        <ele>679.31</ele>
        <time>2014-06-02T09:09:43Z</time>
      </trkpt>
      <trkpt lat="42.34069" lon="0.24194">
        <ele>678.35</ele>
        <time>2014-06-02T09:09:44Z</time>
      </trkpt>
      <trkpt lat="42.34066" lon="0.24194">
        <ele>677.87</ele>
        <time>2014-06-02T09:09:46Z</time>
      </trkpt>
      <trkpt lat="42.34059" lon="0.24187">
        <ele>674.98</ele>
        <time>2014-06-02T09:09:53Z</time>
      </trkpt>
      <trkpt lat="42.34047" lon="0.24199">
        <ele>671.62</ele>
        <time>2014-06-02T09:09:58Z</time>
      </trkpt>
      <trkpt lat="42.34032" lon="0.24208">
        <ele>667.77</ele>
        <time>2014-06-02T09:10:04Z</time>
      </trkpt>
      <trkpt lat="42.34024" lon="0.2421">
        <ele>666.33</ele>
        <time>2014-06-02T09:10:06Z</time>
      </trkpt>
      <trkpt lat="42.34012" lon="0.2421">
        <ele>662.01</ele>
        <time>2014-06-02T09:10:10Z</time>
      </trkpt>
      <trkpt lat="42.33998" lon="0.24217">
        <ele>658.64</ele>
        <time>2014-06-02T09:10:14Z</time>
      </trkpt>
      <trkpt lat="42.33995" lon="0.24221">
        <ele>658.16</ele>
        <time>2014-06-02T09:10:16Z</time>
      </trkpt>
      <trkpt lat="42.33994" lon="0.24222">
        <ele>657.2</ele>
        <time>2014-06-02T09:10:29Z</time>
      </trkpt>
      <trkpt lat="42.33993" lon="0.24223">
        <ele>656.72</ele>
        <time>2014-06-02T09:10:38Z</time>
      </trkpt>
      <trkpt lat="42.3398" lon="0.24224">
        <ele>653.35</ele>
        <time>2014-06-02T09:10:42Z</time>
      </trkpt>
      <trkpt lat="42.33971" lon="0.24224">
        <ele>649.99</ele>
        <time>2014-06-02T09:10:44Z</time>
      </trkpt>
      <trkpt lat="42.33955" lon="0.24221">
        <ele>644.7</ele>
        <time>2014-06-02T09:10:49Z</time>
      </trkpt>
      <trkpt lat="42.33947" lon="0.24225">
        <ele>642.3</ele>
        <time>2014-06-02T09:10:52Z</time>
      </trkpt>
      <trkpt lat="42.33944" lon="0.24221">
        <ele>641.82</ele>
        <time>2014-06-02T09:10:54Z</time>
      </trkpt>
      <trkpt lat="42.33943" lon="0.24209">
        <ele>638.45</ele>
        <time>2014-06-02T09:10:57Z</time>
      </trkpt>
      <trkpt lat="42.33927" lon="0.24195">
        <ele>634.13</ele>
        <time>2014-06-02T09:11:01Z</time>
      </trkpt>
      <trkpt lat="42.33909" lon="0.24199">
        <ele>630.76</ele>
        <time>2014-06-02T09:11:04Z</time>
      </trkpt>
      <trkpt lat="42.33882" lon="0.24187">
        <ele>625.96</ele>
        <time>2014-06-02T09:11:10Z</time>
      </trkpt>
      <trkpt lat="42.33873" lon="0.24183">
        <ele>624.51</ele>
        <time>2014-06-02T09:11:12Z</time>
      </trkpt>
      <trkpt lat="42.33847" lon="0.24191">
        <ele>621.15</ele>
        <time>2014-06-02T09:11:16Z</time>
      </trkpt>
      <trkpt lat="42.33823" lon="0.24193">
        <ele>617.78</ele>
        <time>2014-06-02T09:11:19Z</time>
      </trkpt>
      <trkpt lat="42.33798" lon="0.24192">
        <ele>614.9</ele>
        <time>2014-06-02T09:11:22Z</time>
      </trkpt>
      <trkpt lat="42.33763" lon="0.24201">
        <ele>612.02</ele>
        <time>2014-06-02T09:11:27Z</time>
      </trkpt>
      <trkpt lat="42.33736" lon="0.24217">
        <ele>608.17</ele>
        <time>2014-06-02T09:11:33Z</time>
      </trkpt>
      <trkpt lat="42.33721" lon="0.24227">
        <ele>608.17</ele>
        <time>2014-06-02T09:11:37Z</time>
      </trkpt>
      <trkpt lat="42.33706" lon="0.24234">
        <ele>606.73</ele>
        <time>2014-06-02T09:11:41Z</time>
      </trkpt>
      <trkpt lat="42.33686" lon="0.24249">
        <ele>605.29</ele>
        <time>2014-06-02T09:11:46Z</time>
      </trkpt>
      <trkpt lat="42.3365" lon="0.24243">
        <ele>601.92</ele>
        <time>2014-06-02T09:11:52Z</time>
      </trkpt>
      <trkpt lat="42.33623" lon="0.24231">
        <ele>599.04</ele>
        <time>2014-06-02T09:11:57Z</time>
      </trkpt>
      <trkpt lat="42.33613" lon="0.24224">
        <ele>598.08</ele>
        <time>2014-06-02T09:11:59Z</time>
      </trkpt>
      <trkpt lat="42.33605" lon="0.24215">
        <ele>597.12</ele>
        <time>2014-06-02T09:12:01Z</time>
      </trkpt>
      <trkpt lat="42.33598" lon="0.24204">
        <ele>596.15</ele>
        <time>2014-06-02T09:12:03Z</time>
      </trkpt>
      <trkpt lat="42.33589" lon="0.24177">
        <ele>590.87</ele>
        <time>2014-06-02T09:12:08Z</time>
      </trkpt>
      <trkpt lat="42.3359" lon="0.24169">
        <ele>590.39</ele>
        <time>2014-06-02T09:12:09Z</time>
      </trkpt>
      <trkpt lat="42.33598" lon="0.24138">
        <ele>587.98</ele>
        <time>2014-06-02T09:12:13Z</time>
      </trkpt>
      <trkpt lat="42.33599" lon="0.24128">
        <ele>587.5</ele>
        <time>2014-06-02T09:12:14Z</time>
      </trkpt>
      <trkpt lat="42.33581" lon="0.24094">
        <ele>587.98</ele>
        <time>2014-06-02T09:12:20Z</time>
      </trkpt>
      <trkpt lat="42.33563" lon="0.24107">
        <ele>591.83</ele>
        <time>2014-06-02T09:12:29Z</time>
      </trkpt>
      <trkpt lat="42.33539" lon="0.24109">
        <ele>593.27</ele>
        <time>2014-06-02T09:12:42Z</time>
      </trkpt>
      <trkpt lat="42.33536" lon="0.24104">
        <ele>594.23</ele>
        <time>2014-06-02T09:12:52Z</time>
      </trkpt>
      <trkpt lat="42.33534" lon="0.241">
        <ele>594.71</ele>
        <time>2014-06-02T09:13:02Z</time>
      </trkpt>
      <trkpt lat="42.33534" lon="0.24101">
        <ele>594.71</ele>
        <time>2014-06-02T09:13:09Z</time>
      </trkpt>
      <trkpt lat="42.33534" lon="0.24105">
        <ele>595.19</ele>
        <time>2014-06-02T09:13:20Z</time>
      </trkpt>
      <trkpt lat="42.33532" lon="0.24119">
        <ele>593.75</ele>
        <time>2014-06-02T09:13:25Z</time>
      </trkpt>
      <trkpt lat="42.33514" lon="0.24142">
        <ele>589.43</ele>
        <time>2014-06-02T09:13:29Z</time>
      </trkpt>
      <trkpt lat="42.33479" lon="0.24175">
        <ele>586.06</ele>
        <time>2014-06-02T09:13:34Z</time>
      </trkpt>
      <trkpt lat="42.33464" lon="0.24187">
        <ele>584.14</ele>
        <time>2014-06-02T09:13:36Z</time>
      </trkpt>
      <trkpt lat="42.33441" lon="0.24225">
        <ele>580.77</ele>
        <time>2014-06-02T09:13:40Z</time>
      </trkpt>
      <trkpt lat="42.33429" lon="0.24255">
        <ele>578.85</ele>
        <time>2014-06-02T09:13:43Z</time>
      </trkpt>
      <trkpt lat="42.33403" lon="0.24288">
        <ele>575.97</ele>
        <time>2014-06-02T09:13:47Z</time>
      </trkpt>
      <trkpt lat="42.33386" lon="0.24312">
        <ele>571.64</ele>
        <time>2014-06-02T09:13:50Z</time>
      </trkpt>
      <trkpt lat="42.33391" lon="0.24336">
        <ele>568.28</ele>
        <time>2014-06-02T09:13:56Z</time>
      </trkpt>
      <trkpt lat="42.33395" lon="0.24341">
        <ele>567.32</ele>
        <time>2014-06-02T09:13:57Z</time>
      </trkpt>
      <trkpt lat="42.33399" lon="0.24355">
        <ele>565.87</ele>
        <time>2014-06-02T09:14:00Z</time>
      </trkpt>
      <trkpt lat="42.33399" lon="0.24379">
        <ele>563.95</ele>
        <time>2014-06-02T09:14:06Z</time>
      </trkpt>
      <trkpt lat="42.3341" lon="0.24415">
        <ele>562.99</ele>
        <time>2014-06-02T09:14:16Z</time>
      </trkpt>
      <trkpt lat="42.33414" lon="0.24438">
        <ele>563.47</ele>
        <time>2014-06-02T09:14:23Z</time>
      </trkpt>
      <trkpt lat="42.33409" lon="0.24456">
        <ele>562.99</ele>
        <time>2014-06-02T09:14:33Z</time>
      </trkpt>
      <trkpt lat="42.33414" lon="0.24463">
        <ele>562.51</ele>
        <time>2014-06-02T09:14:42Z</time>
      </trkpt>
      <trkpt lat="42.33414" lon="0.24463">
        <ele>562.99</ele>
        <time>2014-06-02T09:14:43Z</time>
      </trkpt>
      <trkpt lat="42.33416" lon="0.24466">
        <ele>562.99</ele>
        <time>2014-06-02T09:14:48Z</time>
      </trkpt>
      <trkpt lat="42.33425" lon="0.24474">
        <ele>562.51</ele>
        <time>2014-06-02T09:14:53Z</time>
      </trkpt>
      <trkpt lat="42.33446" lon="0.24489">
        <ele>562.99</ele>
        <time>2014-06-02T09:15:05Z</time>
      </trkpt>
      <trkpt lat="42.33453" lon="0.24494">
        <ele>562.51</ele>
        <time>2014-06-02T09:15:10Z</time>
      </trkpt>
      <trkpt lat="42.33454" lon="0.24499">
        <ele>562.99</ele>
        <time>2014-06-02T09:15:14Z</time>
      </trkpt>
      <trkpt lat="42.3345" lon="0.245">
        <ele>562.99</ele>
        <time>2014-06-02T09:15:17Z</time>
      </trkpt>
      <trkpt lat="42.33429" lon="0.24493">
        <ele>562.99</ele>
        <time>2014-06-02T09:15:28Z</time>
      </trkpt>
      <trkpt lat="42.33417" lon="0.24507">
        <ele>563.47</ele>
        <time>2014-06-02T09:15:36Z</time>
      </trkpt>
      <trkpt lat="42.33412" lon="0.24506">
        <ele>563.47</ele>
        <time>2014-06-02T09:15:40Z</time>
      </trkpt>
      <trkpt lat="42.33405" lon="0.24507">
        <ele>563.47</ele>
        <time>2014-06-02T09:15:44Z</time>
      </trkpt>
      <trkpt lat="42.33404" lon="0.24522">
        <ele>564.91</ele>
        <time>2014-06-02T09:15:50Z</time>
      </trkpt>
      <trkpt lat="42.33406" lon="0.24527">
        <ele>564.43</ele>
        <time>2014-06-02T09:15:52Z</time>
      </trkpt>
      <trkpt lat="42.33405" lon="0.24537">
        <ele>563.47</ele>
        <time>2014-06-02T09:15:54Z</time>
      </trkpt>
      <trkpt lat="42.33403" lon="0.24566">
        <ele>563.95</ele>
        <time>2014-06-02T09:16:03Z</time>
      </trkpt>
      <trkpt lat="42.33403" lon="0.24588">
        <ele>564.91</ele>
        <time>2014-06-02T09:16:14Z</time>
      </trkpt>
      <trkpt lat="42.33399" lon="0.24621">
        <ele>564.91</ele>
        <time>2014-06-02T09:16:28Z</time>
      </trkpt>
      <trkpt lat="42.33398" lon="0.24651">
        <ele>564.91</ele>
        <time>2014-06-02T09:16:40Z</time>
      </trkpt>
      <trkpt lat="42.33402" lon="0.24673">
        <ele>565.39</ele>
        <time>2014-06-02T09:16:49Z</time>
      </trkpt>
      <trkpt lat="42.33411" lon="0.24678">
        <ele>565.39</ele>
        <time>2014-06-02T09:16:54Z</time>
      </trkpt>
      <trkpt lat="42.33418" lon="0.24681">
        <ele>566.35</ele>
        <time>2014-06-02T09:16:58Z</time>
      </trkpt>
      <trkpt lat="42.33425" lon="0.24686">
        <ele>565.87</ele>
        <time>2014-06-02T09:17:03Z</time>
      </trkpt>
      <trkpt lat="42.33432" lon="0.24691">
        <ele>566.35</ele>
        <time>2014-06-02T09:17:07Z</time>
      </trkpt>
      <trkpt lat="42.33436" lon="0.2471">
        <ele>569.72</ele>
        <time>2014-06-02T09:17:16Z</time>
      </trkpt>
      <trkpt lat="42.33438" lon="0.24715">
        <ele>570.68</ele>
        <time>2014-06-02T09:17:26Z</time>
      </trkpt>
      <trkpt lat="42.33438" lon="0.24716">
        <ele>570.68</ele>
        <time>2014-06-02T09:17:32Z</time>
      </trkpt>
      <trkpt lat="42.33436" lon="0.24728">
        <ele>572.12</ele>
        <time>2014-06-02T09:17:42Z</time>
      </trkpt>
      <trkpt lat="42.33435" lon="0.24729">
        <ele>571.64</ele>
        <time>2014-06-02T09:17:44Z</time>
      </trkpt>
      <trkpt lat="42.33427" lon="0.24727">
        <ele>572.6</ele>
        <time>2014-06-02T09:17:56Z</time>
      </trkpt>
      <trkpt lat="42.33427" lon="0.24727">
        <ele>573.08</ele>
        <time>2014-06-02T09:18:19Z</time>
      </trkpt>
      <trkpt lat="42.33427" lon="0.24727">
        <ele>572.6</ele>
        <time>2014-06-02T09:18:50Z</time>
      </trkpt>
      <trkpt lat="42.33427" lon="0.24727">
        <ele>572.6</ele>
        <time>2014-06-02T09:19:20Z</time>
      </trkpt>
      <trkpt lat="42.33426" lon="0.24727">
        <ele>572.6</ele>
        <time>2014-06-02T09:19:33Z</time>
      </trkpt>
      <trkpt lat="42.33421" lon="0.24729">
        <ele>573.08</ele>
        <time>2014-06-02T09:19:37Z</time>
      </trkpt>
      <trkpt lat="42.33402" lon="0.24726">
        <ele>575.01</ele>
        <time>2014-06-02T09:19:49Z</time>
      </trkpt>
      <trkpt lat="42.33382" lon="0.24726">
        <ele>577.41</ele>
        <time>2014-06-02T09:20:01Z</time>
      </trkpt>
      <trkpt lat="42.33375" lon="0.24725">
        <ele>578.85</ele>
        <time>2014-06-02T09:20:06Z</time>
      </trkpt>
      <trkpt lat="42.33371" lon="0.24724">
        <ele>579.33</ele>
        <time>2014-06-02T09:20:09Z</time>
      </trkpt>
      <trkpt lat="42.33364" lon="0.2471">
        <ele>579.33</ele>
        <time>2014-06-02T09:20:17Z</time>
      </trkpt>
      <trkpt lat="42.33336" lon="0.24688">
        <ele>580.77</ele>
        <time>2014-06-02T09:20:33Z</time>
      </trkpt>
      <trkpt lat="42.33308" lon="0.24686">
        <ele>582.22</ele>
        <time>2014-06-02T09:20:48Z</time>
      </trkpt>
      <trkpt lat="42.33293" lon="0.24699">
        <ele>585.1</ele>
        <time>2014-06-02T09:20:58Z</time>
      </trkpt>
      <trkpt lat="42.33282" lon="0.24718">
        <ele>588.46</ele>
        <time>2014-06-02T09:21:07Z</time>
      </trkpt>
      <trkpt lat="42.33263" lon="0.2474">
        <ele>591.35</ele>
        <time>2014-06-02T09:21:19Z</time>
      </trkpt>
      <trkpt lat="42.33248" lon="0.24759">
        <ele>592.31</ele>
        <time>2014-06-02T09:21:30Z</time>
      </trkpt>
      <trkpt lat="42.33231" lon="0.24783">
        <ele>594.71</ele>
        <time>2014-06-02T09:21:45Z</time>
      </trkpt>
      <trkpt lat="42.33212" lon="0.24817">
        <ele>596.64</ele>
        <time>2014-06-02T09:22:00Z</time>
      </trkpt>
      <trkpt lat="42.33181" lon="0.24843">
        <ele>598.56</ele>
        <time>2014-06-02T09:22:15Z</time>
      </trkpt>
      <trkpt lat="42.33151" lon="0.24858">
        <ele>600.48</ele>
        <time>2014-06-02T09:22:28Z</time>
      </trkpt>
      <trkpt lat="42.33111" lon="0.24867">
        <ele>602.88</ele>
        <time>2014-06-02T09:22:43Z</time>
      </trkpt>
      <trkpt lat="42.33069" lon="0.24863">
        <ele>604.81</ele>
        <time>2014-06-02T09:22:58Z</time>
      </trkpt>
      <trkpt lat="42.33012" lon="0.24869">
        <ele>607.69</ele>
        <time>2014-06-02T09:23:17Z</time>
      </trkpt>
      <trkpt lat="42.32959" lon="0.24874">
        <ele>609.61</ele>
        <time>2014-06-02T09:23:34Z</time>
      </trkpt>
      <trkpt lat="42.32904" lon="0.24882">
        <ele>612.5</ele>
        <time>2014-06-02T09:23:51Z</time>
      </trkpt>
      <trkpt lat="42.32859" lon="0.24896">
        <ele>616.34</ele>
        <time>2014-06-02T09:24:04Z</time>
      </trkpt>
      <trkpt lat="42.32841" lon="0.24902">
        <ele>617.3</ele>
        <time>2014-06-02T09:24:09Z</time>
      </trkpt>
      <trkpt lat="42.32786" lon="0.24921">
        <ele>620.67</ele>
        <time>2014-06-02T09:24:25Z</time>
      </trkpt>
      <trkpt lat="42.32746" lon="0.24935">
        <ele>622.11</ele>
        <time>2014-06-02T09:24:39Z</time>
      </trkpt>
      <trkpt lat="42.32741" lon="0.24936">
        <ele>622.59</ele>
        <time>2014-06-02T09:24:41Z</time>
      </trkpt>
      <trkpt lat="42.32712" lon="0.24895">
        <ele>625.47</ele>
        <time>2014-06-02T09:24:58Z</time>
      </trkpt>
      <trkpt lat="42.3269" lon="0.24863">
        <ele>628.36</ele>
        <time>2014-06-02T09:25:10Z</time>
      </trkpt>
      <trkpt lat="42.32674" lon="0.24839">
        <ele>631.72</ele>
        <time>2014-06-02T09:25:19Z</time>
      </trkpt>
      <trkpt lat="42.3265" lon="0.24808">
        <ele>634.61</ele>
        <time>2014-06-02T09:25:31Z</time>
      </trkpt>
      <trkpt lat="42.32626" lon="0.24785">
        <ele>637.97</ele>
        <time>2014-06-02T09:25:42Z</time>
      </trkpt>
      <trkpt lat="42.32614" lon="0.24777">
        <ele>640.86</ele>
        <time>2014-06-02T09:25:47Z</time>
      </trkpt>
      <trkpt lat="42.32583" lon="0.24765">
        <ele>642.78</ele>
        <time>2014-06-02T09:26:02Z</time>
      </trkpt>
      <trkpt lat="42.32565" lon="0.24762">
        <ele>646.14</ele>
        <time>2014-06-02T09:26:10Z</time>
      </trkpt>
      <trkpt lat="42.32527" lon="0.24753">
        <ele>648.07</ele>
        <time>2014-06-02T09:26:28Z</time>
      </trkpt>
      <trkpt lat="42.325" lon="0.24747">
        <ele>651.43</ele>
        <time>2014-06-02T09:26:40Z</time>
      </trkpt>
      <trkpt lat="42.32468" lon="0.24739">
        <ele>654.31</ele>
        <time>2014-06-02T09:26:54Z</time>
      </trkpt>
      <trkpt lat="42.32435" lon="0.24721">
        <ele>657.68</ele>
        <time>2014-06-02T09:27:08Z</time>
      </trkpt>
      <trkpt lat="42.32408" lon="0.24696">
        <ele>661.04</ele>
        <time>2014-06-02T09:27:20Z</time>
      </trkpt>
      <trkpt lat="42.32383" lon="0.2468">
        <ele>664.41</ele>
        <time>2014-06-02T09:27:30Z</time>
      </trkpt>
      <trkpt lat="42.32371" lon="0.24675">
        <ele>665.37</ele>
        <time>2014-06-02T09:27:35Z</time>
      </trkpt>
      <trkpt lat="42.32377" lon="0.24682">
        <ele>664.89</ele>
        <time>2014-06-02T09:27:41Z</time>
      </trkpt>
      <trkpt lat="42.32396" lon="0.2469">
        <ele>663.45</ele>
        <time>2014-06-02T09:27:46Z</time>
      </trkpt>
      <trkpt lat="42.32401" lon="0.24675">
        <ele>663.93</ele>
        <time>2014-06-02T09:27:55Z</time>
      </trkpt>
      <trkpt lat="42.32402" lon="0.24675">
        <ele>663.45</ele>
        <time>2014-06-02T09:27:57Z</time>
      </trkpt>
      <trkpt lat="42.32403" lon="0.24677">
        <ele>663.45</ele>
        <time>2014-06-02T09:27:59Z</time>
      </trkpt>
      <trkpt lat="42.32399" lon="0.24676">
        <ele>663.45</ele>
        <time>2014-06-02T09:28:04Z</time>
      </trkpt>
      <trkpt lat="42.32397" lon="0.24647">
        <ele>666.81</ele>
        <time>2014-06-02T09:28:13Z</time>
      </trkpt>
      <trkpt lat="42.32396" lon="0.24642">
        <ele>667.77</ele>
        <time>2014-06-02T09:28:22Z</time>
      </trkpt>
      <trkpt lat="42.32397" lon="0.24633">
        <ele>668.73</ele>
        <time>2014-06-02T09:28:28Z</time>
      </trkpt>
      <trkpt lat="42.32395" lon="0.24626">
        <ele>669.22</ele>
        <time>2014-06-02T09:28:40Z</time>
      </trkpt>
      <trkpt lat="42.32395" lon="0.24626">
        <ele>670.18</ele>
        <time>2014-06-02T09:29:12Z</time>
      </trkpt>
      <trkpt lat="42.32396" lon="0.24625">
        <ele>670.18</ele>
        <time>2014-06-02T09:29:31Z</time>
      </trkpt>
      <trkpt lat="42.32396" lon="0.24622">
        <ele>670.18</ele>
        <time>2014-06-02T09:29:32Z</time>
      </trkpt>
      <trkpt lat="42.32392" lon="0.24594">
        <ele>674.02</ele>
        <time>2014-06-02T09:29:40Z</time>
      </trkpt>
      <trkpt lat="42.32391" lon="0.2459">
        <ele>674.02</ele>
        <time>2014-06-02T09:29:41Z</time>
      </trkpt>
      <trkpt lat="42.32387" lon="0.24568">
        <ele>676.91</ele>
        <time>2014-06-02T09:29:48Z</time>
      </trkpt>
      <trkpt lat="42.32387" lon="0.24534">
        <ele>680.27</ele>
        <time>2014-06-02T09:29:59Z</time>
      </trkpt>
      <trkpt lat="42.32384" lon="0.24507">
        <ele>683.63</ele>
        <time>2014-06-02T09:30:08Z</time>
      </trkpt>
      <trkpt lat="42.32382" lon="0.24485">
        <ele>686.52</ele>
        <time>2014-06-02T09:30:15Z</time>
      </trkpt>
      <trkpt lat="42.32374" lon="0.24461">
        <ele>689.4</ele>
        <time>2014-06-02T09:30:24Z</time>
      </trkpt>
      <trkpt lat="42.32358" lon="0.24443">
        <ele>693.25</ele>
        <time>2014-06-02T09:30:35Z</time>
      </trkpt>
      <trkpt lat="42.32356" lon="0.24442">
        <ele>693.25</ele>
        <time>2014-06-02T09:30:36Z</time>
      </trkpt>
      <trkpt lat="42.32354" lon="0.2444">
        <ele>693.73</ele>
        <time>2014-06-02T09:30:38Z</time>
      </trkpt>
      <trkpt lat="42.32338" lon="0.24426">
        <ele>696.13</ele>
        <time>2014-06-02T09:30:49Z</time>
      </trkpt>
      <trkpt lat="42.32332" lon="0.24422">
        <ele>697.57</ele>
        <time>2014-06-02T09:30:52Z</time>
      </trkpt>
      <trkpt lat="42.32322" lon="0.24412">
        <ele>698.53</ele>
        <time>2014-06-02T09:30:59Z</time>
      </trkpt>
      <trkpt lat="42.32323" lon="0.24409">
        <ele>699.5</ele>
        <time>2014-06-02T09:31:01Z</time>
      </trkpt>
      <trkpt lat="42.32314" lon="0.24393">
        <ele>700.94</ele>
        <time>2014-06-02T09:31:09Z</time>
      </trkpt>
      <trkpt lat="42.32313" lon="0.24387">
        <ele>702.38</ele>
        <time>2014-06-02T09:31:12Z</time>
      </trkpt>
      <trkpt lat="42.32312" lon="0.24385">
        <ele>702.38</ele>
        <time>2014-06-02T09:31:13Z</time>
      </trkpt>
      <trkpt lat="42.32301" lon="0.24372">
        <ele>704.3</ele>
        <time>2014-06-02T09:31:23Z</time>
      </trkpt>
      <trkpt lat="42.32305" lon="0.24365">
        <ele>704.3</ele>
        <time>2014-06-02T09:31:28Z</time>
      </trkpt>
      <trkpt lat="42.32307" lon="0.24364">
        <ele>704.78</ele>
        <time>2014-06-02T09:31:30Z</time>
      </trkpt>
      <trkpt lat="42.3231" lon="0.24356">
        <ele>705.26</ele>
        <time>2014-06-02T09:31:43Z</time>
      </trkpt>
      <trkpt lat="42.3231" lon="0.24356">
        <ele>705.26</ele>
        <time>2014-06-02T09:31:50Z</time>
      </trkpt>
      <trkpt lat="42.32307" lon="0.24357">
        <ele>705.26</ele>
        <time>2014-06-02T09:31:52Z</time>
      </trkpt>
      <trkpt lat="42.32314" lon="0.24366">
        <ele>705.26</ele>
        <time>2014-06-02T09:31:59Z</time>
      </trkpt>
      <trkpt lat="42.32322" lon="0.24366">
        <ele>705.26</ele>
        <time>2014-06-02T09:32:05Z</time>
      </trkpt>
      <trkpt lat="42.32299" lon="0.24372">
        <ele>703.82</ele>
        <time>2014-06-02T09:32:15Z</time>
      </trkpt>
      <trkpt lat="42.32298" lon="0.24377">
        <ele>703.34</ele>
        <time>2014-06-02T09:32:17Z</time>
      </trkpt>
      <trkpt lat="42.323" lon="0.24378">
        <ele>703.34</ele>
        <time>2014-06-02T09:32:18Z</time>
      </trkpt>
      <trkpt lat="42.32314" lon="0.24376">
        <ele>702.86</ele>
        <time>2014-06-02T09:32:25Z</time>
      </trkpt>
      <trkpt lat="42.32314" lon="0.24376">
        <ele>702.86</ele>
        <time>2014-06-02T09:32:59Z</time>
      </trkpt>
      <trkpt lat="42.32315" lon="0.24376">
        <ele>703.34</ele>
        <time>2014-06-02T09:33:28Z</time>
      </trkpt>
      <trkpt lat="42.32315" lon="0.24378">
        <ele>703.82</ele>
        <time>2014-06-02T09:33:50Z</time>
      </trkpt>
      <trkpt lat="42.32299" lon="0.24378">
        <ele>703.82</ele>
        <time>2014-06-02T09:33:58Z</time>
      </trkpt>
      <trkpt lat="42.32296" lon="0.24377">
        <ele>703.82</ele>
        <time>2014-06-02T09:34:00Z</time>
      </trkpt>
      <trkpt lat="42.32301" lon="0.24363">
        <ele>704.78</ele>
        <time>2014-06-02T09:34:09Z</time>
      </trkpt>
      <trkpt lat="42.32305" lon="0.2436">
        <ele>705.26</ele>
        <time>2014-06-02T09:34:12Z</time>
      </trkpt>
      <trkpt lat="42.32308" lon="0.24359">
        <ele>705.75</ele>
        <time>2014-06-02T09:34:25Z</time>
      </trkpt>
      <trkpt lat="42.32308" lon="0.24359">
        <ele>705.75</ele>
        <time>2014-06-02T09:34:50Z</time>
      </trkpt>
      <trkpt lat="42.32309" lon="0.24359">
        <ele>705.75</ele>
        <time>2014-06-02T09:35:19Z</time>
      </trkpt>
      <trkpt lat="42.32309" lon="0.24359">
        <ele>705.75</ele>
        <time>2014-06-02T09:35:46Z</time>
      </trkpt>
      <trkpt lat="42.32309" lon="0.24358">
        <ele>706.23</ele>
        <time>2014-06-02T09:36:16Z</time>
      </trkpt>
      <trkpt lat="42.32309" lon="0.24358">
        <ele>706.23</ele>
        <time>2014-06-02T09:36:45Z</time>
      </trkpt>
      <trkpt lat="42.32309" lon="0.24358">
        <ele>706.23</ele>
        <time>2014-06-02T09:37:13Z</time>
      </trkpt>
      <trkpt lat="42.32309" lon="0.24358">
        <ele>701.42</ele>
        <time>2014-06-02T09:37:19Z</time>
      </trkpt>
      <trkpt lat="42.32309" lon="0.24358">
        <ele>705.26</ele>
        <time>2014-06-02T09:37:20Z</time>
      </trkpt>
      <trkpt lat="42.32309" lon="0.24358">
        <ele>706.71</ele>
        <time>2014-06-02T09:37:22Z</time>
      </trkpt>
      <trkpt lat="42.32309" lon="0.24359">
        <ele>706.23</ele>
        <time>2014-06-02T09:37:44Z</time>
      </trkpt>
      <trkpt lat="42.32309" lon="0.24363">
        <ele>705.75</ele>
        <time>2014-06-02T09:37:46Z</time>
      </trkpt>
      <trkpt lat="42.32319" lon="0.24364">
        <ele>706.23</ele>
        <time>2014-06-02T09:37:54Z</time>
      </trkpt>
      <trkpt lat="42.32335" lon="0.24359">
        <ele>706.71</ele>
        <time>2014-06-02T09:38:05Z</time>
      </trkpt>
      <trkpt lat="42.32336" lon="0.2436">
        <ele>706.71</ele>
        <time>2014-06-02T09:38:07Z</time>
      </trkpt>
      <trkpt lat="42.32348" lon="0.24364">
        <ele>705.26</ele>
        <time>2014-06-02T09:38:11Z</time>
      </trkpt>
      <trkpt lat="42.32352" lon="0.24363">
        <ele>704.3</ele>
        <time>2014-06-02T09:38:12Z</time>
      </trkpt>
      <trkpt lat="42.32366" lon="0.24355">
        <ele>703.82</ele>
        <time>2014-06-02T09:38:15Z</time>
      </trkpt>
      <trkpt lat="42.32378" lon="0.24341">
        <ele>701.42</ele>
        <time>2014-06-02T09:38:18Z</time>
      </trkpt>
      <trkpt lat="42.32393" lon="0.24328">
        <ele>704.3</ele>
        <time>2014-06-02T09:38:23Z</time>
      </trkpt>
      <trkpt lat="42.32419" lon="0.24308">
        <ele>707.67</ele>
        <time>2014-06-02T09:38:35Z</time>
      </trkpt>
      <trkpt lat="42.32452" lon="0.24284">
        <ele>709.59</ele>
        <time>2014-06-02T09:38:50Z</time>
      </trkpt>
      <trkpt lat="42.32479" lon="0.24265">
        <ele>711.51</ele>
        <time>2014-06-02T09:39:03Z</time>
      </trkpt>
      <trkpt lat="42.3251" lon="0.24256">
        <ele>714.88</ele>
        <time>2014-06-02T09:39:15Z</time>
      </trkpt>
      <trkpt lat="42.32539" lon="0.24252">
        <ele>716.32</ele>
        <time>2014-06-02T09:39:27Z</time>
      </trkpt>
      <trkpt lat="42.32568" lon="0.24242">
        <ele>719.68</ele>
        <time>2014-06-02T09:39:39Z</time>
      </trkpt>
      <trkpt lat="42.32602" lon="0.24243">
        <ele>721.61</ele>
        <time>2014-06-02T09:39:51Z</time>
      </trkpt>
      <trkpt lat="42.3262" lon="0.24236">
        <ele>721.61</ele>
        <time>2014-06-02T09:39:57Z</time>
      </trkpt>
      <trkpt lat="42.32629" lon="0.24222">
        <ele>721.13</ele>
        <time>2014-06-02T09:40:00Z</time>
      </trkpt>
      <trkpt lat="42.32634" lon="0.24208">
        <ele>720.16</ele>
        <time>2014-06-02T09:40:02Z</time>
      </trkpt>
      <trkpt lat="42.32646" lon="0.24195">
        <ele>720.16</ele>
        <time>2014-06-02T09:40:05Z</time>
      </trkpt>
      <trkpt lat="42.32674" lon="0.24178">
        <ele>722.09</ele>
        <time>2014-06-02T09:40:15Z</time>
      </trkpt>
      <trkpt lat="42.32707" lon="0.24142">
        <ele>723.53</ele>
        <time>2014-06-02T09:40:28Z</time>
      </trkpt>
      <trkpt lat="42.32747" lon="0.24111">
        <ele>724.49</ele>
        <time>2014-06-02T09:40:40Z</time>
      </trkpt>
      <trkpt lat="42.32767" lon="0.24103">
        <ele>723.53</ele>
        <time>2014-06-02T09:40:45Z</time>
      </trkpt>
      <trkpt lat="42.32792" lon="0.24075">
        <ele>723.53</ele>
        <time>2014-06-02T09:40:51Z</time>
      </trkpt>
      <trkpt lat="42.328" lon="0.24066">
        <ele>724.01</ele>
        <time>2014-06-02T09:40:53Z</time>
      </trkpt>
      <trkpt lat="42.32817" lon="0.24049">
        <ele>724.01</ele>
        <time>2014-06-02T09:40:57Z</time>
      </trkpt>
      <trkpt lat="42.3284" lon="0.24034">
        <ele>724.97</ele>
        <time>2014-06-02T09:41:02Z</time>
      </trkpt>
      <trkpt lat="42.32865" lon="0.24023">
        <ele>724.97</ele>
        <time>2014-06-02T09:41:07Z</time>
      </trkpt>
      <trkpt lat="42.32878" lon="0.24013">
        <ele>725.45</ele>
        <time>2014-06-02T09:41:10Z</time>
      </trkpt>
      <trkpt lat="42.32895" lon="0.23999">
        <ele>725.93</ele>
        <time>2014-06-02T09:41:14Z</time>
      </trkpt>
      <trkpt lat="42.32934" lon="0.23961">
        <ele>729.3</ele>
        <time>2014-06-02T09:41:27Z</time>
      </trkpt>
      <trkpt lat="42.32955" lon="0.23929">
        <ele>731.22</ele>
        <time>2014-06-02T09:41:38Z</time>
      </trkpt>
      <trkpt lat="42.32983" lon="0.23902">
        <ele>733.62</ele>
        <time>2014-06-02T09:41:49Z</time>
      </trkpt>
      <trkpt lat="42.33027" lon="0.23874">
        <ele>735.55</ele>
        <time>2014-06-02T09:42:03Z</time>
      </trkpt>
      <trkpt lat="42.33033" lon="0.23866">
        <ele>735.07</ele>
        <time>2014-06-02T09:42:05Z</time>
      </trkpt>
      <trkpt lat="42.33046" lon="0.2381">
        <ele>734.58</ele>
        <time>2014-06-02T09:42:14Z</time>
      </trkpt>
      <trkpt lat="42.3306" lon="0.23791">
        <ele>735.55</ele>
        <time>2014-06-02T09:42:18Z</time>
      </trkpt>
      <trkpt lat="42.33081" lon="0.23757">
        <ele>738.91</ele>
        <time>2014-06-02T09:42:26Z</time>
      </trkpt>
      <trkpt lat="42.33078" lon="0.23743">
        <ele>738.91</ele>
        <time>2014-06-02T09:42:29Z</time>
      </trkpt>
      <trkpt lat="42.33065" lon="0.23728">
        <ele>739.87</ele>
        <time>2014-06-02T09:42:33Z</time>
      </trkpt>
      <trkpt lat="42.3305" lon="0.23714">
        <ele>740.83</ele>
        <time>2014-06-02T09:42:37Z</time>
      </trkpt>
      <trkpt lat="42.33043" lon="0.23706">
        <ele>741.31</ele>
        <time>2014-06-02T09:42:39Z</time>
      </trkpt>
      <trkpt lat="42.33035" lon="0.23691">
        <ele>741.31</ele>
        <time>2014-06-02T09:42:42Z</time>
      </trkpt>
      <trkpt lat="42.33027" lon="0.23668">
        <ele>741.79</ele>
        <time>2014-06-02T09:42:46Z</time>
      </trkpt>
      <trkpt lat="42.33024" lon="0.23657">
        <ele>741.79</ele>
        <time>2014-06-02T09:42:48Z</time>
      </trkpt>
      <trkpt lat="42.33022" lon="0.23639">
        <ele>741.31</ele>
        <time>2014-06-02T09:42:51Z</time>
      </trkpt>
      <trkpt lat="42.32993" lon="0.23603">
        <ele>737.95</ele>
        <time>2014-06-02T09:42:58Z</time>
      </trkpt>
      <trkpt lat="42.32957" lon="0.23601">
        <ele>734.1</ele>
        <time>2014-06-02T09:43:02Z</time>
      </trkpt>
      <trkpt lat="42.32918" lon="0.23608">
        <ele>730.26</ele>
        <time>2014-06-02T09:43:06Z</time>
      </trkpt>
      <trkpt lat="42.32898" lon="0.23606">
        <ele>729.3</ele>
        <time>2014-06-02T09:43:08Z</time>
      </trkpt>
      <trkpt lat="42.32868" lon="0.23604">
        <ele>727.37</ele>
        <time>2014-06-02T09:43:11Z</time>
      </trkpt>
      <trkpt lat="42.32858" lon="0.23602">
        <ele>726.41</ele>
        <time>2014-06-02T09:43:12Z</time>
      </trkpt>
      <trkpt lat="42.32823" lon="0.2359">
        <ele>725.93</ele>
        <time>2014-06-02T09:43:16Z</time>
      </trkpt>
      <trkpt lat="42.32795" lon="0.23574">
        <ele>727.86</ele>
        <time>2014-06-02T09:43:22Z</time>
      </trkpt>
      <trkpt lat="42.32797" lon="0.23566">
        <ele>728.82</ele>
        <time>2014-06-02T09:43:25Z</time>
      </trkpt>
      <trkpt lat="42.32804" lon="0.2356">
        <ele>730.26</ele>
        <time>2014-06-02T09:43:34Z</time>
      </trkpt>
      <trkpt lat="42.32827" lon="0.23548">
        <ele>729.3</ele>
        <time>2014-06-02T09:43:45Z</time>
      </trkpt>
      <trkpt lat="42.32844" lon="0.23531">
        <ele>730.26</ele>
        <time>2014-06-02T09:43:56Z</time>
      </trkpt>
      <trkpt lat="42.32847" lon="0.23501">
        <ele>728.82</ele>
        <time>2014-06-02T09:44:06Z</time>
      </trkpt>
      <trkpt lat="42.32846" lon="0.2349">
        <ele>727.86</ele>
        <time>2014-06-02T09:44:08Z</time>
      </trkpt>
      <trkpt lat="42.32846" lon="0.23485">
        <ele>727.37</ele>
        <time>2014-06-02T09:44:09Z</time>
      </trkpt>
      <trkpt lat="42.32852" lon="0.23456">
        <ele>725.93</ele>
        <time>2014-06-02T09:44:13Z</time>
      </trkpt>
      <trkpt lat="42.32862" lon="0.23426">
        <ele>726.41</ele>
        <time>2014-06-02T09:44:18Z</time>
      </trkpt>
      <trkpt lat="42.32887" lon="0.23398">
        <ele>727.86</ele>
        <time>2014-06-02T09:44:26Z</time>
      </trkpt>
      <trkpt lat="42.32923" lon="0.23362">
        <ele>730.74</ele>
        <time>2014-06-02T09:44:38Z</time>
      </trkpt>
      <trkpt lat="42.32938" lon="0.2334">
        <ele>730.74</ele>
        <time>2014-06-02T09:44:44Z</time>
      </trkpt>
      <trkpt lat="42.32945" lon="0.23269">
        <ele>730.74</ele>
        <time>2014-06-02T09:44:58Z</time>
      </trkpt>
      <trkpt lat="42.32956" lon="0.23243">
        <ele>730.74</ele>
        <time>2014-06-02T09:45:04Z</time>
      </trkpt>
      <trkpt lat="42.32964" lon="0.23229">
        <ele>732.66</ele>
        <time>2014-06-02T09:45:07Z</time>
      </trkpt>
      <trkpt lat="42.32969" lon="0.23221">
        <ele>733.62</ele>
        <time>2014-06-02T09:45:09Z</time>
      </trkpt>
      <trkpt lat="42.32976" lon="0.23208">
        <ele>735.07</ele>
        <time>2014-06-02T09:45:12Z</time>
      </trkpt>
      <trkpt lat="42.32991" lon="0.23191">
        <ele>736.03</ele>
        <time>2014-06-02T09:45:17Z</time>
      </trkpt>
      <trkpt lat="42.33015" lon="0.23153">
        <ele>738.43</ele>
        <time>2014-06-02T09:45:28Z</time>
      </trkpt>
      <trkpt lat="42.33021" lon="0.23146">
        <ele>738.43</ele>
        <time>2014-06-02T09:45:31Z</time>
      </trkpt>
      <trkpt lat="42.33026" lon="0.23109">
        <ele>742.28</ele>
        <time>2014-06-02T09:45:42Z</time>
      </trkpt>
      <trkpt lat="42.33035" lon="0.23082">
        <ele>745.16</ele>
        <time>2014-06-02T09:45:51Z</time>
      </trkpt>
      <trkpt lat="42.33037" lon="0.23076">
        <ele>746.12</ele>
        <time>2014-06-02T09:45:53Z</time>
      </trkpt>
      <trkpt lat="42.33067" lon="0.2305">
        <ele>748.04</ele>
        <time>2014-06-02T09:46:05Z</time>
      </trkpt>
      <trkpt lat="42.33082" lon="0.23029">
        <ele>748.04</ele>
        <time>2014-06-02T09:46:12Z</time>
      </trkpt>
      <trkpt lat="42.33078" lon="0.23012">
        <ele>748.04</ele>
        <time>2014-06-02T09:46:16Z</time>
      </trkpt>
      <trkpt lat="42.33074" lon="0.23003">
        <ele>747.08</ele>
        <time>2014-06-02T09:46:18Z</time>
      </trkpt>
      <trkpt lat="42.33075" lon="0.22971">
        <ele>745.16</ele>
        <time>2014-06-02T09:46:23Z</time>
      </trkpt>
      <trkpt lat="42.33076" lon="0.22964">
        <ele>744.68</ele>
        <time>2014-06-02T09:46:24Z</time>
      </trkpt>
      <trkpt lat="42.33079" lon="0.22948">
        <ele>744.2</ele>
        <time>2014-06-02T09:46:26Z</time>
      </trkpt>
      <trkpt lat="42.33081" lon="0.22912">
        <ele>743.24</ele>
        <time>2014-06-02T09:46:31Z</time>
      </trkpt>
      <trkpt lat="42.33085" lon="0.22861">
        <ele>741.79</ele>
        <time>2014-06-02T09:46:38Z</time>
      </trkpt>
      <trkpt lat="42.33085" lon="0.22846">
        <ele>740.83</ele>
        <time>2014-06-02T09:46:40Z</time>
      </trkpt>
      <trkpt lat="42.33076" lon="0.22783">
        <ele>743.72</ele>
        <time>2014-06-02T09:46:51Z</time>
      </trkpt>
      <trkpt lat="42.33071" lon="0.22742">
        <ele>747.08</ele>
        <time>2014-06-02T09:47:02Z</time>
      </trkpt>
      <trkpt lat="42.33061" lon="0.2268">
        <ele>748.52</ele>
        <time>2014-06-02T09:47:16Z</time>
      </trkpt>
      <trkpt lat="42.33055" lon="0.22665">
        <ele>749.97</ele>
        <time>2014-06-02T09:47:19Z</time>
      </trkpt>
      <trkpt lat="42.33044" lon="0.22622">
        <ele>752.85</ele>
        <time>2014-06-02T09:47:31Z</time>
      </trkpt>
      <trkpt lat="42.33043" lon="0.22613">
        <ele>752.85</ele>
        <time>2014-06-02T09:47:44Z</time>
      </trkpt>
      <trkpt lat="42.33043" lon="0.22613">
        <ele>752.37</ele>
        <time>2014-06-02T09:48:12Z</time>
      </trkpt>
      <trkpt lat="42.33043" lon="0.22613">
        <ele>752.37</ele>
        <time>2014-06-02T09:48:38Z</time>
      </trkpt>
      <trkpt lat="42.33043" lon="0.22613">
        <ele>752.37</ele>
        <time>2014-06-02T09:49:13Z</time>
      </trkpt>
      <trkpt lat="42.33043" lon="0.22613">
        <ele>752.85</ele>
        <time>2014-06-02T09:49:50Z</time>
      </trkpt>
      <trkpt lat="42.33043" lon="0.22613">
        <ele>750.45</ele>
        <time>2014-06-02T09:50:15Z</time>
      </trkpt>
      <trkpt lat="42.33043" lon="0.22613">
        <ele>752.85</ele>
        <time>2014-06-02T09:50:47Z</time>
      </trkpt>
      <trkpt lat="42.33043" lon="0.22613">
        <ele>752.85</ele>
        <time>2014-06-02T09:51:19Z</time>
      </trkpt>
      <trkpt lat="42.33043" lon="0.22612">
        <ele>752.37</ele>
        <time>2014-06-02T09:51:24Z</time>
      </trkpt>
      <trkpt lat="42.3303" lon="0.22606">
        <ele>750.45</ele>
        <time>2014-06-02T09:51:28Z</time>
      </trkpt>
      <trkpt lat="42.33018" lon="0.22607">
        <ele>748.04</ele>
        <time>2014-06-02T09:51:30Z</time>
      </trkpt>
      <trkpt lat="42.32985" lon="0.22616">
        <ele>742.76</ele>
        <time>2014-06-02T09:51:34Z</time>
      </trkpt>
      <trkpt lat="42.32958" lon="0.22623">
        <ele>740.35</ele>
        <time>2014-06-02T09:51:37Z</time>
      </trkpt>
      <trkpt lat="42.3294" lon="0.22625">
        <ele>738.43</ele>
        <time>2014-06-02T09:51:39Z</time>
      </trkpt>
      <trkpt lat="42.32905" lon="0.22601">
        <ele>736.99</ele>
        <time>2014-06-02T09:51:46Z</time>
      </trkpt>
      <trkpt lat="42.32906" lon="0.22595">
        <ele>736.51</ele>
        <time>2014-06-02T09:51:47Z</time>
      </trkpt>
      <trkpt lat="42.32908" lon="0.22579">
        <ele>736.51</ele>
        <time>2014-06-02T09:51:49Z</time>
      </trkpt>
      <trkpt lat="42.32908" lon="0.22503">
        <ele>735.07</ele>
        <time>2014-06-02T09:51:59Z</time>
      </trkpt>
      <trkpt lat="42.32905" lon="0.22462">
        <ele>730.74</ele>
        <time>2014-06-02T09:52:04Z</time>
      </trkpt>
      <trkpt lat="42.32903" lon="0.22442">
        <ele>728.34</ele>
        <time>2014-06-02T09:52:06Z</time>
      </trkpt>
      <trkpt lat="42.32895" lon="0.22416">
        <ele>725.93</ele>
        <time>2014-06-02T09:52:09Z</time>
      </trkpt>
      <trkpt lat="42.32883" lon="0.22357">
        <ele>721.61</ele>
        <time>2014-06-02T09:52:14Z</time>
      </trkpt>
      <trkpt lat="42.32879" lon="0.22312">
        <ele>717.76</ele>
        <time>2014-06-02T09:52:18Z</time>
      </trkpt>
      <trkpt lat="42.32871" lon="0.22268">
        <ele>714.88</ele>
        <time>2014-06-02T09:52:22Z</time>
      </trkpt>
      <trkpt lat="42.32864" lon="0.22248">
        <ele>714.4</ele>
        <time>2014-06-02T09:52:24Z</time>
      </trkpt>
      <trkpt lat="42.32844" lon="0.22218">
        <ele>710.07</ele>
        <time>2014-06-02T09:52:29Z</time>
      </trkpt>
      <trkpt lat="42.32837" lon="0.22208">
        <ele>707.67</ele>
        <time>2014-06-02T09:52:31Z</time>
      </trkpt>
      <trkpt lat="42.32829" lon="0.22197">
        <ele>706.23</ele>
        <time>2014-06-02T09:52:33Z</time>
      </trkpt>
      <trkpt lat="42.32826" lon="0.22187">
        <ele>705.75</ele>
        <time>2014-06-02T09:52:39Z</time>
      </trkpt>
      <trkpt lat="42.32826" lon="0.22184">
        <ele>705.26</ele>
        <time>2014-06-02T09:52:49Z</time>
      </trkpt>
      <trkpt lat="42.32826" lon="0.22169">
        <ele>704.78</ele>
        <time>2014-06-02T09:53:00Z</time>
      </trkpt>
      <trkpt lat="42.32824" lon="0.22147">
        <ele>701.9</ele>
        <time>2014-06-02T09:53:09Z</time>
      </trkpt>
      <trkpt lat="42.32824" lon="0.22144">
        <ele>701.9</ele>
        <time>2014-06-02T09:53:19Z</time>
      </trkpt>
      <trkpt lat="42.32824" lon="0.22144">
        <ele>701.9</ele>
        <time>2014-06-02T09:53:40Z</time>
      </trkpt>
      <trkpt lat="42.32824" lon="0.22143">
        <ele>702.38</ele>
        <time>2014-06-02T09:53:47Z</time>
      </trkpt>
      <trkpt lat="42.32821" lon="0.22121">
        <ele>699.5</ele>
        <time>2014-06-02T09:53:53Z</time>
      </trkpt>
      <trkpt lat="42.32819" lon="0.22104">
        <ele>697.09</ele>
        <time>2014-06-02T09:53:56Z</time>
      </trkpt>
      <trkpt lat="42.3281" lon="0.22079">
        <ele>692.77</ele>
        <time>2014-06-02T09:54:00Z</time>
      </trkpt>
      <trkpt lat="42.32798" lon="0.22056">
        <ele>689.4</ele>
        <time>2014-06-02T09:54:03Z</time>
      </trkpt>
      <trkpt lat="42.32792" lon="0.22042">
        <ele>687.48</ele>
        <time>2014-06-02T09:54:05Z</time>
      </trkpt>
      <trkpt lat="42.32778" lon="0.22021">
        <ele>683.15</ele>
        <time>2014-06-02T09:54:09Z</time>
      </trkpt>
      <trkpt lat="42.32756" lon="0.22011">
        <ele>679.31</ele>
        <time>2014-06-02T09:54:13Z</time>
      </trkpt>
      <trkpt lat="42.32751" lon="0.22011">
        <ele>677.87</ele>
        <time>2014-06-02T09:54:14Z</time>
      </trkpt>
      <trkpt lat="42.3274" lon="0.22009">
        <ele>676.91</ele>
        <time>2014-06-02T09:54:16Z</time>
      </trkpt>
      <trkpt lat="42.3273" lon="0.22009">
        <ele>675.46</ele>
        <time>2014-06-02T09:54:18Z</time>
      </trkpt>
      <trkpt lat="42.32717" lon="0.22003">
        <ele>674.02</ele>
        <time>2014-06-02T09:54:21Z</time>
      </trkpt>
      <trkpt lat="42.32722" lon="0.21978">
        <ele>674.5</ele>
        <time>2014-06-02T09:54:25Z</time>
      </trkpt>
      <trkpt lat="42.32715" lon="0.2194">
        <ele>674.98</ele>
        <time>2014-06-02T09:54:31Z</time>
      </trkpt>
      <trkpt lat="42.32706" lon="0.21915">
        <ele>675.94</ele>
        <time>2014-06-02T09:54:36Z</time>
      </trkpt>
      <trkpt lat="42.327" lon="0.21874">
        <ele>674.5</ele>
        <time>2014-06-02T09:54:43Z</time>
      </trkpt>
      <trkpt lat="42.32702" lon="0.21863">
        <ele>672.58</ele>
        <time>2014-06-02T09:54:45Z</time>
      </trkpt>
      <trkpt lat="42.32706" lon="0.21834">
        <ele>669.22</ele>
        <time>2014-06-02T09:54:50Z</time>
      </trkpt>
      <trkpt lat="42.32705" lon="0.21818">
        <ele>666.81</ele>
        <time>2014-06-02T09:54:53Z</time>
      </trkpt>
      <trkpt lat="42.32704" lon="0.21795">
        <ele>662.49</ele>
        <time>2014-06-02T09:55:00Z</time>
      </trkpt>
      <trkpt lat="42.32704" lon="0.21792">
        <ele>662.49</ele>
        <time>2014-06-02T09:55:08Z</time>
      </trkpt>
      <trkpt lat="42.32703" lon="0.21788">
        <ele>662.01</ele>
        <time>2014-06-02T09:55:10Z</time>
      </trkpt>
      <trkpt lat="42.32701" lon="0.21778">
        <ele>660.08</ele>
        <time>2014-06-02T09:55:15Z</time>
      </trkpt>
      <trkpt lat="42.32692" lon="0.21765">
        <ele>658.64</ele>
        <time>2014-06-02T09:55:21Z</time>
      </trkpt>
      <trkpt lat="42.32679" lon="0.21749">
        <ele>654.8</ele>
        <time>2014-06-02T09:55:25Z</time>
      </trkpt>
      <trkpt lat="42.32668" lon="0.21738">
        <ele>651.91</ele>
        <time>2014-06-02T09:55:28Z</time>
      </trkpt>
      <trkpt lat="42.32643" lon="0.21717">
        <ele>647.59</ele>
        <time>2014-06-02T09:55:34Z</time>
      </trkpt>
      <trkpt lat="42.32626" lon="0.21704">
        <ele>644.22</ele>
        <time>2014-06-02T09:55:39Z</time>
      </trkpt>
      <trkpt lat="42.32621" lon="0.21701">
        <ele>643.26</ele>
        <time>2014-06-02T09:55:41Z</time>
      </trkpt>
      <trkpt lat="42.32596" lon="0.21713">
        <ele>640.86</ele>
        <time>2014-06-02T09:55:51Z</time>
      </trkpt>
      <trkpt lat="42.32591" lon="0.21716">
        <ele>640.38</ele>
        <time>2014-06-02T09:55:52Z</time>
      </trkpt>
      <trkpt lat="42.32567" lon="0.21723">
        <ele>638.93</ele>
        <time>2014-06-02T09:55:57Z</time>
      </trkpt>
      <trkpt lat="42.32556" lon="0.21685">
        <ele>635.57</ele>
        <time>2014-06-02T09:56:04Z</time>
      </trkpt>
      <trkpt lat="42.3255" lon="0.21633">
        <ele>631.72</ele>
        <time>2014-06-02T09:56:12Z</time>
      </trkpt>
      <trkpt lat="42.32533" lon="0.2161">
        <ele>628.84</ele>
        <time>2014-06-02T09:56:16Z</time>
      </trkpt>
      <trkpt lat="42.32525" lon="0.21599">
        <ele>627.88</ele>
        <time>2014-06-02T09:56:18Z</time>
      </trkpt>
      <trkpt lat="42.32513" lon="0.21581">
        <ele>624.99</ele>
        <time>2014-06-02T09:56:22Z</time>
      </trkpt>
      <trkpt lat="42.32508" lon="0.21563">
        <ele>624.99</ele>
        <time>2014-06-02T09:56:26Z</time>
      </trkpt>
      <trkpt lat="42.32506" lon="0.21551">
        <ele>624.03</ele>
        <time>2014-06-02T09:56:30Z</time>
      </trkpt>
      <trkpt lat="42.32522" lon="0.21524">
        <ele>626.44</ele>
        <time>2014-06-02T09:56:44Z</time>
      </trkpt>
      <trkpt lat="42.32522" lon="0.21522">
        <ele>625.96</ele>
        <time>2014-06-02T09:56:47Z</time>
      </trkpt>
      <trkpt lat="42.32513" lon="0.21514">
        <ele>625.47</ele>
        <time>2014-06-02T09:56:52Z</time>
      </trkpt>
      <trkpt lat="42.32505" lon="0.21507">
        <ele>624.99</ele>
        <time>2014-06-02T09:56:55Z</time>
      </trkpt>
      <trkpt lat="42.32487" lon="0.21495">
        <ele>623.07</ele>
        <time>2014-06-02T09:56:59Z</time>
      </trkpt>
      <trkpt lat="42.32476" lon="0.21486">
        <ele>620.67</ele>
        <time>2014-06-02T09:57:01Z</time>
      </trkpt>
      <trkpt lat="42.32462" lon="0.21478">
        <ele>619.71</ele>
        <time>2014-06-02T09:57:03Z</time>
      </trkpt>
      <trkpt lat="42.32433" lon="0.21462">
        <ele>619.23</ele>
        <time>2014-06-02T09:57:09Z</time>
      </trkpt>
      <trkpt lat="42.3242" lon="0.21457">
        <ele>619.71</ele>
        <time>2014-06-02T09:57:12Z</time>
      </trkpt>
      <trkpt lat="42.32392" lon="0.21442">
        <ele>616.34</ele>
        <time>2014-06-02T09:57:18Z</time>
      </trkpt>
      <trkpt lat="42.32381" lon="0.21441">
        <ele>615.38</ele>
        <time>2014-06-02T09:57:20Z</time>
      </trkpt>
      <trkpt lat="42.32362" lon="0.21446">
        <ele>613.46</ele>
        <time>2014-06-02T09:57:24Z</time>
      </trkpt>
      <trkpt lat="42.32348" lon="0.2143">
        <ele>614.9</ele>
        <time>2014-06-02T09:57:30Z</time>
      </trkpt>
      <trkpt lat="42.32342" lon="0.21422">
        <ele>612.98</ele>
        <time>2014-06-02T09:57:32Z</time>
      </trkpt>
      <trkpt lat="42.32314" lon="0.21403">
        <ele>609.61</ele>
        <time>2014-06-02T09:57:38Z</time>
      </trkpt>
      <trkpt lat="42.3231" lon="0.214">
        <ele>609.13</ele>
        <time>2014-06-02T09:57:39Z</time>
      </trkpt>
      <trkpt lat="42.32292" lon="0.21389">
        <ele>604.81</ele>
        <time>2014-06-02T09:57:43Z</time>
      </trkpt>
      <trkpt lat="42.32279" lon="0.21383">
        <ele>601.92</ele>
        <time>2014-06-02T09:57:47Z</time>
      </trkpt>
      <trkpt lat="42.32265" lon="0.21375">
        <ele>598.56</ele>
        <time>2014-06-02T09:57:55Z</time>
      </trkpt>
      <trkpt lat="42.32234" lon="0.21365">
        <ele>595.19</ele>
        <time>2014-06-02T09:58:03Z</time>
      </trkpt>
      <trkpt lat="42.32222" lon="0.21361">
        <ele>594.71</ele>
        <time>2014-06-02T09:58:06Z</time>
      </trkpt>
      <trkpt lat="42.32198" lon="0.21354">
        <ele>590.87</ele>
        <time>2014-06-02T09:58:11Z</time>
      </trkpt>
      <trkpt lat="42.32187" lon="0.2135">
        <ele>589.91</ele>
        <time>2014-06-02T09:58:13Z</time>
      </trkpt>
      <trkpt lat="42.32171" lon="0.21343">
        <ele>587.98</ele>
        <time>2014-06-02T09:58:16Z</time>
      </trkpt>
      <trkpt lat="42.32147" lon="0.21336">
        <ele>585.58</ele>
        <time>2014-06-02T09:58:20Z</time>
      </trkpt>
      <trkpt lat="42.32134" lon="0.21331">
        <ele>584.14</ele>
        <time>2014-06-02T09:58:22Z</time>
      </trkpt>
      <trkpt lat="42.32114" lon="0.21327">
        <ele>582.22</ele>
        <time>2014-06-02T09:58:25Z</time>
      </trkpt>
      <trkpt lat="42.32079" lon="0.21319">
        <ele>577.89</ele>
        <time>2014-06-02T09:58:31Z</time>
      </trkpt>
      <trkpt lat="42.32067" lon="0.21315">
        <ele>576.93</ele>
        <time>2014-06-02T09:58:33Z</time>
      </trkpt>
      <trkpt lat="42.32051" lon="0.2131">
        <ele>575.01</ele>
        <time>2014-06-02T09:58:37Z</time>
      </trkpt>
      <trkpt lat="42.3203" lon="0.21308">
        <ele>573.56</ele>
        <time>2014-06-02T09:58:44Z</time>
      </trkpt>
      <trkpt lat="42.32028" lon="0.21313">
        <ele>572.12</ele>
        <time>2014-06-02T09:58:48Z</time>
      </trkpt>
      <trkpt lat="42.32033" lon="0.21326">
        <ele>570.2</ele>
        <time>2014-06-02T09:58:53Z</time>
      </trkpt>
      <trkpt lat="42.32014" lon="0.21326">
        <ele>565.87</ele>
        <time>2014-06-02T09:58:59Z</time>
      </trkpt>
      <trkpt lat="42.32009" lon="0.21323">
        <ele>563.95</ele>
        <time>2014-06-02T09:59:01Z</time>
      </trkpt>
      <trkpt lat="42.31999" lon="0.21314">
        <ele>559.62</ele>
        <time>2014-06-02T09:59:05Z</time>
      </trkpt>
      <trkpt lat="42.31996" lon="0.21311">
        <ele>558.18</ele>
        <time>2014-06-02T09:59:06Z</time>
      </trkpt>
      <trkpt lat="42.31976" lon="0.21304">
        <ele>553.38</ele>
        <time>2014-06-02T09:59:11Z</time>
      </trkpt>
      <trkpt lat="42.31959" lon="0.213">
        <ele>550.49</ele>
        <time>2014-06-02T09:59:15Z</time>
      </trkpt>
      <trkpt lat="42.31951" lon="0.21302">
        <ele>552.41</ele>
        <time>2014-06-02T09:59:18Z</time>
      </trkpt>
      <trkpt lat="42.31944" lon="0.21304">
        <ele>551.93</ele>
        <time>2014-06-02T09:59:21Z</time>
      </trkpt>
      <trkpt lat="42.31933" lon="0.21293">
        <ele>551.45</ele>
        <time>2014-06-02T09:59:25Z</time>
      </trkpt>
      <trkpt lat="42.31922" lon="0.21281">
        <ele>550.01</ele>
        <time>2014-06-02T09:59:29Z</time>
      </trkpt>
      <trkpt lat="42.31903" lon="0.21245">
        <ele>550.01</ele>
        <time>2014-06-02T09:59:38Z</time>
      </trkpt>
      <trkpt lat="42.31901" lon="0.21243">
        <ele>550.97</ele>
        <time>2014-06-02T09:59:48Z</time>
      </trkpt>
      <trkpt lat="42.31897" lon="0.21239">
        <ele>550.49</ele>
        <time>2014-06-02T09:59:57Z</time>
      </trkpt>
      <trkpt lat="42.3188" lon="0.21226">
        <ele>548.09</ele>
        <time>2014-06-02T10:00:03Z</time>
      </trkpt>
      <trkpt lat="42.31849" lon="0.21227">
        <ele>546.65</ele>
        <time>2014-06-02T10:00:09Z</time>
      </trkpt>
      <trkpt lat="42.31824" lon="0.21227">
        <ele>545.69</ele>
        <time>2014-06-02T10:00:14Z</time>
      </trkpt>
      <trkpt lat="42.31812" lon="0.21228">
        <ele>544.24</ele>
        <time>2014-06-02T10:00:16Z</time>
      </trkpt>
      <trkpt lat="42.31806" lon="0.21229">
        <ele>543.76</ele>
        <time>2014-06-02T10:00:17Z</time>
      </trkpt>
      <trkpt lat="42.31779" lon="0.21228">
        <ele>541.36</ele>
        <time>2014-06-02T10:00:21Z</time>
      </trkpt>
      <trkpt lat="42.31772" lon="0.21226">
        <ele>541.36</ele>
        <time>2014-06-02T10:00:22Z</time>
      </trkpt>
      <trkpt lat="42.31734" lon="0.21195">
        <ele>537.99</ele>
        <time>2014-06-02T10:00:29Z</time>
      </trkpt>
      <trkpt lat="42.31729" lon="0.21193">
        <ele>537.03</ele>
        <time>2014-06-02T10:00:30Z</time>
      </trkpt>
      <trkpt lat="42.31723" lon="0.2119">
        <ele>536.07</ele>
        <time>2014-06-02T10:00:31Z</time>
      </trkpt>
      <trkpt lat="42.31716" lon="0.21188">
        <ele>535.59</ele>
        <time>2014-06-02T10:00:32Z</time>
      </trkpt>
      <trkpt lat="42.31701" lon="0.21193">
        <ele>535.11</ele>
        <time>2014-06-02T10:00:34Z</time>
      </trkpt>
      <trkpt lat="42.31656" lon="0.21197">
        <ele>536.07</ele>
        <time>2014-06-02T10:00:43Z</time>
      </trkpt>
      <trkpt lat="42.31642" lon="0.21202">
        <ele>535.59</ele>
        <time>2014-06-02T10:00:46Z</time>
      </trkpt>
      <trkpt lat="42.31628" lon="0.21208">
        <ele>535.11</ele>
        <time>2014-06-02T10:00:49Z</time>
      </trkpt>
      <trkpt lat="42.31607" lon="0.21211">
        <ele>535.11</ele>
        <time>2014-06-02T10:00:54Z</time>
      </trkpt>
      <trkpt lat="42.31589" lon="0.21211">
        <ele>534.63</ele>
        <time>2014-06-02T10:00:58Z</time>
      </trkpt>
      <trkpt lat="42.31583" lon="0.21214">
        <ele>534.15</ele>
        <time>2014-06-02T10:00:59Z</time>
      </trkpt>
      <trkpt lat="42.31573" lon="0.21221">
        <ele>533.67</ele>
        <time>2014-06-02T10:01:01Z</time>
      </trkpt>
      <trkpt lat="42.31547" lon="0.21243">
        <ele>536.07</ele>
        <time>2014-06-02T10:01:08Z</time>
      </trkpt>
      <trkpt lat="42.31531" lon="0.21252">
        <ele>537.03</ele>
        <time>2014-06-02T10:01:13Z</time>
      </trkpt>
      <trkpt lat="42.3152" lon="0.21291">
        <ele>535.11</ele>
        <time>2014-06-02T10:01:22Z</time>
      </trkpt>
      <trkpt lat="42.31509" lon="0.21301">
        <ele>534.15</ele>
        <time>2014-06-02T10:01:26Z</time>
      </trkpt>
      <trkpt lat="42.31492" lon="0.21301">
        <ele>532.71</ele>
        <time>2014-06-02T10:01:30Z</time>
      </trkpt>
      <trkpt lat="42.31479" lon="0.21304">
        <ele>532.23</ele>
        <time>2014-06-02T10:01:33Z</time>
      </trkpt>
      <trkpt lat="42.31427" lon="0.21296">
        <ele>532.71</ele>
        <time>2014-06-02T10:01:45Z</time>
      </trkpt>
      <trkpt lat="42.31424" lon="0.21295">
        <ele>532.23</ele>
        <time>2014-06-02T10:01:46Z</time>
      </trkpt>
      <trkpt lat="42.3142" lon="0.21291">
        <ele>532.23</ele>
        <time>2014-06-02T10:01:57Z</time>
      </trkpt>
      <trkpt lat="42.3142" lon="0.21291">
        <ele>532.71</ele>
        <time>2014-06-02T10:02:21Z</time>
      </trkpt>
      <trkpt lat="42.3142" lon="0.21291">
        <ele>532.71</ele>
        <time>2014-06-02T10:02:52Z</time>
      </trkpt>
      <trkpt lat="42.31419" lon="0.21292">
        <ele>532.71</ele>
        <time>2014-06-02T10:03:01Z</time>
      </trkpt>
      <trkpt lat="42.31414" lon="0.21292">
        <ele>530.3</ele>
        <time>2014-06-02T10:03:04Z</time>
      </trkpt>
      <trkpt lat="42.31411" lon="0.2129">
        <ele>530.3</ele>
        <time>2014-06-02T10:03:05Z</time>
      </trkpt>
      <trkpt lat="42.31391" lon="0.21265">
        <ele>530.3</ele>
        <time>2014-06-02T10:03:12Z</time>
      </trkpt>
      <trkpt lat="42.31384" lon="0.21193">
        <ele>530.79</ele>
        <time>2014-06-02T10:03:24Z</time>
      </trkpt>
      <trkpt lat="42.31384" lon="0.21137">
        <ele>530.79</ele>
        <time>2014-06-02T10:03:39Z</time>
      </trkpt>
      <trkpt lat="42.31384" lon="0.21137">
        <ele>532.71</ele>
        <time>2014-06-02T10:04:07Z</time>
      </trkpt>
      <trkpt lat="42.31384" lon="0.21137">
        <ele>527.42</ele>
        <time>2014-06-02T10:04:13Z</time>
      </trkpt>
      <trkpt lat="42.31384" lon="0.21137">
        <ele>532.71</ele>
        <time>2014-06-02T10:04:14Z</time>
      </trkpt>
      <trkpt lat="42.31384" lon="0.21137">
        <ele>525.98</ele>
        <time>2014-06-02T10:04:15Z</time>
      </trkpt>
      <trkpt lat="42.31384" lon="0.21137">
        <ele>531.75</ele>
        <time>2014-06-02T10:04:16Z</time>
      </trkpt>
      <trkpt lat="42.31384" lon="0.21137">
        <ele>537.99</ele>
        <time>2014-06-02T10:04:19Z</time>
      </trkpt>
      <trkpt lat="42.31384" lon="0.21137">
        <ele>537.03</ele>
        <time>2014-06-02T10:04:20Z</time>
      </trkpt>
      <trkpt lat="42.31384" lon="0.21137">
        <ele>529.34</ele>
        <time>2014-06-02T10:04:21Z</time>
      </trkpt>
      <trkpt lat="42.31384" lon="0.21137">
        <ele>522.61</ele>
        <time>2014-06-02T10:04:22Z</time>
      </trkpt>
      <trkpt lat="42.31384" lon="0.21137">
        <ele>530.79</ele>
        <time>2014-06-02T10:04:23Z</time>
      </trkpt>
      <trkpt lat="42.31384" lon="0.21137">
        <ele>535.11</ele>
        <time>2014-06-02T10:04:24Z</time>
      </trkpt>
      <trkpt lat="42.31384" lon="0.21137">
        <ele>533.67</ele>
        <time>2014-06-02T10:04:25Z</time>
      </trkpt>
      <trkpt lat="42.31384" lon="0.21137">
        <ele>542.32</ele>
        <time>2014-06-02T10:04:26Z</time>
      </trkpt>
      <trkpt lat="42.31384" lon="0.21137">
        <ele>523.09</ele>
        <time>2014-06-02T10:04:27Z</time>
      </trkpt>
      <trkpt lat="42.31384" lon="0.21137">
        <ele>524.06</ele>
        <time>2014-06-02T10:04:28Z</time>
      </trkpt>
      <trkpt lat="42.31384" lon="0.21137">
        <ele>530.79</ele>
        <time>2014-06-02T10:04:29Z</time>
      </trkpt>
      <trkpt lat="42.31384" lon="0.21137">
        <ele>529.82</ele>
        <time>2014-06-02T10:04:30Z</time>
      </trkpt>
      <trkpt lat="42.31384" lon="0.21136">
        <ele>531.75</ele>
        <time>2014-06-02T10:04:36Z</time>
      </trkpt>
      <trkpt lat="42.31382" lon="0.21132">
        <ele>532.71</ele>
        <time>2014-06-02T10:04:39Z</time>
      </trkpt>
      <trkpt lat="42.31382" lon="0.2112">
        <ele>531.75</ele>
        <time>2014-06-02T10:04:44Z</time>
      </trkpt>
      <trkpt lat="42.31362" lon="0.21075">
        <ele>531.75</ele>
        <time>2014-06-02T10:05:00Z</time>
      </trkpt>
      <trkpt lat="42.31321" lon="0.21045">
        <ele>531.27</ele>
        <time>2014-06-02T10:05:16Z</time>
      </trkpt>
      <trkpt lat="42.31258" lon="0.21031">
        <ele>528.86</ele>
        <time>2014-06-02T10:05:34Z</time>
      </trkpt>
      <trkpt lat="42.31189" lon="0.21017">
        <ele>528.86</ele>
        <time>2014-06-02T10:05:52Z</time>
      </trkpt>
      <trkpt lat="42.31106" lon="0.20998">
        <ele>529.82</ele>
        <time>2014-06-02T10:06:12Z</time>
      </trkpt>
      <trkpt lat="42.31079" lon="0.20994">
        <ele>529.34</ele>
        <time>2014-06-02T10:06:18Z</time>
      </trkpt>
      <trkpt lat="42.31053" lon="0.20956">
        <ele>531.75</ele>
        <time>2014-06-02T10:06:29Z</time>
      </trkpt>
      <trkpt lat="42.3105" lon="0.20904">
        <ele>534.63</ele>
        <time>2014-06-02T10:06:40Z</time>
      </trkpt>
      <trkpt lat="42.31088" lon="0.20858">
        <ele>536.07</ele>
        <time>2014-06-02T10:06:53Z</time>
      </trkpt>
      <trkpt lat="42.31124" lon="0.2083">
        <ele>536.55</ele>
        <time>2014-06-02T10:07:04Z</time>
      </trkpt>
      <trkpt lat="42.31143" lon="0.20812">
        <ele>536.55</ele>
        <time>2014-06-02T10:07:10Z</time>
      </trkpt>
      <trkpt lat="42.31159" lon="0.20799">
        <ele>536.07</ele>
        <time>2014-06-02T10:07:14Z</time>
      </trkpt>
      <trkpt lat="42.31227" lon="0.20738">
        <ele>533.67</ele>
        <time>2014-06-02T10:07:29Z</time>
      </trkpt>
      <trkpt lat="42.31295" lon="0.20679">
        <ele>532.71</ele>
        <time>2014-06-02T10:07:43Z</time>
      </trkpt>
      <trkpt lat="42.31355" lon="0.20626">
        <ele>532.71</ele>
        <time>2014-06-02T10:07:56Z</time>
      </trkpt>
      <trkpt lat="42.31417" lon="0.20574">
        <ele>533.19</ele>
        <time>2014-06-02T10:08:09Z</time>
      </trkpt>
      <trkpt lat="42.3145" lon="0.20553">
        <ele>532.71</ele>
        <time>2014-06-02T10:08:15Z</time>
      </trkpt>
      <trkpt lat="42.31476" lon="0.20541">
        <ele>532.71</ele>
        <time>2014-06-02T10:08:21Z</time>
      </trkpt>
      <trkpt lat="42.31526" lon="0.20527">
        <ele>531.75</ele>
        <time>2014-06-02T10:08:32Z</time>
      </trkpt>
      <trkpt lat="42.31579" lon="0.2051">
        <ele>531.75</ele>
        <time>2014-06-02T10:08:44Z</time>
      </trkpt>
      <trkpt lat="42.31614" lon="0.20481">
        <ele>531.75</ele>
        <time>2014-06-02T10:08:55Z</time>
      </trkpt>
      <trkpt lat="42.31618" lon="0.20471">
        <ele>532.23</ele>
        <time>2014-06-02T10:08:57Z</time>
      </trkpt>
      <trkpt lat="42.31619" lon="0.20447">
        <ele>531.75</ele>
        <time>2014-06-02T10:09:01Z</time>
      </trkpt>
      <trkpt lat="42.31612" lon="0.20358">
        <ele>531.27</ele>
        <time>2014-06-02T10:09:17Z</time>
      </trkpt>
      <trkpt lat="42.31601" lon="0.20283">
        <ele>531.75</ele>
        <time>2014-06-02T10:09:29Z</time>
      </trkpt>
      <trkpt lat="42.31592" lon="0.2025">
        <ele>531.27</ele>
        <time>2014-06-02T10:09:34Z</time>
      </trkpt>
      <trkpt lat="42.31582" lon="0.20233">
        <ele>531.27</ele>
        <time>2014-06-02T10:09:37Z</time>
      </trkpt>
      <trkpt lat="42.3157" lon="0.20218">
        <ele>531.27</ele>
        <time>2014-06-02T10:09:40Z</time>
      </trkpt>
      <trkpt lat="42.31546" lon="0.20204">
        <ele>531.75</ele>
        <time>2014-06-02T10:09:45Z</time>
      </trkpt>
      <trkpt lat="42.31507" lon="0.20201">
        <ele>533.19</ele>
        <time>2014-06-02T10:09:53Z</time>
      </trkpt>
      <trkpt lat="42.31468" lon="0.20219">
        <ele>535.11</ele>
        <time>2014-06-02T10:10:00Z</time>
      </trkpt>
      <trkpt lat="42.31426" lon="0.20213">
        <ele>538.48</ele>
        <time>2014-06-02T10:10:07Z</time>
      </trkpt>
      <trkpt lat="42.31413" lon="0.20207">
        <ele>538.96</ele>
        <time>2014-06-02T10:10:09Z</time>
      </trkpt>
      <trkpt lat="42.31385" lon="0.20204">
        <ele>539.44</ele>
        <time>2014-06-02T10:10:14Z</time>
      </trkpt>
      <trkpt lat="42.31375" lon="0.20207">
        <ele>540.4</ele>
        <time>2014-06-02T10:10:16Z</time>
      </trkpt>
      <trkpt lat="42.31339" lon="0.20222">
        <ele>541.84</ele>
        <time>2014-06-02T10:10:24Z</time>
      </trkpt>
      <trkpt lat="42.31282" lon="0.20245">
        <ele>542.8</ele>
        <time>2014-06-02T10:10:39Z</time>
      </trkpt>
      <trkpt lat="42.31258" lon="0.20255">
        <ele>543.28</ele>
        <time>2014-06-02T10:10:45Z</time>
      </trkpt>
      <trkpt lat="42.3125" lon="0.20257">
        <ele>542.8</ele>
        <time>2014-06-02T10:10:47Z</time>
      </trkpt>
      <trkpt lat="42.31211" lon="0.20237">
        <ele>541.36</ele>
        <time>2014-06-02T10:10:56Z</time>
      </trkpt>
      <trkpt lat="42.31182" lon="0.20171">
        <ele>541.36</ele>
        <time>2014-06-02T10:11:07Z</time>
      </trkpt>
      <trkpt lat="42.31182" lon="0.20115">
        <ele>542.32</ele>
        <time>2014-06-02T10:11:16Z</time>
      </trkpt>
      <trkpt lat="42.31194" lon="0.20089">
        <ele>543.76</ele>
        <time>2014-06-02T10:11:21Z</time>
      </trkpt>
      <trkpt lat="42.31198" lon="0.20078">
        <ele>544.24</ele>
        <time>2014-06-02T10:11:23Z</time>
      </trkpt>
      <trkpt lat="42.31204" lon="0.20042">
        <ele>544.24</ele>
        <time>2014-06-02T10:11:28Z</time>
      </trkpt>
      <trkpt lat="42.31203" lon="0.19967">
        <ele>542.32</ele>
        <time>2014-06-02T10:11:37Z</time>
      </trkpt>
      <trkpt lat="42.3118" lon="0.1991">
        <ele>541.36</ele>
        <time>2014-06-02T10:11:45Z</time>
      </trkpt>
      <trkpt lat="42.31106" lon="0.19823">
        <ele>542.32</ele>
        <time>2014-06-02T10:12:03Z</time>
      </trkpt>
      <trkpt lat="42.31091" lon="0.19804">
        <ele>542.8</ele>
        <time>2014-06-02T10:12:07Z</time>
      </trkpt>
      <trkpt lat="42.3106" lon="0.19709">
        <ele>542.8</ele>
        <time>2014-06-02T10:12:21Z</time>
      </trkpt>
      <trkpt lat="42.31067" lon="0.19655">
        <ele>542.8</ele>
        <time>2014-06-02T10:12:29Z</time>
      </trkpt>
      <trkpt lat="42.31076" lon="0.19637">
        <ele>542.8</ele>
        <time>2014-06-02T10:12:32Z</time>
      </trkpt>
      <trkpt lat="42.31131" lon="0.19567">
        <ele>539.92</ele>
        <time>2014-06-02T10:12:45Z</time>
      </trkpt>
      <trkpt lat="42.31165" lon="0.19509">
        <ele>536.55</ele>
        <time>2014-06-02T10:12:52Z</time>
      </trkpt>
      <trkpt lat="42.31175" lon="0.1949">
        <ele>535.11</ele>
        <time>2014-06-02T10:12:54Z</time>
      </trkpt>
      <trkpt lat="42.31186" lon="0.19444">
        <ele>533.67</ele>
        <time>2014-06-02T10:12:58Z</time>
      </trkpt>
      <trkpt lat="42.31185" lon="0.19383">
        <ele>530.3</ele>
        <time>2014-06-02T10:13:03Z</time>
      </trkpt>
      <trkpt lat="42.31184" lon="0.1936">
        <ele>532.71</ele>
        <time>2014-06-02T10:13:05Z</time>
      </trkpt>
      <trkpt lat="42.31167" lon="0.19289">
        <ele>531.75</ele>
        <time>2014-06-02T10:13:12Z</time>
      </trkpt>
      <trkpt lat="42.3115" lon="0.19263">
        <ele>534.15</ele>
        <time>2014-06-02T10:13:17Z</time>
      </trkpt>
      <trkpt lat="42.31145" lon="0.19246">
        <ele>535.59</ele>
        <time>2014-06-02T10:13:23Z</time>
      </trkpt>
      <trkpt lat="42.31148" lon="0.1924">
        <ele>534.63</ele>
        <time>2014-06-02T10:13:39Z</time>
      </trkpt>
      <trkpt lat="42.31151" lon="0.19237">
        <ele>535.59</ele>
        <time>2014-06-02T10:13:45Z</time>
      </trkpt>
      <trkpt lat="42.31163" lon="0.19228">
        <ele>535.11</ele>
        <time>2014-06-02T10:13:49Z</time>
      </trkpt>
      <trkpt lat="42.31238" lon="0.19179">
        <ele>536.55</ele>
        <time>2014-06-02T10:14:06Z</time>
      </trkpt>
      <trkpt lat="42.31302" lon="0.19134">
        <ele>537.03</ele>
        <time>2014-06-02T10:14:21Z</time>
      </trkpt>
      <trkpt lat="42.31365" lon="0.19069">
        <ele>535.59</ele>
        <time>2014-06-02T10:14:35Z</time>
      </trkpt>
      <trkpt lat="42.3145" lon="0.18963">
        <ele>533.19</ele>
        <time>2014-06-02T10:14:52Z</time>
      </trkpt>
      <trkpt lat="42.31511" lon="0.18902">
        <ele>532.71</ele>
        <time>2014-06-02T10:15:03Z</time>
      </trkpt>
      <trkpt lat="42.31508" lon="0.18876">
        <ele>532.23</ele>
        <time>2014-06-02T10:15:08Z</time>
      </trkpt>
      <trkpt lat="42.31503" lon="0.1887">
        <ele>532.23</ele>
        <time>2014-06-02T10:15:09Z</time>
      </trkpt>
      <trkpt lat="42.315" lon="0.18826">
        <ele>533.19</ele>
        <time>2014-06-02T10:15:14Z</time>
      </trkpt>
      <trkpt lat="42.31519" lon="0.18722">
        <ele>535.11</ele>
        <time>2014-06-02T10:15:30Z</time>
      </trkpt>
      <trkpt lat="42.3152" lon="0.1871">
        <ele>535.59</ele>
        <time>2014-06-02T10:15:32Z</time>
      </trkpt>
      <trkpt lat="42.31513" lon="0.18675">
        <ele>535.59</ele>
        <time>2014-06-02T10:15:38Z</time>
      </trkpt>
      <trkpt lat="42.31478" lon="0.18586">
        <ele>537.51</ele>
        <time>2014-06-02T10:15:54Z</time>
      </trkpt>
      <trkpt lat="42.31481" lon="0.18539">
        <ele>538.96</ele>
        <time>2014-06-02T10:16:04Z</time>
      </trkpt>
      <trkpt lat="42.31467" lon="0.18476">
        <ele>540.88</ele>
        <time>2014-06-02T10:16:17Z</time>
      </trkpt>
      <trkpt lat="42.31437" lon="0.18399">
        <ele>543.76</ele>
        <time>2014-06-02T10:16:34Z</time>
      </trkpt>
      <trkpt lat="42.31408" lon="0.18317">
        <ele>545.69</ele>
        <time>2014-06-02T10:16:51Z</time>
      </trkpt>
      <trkpt lat="42.31391" lon="0.18274">
        <ele>546.65</ele>
        <time>2014-06-02T10:17:00Z</time>
      </trkpt>
      <trkpt lat="42.31351" lon="0.18219">
        <ele>548.09</ele>
        <time>2014-06-02T10:17:13Z</time>
      </trkpt>
      <trkpt lat="42.3134" lon="0.182">
        <ele>548.09</ele>
        <time>2014-06-02T10:17:17Z</time>
      </trkpt>
      <trkpt lat="42.31326" lon="0.1816">
        <ele>550.97</ele>
        <time>2014-06-02T10:17:27Z</time>
      </trkpt>
      <trkpt lat="42.31314" lon="0.18118">
        <ele>553.86</ele>
        <time>2014-06-02T10:17:39Z</time>
      </trkpt>
      <trkpt lat="42.31294" lon="0.1807">
        <ele>557.22</ele>
        <time>2014-06-02T10:17:53Z</time>
      </trkpt>
      <trkpt lat="42.31285" lon="0.18045">
        <ele>558.66</ele>
        <time>2014-06-02T10:18:01Z</time>
      </trkpt>
      <trkpt lat="42.3128" lon="0.18033">
        <ele>559.14</ele>
        <time>2014-06-02T10:18:06Z</time>
      </trkpt>
      <trkpt lat="42.31254" lon="0.17984">
        <ele>562.03</ele>
        <time>2014-06-02T10:18:23Z</time>
      </trkpt>
      <trkpt lat="42.31223" lon="0.17955">
        <ele>564.91</ele>
        <time>2014-06-02T10:18:38Z</time>
      </trkpt>
      <trkpt lat="42.31205" lon="0.17953">
        <ele>566.35</ele>
        <time>2014-06-02T10:18:45Z</time>
      </trkpt>
      <trkpt lat="42.31204" lon="0.17956">
        <ele>566.35</ele>
        <time>2014-06-02T10:18:48Z</time>
      </trkpt>
      <trkpt lat="42.31231" lon="0.17959">
        <ele>564.91</ele>
        <time>2014-06-02T10:18:59Z</time>
      </trkpt>
      <trkpt lat="42.31236" lon="0.17964">
        <ele>564.43</ele>
        <time>2014-06-02T10:19:02Z</time>
      </trkpt>
      <trkpt lat="42.3124" lon="0.17963">
        <ele>564.91</ele>
        <time>2014-06-02T10:19:05Z</time>
      </trkpt>
      <trkpt lat="42.31234" lon="0.1796">
        <ele>563.95</ele>
        <time>2014-06-02T10:19:09Z</time>
      </trkpt>
      <trkpt lat="42.31198" lon="0.17955">
        <ele>565.87</ele>
        <time>2014-06-02T10:19:24Z</time>
      </trkpt>
      <trkpt lat="42.31157" lon="0.17944">
        <ele>568.28</ele>
        <time>2014-06-02T10:19:39Z</time>
      </trkpt>
      <trkpt lat="42.31124" lon="0.17916">
        <ele>570.2</ele>
        <time>2014-06-02T10:19:52Z</time>
      </trkpt>
      <trkpt lat="42.31085" lon="0.17881">
        <ele>572.6</ele>
        <time>2014-06-02T10:20:08Z</time>
      </trkpt>
      <trkpt lat="42.31058" lon="0.17854">
        <ele>574.04</ele>
        <time>2014-06-02T10:20:20Z</time>
      </trkpt>
      <trkpt lat="42.31035" lon="0.17808">
        <ele>575.97</ele>
        <time>2014-06-02T10:20:35Z</time>
      </trkpt>
      <trkpt lat="42.31011" lon="0.17759">
        <ele>577.41</ele>
        <time>2014-06-02T10:20:51Z</time>
      </trkpt>
      <trkpt lat="42.31007" lon="0.17748">
        <ele>578.37</ele>
        <time>2014-06-02T10:21:01Z</time>
      </trkpt>
      <trkpt lat="42.31007" lon="0.17748">
        <ele>578.85</ele>
        <time>2014-06-02T10:21:28Z</time>
      </trkpt>
      <trkpt lat="42.31007" lon="0.17748">
        <ele>578.37</ele>
        <time>2014-06-02T10:21:50Z</time>
      </trkpt>
      <trkpt lat="42.31007" lon="0.17748">
        <ele>578.85</ele>
        <time>2014-06-02T10:22:12Z</time>
      </trkpt>
      <trkpt lat="42.31007" lon="0.17748">
        <ele>578.85</ele>
        <time>2014-06-02T10:22:21Z</time>
      </trkpt>
      <trkpt lat="42.31009" lon="0.17738">
        <ele>578.85</ele>
        <time>2014-06-02T10:22:25Z</time>
      </trkpt>
      <trkpt lat="42.31038" lon="0.17694">
        <ele>580.29</ele>
        <time>2014-06-02T10:22:38Z</time>
      </trkpt>
      <trkpt lat="42.31079" lon="0.17638">
        <ele>582.22</ele>
        <time>2014-06-02T10:22:54Z</time>
      </trkpt>
      <trkpt lat="42.31122" lon="0.17606">
        <ele>584.14</ele>
        <time>2014-06-02T10:23:07Z</time>
      </trkpt>
      <trkpt lat="42.31182" lon="0.17572">
        <ele>585.58</ele>
        <time>2014-06-02T10:23:23Z</time>
      </trkpt>
      <trkpt lat="42.31196" lon="0.17557">
        <ele>585.1</ele>
        <time>2014-06-02T10:23:27Z</time>
      </trkpt>
      <trkpt lat="42.31233" lon="0.17493">
        <ele>587.02</ele>
        <time>2014-06-02T10:23:40Z</time>
      </trkpt>
      <trkpt lat="42.31271" lon="0.1742">
        <ele>588.46</ele>
        <time>2014-06-02T10:23:55Z</time>
      </trkpt>
      <trkpt lat="42.31273" lon="0.17415">
        <ele>588.46</ele>
        <time>2014-06-02T10:23:56Z</time>
      </trkpt>
      <trkpt lat="42.31273" lon="0.17353">
        <ele>588.46</ele>
        <time>2014-06-02T10:24:06Z</time>
      </trkpt>
      <trkpt lat="42.31274" lon="0.17342">
        <ele>589.43</ele>
        <time>2014-06-02T10:24:08Z</time>
      </trkpt>
      <trkpt lat="42.31278" lon="0.1732">
        <ele>589.91</ele>
        <time>2014-06-02T10:24:12Z</time>
      </trkpt>
      <trkpt lat="42.31299" lon="0.17285">
        <ele>590.39</ele>
        <time>2014-06-02T10:24:19Z</time>
      </trkpt>
      <trkpt lat="42.31318" lon="0.1722">
        <ele>589.91</ele>
        <time>2014-06-02T10:24:29Z</time>
      </trkpt>
      <trkpt lat="42.31325" lon="0.17198">
        <ele>589.91</ele>
        <time>2014-06-02T10:24:32Z</time>
      </trkpt>
      <trkpt lat="42.31361" lon="0.17125">
        <ele>587.5</ele>
        <time>2014-06-02T10:24:42Z</time>
      </trkpt>
      <trkpt lat="42.31441" lon="0.17035">
        <ele>586.06</ele>
        <time>2014-06-02T10:24:57Z</time>
      </trkpt>
      <trkpt lat="42.31458" lon="0.17007">
        <ele>585.58</ele>
        <time>2014-06-02T10:25:01Z</time>
      </trkpt>
      <trkpt lat="42.3147" lon="0.16946">
        <ele>582.22</ele>
        <time>2014-06-02T10:25:07Z</time>
      </trkpt>
      <trkpt lat="42.31504" lon="0.16838">
        <ele>584.14</ele>
        <time>2014-06-02T10:25:19Z</time>
      </trkpt>
      <trkpt lat="42.31517" lon="0.16802">
        <ele>584.14</ele>
        <time>2014-06-02T10:25:24Z</time>
      </trkpt>
      <trkpt lat="42.31535" lon="0.16781">
        <ele>583.66</ele>
        <time>2014-06-02T10:25:28Z</time>
      </trkpt>
      <trkpt lat="42.31546" lon="0.1677">
        <ele>582.7</ele>
        <time>2014-06-02T10:25:30Z</time>
      </trkpt>
      <trkpt lat="42.31563" lon="0.16736">
        <ele>580.29</ele>
        <time>2014-06-02T10:25:34Z</time>
      </trkpt>
      <trkpt lat="42.31565" lon="0.16725">
        <ele>579.81</ele>
        <time>2014-06-02T10:25:35Z</time>
      </trkpt>
      <trkpt lat="42.31569" lon="0.16668">
        <ele>577.41</ele>
        <time>2014-06-02T10:25:40Z</time>
      </trkpt>
      <trkpt lat="42.31572" lon="0.16632">
        <ele>575.97</ele>
        <time>2014-06-02T10:25:43Z</time>
      </trkpt>
      <trkpt lat="42.31594" lon="0.16593">
        <ele>576.93</ele>
        <time>2014-06-02T10:25:48Z</time>
      </trkpt>
      <trkpt lat="42.31679" lon="0.16527">
        <ele>575.97</ele>
        <time>2014-06-02T10:26:01Z</time>
      </trkpt>
      <trkpt lat="42.31727" lon="0.16472">
        <ele>576.45</ele>
        <time>2014-06-02T10:26:10Z</time>
      </trkpt>
      <trkpt lat="42.31806" lon="0.16418">
        <ele>578.37</ele>
        <time>2014-06-02T10:26:25Z</time>
      </trkpt>
      <trkpt lat="42.3182" lon="0.16409">
        <ele>578.37</ele>
        <time>2014-06-02T10:26:28Z</time>
      </trkpt>
      <trkpt lat="42.31837" lon="0.16391">
        <ele>578.85</ele>
        <time>2014-06-02T10:26:32Z</time>
      </trkpt>
      <trkpt lat="42.3186" lon="0.16351">
        <ele>577.41</ele>
        <time>2014-06-02T10:26:39Z</time>
      </trkpt>
      <trkpt lat="42.31868" lon="0.16337">
        <ele>576.45</ele>
        <time>2014-06-02T10:26:41Z</time>
      </trkpt>
      <trkpt lat="42.31894" lon="0.16268">
        <ele>574.53</ele>
        <time>2014-06-02T10:26:50Z</time>
      </trkpt>
      <trkpt lat="42.31912" lon="0.16249">
        <ele>575.01</ele>
        <time>2014-06-02T10:26:54Z</time>
      </trkpt>
      <trkpt lat="42.31949" lon="0.1621">
        <ele>576.45</ele>
        <time>2014-06-02T10:27:04Z</time>
      </trkpt>
      <trkpt lat="42.31956" lon="0.16208">
        <ele>575.97</ele>
        <time>2014-06-02T10:27:06Z</time>
      </trkpt>
      <trkpt lat="42.31995" lon="0.16202">
        <ele>578.37</ele>
        <time>2014-06-02T10:27:16Z</time>
      </trkpt>
      <trkpt lat="42.3201" lon="0.16181">
        <ele>578.37</ele>
        <time>2014-06-02T10:27:21Z</time>
      </trkpt>
      <trkpt lat="42.32021" lon="0.16152">
        <ele>578.85</ele>
        <time>2014-06-02T10:27:26Z</time>
      </trkpt>
      <trkpt lat="42.32027" lon="0.16139">
        <ele>578.37</ele>
        <time>2014-06-02T10:27:28Z</time>
      </trkpt>
      <trkpt lat="42.32044" lon="0.16119">
        <ele>578.37</ele>
        <time>2014-06-02T10:27:32Z</time>
      </trkpt>
      <trkpt lat="42.32076" lon="0.16081">
        <ele>577.41</ele>
        <time>2014-06-02T10:27:39Z</time>
      </trkpt>
      <trkpt lat="42.321" lon="0.16052">
        <ele>576.45</ele>
        <time>2014-06-02T10:27:44Z</time>
      </trkpt>
      <trkpt lat="42.32088" lon="0.16019">
        <ele>576.45</ele>
        <time>2014-06-02T10:27:50Z</time>
      </trkpt>
      <trkpt lat="42.32075" lon="0.16025">
        <ele>575.97</ele>
        <time>2014-06-02T10:27:52Z</time>
      </trkpt>
      <trkpt lat="42.32028" lon="0.16029">
        <ele>575.97</ele>
        <time>2014-06-02T10:27:59Z</time>
      </trkpt>
      <trkpt lat="42.31977" lon="0.16048">
        <ele>576.45</ele>
        <time>2014-06-02T10:28:07Z</time>
      </trkpt>
      <trkpt lat="42.31966" lon="0.16056">
        <ele>577.41</ele>
        <time>2014-06-02T10:28:09Z</time>
      </trkpt>
      <trkpt lat="42.31955" lon="0.16062">
        <ele>576.93</ele>
        <time>2014-06-02T10:28:11Z</time>
      </trkpt>
      <trkpt lat="42.31918" lon="0.1606">
        <ele>575.97</ele>
        <time>2014-06-02T10:28:17Z</time>
      </trkpt>
      <trkpt lat="42.31848" lon="0.16078">
        <ele>576.45</ele>
        <time>2014-06-02T10:28:30Z</time>
      </trkpt>
      <trkpt lat="42.31811" lon="0.1606">
        <ele>577.41</ele>
        <time>2014-06-02T10:28:39Z</time>
      </trkpt>
      <trkpt lat="42.31777" lon="0.16008">
        <ele>578.37</ele>
        <time>2014-06-02T10:28:53Z</time>
      </trkpt>
      <trkpt lat="42.31777" lon="0.16005">
        <ele>578.37</ele>
        <time>2014-06-02T10:28:54Z</time>
      </trkpt>
      <trkpt lat="42.31784" lon="0.15986">
        <ele>579.81</ele>
        <time>2014-06-02T10:29:07Z</time>
      </trkpt>
      <trkpt lat="42.31788" lon="0.1598">
        <ele>579.81</ele>
        <time>2014-06-02T10:29:11Z</time>
      </trkpt>
      <trkpt lat="42.31789" lon="0.15978">
        <ele>579.81</ele>
        <time>2014-06-02T10:29:13Z</time>
      </trkpt>
      <trkpt lat="42.31807" lon="0.1595">
        <ele>581.25</ele>
        <time>2014-06-02T10:29:27Z</time>
      </trkpt>
      <trkpt lat="42.31844" lon="0.15918">
        <ele>583.18</ele>
        <time>2014-06-02T10:29:42Z</time>
      </trkpt>
      <trkpt lat="42.31889" lon="0.15901">
        <ele>585.58</ele>
        <time>2014-06-02T10:29:59Z</time>
      </trkpt>
      <trkpt lat="42.31895" lon="0.15858">
        <ele>585.58</ele>
        <time>2014-06-02T10:30:10Z</time>
      </trkpt>
      <trkpt lat="42.31906" lon="0.15814">
        <ele>584.62</ele>
        <time>2014-06-02T10:30:20Z</time>
      </trkpt>
      <trkpt lat="42.31926" lon="0.15731">
        <ele>583.18</ele>
        <time>2014-06-02T10:30:36Z</time>
      </trkpt>
      <trkpt lat="42.31942" lon="0.15711">
        <ele>582.22</ele>
        <time>2014-06-02T10:30:41Z</time>
      </trkpt>
      <trkpt lat="42.31966" lon="0.15675">
        <ele>584.62</ele>
        <time>2014-06-02T10:30:50Z</time>
      </trkpt>
      <trkpt lat="42.31955" lon="0.15659">
        <ele>585.58</ele>
        <time>2014-06-02T10:30:58Z</time>
      </trkpt>
      <trkpt lat="42.31924" lon="0.15615">
        <ele>583.66</ele>
        <time>2014-06-02T10:31:11Z</time>
      </trkpt>
      <trkpt lat="42.31897" lon="0.1555">
        <ele>584.14</ele>
        <time>2014-06-02T10:31:26Z</time>
      </trkpt>
      <trkpt lat="42.3187" lon="0.15512">
        <ele>585.58</ele>
        <time>2014-06-02T10:31:38Z</time>
      </trkpt>
      <trkpt lat="42.3184" lon="0.15471">
        <ele>587.5</ele>
        <time>2014-06-02T10:31:52Z</time>
      </trkpt>
      <trkpt lat="42.31823" lon="0.15419">
        <ele>589.91</ele>
        <time>2014-06-02T10:32:06Z</time>
      </trkpt>
      <trkpt lat="42.31806" lon="0.15372">
        <ele>592.79</ele>
        <time>2014-06-02T10:32:20Z</time>
      </trkpt>
      <trkpt lat="42.318" lon="0.15347">
        <ele>595.19</ele>
        <time>2014-06-02T10:32:28Z</time>
      </trkpt>
      <trkpt lat="42.31796" lon="0.15311">
        <ele>597.6</ele>
        <time>2014-06-02T10:32:40Z</time>
      </trkpt>
      <trkpt lat="42.31793" lon="0.15272">
        <ele>599.52</ele>
        <time>2014-06-02T10:32:52Z</time>
      </trkpt>
      <trkpt lat="42.31767" lon="0.15228">
        <ele>597.12</ele>
        <time>2014-06-02T10:33:04Z</time>
      </trkpt>
      <trkpt lat="42.31759" lon="0.15214">
        <ele>597.12</ele>
        <time>2014-06-02T10:33:07Z</time>
      </trkpt>
      <trkpt lat="42.31749" lon="0.15194">
        <ele>597.12</ele>
        <time>2014-06-02T10:33:11Z</time>
      </trkpt>
      <trkpt lat="42.31743" lon="0.15185">
        <ele>597.12</ele>
        <time>2014-06-02T10:33:13Z</time>
      </trkpt>
      <trkpt lat="42.31724" lon="0.15137">
        <ele>595.19</ele>
        <time>2014-06-02T10:33:24Z</time>
      </trkpt>
      <trkpt lat="42.31717" lon="0.15113">
        <ele>593.27</ele>
        <time>2014-06-02T10:33:28Z</time>
      </trkpt>
      <trkpt lat="42.31716" lon="0.1508">
        <ele>591.83</ele>
        <time>2014-06-02T10:33:32Z</time>
      </trkpt>
      <trkpt lat="42.31722" lon="0.15035">
        <ele>593.27</ele>
        <time>2014-06-02T10:33:39Z</time>
      </trkpt>
      <trkpt lat="42.31726" lon="0.14974">
        <ele>592.31</ele>
        <time>2014-06-02T10:33:51Z</time>
      </trkpt>
      <trkpt lat="42.3171" lon="0.14903">
        <ele>593.27</ele>
        <time>2014-06-02T10:34:04Z</time>
      </trkpt>
      <trkpt lat="42.31704" lon="0.14871">
        <ele>592.79</ele>
        <time>2014-06-02T10:34:11Z</time>
      </trkpt>
      <trkpt lat="42.31692" lon="0.14852">
        <ele>589.91</ele>
        <time>2014-06-02T10:34:15Z</time>
      </trkpt>
      <trkpt lat="42.31671" lon="0.14826">
        <ele>586.54</ele>
        <time>2014-06-02T10:34:21Z</time>
      </trkpt>
      <trkpt lat="42.31652" lon="0.14793">
        <ele>582.22</ele>
        <time>2014-06-02T10:34:26Z</time>
      </trkpt>
      <trkpt lat="42.3163" lon="0.14758">
        <ele>578.85</ele>
        <time>2014-06-02T10:34:31Z</time>
      </trkpt>
      <trkpt lat="42.31623" lon="0.14743">
        <ele>577.41</ele>
        <time>2014-06-02T10:34:34Z</time>
      </trkpt>
      <trkpt lat="42.3163" lon="0.14736">
        <ele>576.93</ele>
        <time>2014-06-02T10:34:41Z</time>
      </trkpt>
      <trkpt lat="42.3163" lon="0.14736">
        <ele>576.93</ele>
        <time>2014-06-02T10:34:42Z</time>
      </trkpt>
      <trkpt lat="42.3164" lon="0.14746">
        <ele>576.45</ele>
        <time>2014-06-02T10:34:47Z</time>
      </trkpt>
      <trkpt lat="42.31653" lon="0.14754">
        <ele>575.01</ele>
        <time>2014-06-02T10:34:50Z</time>
      </trkpt>
      <trkpt lat="42.31676" lon="0.14749">
        <ele>572.6</ele>
        <time>2014-06-02T10:34:54Z</time>
      </trkpt>
      <trkpt lat="42.31685" lon="0.1473">
        <ele>572.6</ele>
        <time>2014-06-02T10:34:58Z</time>
      </trkpt>
      <trkpt lat="42.31679" lon="0.14701">
        <ele>573.56</ele>
        <time>2014-06-02T10:35:02Z</time>
      </trkpt>
      <trkpt lat="42.31678" lon="0.14686">
        <ele>575.49</ele>
        <time>2014-06-02T10:35:04Z</time>
      </trkpt>
      <trkpt lat="42.31676" lon="0.14626">
        <ele>577.41</ele>
        <time>2014-06-02T10:35:15Z</time>
      </trkpt>
      <trkpt lat="42.31659" lon="0.14563">
        <ele>578.85</ele>
        <time>2014-06-02T10:35:29Z</time>
      </trkpt>
      <trkpt lat="42.3164" lon="0.14557">
        <ele>576.93</ele>
        <time>2014-06-02T10:35:34Z</time>
      </trkpt>
      <trkpt lat="42.31623" lon="0.14557">
        <ele>578.37</ele>
        <time>2014-06-02T10:35:38Z</time>
      </trkpt>
      <trkpt lat="42.31587" lon="0.14578">
        <ele>575.97</ele>
        <time>2014-06-02T10:35:47Z</time>
      </trkpt>
      <trkpt lat="42.31534" lon="0.14578">
        <ele>575.01</ele>
        <time>2014-06-02T10:35:56Z</time>
      </trkpt>
      <trkpt lat="42.3152" lon="0.14581">
        <ele>574.04</ele>
        <time>2014-06-02T10:35:58Z</time>
      </trkpt>
      <trkpt lat="42.31498" lon="0.14586">
        <ele>572.6</ele>
        <time>2014-06-02T10:36:01Z</time>
      </trkpt>
      <trkpt lat="42.31464" lon="0.14561">
        <ele>570.2</ele>
        <time>2014-06-02T10:36:07Z</time>
      </trkpt>
      <trkpt lat="42.31466" lon="0.14539">
        <ele>569.72</ele>
        <time>2014-06-02T10:36:09Z</time>
      </trkpt>
      <trkpt lat="42.315" lon="0.14493">
        <ele>568.76</ele>
        <time>2014-06-02T10:36:15Z</time>
      </trkpt>
      <trkpt lat="42.31507" lon="0.14487">
        <ele>569.24</ele>
        <time>2014-06-02T10:36:16Z</time>
      </trkpt>
      <trkpt lat="42.31553" lon="0.14447">
        <ele>572.6</ele>
        <time>2014-06-02T10:36:23Z</time>
      </trkpt>
      <trkpt lat="42.31583" lon="0.14423">
        <ele>574.53</ele>
        <time>2014-06-02T10:36:28Z</time>
      </trkpt>
      <trkpt lat="42.31589" lon="0.14418">
        <ele>575.01</ele>
        <time>2014-06-02T10:36:29Z</time>
      </trkpt>
      <trkpt lat="42.31598" lon="0.14404">
        <ele>575.97</ele>
        <time>2014-06-02T10:36:31Z</time>
      </trkpt>
      <trkpt lat="42.31599" lon="0.14359">
        <ele>577.41</ele>
        <time>2014-06-02T10:36:36Z</time>
      </trkpt>
      <trkpt lat="42.31605" lon="0.14344">
        <ele>578.85</ele>
        <time>2014-06-02T10:36:38Z</time>
      </trkpt>
      <trkpt lat="42.3162" lon="0.14329">
        <ele>579.81</ele>
        <time>2014-06-02T10:36:41Z</time>
      </trkpt>
      <trkpt lat="42.31626" lon="0.14324">
        <ele>580.29</ele>
        <time>2014-06-02T10:36:42Z</time>
      </trkpt>
      <trkpt lat="42.31645" lon="0.14313">
        <ele>581.25</ele>
        <time>2014-06-02T10:36:45Z</time>
      </trkpt>
      <trkpt lat="42.31682" lon="0.14268">
        <ele>580.77</ele>
        <time>2014-06-02T10:36:54Z</time>
      </trkpt>
      <trkpt lat="42.317" lon="0.14248">
        <ele>580.77</ele>
        <time>2014-06-02T10:36:59Z</time>
      </trkpt>
      <trkpt lat="42.31707" lon="0.14242">
        <ele>580.77</ele>
        <time>2014-06-02T10:37:01Z</time>
      </trkpt>
      <trkpt lat="42.31729" lon="0.14222">
        <ele>577.89</ele>
        <time>2014-06-02T10:37:06Z</time>
      </trkpt>
      <trkpt lat="42.31746" lon="0.14202">
        <ele>575.49</ele>
        <time>2014-06-02T10:37:09Z</time>
      </trkpt>
      <trkpt lat="42.3175" lon="0.14193">
        <ele>574.04</ele>
        <time>2014-06-02T10:37:10Z</time>
      </trkpt>
      <trkpt lat="42.31806" lon="0.14131">
        <ele>569.24</ele>
        <time>2014-06-02T10:37:18Z</time>
      </trkpt>
      <trkpt lat="42.31873" lon="0.14071">
        <ele>568.28</ele>
        <time>2014-06-02T10:37:27Z</time>
      </trkpt>
      <trkpt lat="42.3189" lon="0.14053">
        <ele>567.8</ele>
        <time>2014-06-02T10:37:30Z</time>
      </trkpt>
      <trkpt lat="42.31895" lon="0.14045">
        <ele>567.32</ele>
        <time>2014-06-02T10:37:31Z</time>
      </trkpt>
      <trkpt lat="42.31887" lon="0.14013">
        <ele>570.2</ele>
        <time>2014-06-02T10:37:36Z</time>
      </trkpt>
      <trkpt lat="42.31883" lon="0.14011">
        <ele>570.2</ele>
        <time>2014-06-02T10:37:37Z</time>
      </trkpt>
      <trkpt lat="42.31875" lon="0.14009">
        <ele>570.68</ele>
        <time>2014-06-02T10:37:39Z</time>
      </trkpt>
      <trkpt lat="42.31839" lon="0.14014">
        <ele>574.04</ele>
        <time>2014-06-02T10:37:50Z</time>
      </trkpt>
      <trkpt lat="42.31792" lon="0.14045">
        <ele>575.49</ele>
        <time>2014-06-02T10:38:03Z</time>
      </trkpt>
      <trkpt lat="42.31747" lon="0.1404">
        <ele>577.89</ele>
        <time>2014-06-02T10:38:15Z</time>
      </trkpt>
      <trkpt lat="42.31743" lon="0.14031">
        <ele>578.85</ele>
        <time>2014-06-02T10:38:17Z</time>
      </trkpt>
      <trkpt lat="42.3175" lon="0.14013">
        <ele>579.81</ele>
        <time>2014-06-02T10:38:22Z</time>
      </trkpt>
      <trkpt lat="42.3179" lon="0.13981">
        <ele>583.18</ele>
        <time>2014-06-02T10:38:36Z</time>
      </trkpt>
      <trkpt lat="42.31806" lon="0.13922">
        <ele>586.06</ele>
        <time>2014-06-02T10:38:50Z</time>
      </trkpt>
      <trkpt lat="42.31827" lon="0.13882">
        <ele>587.98</ele>
        <time>2014-06-02T10:39:02Z</time>
      </trkpt>
      <trkpt lat="42.31855" lon="0.13849">
        <ele>591.83</ele>
        <time>2014-06-02T10:39:15Z</time>
      </trkpt>
      <trkpt lat="42.31882" lon="0.13817">
        <ele>595.19</ele>
        <time>2014-06-02T10:39:28Z</time>
      </trkpt>
      <trkpt lat="42.31915" lon="0.13787">
        <ele>597.6</ele>
        <time>2014-06-02T10:39:43Z</time>
      </trkpt>
      <trkpt lat="42.31938" lon="0.13763">
        <ele>600.96</ele>
        <time>2014-06-02T10:39:54Z</time>
      </trkpt>
      <trkpt lat="42.31938" lon="0.1373">
        <ele>601.92</ele>
        <time>2014-06-02T10:40:05Z</time>
      </trkpt>
      <trkpt lat="42.31941" lon="0.13703">
        <ele>605.29</ele>
        <time>2014-06-02T10:40:14Z</time>
      </trkpt>
      <trkpt lat="42.3197" lon="0.13679">
        <ele>604.33</ele>
        <time>2014-06-02T10:40:27Z</time>
      </trkpt>
      <trkpt lat="42.31984" lon="0.1365">
        <ele>606.25</ele>
        <time>2014-06-02T10:40:39Z</time>
      </trkpt>
      <trkpt lat="42.32007" lon="0.13648">
        <ele>608.65</ele>
        <time>2014-06-02T10:40:52Z</time>
      </trkpt>
      <trkpt lat="42.32018" lon="0.13649">
        <ele>610.09</ele>
        <time>2014-06-02T10:40:57Z</time>
      </trkpt>
      <trkpt lat="42.32044" lon="0.13643">
        <ele>612.02</ele>
        <time>2014-06-02T10:41:08Z</time>
      </trkpt>
      <trkpt lat="42.32055" lon="0.13642">
        <ele>613.46</ele>
        <time>2014-06-02T10:41:12Z</time>
      </trkpt>
      <trkpt lat="42.32083" lon="0.13644">
        <ele>616.82</ele>
        <time>2014-06-02T10:41:22Z</time>
      </trkpt>
      <trkpt lat="42.32121" lon="0.13656">
        <ele>617.78</ele>
        <time>2014-06-02T10:41:37Z</time>
      </trkpt>
      <trkpt lat="42.32153" lon="0.13661">
        <ele>616.82</ele>
        <time>2014-06-02T10:41:47Z</time>
      </trkpt>
      <trkpt lat="42.32191" lon="0.13672">
        <ele>619.23</ele>
        <time>2014-06-02T10:41:58Z</time>
      </trkpt>
      <trkpt lat="42.32229" lon="0.13665">
        <ele>619.71</ele>
        <time>2014-06-02T10:42:10Z</time>
      </trkpt>
      <trkpt lat="42.32265" lon="0.13639">
        <ele>621.63</ele>
        <time>2014-06-02T10:42:24Z</time>
      </trkpt>
      <trkpt lat="42.3229" lon="0.13621">
        <ele>624.51</ele>
        <time>2014-06-02T10:42:34Z</time>
      </trkpt>
      <trkpt lat="42.32318" lon="0.13598">
        <ele>624.51</ele>
        <time>2014-06-02T10:42:45Z</time>
      </trkpt>
      <trkpt lat="42.32358" lon="0.13579">
        <ele>627.88</ele>
        <time>2014-06-02T10:42:59Z</time>
      </trkpt>
      <trkpt lat="42.32388" lon="0.13585">
        <ele>629.8</ele>
        <time>2014-06-02T10:43:12Z</time>
      </trkpt>
      <trkpt lat="42.32403" lon="0.13596">
        <ele>632.68</ele>
        <time>2014-06-02T10:43:20Z</time>
      </trkpt>
      <trkpt lat="42.32406" lon="0.13606">
        <ele>634.13</ele>
        <time>2014-06-02T10:43:24Z</time>
      </trkpt>
      <trkpt lat="42.32406" lon="0.13611">
        <ele>635.09</ele>
        <time>2014-06-02T10:43:26Z</time>
      </trkpt>
      <trkpt lat="42.32399" lon="0.13619">
        <ele>636.53</ele>
        <time>2014-06-02T10:43:31Z</time>
      </trkpt>
      <trkpt lat="42.32374" lon="0.1362">
        <ele>638.45</ele>
        <time>2014-06-02T10:43:43Z</time>
      </trkpt>
      <trkpt lat="42.32354" lon="0.13629">
        <ele>641.34</ele>
        <time>2014-06-02T10:43:53Z</time>
      </trkpt>
      <trkpt lat="42.32334" lon="0.13655">
        <ele>644.7</ele>
        <time>2014-06-02T10:44:06Z</time>
      </trkpt>
      <trkpt lat="42.32325" lon="0.13676">
        <ele>647.59</ele>
        <time>2014-06-02T10:44:15Z</time>
      </trkpt>
      <trkpt lat="42.32319" lon="0.13701">
        <ele>650.95</ele>
        <time>2014-06-02T10:44:25Z</time>
      </trkpt>
      <trkpt lat="42.32319" lon="0.13717">
        <ele>652.39</ele>
        <time>2014-06-02T10:44:31Z</time>
      </trkpt>
      <trkpt lat="42.32319" lon="0.13729">
        <ele>654.8</ele>
        <time>2014-06-02T10:44:36Z</time>
      </trkpt>
      <trkpt lat="42.32326" lon="0.1374">
        <ele>657.2</ele>
        <time>2014-06-02T10:44:43Z</time>
      </trkpt>
      <trkpt lat="42.32348" lon="0.13752">
        <ele>658.64</ele>
        <time>2014-06-02T10:44:56Z</time>
      </trkpt>
      <trkpt lat="42.32365" lon="0.13783">
        <ele>662.49</ele>
        <time>2014-06-02T10:45:11Z</time>
      </trkpt>
      <trkpt lat="42.3237" lon="0.13794">
        <ele>663.45</ele>
        <time>2014-06-02T10:45:16Z</time>
      </trkpt>
      <trkpt lat="42.32385" lon="0.13801">
        <ele>665.37</ele>
        <time>2014-06-02T10:45:27Z</time>
      </trkpt>
      <trkpt lat="42.32403" lon="0.13772">
        <ele>668.73</ele>
        <time>2014-06-02T10:45:41Z</time>
      </trkpt>
      <trkpt lat="42.32429" lon="0.13747">
        <ele>671.14</ele>
        <time>2014-06-02T10:45:54Z</time>
      </trkpt>
      <trkpt lat="42.32471" lon="0.13732">
        <ele>674.02</ele>
        <time>2014-06-02T10:46:09Z</time>
      </trkpt>
      <trkpt lat="42.32514" lon="0.13738">
        <ele>675.46</ele>
        <time>2014-06-02T10:46:23Z</time>
      </trkpt>
      <trkpt lat="42.32537" lon="0.13735">
        <ele>676.91</ele>
        <time>2014-06-02T10:46:32Z</time>
      </trkpt>
      <trkpt lat="42.32541" lon="0.1374">
        <ele>677.39</ele>
        <time>2014-06-02T10:46:41Z</time>
      </trkpt>
      <trkpt lat="42.32541" lon="0.1374">
        <ele>678.35</ele>
        <time>2014-06-02T10:47:04Z</time>
      </trkpt>
      <trkpt lat="42.32541" lon="0.1374">
        <ele>677.39</ele>
        <time>2014-06-02T10:47:33Z</time>
      </trkpt>
      <trkpt lat="42.32541" lon="0.1374">
        <ele>677.87</ele>
        <time>2014-06-02T10:48:03Z</time>
      </trkpt>
      <trkpt lat="42.3254" lon="0.1374">
        <ele>677.87</ele>
        <time>2014-06-02T10:48:43Z</time>
      </trkpt>
      <trkpt lat="42.32541" lon="0.1374">
        <ele>677.87</ele>
        <time>2014-06-02T10:49:21Z</time>
      </trkpt>
      <trkpt lat="42.32541" lon="0.1374">
        <ele>678.35</ele>
        <time>2014-06-02T10:50:01Z</time>
      </trkpt>
      <trkpt lat="42.32541" lon="0.13742">
        <ele>678.83</ele>
        <time>2014-06-02T10:50:42Z</time>
      </trkpt>
      <trkpt lat="42.3254" lon="0.13741">
        <ele>678.35</ele>
        <time>2014-06-02T10:51:00Z</time>
      </trkpt>
      <trkpt lat="42.32541" lon="0.13741">
        <ele>679.31</ele>
        <time>2014-06-02T10:51:33Z</time>
      </trkpt>
      <trkpt lat="42.32541" lon="0.13741">
        <ele>678.83</ele>
        <time>2014-06-02T10:51:54Z</time>
      </trkpt>
      <trkpt lat="42.3254" lon="0.13741">
        <ele>679.31</ele>
        <time>2014-06-02T10:52:30Z</time>
      </trkpt>
      <trkpt lat="42.3254" lon="0.13741">
        <ele>678.83</ele>
        <time>2014-06-02T10:53:10Z</time>
      </trkpt>
      <trkpt lat="42.3254" lon="0.13744">
        <ele>678.83</ele>
        <time>2014-06-02T10:53:29Z</time>
      </trkpt>
      <trkpt lat="42.32534" lon="0.13777">
        <ele>675.46</ele>
        <time>2014-06-02T10:53:37Z</time>
      </trkpt>
      <trkpt lat="42.32541" lon="0.13789">
        <ele>673.54</ele>
        <time>2014-06-02T10:53:41Z</time>
      </trkpt>
      <trkpt lat="42.32551" lon="0.13788">
        <ele>673.06</ele>
        <time>2014-06-02T10:53:44Z</time>
      </trkpt>
      <trkpt lat="42.32573" lon="0.13788">
        <ele>673.06</ele>
        <time>2014-06-02T10:53:49Z</time>
      </trkpt>
      <trkpt lat="42.32582" lon="0.13792">
        <ele>674.02</ele>
        <time>2014-06-02T10:53:51Z</time>
      </trkpt>
      <trkpt lat="42.32606" lon="0.13803">
        <ele>674.5</ele>
        <time>2014-06-02T10:53:56Z</time>
      </trkpt>
      <trkpt lat="42.32616" lon="0.13804">
        <ele>674.5</ele>
        <time>2014-06-02T10:53:58Z</time>
      </trkpt>
      <trkpt lat="42.32631" lon="0.13799">
        <ele>674.02</ele>
        <time>2014-06-02T10:54:01Z</time>
      </trkpt>
      <trkpt lat="42.32645" lon="0.13798">
        <ele>674.5</ele>
        <time>2014-06-02T10:54:04Z</time>
      </trkpt>
      <trkpt lat="42.3266" lon="0.13806">
        <ele>676.42</ele>
        <time>2014-06-02T10:54:08Z</time>
      </trkpt>
      <trkpt lat="42.32672" lon="0.13812">
        <ele>676.91</ele>
        <time>2014-06-02T10:54:11Z</time>
      </trkpt>
      <trkpt lat="42.32685" lon="0.13816">
        <ele>676.42</ele>
        <time>2014-06-02T10:54:14Z</time>
      </trkpt>
      <trkpt lat="42.32726" lon="0.13826">
        <ele>677.87</ele>
        <time>2014-06-02T10:54:23Z</time>
      </trkpt>
      <trkpt lat="42.32747" lon="0.13834">
        <ele>678.83</ele>
        <time>2014-06-02T10:54:29Z</time>
      </trkpt>
      <trkpt lat="42.32762" lon="0.13844">
        <ele>680.27</ele>
        <time>2014-06-02T10:54:35Z</time>
      </trkpt>
      <trkpt lat="42.32772" lon="0.13849">
        <ele>681.23</ele>
        <time>2014-06-02T10:54:39Z</time>
      </trkpt>
      <trkpt lat="42.32812" lon="0.13868">
        <ele>683.15</ele>
        <time>2014-06-02T10:54:52Z</time>
      </trkpt>
      <trkpt lat="42.32815" lon="0.1387">
        <ele>684.12</ele>
        <time>2014-06-02T10:54:53Z</time>
      </trkpt>
      <trkpt lat="42.32819" lon="0.13885">
        <ele>686.04</ele>
        <time>2014-06-02T10:54:58Z</time>
      </trkpt>
      <trkpt lat="42.32819" lon="0.1389">
        <ele>686.52</ele>
        <time>2014-06-02T10:55:00Z</time>
      </trkpt>
      <trkpt lat="42.32823" lon="0.13895">
        <ele>687</ele>
        <time>2014-06-02T10:55:06Z</time>
      </trkpt>
      <trkpt lat="42.32828" lon="0.13902">
        <ele>688.92</ele>
        <time>2014-06-02T10:55:11Z</time>
      </trkpt>
      <trkpt lat="42.3285" lon="0.13912">
        <ele>690.84</ele>
        <time>2014-06-02T10:55:23Z</time>
      </trkpt>
      <trkpt lat="42.32884" lon="0.13917">
        <ele>692.77</ele>
        <time>2014-06-02T10:55:37Z</time>
      </trkpt>
      <trkpt lat="42.32918" lon="0.13933">
        <ele>695.17</ele>
        <time>2014-06-02T10:55:49Z</time>
      </trkpt>
      <trkpt lat="42.32951" lon="0.1396">
        <ele>696.13</ele>
        <time>2014-06-02T10:56:01Z</time>
      </trkpt>
      <trkpt lat="42.32988" lon="0.13973">
        <ele>696.13</ele>
        <time>2014-06-02T10:56:13Z</time>
      </trkpt>
      <trkpt lat="42.33031" lon="0.13993">
        <ele>698.53</ele>
        <time>2014-06-02T10:56:25Z</time>
      </trkpt>
      <trkpt lat="42.33061" lon="0.1404">
        <ele>701.42</ele>
        <time>2014-06-02T10:56:37Z</time>
      </trkpt>
      <trkpt lat="42.3308" lon="0.14083">
        <ele>704.3</ele>
        <time>2014-06-02T10:56:48Z</time>
      </trkpt>
      <trkpt lat="42.33104" lon="0.1413">
        <ele>705.75</ele>
        <time>2014-06-02T10:57:01Z</time>
      </trkpt>
      <trkpt lat="42.33117" lon="0.14141">
        <ele>705.26</ele>
        <time>2014-06-02T10:57:05Z</time>
      </trkpt>
      <trkpt lat="42.3313" lon="0.14166">
        <ele>705.26</ele>
        <time>2014-06-02T10:57:10Z</time>
      </trkpt>
      <trkpt lat="42.33145" lon="0.14221">
        <ele>707.67</ele>
        <time>2014-06-02T10:57:23Z</time>
      </trkpt>
      <trkpt lat="42.33148" lon="0.14246">
        <ele>708.63</ele>
        <time>2014-06-02T10:57:32Z</time>
      </trkpt>
      <trkpt lat="42.33152" lon="0.14246">
        <ele>708.63</ele>
        <time>2014-06-02T10:57:41Z</time>
      </trkpt>
      <trkpt lat="42.33151" lon="0.14247">
        <ele>709.11</ele>
        <time>2014-06-02T10:57:49Z</time>
      </trkpt>
      <trkpt lat="42.33152" lon="0.1425">
        <ele>709.11</ele>
        <time>2014-06-02T10:58:02Z</time>
      </trkpt>
      <trkpt lat="42.33152" lon="0.1425">
        <ele>709.11</ele>
        <time>2014-06-02T10:58:25Z</time>
      </trkpt>
      <trkpt lat="42.33152" lon="0.1425">
        <ele>709.11</ele>
        <time>2014-06-02T10:58:57Z</time>
      </trkpt>
      <trkpt lat="42.33151" lon="0.1425">
        <ele>709.11</ele>
        <time>2014-06-02T10:59:29Z</time>
      </trkpt>
      <trkpt lat="42.33151" lon="0.1425">
        <ele>709.11</ele>
        <time>2014-06-02T11:00:03Z</time>
      </trkpt>
      <trkpt lat="42.33151" lon="0.1425">
        <ele>709.59</ele>
        <time>2014-06-02T11:00:35Z</time>
      </trkpt>
      <trkpt lat="42.33151" lon="0.1425">
        <ele>709.59</ele>
        <time>2014-06-02T11:01:08Z</time>
      </trkpt>
      <trkpt lat="42.33151" lon="0.1425">
        <ele>710.07</ele>
        <time>2014-06-02T11:01:40Z</time>
      </trkpt>
      <trkpt lat="42.33151" lon="0.1425">
        <ele>709.59</ele>
        <time>2014-06-02T11:02:10Z</time>
      </trkpt>
      <trkpt lat="42.33151" lon="0.14251">
        <ele>709.59</ele>
        <time>2014-06-02T11:02:45Z</time>
      </trkpt>
      <trkpt lat="42.33151" lon="0.14251">
        <ele>709.59</ele>
        <time>2014-06-02T11:03:16Z</time>
      </trkpt>
      <trkpt lat="42.3315" lon="0.14251">
        <ele>709.59</ele>
        <time>2014-06-02T11:03:47Z</time>
      </trkpt>
      <trkpt lat="42.3315" lon="0.14251">
        <ele>709.59</ele>
        <time>2014-06-02T11:04:25Z</time>
      </trkpt>
      <trkpt lat="42.3315" lon="0.14251">
        <ele>710.07</ele>
        <time>2014-06-02T11:05:02Z</time>
      </trkpt>
      <trkpt lat="42.3315" lon="0.14251">
        <ele>709.59</ele>
        <time>2014-06-02T11:05:37Z</time>
      </trkpt>
      <trkpt lat="42.3315" lon="0.14251">
        <ele>709.59</ele>
        <time>2014-06-02T11:06:09Z</time>
      </trkpt>
      <trkpt lat="42.33151" lon="0.14252">
        <ele>709.59</ele>
        <time>2014-06-02T11:06:42Z</time>
      </trkpt>
      <trkpt lat="42.33151" lon="0.14252">
        <ele>709.59</ele>
        <time>2014-06-02T11:07:16Z</time>
      </trkpt>
      <trkpt lat="42.33151" lon="0.14252">
        <ele>709.59</ele>
        <time>2014-06-02T11:07:49Z</time>
      </trkpt>
      <trkpt lat="42.33151" lon="0.14253">
        <ele>710.07</ele>
        <time>2014-06-02T11:08:25Z</time>
      </trkpt>
      <trkpt lat="42.33151" lon="0.14253">
        <ele>709.59</ele>
        <time>2014-06-02T11:08:56Z</time>
      </trkpt>
      <trkpt lat="42.3315" lon="0.14253">
        <ele>710.07</ele>
        <time>2014-06-02T11:09:31Z</time>
      </trkpt>
      <trkpt lat="42.3315" lon="0.14253">
        <ele>710.07</ele>
        <time>2014-06-02T11:10:05Z</time>
      </trkpt>
      <trkpt lat="42.3315" lon="0.14253">
        <ele>710.55</ele>
        <time>2014-06-02T11:10:40Z</time>
      </trkpt>
      <trkpt lat="42.3315" lon="0.14254">
        <ele>710.55</ele>
        <time>2014-06-02T11:11:16Z</time>
      </trkpt>
      <trkpt lat="42.3315" lon="0.14254">
        <ele>711.03</ele>
        <time>2014-06-02T11:11:52Z</time>
      </trkpt>
      <trkpt lat="42.3315" lon="0.14254">
        <ele>710.55</ele>
        <time>2014-06-02T11:12:26Z</time>
      </trkpt>
      <trkpt lat="42.3315" lon="0.14254">
        <ele>711.03</ele>
        <time>2014-06-02T11:12:59Z</time>
      </trkpt>
      <trkpt lat="42.3315" lon="0.14254">
        <ele>711.03</ele>
        <time>2014-06-02T11:13:29Z</time>
      </trkpt>
      <trkpt lat="42.3315" lon="0.14254">
        <ele>711.03</ele>
        <time>2014-06-02T11:14:01Z</time>
      </trkpt>
      <trkpt lat="42.3315" lon="0.14254">
        <ele>711.03</ele>
        <time>2014-06-02T11:14:35Z</time>
      </trkpt>
      <trkpt lat="42.3315" lon="0.14254">
        <ele>711.03</ele>
        <time>2014-06-02T11:15:08Z</time>
      </trkpt>
      <trkpt lat="42.3315" lon="0.14254">
        <ele>710.55</ele>
        <time>2014-06-02T11:15:45Z</time>
      </trkpt>
      <trkpt lat="42.3315" lon="0.14254">
        <ele>711.03</ele>
        <time>2014-06-02T11:16:20Z</time>
      </trkpt>
      <trkpt lat="42.3315" lon="0.14254">
        <ele>711.51</ele>
        <time>2014-06-02T11:16:56Z</time>
      </trkpt>
      <trkpt lat="42.3315" lon="0.14255">
        <ele>711.99</ele>
        <time>2014-06-02T11:17:26Z</time>
      </trkpt>
      <trkpt lat="42.3315" lon="0.14255">
        <ele>711.51</ele>
        <time>2014-06-02T11:17:55Z</time>
      </trkpt>
      <trkpt lat="42.3315" lon="0.14256">
        <ele>711.51</ele>
        <time>2014-06-02T11:18:27Z</time>
      </trkpt>
      <trkpt lat="42.3315" lon="0.14256">
        <ele>711.99</ele>
        <time>2014-06-02T11:19:01Z</time>
      </trkpt>
      <trkpt lat="42.3315" lon="0.14256">
        <ele>711.51</ele>
        <time>2014-06-02T11:19:33Z</time>
      </trkpt>
      <trkpt lat="42.3315" lon="0.14257">
        <ele>711.99</ele>
        <time>2014-06-02T11:20:05Z</time>
      </trkpt>
      <trkpt lat="42.3315" lon="0.14257">
        <ele>712.47</ele>
        <time>2014-06-02T11:20:35Z</time>
      </trkpt>
      <trkpt lat="42.3315" lon="0.14257">
        <ele>712.47</ele>
        <time>2014-06-02T11:21:09Z</time>
      </trkpt>
      <trkpt lat="42.3315" lon="0.14257">
        <ele>712.47</ele>
        <time>2014-06-02T11:21:43Z</time>
      </trkpt>
      <trkpt lat="42.3315" lon="0.14257">
        <ele>713.44</ele>
        <time>2014-06-02T11:22:19Z</time>
      </trkpt>
      <trkpt lat="42.3315" lon="0.14257">
        <ele>712.95</ele>
        <time>2014-06-02T11:22:51Z</time>
      </trkpt>
      <trkpt lat="42.3315" lon="0.14257">
        <ele>712.47</ele>
        <time>2014-06-02T11:23:21Z</time>
      </trkpt>
      <trkpt lat="42.3315" lon="0.14257">
        <ele>712.47</ele>
        <time>2014-06-02T11:23:55Z</time>
      </trkpt>
      <trkpt lat="42.3315" lon="0.14257">
        <ele>712.95</ele>
        <time>2014-06-02T11:24:29Z</time>
      </trkpt>
      <trkpt lat="42.3315" lon="0.14258">
        <ele>712.95</ele>
        <time>2014-06-02T11:25:03Z</time>
      </trkpt>
      <trkpt lat="42.3315" lon="0.14258">
        <ele>712.47</ele>
        <time>2014-06-02T11:25:36Z</time>
      </trkpt>
      <trkpt lat="42.3315" lon="0.14257">
        <ele>712.95</ele>
        <time>2014-06-02T11:26:11Z</time>
      </trkpt>
      <trkpt lat="42.3315" lon="0.14257">
        <ele>713.44</ele>
        <time>2014-06-02T11:26:44Z</time>
      </trkpt>
      <trkpt lat="42.3315" lon="0.14257">
        <ele>713.92</ele>
        <time>2014-06-02T11:27:15Z</time>
      </trkpt>
      <trkpt lat="42.33151" lon="0.14257">
        <ele>713.92</ele>
        <time>2014-06-02T11:27:50Z</time>
      </trkpt>
      <trkpt lat="42.3315" lon="0.14257">
        <ele>713.44</ele>
        <time>2014-06-02T11:28:25Z</time>
      </trkpt>
      <trkpt lat="42.3315" lon="0.14257">
        <ele>714.4</ele>
        <time>2014-06-02T11:28:59Z</time>
      </trkpt>
      <trkpt lat="42.3315" lon="0.14257">
        <ele>713.92</ele>
        <time>2014-06-02T11:29:36Z</time>
      </trkpt>
      <trkpt lat="42.3315" lon="0.14257">
        <ele>713.92</ele>
        <time>2014-06-02T11:30:15Z</time>
      </trkpt>
      <trkpt lat="42.3315" lon="0.14258">
        <ele>713.44</ele>
        <time>2014-06-02T11:30:51Z</time>
      </trkpt>
      <trkpt lat="42.3315" lon="0.14258">
        <ele>714.4</ele>
        <time>2014-06-02T11:31:27Z</time>
      </trkpt>
      <trkpt lat="42.3315" lon="0.14258">
        <ele>714.4</ele>
        <time>2014-06-02T11:31:58Z</time>
      </trkpt>
      <trkpt lat="42.3315" lon="0.14258">
        <ele>714.4</ele>
        <time>2014-06-02T11:32:33Z</time>
      </trkpt>
      <trkpt lat="42.33149" lon="0.14258">
        <ele>714.4</ele>
        <time>2014-06-02T11:33:07Z</time>
      </trkpt>
      <trkpt lat="42.33149" lon="0.14258">
        <ele>714.88</ele>
        <time>2014-06-02T11:33:42Z</time>
      </trkpt>
      <trkpt lat="42.33149" lon="0.14258">
        <ele>714.88</ele>
        <time>2014-06-02T11:34:17Z</time>
      </trkpt>
      <trkpt lat="42.33149" lon="0.14258">
        <ele>714.88</ele>
        <time>2014-06-02T11:34:51Z</time>
      </trkpt>
      <trkpt lat="42.33149" lon="0.14258">
        <ele>714.88</ele>
        <time>2014-06-02T11:35:28Z</time>
      </trkpt>
      <trkpt lat="42.33149" lon="0.14259">
        <ele>715.36</ele>
        <time>2014-06-02T11:36:02Z</time>
      </trkpt>
      <trkpt lat="42.33149" lon="0.14259">
        <ele>715.84</ele>
        <time>2014-06-02T11:36:36Z</time>
      </trkpt>
      <trkpt lat="42.33149" lon="0.14259">
        <ele>715.36</ele>
        <time>2014-06-02T11:37:13Z</time>
      </trkpt>
      <trkpt lat="42.33149" lon="0.14259">
        <ele>715.84</ele>
        <time>2014-06-02T11:37:53Z</time>
      </trkpt>
      <trkpt lat="42.33149" lon="0.14259">
        <ele>716.32</ele>
        <time>2014-06-02T11:38:26Z</time>
      </trkpt>
      <trkpt lat="42.33149" lon="0.14259">
        <ele>715.84</ele>
        <time>2014-06-02T11:38:59Z</time>
      </trkpt>
      <trkpt lat="42.33149" lon="0.14259">
        <ele>716.32</ele>
        <time>2014-06-02T11:39:35Z</time>
      </trkpt>
      <trkpt lat="42.33149" lon="0.14259">
        <ele>715.84</ele>
        <time>2014-06-02T11:40:14Z</time>
      </trkpt>
      <trkpt lat="42.3315" lon="0.1426">
        <ele>715.84</ele>
        <time>2014-06-02T11:40:45Z</time>
      </trkpt>
      <trkpt lat="42.3315" lon="0.1426">
        <ele>716.32</ele>
        <time>2014-06-02T11:41:08Z</time>
      </trkpt>
      <trkpt lat="42.3315" lon="0.1426">
        <ele>716.32</ele>
        <time>2014-06-02T11:41:29Z</time>
      </trkpt>
      <trkpt lat="42.33154" lon="0.14274">
        <ele>716.32</ele>
        <time>2014-06-02T11:41:41Z</time>
      </trkpt>
      <trkpt lat="42.33157" lon="0.14283">
        <ele>709.11</ele>
        <time>2014-06-02T11:41:53Z</time>
      </trkpt>
      <trkpt lat="42.33157" lon="0.14283">
        <ele>716.8</ele>
        <time>2014-06-02T11:41:54Z</time>
      </trkpt>
      <trkpt lat="42.33157" lon="0.14283">
        <ele>716.8</ele>
        <time>2014-06-02T11:42:06Z</time>
      </trkpt>
      <trkpt lat="42.3315" lon="0.14277">
        <ele>716.32</ele>
        <time>2014-06-02T11:42:13Z</time>
      </trkpt>
      <trkpt lat="42.33158" lon="0.14239">
        <ele>713.92</ele>
        <time>2014-06-02T11:42:25Z</time>
      </trkpt>
      <trkpt lat="42.3316" lon="0.14232">
        <ele>715.84</ele>
        <time>2014-06-02T11:42:28Z</time>
      </trkpt>
      <trkpt lat="42.33161" lon="0.1423">
        <ele>715.36</ele>
        <time>2014-06-02T11:42:29Z</time>
      </trkpt>
      <trkpt lat="42.3318" lon="0.14237">
        <ele>712.95</ele>
        <time>2014-06-02T11:42:36Z</time>
      </trkpt>
      <trkpt lat="42.33181" lon="0.14243">
        <ele>712.47</ele>
        <time>2014-06-02T11:42:37Z</time>
      </trkpt>
      <trkpt lat="42.33185" lon="0.14264">
        <ele>711.03</ele>
        <time>2014-06-02T11:42:40Z</time>
      </trkpt>
      <trkpt lat="42.33197" lon="0.14282">
        <ele>708.63</ele>
        <time>2014-06-02T11:42:43Z</time>
      </trkpt>
      <trkpt lat="42.33207" lon="0.14283">
        <ele>710.07</ele>
        <time>2014-06-02T11:42:45Z</time>
      </trkpt>
      <trkpt lat="42.33215" lon="0.14282">
        <ele>711.03</ele>
        <time>2014-06-02T11:42:48Z</time>
      </trkpt>
      <trkpt lat="42.33245" lon="0.14279">
        <ele>714.4</ele>
        <time>2014-06-02T11:43:02Z</time>
      </trkpt>
      <trkpt lat="42.33267" lon="0.14285">
        <ele>716.8</ele>
        <time>2014-06-02T11:43:15Z</time>
      </trkpt>
      <trkpt lat="42.33282" lon="0.14301">
        <ele>719.2</ele>
        <time>2014-06-02T11:43:27Z</time>
      </trkpt>
      <trkpt lat="42.33295" lon="0.14325">
        <ele>722.09</ele>
        <time>2014-06-02T11:43:40Z</time>
      </trkpt>
      <trkpt lat="42.3331" lon="0.14352">
        <ele>725.45</ele>
        <time>2014-06-02T11:43:55Z</time>
      </trkpt>
      <trkpt lat="42.3332" lon="0.14374">
        <ele>727.37</ele>
        <time>2014-06-02T11:44:07Z</time>
      </trkpt>
      <trkpt lat="42.33322" lon="0.14379">
        <ele>728.34</ele>
        <time>2014-06-02T11:44:10Z</time>
      </trkpt>
      <trkpt lat="42.33325" lon="0.14383">
        <ele>728.82</ele>
        <time>2014-06-02T11:44:13Z</time>
      </trkpt>
      <trkpt lat="42.33328" lon="0.14391">
        <ele>729.78</ele>
        <time>2014-06-02T11:44:21Z</time>
      </trkpt>
      <trkpt lat="42.33331" lon="0.14386">
        <ele>728.82</ele>
        <time>2014-06-02T11:44:26Z</time>
      </trkpt>
      <trkpt lat="42.33352" lon="0.14368">
        <ele>726.41</ele>
        <time>2014-06-02T11:44:36Z</time>
      </trkpt>
      <trkpt lat="42.33353" lon="0.14364">
        <ele>725.93</ele>
        <time>2014-06-02T11:44:37Z</time>
      </trkpt>
      <trkpt lat="42.33371" lon="0.14337">
        <ele>725.93</ele>
        <time>2014-06-02T11:44:47Z</time>
      </trkpt>
      <trkpt lat="42.33399" lon="0.14327">
        <ele>728.82</ele>
        <time>2014-06-02T11:45:02Z</time>
      </trkpt>
      <trkpt lat="42.33422" lon="0.14326">
        <ele>731.7</ele>
        <time>2014-06-02T11:45:16Z</time>
      </trkpt>
      <trkpt lat="42.33448" lon="0.14318">
        <ele>734.1</ele>
        <time>2014-06-02T11:45:31Z</time>
      </trkpt>
      <trkpt lat="42.33472" lon="0.14297">
        <ele>735.07</ele>
        <time>2014-06-02T11:45:43Z</time>
      </trkpt>
      <trkpt lat="42.33492" lon="0.14258">
        <ele>735.07</ele>
        <time>2014-06-02T11:45:56Z</time>
      </trkpt>
      <trkpt lat="42.33517" lon="0.14214">
        <ele>734.1</ele>
        <time>2014-06-02T11:46:08Z</time>
      </trkpt>
      <trkpt lat="42.33534" lon="0.14155">
        <ele>733.62</ele>
        <time>2014-06-02T11:46:22Z</time>
      </trkpt>
      <trkpt lat="42.33549" lon="0.1413">
        <ele>732.66</ele>
        <time>2014-06-02T11:46:28Z</time>
      </trkpt>
      <trkpt lat="42.33574" lon="0.14066">
        <ele>731.7</ele>
        <time>2014-06-02T11:46:42Z</time>
      </trkpt>
      <trkpt lat="42.33585" lon="0.14036">
        <ele>731.22</ele>
        <time>2014-06-02T11:46:48Z</time>
      </trkpt>
      <trkpt lat="42.33596" lon="0.14006">
        <ele>729.78</ele>
        <time>2014-06-02T11:46:55Z</time>
      </trkpt>
      <trkpt lat="42.33595" lon="0.13988">
        <ele>729.3</ele>
        <time>2014-06-02T11:46:58Z</time>
      </trkpt>
      <trkpt lat="42.33591" lon="0.13932">
        <ele>731.7</ele>
        <time>2014-06-02T11:47:09Z</time>
      </trkpt>
      <trkpt lat="42.33585" lon="0.13916">
        <ele>731.22</ele>
        <time>2014-06-02T11:47:13Z</time>
      </trkpt>
      <trkpt lat="42.33584" lon="0.13893">
        <ele>730.26</ele>
        <time>2014-06-02T11:47:17Z</time>
      </trkpt>
      <trkpt lat="42.33592" lon="0.1387">
        <ele>729.3</ele>
        <time>2014-06-02T11:47:21Z</time>
      </trkpt>
      <trkpt lat="42.33604" lon="0.13843">
        <ele>729.3</ele>
        <time>2014-06-02T11:47:26Z</time>
      </trkpt>
      <trkpt lat="42.33616" lon="0.1383">
        <ele>727.37</ele>
        <time>2014-06-02T11:47:29Z</time>
      </trkpt>
      <trkpt lat="42.33656" lon="0.13787">
        <ele>730.74</ele>
        <time>2014-06-02T11:47:42Z</time>
      </trkpt>
      <trkpt lat="42.33682" lon="0.13783">
        <ele>733.62</ele>
        <time>2014-06-02T11:47:51Z</time>
      </trkpt>
      <trkpt lat="42.33712" lon="0.13778">
        <ele>736.03</ele>
        <time>2014-06-02T11:48:03Z</time>
      </trkpt>
      <trkpt lat="42.33738" lon="0.13767">
        <ele>737.47</ele>
        <time>2014-06-02T11:48:16Z</time>
      </trkpt>
      <trkpt lat="42.33739" lon="0.13767">
        <ele>736.99</ele>
        <time>2014-06-02T11:48:25Z</time>
      </trkpt>
      <trkpt lat="42.33745" lon="0.13764">
        <ele>736.03</ele>
        <time>2014-06-02T11:48:28Z</time>
      </trkpt>
      <trkpt lat="42.33763" lon="0.13774">
        <ele>736.51</ele>
        <time>2014-06-02T11:48:33Z</time>
      </trkpt>
      <trkpt lat="42.33787" lon="0.13821">
        <ele>736.99</ele>
        <time>2014-06-02T11:48:45Z</time>
      </trkpt>
      <trkpt lat="42.33793" lon="0.13837">
        <ele>735.55</ele>
        <time>2014-06-02T11:48:48Z</time>
      </trkpt>
      <trkpt lat="42.33798" lon="0.13848">
        <ele>734.1</ele>
        <time>2014-06-02T11:48:50Z</time>
      </trkpt>
      <trkpt lat="42.33806" lon="0.13867">
        <ele>729.3</ele>
        <time>2014-06-02T11:48:53Z</time>
      </trkpt>
      <trkpt lat="42.33824" lon="0.13888">
        <ele>725.45</ele>
        <time>2014-06-02T11:48:56Z</time>
      </trkpt>
      <trkpt lat="42.33832" lon="0.13893">
        <ele>724.97</ele>
        <time>2014-06-02T11:48:57Z</time>
      </trkpt>
      <trkpt lat="42.33887" lon="0.13883">
        <ele>722.09</ele>
        <time>2014-06-02T11:49:03Z</time>
      </trkpt>
      <trkpt lat="42.339" lon="0.13879">
        <ele>721.61</ele>
        <time>2014-06-02T11:49:05Z</time>
      </trkpt>
      <trkpt lat="42.33924" lon="0.13872">
        <ele>721.61</ele>
        <time>2014-06-02T11:49:09Z</time>
      </trkpt>
      <trkpt lat="42.33938" lon="0.13876">
        <ele>721.13</ele>
        <time>2014-06-02T11:49:12Z</time>
      </trkpt>
      <trkpt lat="42.33954" lon="0.13898">
        <ele>721.13</ele>
        <time>2014-06-02T11:49:17Z</time>
      </trkpt>
      <trkpt lat="42.3398" lon="0.13914">
        <ele>720.16</ele>
        <time>2014-06-02T11:49:23Z</time>
      </trkpt>
      <trkpt lat="42.33999" lon="0.1391">
        <ele>719.68</ele>
        <time>2014-06-02T11:49:27Z</time>
      </trkpt>
      <trkpt lat="42.34033" lon="0.13906">
        <ele>724.01</ele>
        <time>2014-06-02T11:49:38Z</time>
      </trkpt>
      <trkpt lat="42.34064" lon="0.13896">
        <ele>726.89</ele>
        <time>2014-06-02T11:49:50Z</time>
      </trkpt>
      <trkpt lat="42.34091" lon="0.13873">
        <ele>727.37</ele>
        <time>2014-06-02T11:50:01Z</time>
      </trkpt>
      <trkpt lat="42.34132" lon="0.13878">
        <ele>727.86</ele>
        <time>2014-06-02T11:50:12Z</time>
      </trkpt>
      <trkpt lat="42.34177" lon="0.13873">
        <ele>729.78</ele>
        <time>2014-06-02T11:50:24Z</time>
      </trkpt>
      <trkpt lat="42.34208" lon="0.13874">
        <ele>732.18</ele>
        <time>2014-06-02T11:50:34Z</time>
      </trkpt>
      <trkpt lat="42.34232" lon="0.13872">
        <ele>735.07</ele>
        <time>2014-06-02T11:50:45Z</time>
      </trkpt>
      <trkpt lat="42.34238" lon="0.1387">
        <ele>735.07</ele>
        <time>2014-06-02T11:50:49Z</time>
      </trkpt>
      <trkpt lat="42.34243" lon="0.13874">
        <ele>736.03</ele>
        <time>2014-06-02T11:50:53Z</time>
      </trkpt>
      <trkpt lat="42.34246" lon="0.13887">
        <ele>736.99</ele>
        <time>2014-06-02T11:51:00Z</time>
      </trkpt>
      <trkpt lat="42.3426" lon="0.13918">
        <ele>740.83</ele>
        <time>2014-06-02T11:51:15Z</time>
      </trkpt>
      <trkpt lat="42.34265" lon="0.13931">
        <ele>741.31</ele>
        <time>2014-06-02T11:51:21Z</time>
      </trkpt>
      <trkpt lat="42.34271" lon="0.13948">
        <ele>743.72</ele>
        <time>2014-06-02T11:51:29Z</time>
      </trkpt>
      <trkpt lat="42.34285" lon="0.13943">
        <ele>744.68</ele>
        <time>2014-06-02T11:51:38Z</time>
      </trkpt>
      <trkpt lat="42.34293" lon="0.13945">
        <ele>746.6</ele>
        <time>2014-06-02T11:51:43Z</time>
      </trkpt>
      <trkpt lat="42.34297" lon="0.13946">
        <ele>747.08</ele>
        <time>2014-06-02T11:51:45Z</time>
      </trkpt>
      <trkpt lat="42.34313" lon="0.13949">
        <ele>749.97</ele>
        <time>2014-06-02T11:51:55Z</time>
      </trkpt>
      <trkpt lat="42.34328" lon="0.1396">
        <ele>752.85</ele>
        <time>2014-06-02T11:52:06Z</time>
      </trkpt>
      <trkpt lat="42.34333" lon="0.13963">
        <ele>753.81</ele>
        <time>2014-06-02T11:52:10Z</time>
      </trkpt>
      <trkpt lat="42.34341" lon="0.13959">
        <ele>754.77</ele>
        <time>2014-06-02T11:52:16Z</time>
      </trkpt>
      <trkpt lat="42.34363" lon="0.13928">
        <ele>756.21</ele>
        <time>2014-06-02T11:52:31Z</time>
      </trkpt>
      <trkpt lat="42.34366" lon="0.13923">
        <ele>756.21</ele>
        <time>2014-06-02T11:52:33Z</time>
      </trkpt>
      <trkpt lat="42.34373" lon="0.13905">
        <ele>756.69</ele>
        <time>2014-06-02T11:52:39Z</time>
      </trkpt>
      <trkpt lat="42.34395" lon="0.13874">
        <ele>757.18</ele>
        <time>2014-06-02T11:52:51Z</time>
      </trkpt>
      <trkpt lat="42.34402" lon="0.1387">
        <ele>758.62</ele>
        <time>2014-06-02T11:52:54Z</time>
      </trkpt>
      <trkpt lat="42.34408" lon="0.13859">
        <ele>760.06</ele>
        <time>2014-06-02T11:52:59Z</time>
      </trkpt>
      <trkpt lat="42.34444" lon="0.13841">
        <ele>762.94</ele>
        <time>2014-06-02T11:53:14Z</time>
      </trkpt>
      <trkpt lat="42.34454" lon="0.13836">
        <ele>762.94</ele>
        <time>2014-06-02T11:53:17Z</time>
      </trkpt>
      <trkpt lat="42.34472" lon="0.13812">
        <ele>765.83</ele>
        <time>2014-06-02T11:53:27Z</time>
      </trkpt>
      <trkpt lat="42.34478" lon="0.1381">
        <ele>766.31</ele>
        <time>2014-06-02T11:53:29Z</time>
      </trkpt>
      <trkpt lat="42.34498" lon="0.13791">
        <ele>766.31</ele>
        <time>2014-06-02T11:53:37Z</time>
      </trkpt>
      <trkpt lat="42.34523" lon="0.13768">
        <ele>765.83</ele>
        <time>2014-06-02T11:53:45Z</time>
      </trkpt>
      <trkpt lat="42.34526" lon="0.13766">
        <ele>765.83</ele>
        <time>2014-06-02T11:53:46Z</time>
      </trkpt>
      <trkpt lat="42.34535" lon="0.13764">
        <ele>766.31</ele>
        <time>2014-06-02T11:53:49Z</time>
      </trkpt>
      <trkpt lat="42.34564" lon="0.13734">
        <ele>769.19</ele>
        <time>2014-06-02T11:54:01Z</time>
      </trkpt>
      <trkpt lat="42.34586" lon="0.13702">
        <ele>769.19</ele>
        <time>2014-06-02T11:54:12Z</time>
      </trkpt>
      <trkpt lat="42.34598" lon="0.13682">
        <ele>768.71</ele>
        <time>2014-06-02T11:54:17Z</time>
      </trkpt>
      <trkpt lat="42.34609" lon="0.13649">
        <ele>766.79</ele>
        <time>2014-06-02T11:54:22Z</time>
      </trkpt>
      <trkpt lat="42.34616" lon="0.13624">
        <ele>767.27</ele>
        <time>2014-06-02T11:54:26Z</time>
      </trkpt>
      <trkpt lat="42.34618" lon="0.13589">
        <ele>765.35</ele>
        <time>2014-06-02T11:54:31Z</time>
      </trkpt>
      <trkpt lat="42.34621" lon="0.13559">
        <ele>764.39</ele>
        <time>2014-06-02T11:54:35Z</time>
      </trkpt>
      <trkpt lat="42.34609" lon="0.13525">
        <ele>759.58</ele>
        <time>2014-06-02T11:54:39Z</time>
      </trkpt>
      <trkpt lat="42.34597" lon="0.135">
        <ele>757.66</ele>
        <time>2014-06-02T11:54:42Z</time>
      </trkpt>
      <trkpt lat="42.34592" lon="0.13484">
        <ele>755.73</ele>
        <time>2014-06-02T11:54:44Z</time>
      </trkpt>
      <trkpt lat="42.34585" lon="0.13431">
        <ele>751.89</ele>
        <time>2014-06-02T11:54:50Z</time>
      </trkpt>
      <trkpt lat="42.34576" lon="0.13375">
        <ele>748.52</ele>
        <time>2014-06-02T11:54:58Z</time>
      </trkpt>
      <trkpt lat="42.34575" lon="0.1337">
        <ele>748.04</ele>
        <time>2014-06-02T11:54:59Z</time>
      </trkpt>
      <trkpt lat="42.34578" lon="0.13337">
        <ele>748.04</ele>
        <time>2014-06-02T11:55:05Z</time>
      </trkpt>
      <trkpt lat="42.34585" lon="0.13328">
        <ele>748.52</ele>
        <time>2014-06-02T11:55:08Z</time>
      </trkpt>
      <trkpt lat="42.34602" lon="0.13309">
        <ele>749.97</ele>
        <time>2014-06-02T11:55:14Z</time>
      </trkpt>
      <trkpt lat="42.34613" lon="0.1329">
        <ele>749.49</ele>
        <time>2014-06-02T11:55:18Z</time>
      </trkpt>
      <trkpt lat="42.34643" lon="0.13269">
        <ele>752.37</ele>
        <time>2014-06-02T11:55:28Z</time>
      </trkpt>
      <trkpt lat="42.34681" lon="0.1325">
        <ele>755.25</ele>
        <time>2014-06-02T11:55:40Z</time>
      </trkpt>
      <trkpt lat="42.34692" lon="0.13243">
        <ele>757.18</ele>
        <time>2014-06-02T11:55:45Z</time>
      </trkpt>
      <trkpt lat="42.34712" lon="0.13217">
        <ele>759.58</ele>
        <time>2014-06-02T11:55:56Z</time>
      </trkpt>
      <trkpt lat="42.34714" lon="0.13213">
        <ele>759.58</ele>
        <time>2014-06-02T11:55:57Z</time>
      </trkpt>
      <trkpt lat="42.34737" lon="0.13183">
        <ele>761.98</ele>
        <time>2014-06-02T11:56:09Z</time>
      </trkpt>
      <trkpt lat="42.34746" lon="0.13153">
        <ele>762.46</ele>
        <time>2014-06-02T11:56:18Z</time>
      </trkpt>
      <trkpt lat="42.34744" lon="0.13128">
        <ele>762.46</ele>
        <time>2014-06-02T11:56:24Z</time>
      </trkpt>
      <trkpt lat="42.34741" lon="0.13089">
        <ele>761.02</ele>
        <time>2014-06-02T11:56:32Z</time>
      </trkpt>
      <trkpt lat="42.34738" lon="0.13057">
        <ele>758.62</ele>
        <time>2014-06-02T11:56:37Z</time>
      </trkpt>
      <trkpt lat="42.34737" lon="0.13022">
        <ele>759.1</ele>
        <time>2014-06-02T11:56:43Z</time>
      </trkpt>
      <trkpt lat="42.3474" lon="0.13009">
        <ele>758.14</ele>
        <time>2014-06-02T11:56:45Z</time>
      </trkpt>
      <trkpt lat="42.34747" lon="0.12981">
        <ele>757.66</ele>
        <time>2014-06-02T11:56:50Z</time>
      </trkpt>
      <trkpt lat="42.3475" lon="0.12971">
        <ele>757.18</ele>
        <time>2014-06-02T11:56:52Z</time>
      </trkpt>
      <trkpt lat="42.34747" lon="0.12948">
        <ele>758.14</ele>
        <time>2014-06-02T11:56:56Z</time>
      </trkpt>
      <trkpt lat="42.34749" lon="0.12936">
        <ele>756.69</ele>
        <time>2014-06-02T11:56:58Z</time>
      </trkpt>
      <trkpt lat="42.34772" lon="0.12906">
        <ele>753.33</ele>
        <time>2014-06-02T11:57:05Z</time>
      </trkpt>
      <trkpt lat="42.34782" lon="0.12896">
        <ele>749.49</ele>
        <time>2014-06-02T11:57:10Z</time>
      </trkpt>
      <trkpt lat="42.34786" lon="0.12887">
        <ele>748.04</ele>
        <time>2014-06-02T11:57:12Z</time>
      </trkpt>
      <trkpt lat="42.34797" lon="0.12873">
        <ele>748.04</ele>
        <time>2014-06-02T11:57:16Z</time>
      </trkpt>
      <trkpt lat="42.34803" lon="0.12868">
        <ele>747.08</ele>
        <time>2014-06-02T11:57:18Z</time>
      </trkpt>
      <trkpt lat="42.34807" lon="0.12865">
        <ele>746.6</ele>
        <time>2014-06-02T11:57:20Z</time>
      </trkpt>
      <trkpt lat="42.34837" lon="0.12855">
        <ele>746.6</ele>
        <time>2014-06-02T11:57:28Z</time>
      </trkpt>
      <trkpt lat="42.34844" lon="0.12862">
        <ele>745.16</ele>
        <time>2014-06-02T11:57:30Z</time>
      </trkpt>
      <trkpt lat="42.34858" lon="0.12877">
        <ele>745.16</ele>
        <time>2014-06-02T11:57:37Z</time>
      </trkpt>
      <trkpt lat="42.34859" lon="0.12876">
        <ele>745.16</ele>
        <time>2014-06-02T11:57:55Z</time>
      </trkpt>
      <trkpt lat="42.3486" lon="0.12877">
        <ele>745.16</ele>
        <time>2014-06-02T11:58:21Z</time>
      </trkpt>
      <trkpt lat="42.3486" lon="0.12877">
        <ele>745.64</ele>
        <time>2014-06-02T11:58:44Z</time>
      </trkpt>
      <trkpt lat="42.3486" lon="0.12878">
        <ele>744.2</ele>
        <time>2014-06-02T11:59:08Z</time>
      </trkpt>
      <trkpt lat="42.34861" lon="0.12883">
        <ele>743.72</ele>
        <time>2014-06-02T11:59:17Z</time>
      </trkpt>
      <trkpt lat="42.34864" lon="0.12885">
        <ele>744.68</ele>
        <time>2014-06-02T11:59:20Z</time>
      </trkpt>
      <trkpt lat="42.34865" lon="0.12889">
        <ele>745.64</ele>
        <time>2014-06-02T11:59:23Z</time>
      </trkpt>
      <trkpt lat="42.3487" lon="0.12892">
        <ele>747.08</ele>
        <time>2014-06-02T11:59:37Z</time>
      </trkpt>
      <trkpt lat="42.34871" lon="0.1288">
        <ele>748.52</ele>
        <time>2014-06-02T11:59:50Z</time>
      </trkpt>
      <trkpt lat="42.34876" lon="0.12881">
        <ele>749.49</ele>
        <time>2014-06-02T11:59:56Z</time>
      </trkpt>
      <trkpt lat="42.34878" lon="0.12882">
        <ele>750.45</ele>
        <time>2014-06-02T11:59:59Z</time>
      </trkpt>
      <trkpt lat="42.3488" lon="0.12885">
        <ele>750.93</ele>
        <time>2014-06-02T12:00:03Z</time>
      </trkpt>
      <trkpt lat="42.34883" lon="0.12888">
        <ele>751.89</ele>
        <time>2014-06-02T12:00:07Z</time>
      </trkpt>
      <trkpt lat="42.34885" lon="0.1289">
        <ele>751.41</ele>
        <time>2014-06-02T12:00:09Z</time>
      </trkpt>
      <trkpt lat="42.34887" lon="0.12892">
        <ele>751.89</ele>
        <time>2014-06-02T12:00:17Z</time>
      </trkpt>
      <trkpt lat="42.34891" lon="0.12902">
        <ele>752.37</ele>
        <time>2014-06-02T12:00:23Z</time>
      </trkpt>
      <trkpt lat="42.34894" lon="0.12909">
        <ele>753.81</ele>
        <time>2014-06-02T12:00:27Z</time>
      </trkpt>
      <trkpt lat="42.34897" lon="0.12907">
        <ele>754.77</ele>
        <time>2014-06-02T12:00:30Z</time>
      </trkpt>
      <trkpt lat="42.349" lon="0.12899">
        <ele>756.21</ele>
        <time>2014-06-02T12:00:35Z</time>
      </trkpt>
      <trkpt lat="42.34905" lon="0.12883">
        <ele>758.14</ele>
        <time>2014-06-02T12:00:44Z</time>
      </trkpt>
      <trkpt lat="42.34909" lon="0.12881">
        <ele>758.62</ele>
        <time>2014-06-02T12:00:47Z</time>
      </trkpt>
      <trkpt lat="42.3492" lon="0.12884">
        <ele>761.5</ele>
        <time>2014-06-02T12:00:54Z</time>
      </trkpt>
      <trkpt lat="42.34926" lon="0.12887">
        <ele>762.46</ele>
        <time>2014-06-02T12:00:59Z</time>
      </trkpt>
      <trkpt lat="42.34932" lon="0.12906">
        <ele>765.35</ele>
        <time>2014-06-02T12:01:10Z</time>
      </trkpt>
      <trkpt lat="42.34934" lon="0.12906">
        <ele>765.83</ele>
        <time>2014-06-02T12:01:11Z</time>
      </trkpt>
      <trkpt lat="42.3495" lon="0.12901">
        <ele>768.23</ele>
        <time>2014-06-02T12:01:22Z</time>
      </trkpt>
      <trkpt lat="42.34969" lon="0.1291">
        <ele>771.11</ele>
        <time>2014-06-02T12:01:35Z</time>
      </trkpt>
      <trkpt lat="42.34986" lon="0.12922">
        <ele>772.08</ele>
        <time>2014-06-02T12:01:46Z</time>
      </trkpt>
      <trkpt lat="42.34996" lon="0.12918">
        <ele>774.48</ele>
        <time>2014-06-02T12:01:53Z</time>
      </trkpt>
      <trkpt lat="42.35015" lon="0.12916">
        <ele>775.92</ele>
        <time>2014-06-02T12:02:07Z</time>
      </trkpt>
      <trkpt lat="42.35041" lon="0.1291">
        <ele>776.88</ele>
        <time>2014-06-02T12:02:20Z</time>
      </trkpt>
      <trkpt lat="42.35056" lon="0.12918">
        <ele>778.81</ele>
        <time>2014-06-02T12:02:30Z</time>
      </trkpt>
      <trkpt lat="42.3507" lon="0.12909">
        <ele>781.69</ele>
        <time>2014-06-02T12:02:39Z</time>
      </trkpt>
      <trkpt lat="42.35087" lon="0.12902">
        <ele>784.09</ele>
        <time>2014-06-02T12:02:49Z</time>
      </trkpt>
      <trkpt lat="42.35104" lon="0.12888">
        <ele>786.5</ele>
        <time>2014-06-02T12:03:00Z</time>
      </trkpt>
      <trkpt lat="42.35112" lon="0.1289">
        <ele>786.98</ele>
        <time>2014-06-02T12:03:05Z</time>
      </trkpt>
      <trkpt lat="42.35118" lon="0.12886">
        <ele>787.94</ele>
        <time>2014-06-02T12:03:09Z</time>
      </trkpt>
      <trkpt lat="42.35135" lon="0.12868">
        <ele>788.42</ele>
        <time>2014-06-02T12:03:23Z</time>
      </trkpt>
      <trkpt lat="42.35137" lon="0.12865">
        <ele>788.9</ele>
        <time>2014-06-02T12:03:25Z</time>
      </trkpt>
      <trkpt lat="42.35134" lon="0.12858">
        <ele>789.38</ele>
        <time>2014-06-02T12:03:29Z</time>
      </trkpt>
      <trkpt lat="42.35134" lon="0.1285">
        <ele>789.86</ele>
        <time>2014-06-02T12:03:33Z</time>
      </trkpt>
      <trkpt lat="42.35156" lon="0.12836">
        <ele>790.82</ele>
        <time>2014-06-02T12:03:47Z</time>
      </trkpt>
      <trkpt lat="42.35173" lon="0.12833">
        <ele>791.3</ele>
        <time>2014-06-02T12:03:56Z</time>
      </trkpt>
      <trkpt lat="42.35175" lon="0.12832">
        <ele>791.3</ele>
        <time>2014-06-02T12:03:58Z</time>
      </trkpt>
      <trkpt lat="42.35189" lon="0.1283">
        <ele>793.71</ele>
        <time>2014-06-02T12:04:07Z</time>
      </trkpt>
      <trkpt lat="42.35211" lon="0.12819">
        <ele>795.15</ele>
        <time>2014-06-02T12:04:20Z</time>
      </trkpt>
      <trkpt lat="42.3523" lon="0.1279">
        <ele>796.11</ele>
        <time>2014-06-02T12:04:33Z</time>
      </trkpt>
      <trkpt lat="42.35249" lon="0.12759">
        <ele>797.07</ele>
        <time>2014-06-02T12:04:43Z</time>
      </trkpt>
      <trkpt lat="42.35256" lon="0.1274">
        <ele>798.03</ele>
        <time>2014-06-02T12:04:48Z</time>
      </trkpt>
      <trkpt lat="42.35269" lon="0.12721">
        <ele>798.99</ele>
        <time>2014-06-02T12:04:54Z</time>
      </trkpt>
      <trkpt lat="42.35275" lon="0.12702">
        <ele>798.99</ele>
        <time>2014-06-02T12:04:57Z</time>
      </trkpt>
      <trkpt lat="42.35285" lon="0.12683">
        <ele>799.47</ele>
        <time>2014-06-02T12:05:00Z</time>
      </trkpt>
      <trkpt lat="42.35306" lon="0.12657">
        <ele>800.44</ele>
        <time>2014-06-02T12:05:05Z</time>
      </trkpt>
      <trkpt lat="42.35313" lon="0.12638">
        <ele>802.36</ele>
        <time>2014-06-02T12:05:09Z</time>
      </trkpt>
      <trkpt lat="42.35314" lon="0.12636">
        <ele>803.32</ele>
        <time>2014-06-02T12:05:10Z</time>
      </trkpt>
      <trkpt lat="42.35334" lon="0.12605">
        <ele>806.2</ele>
        <time>2014-06-02T12:05:23Z</time>
      </trkpt>
      <trkpt lat="42.35351" lon="0.1257">
        <ele>808.13</ele>
        <time>2014-06-02T12:05:36Z</time>
      </trkpt>
      <trkpt lat="42.35354" lon="0.12559">
        <ele>808.61</ele>
        <time>2014-06-02T12:05:39Z</time>
      </trkpt>
      <trkpt lat="42.35357" lon="0.12552">
        <ele>810.05</ele>
        <time>2014-06-02T12:05:42Z</time>
      </trkpt>
      <trkpt lat="42.3536" lon="0.12549">
        <ele>811.49</ele>
        <time>2014-06-02T12:05:45Z</time>
      </trkpt>
      <trkpt lat="42.35365" lon="0.12547">
        <ele>812.45</ele>
        <time>2014-06-02T12:05:48Z</time>
      </trkpt>
      <trkpt lat="42.35393" lon="0.12535">
        <ele>814.85</ele>
        <time>2014-06-02T12:06:02Z</time>
      </trkpt>
      <trkpt lat="42.35418" lon="0.12494">
        <ele>814.85</ele>
        <time>2014-06-02T12:06:16Z</time>
      </trkpt>
      <trkpt lat="42.35423" lon="0.12469">
        <ele>813.89</ele>
        <time>2014-06-02T12:06:20Z</time>
      </trkpt>
      <trkpt lat="42.35428" lon="0.12449">
        <ele>813.41</ele>
        <time>2014-06-02T12:06:23Z</time>
      </trkpt>
      <trkpt lat="42.35425" lon="0.12417">
        <ele>811.49</ele>
        <time>2014-06-02T12:06:27Z</time>
      </trkpt>
      <trkpt lat="42.35416" lon="0.124">
        <ele>812.45</ele>
        <time>2014-06-02T12:06:30Z</time>
      </trkpt>
      <trkpt lat="42.35407" lon="0.12381">
        <ele>816.78</ele>
        <time>2014-06-02T12:06:37Z</time>
      </trkpt>
      <trkpt lat="42.354" lon="0.12352">
        <ele>818.7</ele>
        <time>2014-06-02T12:06:47Z</time>
      </trkpt>
      <trkpt lat="42.35399" lon="0.12341">
        <ele>820.62</ele>
        <time>2014-06-02T12:06:55Z</time>
      </trkpt>
      <trkpt lat="42.354" lon="0.12333">
        <ele>821.58</ele>
        <time>2014-06-02T12:07:01Z</time>
      </trkpt>
      <trkpt lat="42.35401" lon="0.12329">
        <ele>822.06</ele>
        <time>2014-06-02T12:07:05Z</time>
      </trkpt>
      <trkpt lat="42.35404" lon="0.12319">
        <ele>822.06</ele>
        <time>2014-06-02T12:07:09Z</time>
      </trkpt>
      <trkpt lat="42.35409" lon="0.12305">
        <ele>823.03</ele>
        <time>2014-06-02T12:07:14Z</time>
      </trkpt>
      <trkpt lat="42.35412" lon="0.12292">
        <ele>825.91</ele>
        <time>2014-06-02T12:07:19Z</time>
      </trkpt>
      <trkpt lat="42.35412" lon="0.1229">
        <ele>826.39</ele>
        <time>2014-06-02T12:07:20Z</time>
      </trkpt>
      <trkpt lat="42.35418" lon="0.12278">
        <ele>828.79</ele>
        <time>2014-06-02T12:07:26Z</time>
      </trkpt>
      <trkpt lat="42.35415" lon="0.12251">
        <ele>831.68</ele>
        <time>2014-06-02T12:07:37Z</time>
      </trkpt>
      <trkpt lat="42.35415" lon="0.12241">
        <ele>833.12</ele>
        <time>2014-06-02T12:07:47Z</time>
      </trkpt>
      <trkpt lat="42.35415" lon="0.1224">
        <ele>833.6</ele>
        <time>2014-06-02T12:07:53Z</time>
      </trkpt>
      <trkpt lat="42.35422" lon="0.12226">
        <ele>835.04</ele>
        <time>2014-06-02T12:08:01Z</time>
      </trkpt>
      <trkpt lat="42.35422" lon="0.12218">
        <ele>836.96</ele>
        <time>2014-06-02T12:08:13Z</time>
      </trkpt>
      <trkpt lat="42.35423" lon="0.12218">
        <ele>836.48</ele>
        <time>2014-06-02T12:08:35Z</time>
      </trkpt>
      <trkpt lat="42.35423" lon="0.12218">
        <ele>836.48</ele>
        <time>2014-06-02T12:08:54Z</time>
      </trkpt>
      <trkpt lat="42.35423" lon="0.12218">
        <ele>836.48</ele>
        <time>2014-06-02T12:08:59Z</time>
      </trkpt>
      <trkpt lat="42.35423" lon="0.12216">
        <ele>836.48</ele>
        <time>2014-06-02T12:09:09Z</time>
      </trkpt>
      <trkpt lat="42.35423" lon="0.12216">
        <ele>836</ele>
        <time>2014-06-02T12:09:10Z</time>
      </trkpt>
      <trkpt lat="42.35422" lon="0.12199">
        <ele>838.89</ele>
        <time>2014-06-02T12:09:19Z</time>
      </trkpt>
      <trkpt lat="42.35422" lon="0.12197">
        <ele>839.37</ele>
        <time>2014-06-02T12:09:20Z</time>
      </trkpt>
      <trkpt lat="42.3542" lon="0.12187">
        <ele>839.85</ele>
        <time>2014-06-02T12:09:25Z</time>
      </trkpt>
      <trkpt lat="42.35419" lon="0.12178">
        <ele>840.81</ele>
        <time>2014-06-02T12:09:30Z</time>
      </trkpt>
      <trkpt lat="42.35419" lon="0.12171">
        <ele>841.29</ele>
        <time>2014-06-02T12:09:33Z</time>
      </trkpt>
      <trkpt lat="42.35421" lon="0.1216">
        <ele>840.81</ele>
        <time>2014-06-02T12:09:37Z</time>
      </trkpt>
      <trkpt lat="42.35427" lon="0.12121">
        <ele>840.81</ele>
        <time>2014-06-02T12:09:49Z</time>
      </trkpt>
      <trkpt lat="42.35449" lon="0.12074">
        <ele>841.77</ele>
        <time>2014-06-02T12:10:02Z</time>
      </trkpt>
      <trkpt lat="42.35487" lon="0.12058">
        <ele>844.18</ele>
        <time>2014-06-02T12:10:13Z</time>
      </trkpt>
      <trkpt lat="42.35513" lon="0.12039">
        <ele>844.66</ele>
        <time>2014-06-02T12:10:22Z</time>
      </trkpt>
      <trkpt lat="42.35524" lon="0.12022">
        <ele>845.14</ele>
        <time>2014-06-02T12:10:26Z</time>
      </trkpt>
      <trkpt lat="42.35543" lon="0.11976">
        <ele>845.62</ele>
        <time>2014-06-02T12:10:35Z</time>
      </trkpt>
      <trkpt lat="42.35549" lon="0.11964">
        <ele>845.62</ele>
        <time>2014-06-02T12:10:37Z</time>
      </trkpt>
      <trkpt lat="42.35579" lon="0.11903">
        <ele>848.5</ele>
        <time>2014-06-02T12:10:50Z</time>
      </trkpt>
      <trkpt lat="42.35581" lon="0.11894">
        <ele>849.46</ele>
        <time>2014-06-02T12:10:53Z</time>
      </trkpt>
      <trkpt lat="42.35584" lon="0.11889">
        <ele>850.42</ele>
        <time>2014-06-02T12:10:55Z</time>
      </trkpt>
      <trkpt lat="42.35585" lon="0.11888">
        <ele>850.42</ele>
        <time>2014-06-02T12:10:56Z</time>
      </trkpt>
      <trkpt lat="42.35592" lon="0.11883">
        <ele>851.87</ele>
        <time>2014-06-02T12:11:00Z</time>
      </trkpt>
      <trkpt lat="42.35601" lon="0.11865">
        <ele>853.79</ele>
        <time>2014-06-02T12:11:08Z</time>
      </trkpt>
      <trkpt lat="42.35604" lon="0.11861">
        <ele>854.27</ele>
        <time>2014-06-02T12:11:10Z</time>
      </trkpt>
      <trkpt lat="42.35606" lon="0.11857">
        <ele>854.75</ele>
        <time>2014-06-02T12:11:12Z</time>
      </trkpt>
      <trkpt lat="42.35618" lon="0.11824">
        <ele>856.19</ele>
        <time>2014-06-02T12:11:22Z</time>
      </trkpt>
      <trkpt lat="42.35615" lon="0.11793">
        <ele>857.15</ele>
        <time>2014-06-02T12:11:29Z</time>
      </trkpt>
      <trkpt lat="42.35632" lon="0.11771">
        <ele>858.11</ele>
        <time>2014-06-02T12:11:37Z</time>
      </trkpt>
      <trkpt lat="42.35649" lon="0.11746">
        <ele>861</ele>
        <time>2014-06-02T12:11:46Z</time>
      </trkpt>
      <trkpt lat="42.35677" lon="0.11721">
        <ele>861.96</ele>
        <time>2014-06-02T12:11:59Z</time>
      </trkpt>
      <trkpt lat="42.357" lon="0.11689">
        <ele>862.92</ele>
        <time>2014-06-02T12:12:09Z</time>
      </trkpt>
      <trkpt lat="42.35705" lon="0.1167">
        <ele>864.36</ele>
        <time>2014-06-02T12:12:15Z</time>
      </trkpt>
      <trkpt lat="42.3571" lon="0.11656">
        <ele>863.4</ele>
        <time>2014-06-02T12:12:20Z</time>
      </trkpt>
      <trkpt lat="42.35713" lon="0.11642">
        <ele>864.36</ele>
        <time>2014-06-02T12:12:33Z</time>
      </trkpt>
      <trkpt lat="42.35714" lon="0.11624">
        <ele>863.4</ele>
        <time>2014-06-02T12:12:49Z</time>
      </trkpt>
      <trkpt lat="42.35722" lon="0.11583">
        <ele>864.36</ele>
        <time>2014-06-02T12:12:59Z</time>
      </trkpt>
      <trkpt lat="42.35736" lon="0.11539">
        <ele>865.32</ele>
        <time>2014-06-02T12:13:09Z</time>
      </trkpt>
      <trkpt lat="42.35756" lon="0.11484">
        <ele>867.25</ele>
        <time>2014-06-02T12:13:21Z</time>
      </trkpt>
      <trkpt lat="42.3577" lon="0.11453">
        <ele>868.21</ele>
        <time>2014-06-02T12:13:28Z</time>
      </trkpt>
      <trkpt lat="42.35779" lon="0.11432">
        <ele>867.25</ele>
        <time>2014-06-02T12:13:32Z</time>
      </trkpt>
      <trkpt lat="42.35788" lon="0.11415">
        <ele>867.73</ele>
        <time>2014-06-02T12:13:35Z</time>
      </trkpt>
      <trkpt lat="42.3581" lon="0.11371">
        <ele>869.17</ele>
        <time>2014-06-02T12:13:44Z</time>
      </trkpt>
      <trkpt lat="42.35815" lon="0.1136">
        <ele>868.69</ele>
        <time>2014-06-02T12:13:46Z</time>
      </trkpt>
      <trkpt lat="42.35843" lon="0.11304">
        <ele>867.73</ele>
        <time>2014-06-02T12:13:54Z</time>
      </trkpt>
      <trkpt lat="42.3586" lon="0.11278">
        <ele>866.77</ele>
        <time>2014-06-02T12:13:58Z</time>
      </trkpt>
      <trkpt lat="42.35868" lon="0.11265">
        <ele>866.29</ele>
        <time>2014-06-02T12:14:00Z</time>
      </trkpt>
      <trkpt lat="42.35874" lon="0.11251">
        <ele>866.29</ele>
        <time>2014-06-02T12:14:02Z</time>
      </trkpt>
      <trkpt lat="42.35878" lon="0.11235">
        <ele>866.29</ele>
        <time>2014-06-02T12:14:04Z</time>
      </trkpt>
      <trkpt lat="42.35888" lon="0.11208">
        <ele>865.8</ele>
        <time>2014-06-02T12:14:08Z</time>
      </trkpt>
      <trkpt lat="42.35894" lon="0.11191">
        <ele>866.29</ele>
        <time>2014-06-02T12:14:11Z</time>
      </trkpt>
      <trkpt lat="42.35912" lon="0.11155">
        <ele>864.84</ele>
        <time>2014-06-02T12:14:18Z</time>
      </trkpt>
      <trkpt lat="42.35923" lon="0.11129">
        <ele>864.36</ele>
        <time>2014-06-02T12:14:22Z</time>
      </trkpt>
      <trkpt lat="42.35934" lon="0.11083">
        <ele>865.32</ele>
        <time>2014-06-02T12:14:29Z</time>
      </trkpt>
      <trkpt lat="42.35938" lon="0.11074">
        <ele>866.29</ele>
        <time>2014-06-02T12:14:32Z</time>
      </trkpt>
      <trkpt lat="42.35944" lon="0.11056">
        <ele>866.77</ele>
        <time>2014-06-02T12:14:37Z</time>
      </trkpt>
      <trkpt lat="42.35951" lon="0.11042">
        <ele>866.77</ele>
        <time>2014-06-02T12:14:40Z</time>
      </trkpt>
      <trkpt lat="42.35956" lon="0.11032">
        <ele>866.77</ele>
        <time>2014-06-02T12:14:42Z</time>
      </trkpt>
      <trkpt lat="42.35969" lon="0.11015">
        <ele>866.29</ele>
        <time>2014-06-02T12:14:46Z</time>
      </trkpt>
      <trkpt lat="42.35977" lon="0.10999">
        <ele>866.29</ele>
        <time>2014-06-02T12:14:49Z</time>
      </trkpt>
      <trkpt lat="42.35988" lon="0.10978">
        <ele>866.29</ele>
        <time>2014-06-02T12:14:53Z</time>
      </trkpt>
      <trkpt lat="42.35992" lon="0.1096">
        <ele>866.77</ele>
        <time>2014-06-02T12:14:56Z</time>
      </trkpt>
      <trkpt lat="42.35998" lon="0.10945">
        <ele>868.69</ele>
        <time>2014-06-02T12:14:59Z</time>
      </trkpt>
      <trkpt lat="42.36014" lon="0.1092">
        <ele>869.17</ele>
        <time>2014-06-02T12:15:05Z</time>
      </trkpt>
      <trkpt lat="42.36027" lon="0.10907">
        <ele>871.09</ele>
        <time>2014-06-02T12:15:09Z</time>
      </trkpt>
      <trkpt lat="42.36032" lon="0.10891">
        <ele>872.05</ele>
        <time>2014-06-02T12:15:13Z</time>
      </trkpt>
      <trkpt lat="42.36034" lon="0.10877">
        <ele>872.05</ele>
        <time>2014-06-02T12:15:16Z</time>
      </trkpt>
      <trkpt lat="42.36035" lon="0.10846">
        <ele>873.98</ele>
        <time>2014-06-02T12:15:23Z</time>
      </trkpt>
      <trkpt lat="42.36037" lon="0.1084">
        <ele>873.98</ele>
        <time>2014-06-02T12:15:25Z</time>
      </trkpt>
      <trkpt lat="42.36041" lon="0.10826">
        <ele>874.94</ele>
        <time>2014-06-02T12:15:29Z</time>
      </trkpt>
      <trkpt lat="42.36067" lon="0.10809">
        <ele>877.34</ele>
        <time>2014-06-02T12:15:41Z</time>
      </trkpt>
      <trkpt lat="42.36093" lon="0.10807">
        <ele>877.82</ele>
        <time>2014-06-02T12:15:54Z</time>
      </trkpt>
      <trkpt lat="42.36113" lon="0.10812">
        <ele>879.74</ele>
        <time>2014-06-02T12:16:02Z</time>
      </trkpt>
      <trkpt lat="42.3612" lon="0.10814">
        <ele>882.15</ele>
        <time>2014-06-02T12:16:06Z</time>
      </trkpt>
      <trkpt lat="42.36125" lon="0.10816">
        <ele>883.59</ele>
        <time>2014-06-02T12:16:09Z</time>
      </trkpt>
      <trkpt lat="42.36139" lon="0.10811">
        <ele>885.03</ele>
        <time>2014-06-02T12:16:18Z</time>
      </trkpt>
      <trkpt lat="42.36139" lon="0.10805">
        <ele>885.03</ele>
        <time>2014-06-02T12:16:24Z</time>
      </trkpt>
      <trkpt lat="42.3614" lon="0.10807">
        <ele>885.51</ele>
        <time>2014-06-02T12:16:34Z</time>
      </trkpt>
      <trkpt lat="42.3614" lon="0.10807">
        <ele>884.55</ele>
        <time>2014-06-02T12:16:50Z</time>
      </trkpt>
      <trkpt lat="42.3614" lon="0.10807">
        <ele>884.07</ele>
        <time>2014-06-02T12:17:15Z</time>
      </trkpt>
      <trkpt lat="42.3614" lon="0.10807">
        <ele>884.55</ele>
        <time>2014-06-02T12:17:44Z</time>
      </trkpt>
      <trkpt lat="42.3614" lon="0.10807">
        <ele>884.07</ele>
        <time>2014-06-02T12:18:08Z</time>
      </trkpt>
      <trkpt lat="42.36141" lon="0.10805">
        <ele>885.03</ele>
        <time>2014-06-02T12:18:24Z</time>
      </trkpt>
      <trkpt lat="42.3614" lon="0.10808">
        <ele>884.55</ele>
        <time>2014-06-02T12:18:32Z</time>
      </trkpt>
      <trkpt lat="42.3614" lon="0.10808">
        <ele>884.55</ele>
        <time>2014-06-02T12:18:55Z</time>
      </trkpt>
      <trkpt lat="42.3614" lon="0.10808">
        <ele>884.55</ele>
        <time>2014-06-02T12:19:19Z</time>
      </trkpt>
      <trkpt lat="42.3614" lon="0.10808">
        <ele>884.07</ele>
        <time>2014-06-02T12:19:42Z</time>
      </trkpt>
      <trkpt lat="42.3614" lon="0.10808">
        <ele>884.07</ele>
        <time>2014-06-02T12:20:10Z</time>
      </trkpt>
      <trkpt lat="42.3614" lon="0.10808">
        <ele>884.07</ele>
        <time>2014-06-02T12:20:40Z</time>
      </trkpt>
      <trkpt lat="42.3614" lon="0.10808">
        <ele>884.07</ele>
        <time>2014-06-02T12:21:06Z</time>
      </trkpt>
      <trkpt lat="42.3614" lon="0.10808">
        <ele>884.55</ele>
        <time>2014-06-02T12:21:31Z</time>
      </trkpt>
      <trkpt lat="42.3614" lon="0.10808">
        <ele>884.55</ele>
        <time>2014-06-02T12:21:45Z</time>
      </trkpt>
      <trkpt lat="42.36141" lon="0.10811">
        <ele>884.55</ele>
        <time>2014-06-02T12:21:55Z</time>
      </trkpt>
      <trkpt lat="42.36141" lon="0.10811">
        <ele>885.03</ele>
        <time>2014-06-02T12:22:23Z</time>
      </trkpt>
      <trkpt lat="42.36141" lon="0.10811">
        <ele>885.03</ele>
        <time>2014-06-02T12:22:45Z</time>
      </trkpt>
      <trkpt lat="42.36139" lon="0.10806">
        <ele>885.03</ele>
        <time>2014-06-02T12:22:54Z</time>
      </trkpt>
      <trkpt lat="42.36139" lon="0.10806">
        <ele>885.51</ele>
        <time>2014-06-02T12:23:15Z</time>
      </trkpt>
      <trkpt lat="42.36139" lon="0.10806">
        <ele>885.51</ele>
        <time>2014-06-02T12:23:36Z</time>
      </trkpt>
      <trkpt lat="42.36139" lon="0.10806">
        <ele>884.55</ele>
        <time>2014-06-02T12:23:56Z</time>
      </trkpt>
      <trkpt lat="42.36139" lon="0.10806">
        <ele>885.03</ele>
        <time>2014-06-02T12:24:31Z</time>
      </trkpt>
      <trkpt lat="42.36139" lon="0.10806">
        <ele>885.51</ele>
        <time>2014-06-02T12:24:54Z</time>
      </trkpt>
      <trkpt lat="42.36139" lon="0.10806">
        <ele>885.51</ele>
        <time>2014-06-02T12:25:21Z</time>
      </trkpt>
      <trkpt lat="42.36139" lon="0.10806">
        <ele>885.51</ele>
        <time>2014-06-02T12:25:22Z</time>
      </trkpt>
      <trkpt lat="42.36146" lon="0.10798">
        <ele>885.99</ele>
        <time>2014-06-02T12:25:28Z</time>
      </trkpt>
      <trkpt lat="42.36152" lon="0.10786">
        <ele>885.99</ele>
        <time>2014-06-02T12:25:31Z</time>
      </trkpt>
      <trkpt lat="42.36169" lon="0.10744">
        <ele>887.43</ele>
        <time>2014-06-02T12:25:39Z</time>
      </trkpt>
      <trkpt lat="42.36177" lon="0.1072">
        <ele>888.88</ele>
        <time>2014-06-02T12:25:43Z</time>
      </trkpt>
      <trkpt lat="42.36178" lon="0.10711">
        <ele>889.84</ele>
        <time>2014-06-02T12:25:45Z</time>
      </trkpt>
      <trkpt lat="42.36182" lon="0.10711">
        <ele>890.8</ele>
        <time>2014-06-02T12:25:49Z</time>
      </trkpt>
      <trkpt lat="42.36184" lon="0.10729">
        <ele>892.24</ele>
        <time>2014-06-02T12:25:57Z</time>
      </trkpt>
      <trkpt lat="42.36201" lon="0.10741">
        <ele>893.68</ele>
        <time>2014-06-02T12:26:06Z</time>
      </trkpt>
      <trkpt lat="42.3621" lon="0.10743">
        <ele>893.2</ele>
        <time>2014-06-02T12:26:09Z</time>
      </trkpt>
      <trkpt lat="42.36247" lon="0.1075">
        <ele>894.16</ele>
        <time>2014-06-02T12:26:19Z</time>
      </trkpt>
      <trkpt lat="42.3626" lon="0.10762">
        <ele>894.16</ele>
        <time>2014-06-02T12:26:23Z</time>
      </trkpt>
      <trkpt lat="42.36283" lon="0.10781">
        <ele>897.53</ele>
        <time>2014-06-02T12:26:31Z</time>
      </trkpt>
      <trkpt lat="42.36298" lon="0.1078">
        <ele>897.53</ele>
        <time>2014-06-02T12:26:35Z</time>
      </trkpt>
      <trkpt lat="42.3631" lon="0.10777">
        <ele>898.01</ele>
        <time>2014-06-02T12:26:38Z</time>
      </trkpt>
      <trkpt lat="42.36335" lon="0.10785">
        <ele>898.01</ele>
        <time>2014-06-02T12:26:44Z</time>
      </trkpt>
      <trkpt lat="42.36347" lon="0.1079">
        <ele>899.45</ele>
        <time>2014-06-02T12:26:47Z</time>
      </trkpt>
      <trkpt lat="42.36351" lon="0.10792">
        <ele>900.41</ele>
        <time>2014-06-02T12:26:48Z</time>
      </trkpt>
      <trkpt lat="42.36374" lon="0.10806">
        <ele>902.33</ele>
        <time>2014-06-02T12:26:54Z</time>
      </trkpt>
      <trkpt lat="42.36391" lon="0.10807">
        <ele>903.3</ele>
        <time>2014-06-02T12:26:58Z</time>
      </trkpt>
      <trkpt lat="42.36408" lon="0.10802">
        <ele>903.3</ele>
        <time>2014-06-02T12:27:02Z</time>
      </trkpt>
      <trkpt lat="42.36431" lon="0.10789">
        <ele>902.82</ele>
        <time>2014-06-02T12:27:07Z</time>
      </trkpt>
      <trkpt lat="42.36454" lon="0.10776">
        <ele>903.78</ele>
        <time>2014-06-02T12:27:12Z</time>
      </trkpt>
      <trkpt lat="42.36476" lon="0.10777">
        <ele>901.85</ele>
        <time>2014-06-02T12:27:20Z</time>
      </trkpt>
      <trkpt lat="42.36483" lon="0.10771">
        <ele>901.85</ele>
        <time>2014-06-02T12:27:28Z</time>
      </trkpt>
      <trkpt lat="42.36484" lon="0.10771">
        <ele>902.33</ele>
        <time>2014-06-02T12:27:51Z</time>
      </trkpt>
      <trkpt lat="42.36486" lon="0.10769">
        <ele>901.85</ele>
        <time>2014-06-02T12:27:58Z</time>
      </trkpt>
      <trkpt lat="42.36489" lon="0.10763">
        <ele>900.89</ele>
        <time>2014-06-02T12:28:00Z</time>
      </trkpt>
      <trkpt lat="42.36495" lon="0.10744">
        <ele>899.93</ele>
        <time>2014-06-02T12:28:04Z</time>
      </trkpt>
      <trkpt lat="42.36495" lon="0.10734">
        <ele>901.37</ele>
        <time>2014-06-02T12:28:06Z</time>
      </trkpt>
      <trkpt lat="42.36498" lon="0.10704">
        <ele>900.89</ele>
        <time>2014-06-02T12:28:11Z</time>
      </trkpt>
      <trkpt lat="42.36498" lon="0.10692">
        <ele>901.85</ele>
        <time>2014-06-02T12:28:13Z</time>
      </trkpt>
      <trkpt lat="42.36507" lon="0.1067">
        <ele>902.33</ele>
        <time>2014-06-02T12:28:17Z</time>
      </trkpt>
      <trkpt lat="42.36551" lon="0.10625">
        <ele>900.89</ele>
        <time>2014-06-02T12:28:27Z</time>
      </trkpt>
      <trkpt lat="42.3657" lon="0.10604">
        <ele>899.93</ele>
        <time>2014-06-02T12:28:31Z</time>
      </trkpt>
      <trkpt lat="42.36581" lon="0.10583">
        <ele>899.45</ele>
        <time>2014-06-02T12:28:34Z</time>
      </trkpt>
      <trkpt lat="42.36592" lon="0.10552">
        <ele>897.53</ele>
        <time>2014-06-02T12:28:38Z</time>
      </trkpt>
      <trkpt lat="42.366" lon="0.10537">
        <ele>896.09</ele>
        <time>2014-06-02T12:28:41Z</time>
      </trkpt>
      <trkpt lat="42.36604" lon="0.10534">
        <ele>896.09</ele>
        <time>2014-06-02T12:28:47Z</time>
      </trkpt>
      <trkpt lat="42.36604" lon="0.10534">
        <ele>895.12</ele>
        <time>2014-06-02T12:28:53Z</time>
      </trkpt>
      <trkpt lat="42.36604" lon="0.10536">
        <ele>895.12</ele>
        <time>2014-06-02T12:28:55Z</time>
      </trkpt>
      <trkpt lat="42.366" lon="0.10544">
        <ele>895.61</ele>
        <time>2014-06-02T12:29:08Z</time>
      </trkpt>
      <trkpt lat="42.366" lon="0.10543">
        <ele>896.57</ele>
        <time>2014-06-02T12:29:11Z</time>
      </trkpt>
      <trkpt lat="42.36604" lon="0.10537">
        <ele>895.61</ele>
        <time>2014-06-02T12:29:20Z</time>
      </trkpt>
      <trkpt lat="42.36603" lon="0.10537">
        <ele>896.09</ele>
        <time>2014-06-02T12:29:26Z</time>
      </trkpt>
      <trkpt lat="42.36597" lon="0.10539">
        <ele>896.09</ele>
        <time>2014-06-02T12:29:33Z</time>
      </trkpt>
      <trkpt lat="42.36605" lon="0.10535">
        <ele>895.61</ele>
        <time>2014-06-02T12:29:41Z</time>
      </trkpt>
      <trkpt lat="42.36603" lon="0.10535">
        <ele>895.12</ele>
        <time>2014-06-02T12:29:44Z</time>
      </trkpt>
      <trkpt lat="42.36598" lon="0.10533">
        <ele>894.64</ele>
        <time>2014-06-02T12:29:52Z</time>
      </trkpt>
      <trkpt lat="42.36617" lon="0.10545">
        <ele>891.28</ele>
        <time>2014-06-02T12:29:57Z</time>
      </trkpt>
      <trkpt lat="42.36632" lon="0.10545">
        <ele>888.4</ele>
        <time>2014-06-02T12:30:00Z</time>
      </trkpt>
      <trkpt lat="42.36637" lon="0.10542">
        <ele>888.88</ele>
        <time>2014-06-02T12:30:01Z</time>
      </trkpt>
      <trkpt lat="42.36646" lon="0.10535">
        <ele>887.43</ele>
        <time>2014-06-02T12:30:08Z</time>
      </trkpt>
      <trkpt lat="42.36656" lon="0.1053">
        <ele>886.95</ele>
        <time>2014-06-02T12:30:12Z</time>
      </trkpt>
      <trkpt lat="42.36664" lon="0.10523">
        <ele>886.95</ele>
        <time>2014-06-02T12:30:14Z</time>
      </trkpt>
      <trkpt lat="42.36677" lon="0.1052">
        <ele>889.36</ele>
        <time>2014-06-02T12:30:17Z</time>
      </trkpt>
      <trkpt lat="42.36701" lon="0.1051">
        <ele>889.84</ele>
        <time>2014-06-02T12:30:25Z</time>
      </trkpt>
      <trkpt lat="42.36707" lon="0.105">
        <ele>889.36</ele>
        <time>2014-06-02T12:30:27Z</time>
      </trkpt>
      <trkpt lat="42.36729" lon="0.10479">
        <ele>887.91</ele>
        <time>2014-06-02T12:30:32Z</time>
      </trkpt>
      <trkpt lat="42.36735" lon="0.1047">
        <ele>888.4</ele>
        <time>2014-06-02T12:30:38Z</time>
      </trkpt>
      <trkpt lat="42.36736" lon="0.10465">
        <ele>887.91</ele>
        <time>2014-06-02T12:30:44Z</time>
      </trkpt>
      <trkpt lat="42.36737" lon="0.1043">
        <ele>885.03</ele>
        <time>2014-06-02T12:30:49Z</time>
      </trkpt>
      <trkpt lat="42.36725" lon="0.10402">
        <ele>880.71</ele>
        <time>2014-06-02T12:30:53Z</time>
      </trkpt>
      <trkpt lat="42.36727" lon="0.10383">
        <ele>879.74</ele>
        <time>2014-06-02T12:30:57Z</time>
      </trkpt>
      <trkpt lat="42.36751" lon="0.10367">
        <ele>875.42</ele>
        <time>2014-06-02T12:31:04Z</time>
      </trkpt>
      <trkpt lat="42.36757" lon="0.10346">
        <ele>872.05</ele>
        <time>2014-06-02T12:31:07Z</time>
      </trkpt>
      <trkpt lat="42.36765" lon="0.10328">
        <ele>871.09</ele>
        <time>2014-06-02T12:31:11Z</time>
      </trkpt>
      <trkpt lat="42.36769" lon="0.10326">
        <ele>870.13</ele>
        <time>2014-06-02T12:31:15Z</time>
      </trkpt>
      <trkpt lat="42.36785" lon="0.10301">
        <ele>873.98</ele>
        <time>2014-06-02T12:31:27Z</time>
      </trkpt>
      <trkpt lat="42.36785" lon="0.10296">
        <ele>875.42</ele>
        <time>2014-06-02T12:31:29Z</time>
      </trkpt>
      <trkpt lat="42.36785" lon="0.10294">
        <ele>876.38</ele>
        <time>2014-06-02T12:31:30Z</time>
      </trkpt>
      <trkpt lat="42.3679" lon="0.10283">
        <ele>877.82</ele>
        <time>2014-06-02T12:31:44Z</time>
      </trkpt>
      <trkpt lat="42.36789" lon="0.10284">
        <ele>876.38</ele>
        <time>2014-06-02T12:31:57Z</time>
      </trkpt>
      <trkpt lat="42.36786" lon="0.10291">
        <ele>875.42</ele>
        <time>2014-06-02T12:32:02Z</time>
      </trkpt>
      <trkpt lat="42.36787" lon="0.10299">
        <ele>874.46</ele>
        <time>2014-06-02T12:32:05Z</time>
      </trkpt>
      <trkpt lat="42.36787" lon="0.10301">
        <ele>874.46</ele>
        <time>2014-06-02T12:32:22Z</time>
      </trkpt>
      <trkpt lat="42.36787" lon="0.10301">
        <ele>874.46</ele>
        <time>2014-06-02T12:32:26Z</time>
      </trkpt>
      <trkpt lat="42.36787" lon="0.103">
        <ele>874.94</ele>
        <time>2014-06-02T12:32:30Z</time>
      </trkpt>
      <trkpt lat="42.36786" lon="0.10299">
        <ele>874.94</ele>
        <time>2014-06-02T12:32:47Z</time>
      </trkpt>
      <trkpt lat="42.36786" lon="0.10299">
        <ele>875.42</ele>
        <time>2014-06-02T12:33:29Z</time>
      </trkpt>
      <trkpt lat="42.36786" lon="0.10299">
        <ele>875.42</ele>
        <time>2014-06-02T12:34:14Z</time>
      </trkpt>
      <trkpt lat="42.36788" lon="0.10288">
        <ele>877.82</ele>
        <time>2014-06-02T12:34:26Z</time>
      </trkpt>
      <trkpt lat="42.36814" lon="0.10274">
        <ele>876.38</ele>
        <time>2014-06-02T12:34:36Z</time>
      </trkpt>
      <trkpt lat="42.36829" lon="0.10283">
        <ele>878.78</ele>
        <time>2014-06-02T12:34:41Z</time>
      </trkpt>
      <trkpt lat="42.36831" lon="0.10284">
        <ele>879.26</ele>
        <time>2014-06-02T12:34:53Z</time>
      </trkpt>
      <trkpt lat="42.36831" lon="0.10285">
        <ele>878.78</ele>
        <time>2014-06-02T12:35:26Z</time>
      </trkpt>
      <trkpt lat="42.36831" lon="0.10285">
        <ele>879.26</ele>
        <time>2014-06-02T12:35:50Z</time>
      </trkpt>
      <trkpt lat="42.36831" lon="0.10284">
        <ele>878.78</ele>
        <time>2014-06-02T12:36:18Z</time>
      </trkpt>
      <trkpt lat="42.36831" lon="0.10284">
        <ele>879.26</ele>
        <time>2014-06-02T12:36:50Z</time>
      </trkpt>
      <trkpt lat="42.36831" lon="0.10284">
        <ele>879.26</ele>
        <time>2014-06-02T12:37:18Z</time>
      </trkpt>
      <trkpt lat="42.36831" lon="0.10284">
        <ele>879.74</ele>
        <time>2014-06-02T12:37:27Z</time>
      </trkpt>
      <trkpt lat="42.36847" lon="0.10286">
        <ele>879.74</ele>
        <time>2014-06-02T12:37:38Z</time>
      </trkpt>
      <trkpt lat="42.36861" lon="0.10268">
        <ele>879.26</ele>
        <time>2014-06-02T12:37:44Z</time>
      </trkpt>
      <trkpt lat="42.36873" lon="0.10239">
        <ele>876.38</ele>
        <time>2014-06-02T12:37:49Z</time>
      </trkpt>
      <trkpt lat="42.36894" lon="0.10226">
        <ele>876.86</ele>
        <time>2014-06-02T12:37:55Z</time>
      </trkpt>
      <trkpt lat="42.36904" lon="0.10224">
        <ele>876.86</ele>
        <time>2014-06-02T12:37:58Z</time>
      </trkpt>
      <trkpt lat="42.36909" lon="0.10222">
        <ele>877.34</ele>
        <time>2014-06-02T12:38:00Z</time>
      </trkpt>
      <trkpt lat="42.36939" lon="0.10205">
        <ele>876.38</ele>
        <time>2014-06-02T12:38:11Z</time>
      </trkpt>
      <trkpt lat="42.3696" lon="0.10174">
        <ele>875.9</ele>
        <time>2014-06-02T12:38:21Z</time>
      </trkpt>
      <trkpt lat="42.36964" lon="0.10166">
        <ele>875.42</ele>
        <time>2014-06-02T12:38:23Z</time>
      </trkpt>
      <trkpt lat="42.3697" lon="0.1015">
        <ele>874.94</ele>
        <time>2014-06-02T12:38:26Z</time>
      </trkpt>
      <trkpt lat="42.36975" lon="0.10119">
        <ele>872.05</ele>
        <time>2014-06-02T12:38:31Z</time>
      </trkpt>
      <trkpt lat="42.36974" lon="0.10094">
        <ele>869.17</ele>
        <time>2014-06-02T12:38:34Z</time>
      </trkpt>
      <trkpt lat="42.3696" lon="0.10058">
        <ele>865.32</ele>
        <time>2014-06-02T12:38:39Z</time>
      </trkpt>
      <trkpt lat="42.3695" lon="0.10037">
        <ele>862.92</ele>
        <time>2014-06-02T12:38:43Z</time>
      </trkpt>
      <trkpt lat="42.36941" lon="0.10002">
        <ele>858.59</ele>
        <time>2014-06-02T12:38:48Z</time>
      </trkpt>
      <trkpt lat="42.36944" lon="0.0999">
        <ele>860.04</ele>
        <time>2014-06-02T12:38:50Z</time>
      </trkpt>
      <trkpt lat="42.36955" lon="0.09979">
        <ele>863.4</ele>
        <time>2014-06-02T12:38:57Z</time>
      </trkpt>
      <trkpt lat="42.3696" lon="0.09978">
        <ele>863.88</ele>
        <time>2014-06-02T12:39:05Z</time>
      </trkpt>
      <trkpt lat="42.36967" lon="0.09974">
        <ele>864.84</ele>
        <time>2014-06-02T12:39:12Z</time>
      </trkpt>
      <trkpt lat="42.36971" lon="0.09969">
        <ele>866.29</ele>
        <time>2014-06-02T12:39:15Z</time>
      </trkpt>
      <trkpt lat="42.36972" lon="0.09967">
        <ele>867.25</ele>
        <time>2014-06-02T12:39:16Z</time>
      </trkpt>
      <trkpt lat="42.36995" lon="0.09949">
        <ele>868.21</ele>
        <time>2014-06-02T12:39:27Z</time>
      </trkpt>
      <trkpt lat="42.37009" lon="0.09938">
        <ele>868.21</ele>
        <time>2014-06-02T12:39:31Z</time>
      </trkpt>
      <trkpt lat="42.37037" lon="0.09925">
        <ele>866.77</ele>
        <time>2014-06-02T12:39:38Z</time>
      </trkpt>
      <trkpt lat="42.37053" lon="0.09915">
        <ele>865.8</ele>
        <time>2014-06-02T12:39:42Z</time>
      </trkpt>
      <trkpt lat="42.37056" lon="0.09905">
        <ele>867.73</ele>
        <time>2014-06-02T12:39:46Z</time>
      </trkpt>
      <trkpt lat="42.37067" lon="0.09891">
        <ele>867.73</ele>
        <time>2014-06-02T12:39:52Z</time>
      </trkpt>
      <trkpt lat="42.37079" lon="0.09883">
        <ele>867.25</ele>
        <time>2014-06-02T12:39:55Z</time>
      </trkpt>
      <trkpt lat="42.37095" lon="0.09874">
        <ele>867.25</ele>
        <time>2014-06-02T12:39:59Z</time>
      </trkpt>
      <trkpt lat="42.37137" lon="0.09848">
        <ele>868.21</ele>
        <time>2014-06-02T12:40:11Z</time>
      </trkpt>
      <trkpt lat="42.37137" lon="0.09848">
        <ele>867.73</ele>
        <time>2014-06-02T12:40:23Z</time>
      </trkpt>
      <trkpt lat="42.37159" lon="0.09848">
        <ele>862.44</ele>
        <time>2014-06-02T12:40:30Z</time>
      </trkpt>
      <trkpt lat="42.37173" lon="0.09844">
        <ele>858.59</ele>
        <time>2014-06-02T12:40:32Z</time>
      </trkpt>
      <trkpt lat="42.37196" lon="0.09843">
        <ele>855.71</ele>
        <time>2014-06-02T12:40:35Z</time>
      </trkpt>
      <trkpt lat="42.37239" lon="0.09832">
        <ele>853.31</ele>
        <time>2014-06-02T12:40:40Z</time>
      </trkpt>
      <trkpt lat="42.37283" lon="0.09809">
        <ele>849.94</ele>
        <time>2014-06-02T12:40:45Z</time>
      </trkpt>
      <trkpt lat="42.37298" lon="0.09801">
        <ele>848.98</ele>
        <time>2014-06-02T12:40:50Z</time>
      </trkpt>
      <trkpt lat="42.37298" lon="0.09801">
        <ele>849.46</ele>
        <time>2014-06-02T12:40:56Z</time>
      </trkpt>
      <trkpt lat="42.37311" lon="0.09807">
        <ele>846.1</ele>
        <time>2014-06-02T12:41:01Z</time>
      </trkpt>
      <trkpt lat="42.37329" lon="0.09808">
        <ele>842.25</ele>
        <time>2014-06-02T12:41:04Z</time>
      </trkpt>
      <trkpt lat="42.37336" lon="0.09808">
        <ele>841.29</ele>
        <time>2014-06-02T12:41:05Z</time>
      </trkpt>
      <trkpt lat="42.37365" lon="0.09809">
        <ele>839.85</ele>
        <time>2014-06-02T12:41:09Z</time>
      </trkpt>
      <trkpt lat="42.37382" lon="0.09809">
        <ele>840.81</ele>
        <time>2014-06-02T12:41:12Z</time>
      </trkpt>
      <trkpt lat="42.37391" lon="0.09813">
        <ele>841.77</ele>
        <time>2014-06-02T12:41:21Z</time>
      </trkpt>
      <trkpt lat="42.37391" lon="0.09813">
        <ele>841.77</ele>
        <time>2014-06-02T12:41:31Z</time>
      </trkpt>
      <trkpt lat="42.37407" lon="0.09822">
        <ele>839.37</ele>
        <time>2014-06-02T12:41:37Z</time>
      </trkpt>
      <trkpt lat="42.37417" lon="0.09824">
        <ele>838.89</ele>
        <time>2014-06-02T12:41:39Z</time>
      </trkpt>
      <trkpt lat="42.37441" lon="0.09824">
        <ele>838.41</ele>
        <time>2014-06-02T12:41:44Z</time>
      </trkpt>
      <trkpt lat="42.3747" lon="0.09839">
        <ele>835.04</ele>
        <time>2014-06-02T12:41:51Z</time>
      </trkpt>
      <trkpt lat="42.37488" lon="0.09845">
        <ele>832.64</ele>
        <time>2014-06-02T12:41:55Z</time>
      </trkpt>
      <trkpt lat="42.37521" lon="0.09852">
        <ele>831.2</ele>
        <time>2014-06-02T12:42:03Z</time>
      </trkpt>
      <trkpt lat="42.37556" lon="0.09866">
        <ele>834.08</ele>
        <time>2014-06-02T12:42:11Z</time>
      </trkpt>
      <trkpt lat="42.37568" lon="0.09875">
        <ele>833.6</ele>
        <time>2014-06-02T12:42:15Z</time>
      </trkpt>
      <trkpt lat="42.37591" lon="0.09876">
        <ele>834.56</ele>
        <time>2014-06-02T12:42:22Z</time>
      </trkpt>
      <trkpt lat="42.37608" lon="0.09873">
        <ele>832.64</ele>
        <time>2014-06-02T12:42:28Z</time>
      </trkpt>
      <trkpt lat="42.37624" lon="0.09882">
        <ele>828.79</ele>
        <time>2014-06-02T12:42:32Z</time>
      </trkpt>
      <trkpt lat="42.37615" lon="0.09886">
        <ele>826.87</ele>
        <time>2014-06-02T12:42:37Z</time>
      </trkpt>
      <trkpt lat="42.37591" lon="0.09895">
        <ele>824.47</ele>
        <time>2014-06-02T12:42:41Z</time>
      </trkpt>
      <trkpt lat="42.37584" lon="0.09896">
        <ele>823.99</ele>
        <time>2014-06-02T12:42:42Z</time>
      </trkpt>
      <trkpt lat="42.37564" lon="0.09896">
        <ele>823.03</ele>
        <time>2014-06-02T12:42:45Z</time>
      </trkpt>
      <trkpt lat="42.37536" lon="0.09898">
        <ele>820.14</ele>
        <time>2014-06-02T12:42:49Z</time>
      </trkpt>
      <trkpt lat="42.37509" lon="0.09888">
        <ele>814.85</ele>
        <time>2014-06-02T12:42:54Z</time>
      </trkpt>
      <trkpt lat="42.37503" lon="0.09886">
        <ele>814.37</ele>
        <time>2014-06-02T12:42:55Z</time>
      </trkpt>
      <trkpt lat="42.37489" lon="0.09886">
        <ele>812.93</ele>
        <time>2014-06-02T12:42:57Z</time>
      </trkpt>
      <trkpt lat="42.37459" lon="0.09884">
        <ele>811.01</ele>
        <time>2014-06-02T12:43:01Z</time>
      </trkpt>
      <trkpt lat="42.37434" lon="0.09894">
        <ele>807.16</ele>
        <time>2014-06-02T12:43:06Z</time>
      </trkpt>
      <trkpt lat="42.37429" lon="0.09897">
        <ele>805.24</ele>
        <time>2014-06-02T12:43:07Z</time>
      </trkpt>
      <trkpt lat="42.37413" lon="0.09905">
        <ele>802.36</ele>
        <time>2014-06-02T12:43:10Z</time>
      </trkpt>
      <trkpt lat="42.37398" lon="0.09912">
        <ele>801.4</ele>
        <time>2014-06-02T12:43:15Z</time>
      </trkpt>
      <trkpt lat="42.37406" lon="0.09915">
        <ele>799.47</ele>
        <time>2014-06-02T12:43:18Z</time>
      </trkpt>
      <trkpt lat="42.37415" lon="0.09914">
        <ele>797.55</ele>
        <time>2014-06-02T12:43:20Z</time>
      </trkpt>
      <trkpt lat="42.37423" lon="0.09915">
        <ele>796.11</ele>
        <time>2014-06-02T12:43:22Z</time>
      </trkpt>
      <trkpt lat="42.37441" lon="0.09919">
        <ele>793.22</ele>
        <time>2014-06-02T12:43:27Z</time>
      </trkpt>
      <trkpt lat="42.37464" lon="0.09928">
        <ele>789.38</ele>
        <time>2014-06-02T12:43:34Z</time>
      </trkpt>
      <trkpt lat="42.37466" lon="0.09931">
        <ele>788.42</ele>
        <time>2014-06-02T12:43:35Z</time>
      </trkpt>
      <trkpt lat="42.37467" lon="0.09936">
        <ele>787.94</ele>
        <time>2014-06-02T12:43:37Z</time>
      </trkpt>
      <trkpt lat="42.3747" lon="0.0994">
        <ele>786.98</ele>
        <time>2014-06-02T12:43:40Z</time>
      </trkpt>
      <trkpt lat="42.3747" lon="0.09947">
        <ele>784.57</ele>
        <time>2014-06-02T12:43:45Z</time>
      </trkpt>
      <trkpt lat="42.37466" lon="0.09945">
        <ele>783.61</ele>
        <time>2014-06-02T12:43:47Z</time>
      </trkpt>
      <trkpt lat="42.37461" lon="0.09945">
        <ele>783.13</ele>
        <time>2014-06-02T12:43:50Z</time>
      </trkpt>
      <trkpt lat="42.37461" lon="0.09947">
        <ele>782.17</ele>
        <time>2014-06-02T12:43:52Z</time>
      </trkpt>
      <trkpt lat="42.37469" lon="0.09953">
        <ele>780.73</ele>
        <time>2014-06-02T12:43:56Z</time>
      </trkpt>
      <trkpt lat="42.37471" lon="0.09959">
        <ele>780.25</ele>
        <time>2014-06-02T12:43:58Z</time>
      </trkpt>
      <trkpt lat="42.37466" lon="0.0996">
        <ele>779.29</ele>
        <time>2014-06-02T12:44:00Z</time>
      </trkpt>
      <trkpt lat="42.37461" lon="0.09958">
        <ele>778.81</ele>
        <time>2014-06-02T12:44:02Z</time>
      </trkpt>
      <trkpt lat="42.37477" lon="0.0997">
        <ele>775.44</ele>
        <time>2014-06-02T12:44:10Z</time>
      </trkpt>
      <trkpt lat="42.375" lon="0.09971">
        <ele>772.08</ele>
        <time>2014-06-02T12:44:15Z</time>
      </trkpt>
      <trkpt lat="42.37509" lon="0.09978">
        <ele>771.11</ele>
        <time>2014-06-02T12:44:17Z</time>
      </trkpt>
      <trkpt lat="42.37523" lon="0.09994">
        <ele>771.11</ele>
        <time>2014-06-02T12:44:26Z</time>
      </trkpt>
      <trkpt lat="42.37522" lon="0.09993">
        <ele>770.15</ele>
        <time>2014-06-02T12:44:45Z</time>
      </trkpt>
      <trkpt lat="42.37522" lon="0.09993">
        <ele>770.63</ele>
        <time>2014-06-02T12:45:19Z</time>
      </trkpt>
      <trkpt lat="42.37523" lon="0.09994">
        <ele>769.67</ele>
        <time>2014-06-02T12:45:31Z</time>
      </trkpt>
      <trkpt lat="42.37536" lon="0.10019">
        <ele>769.19</ele>
        <time>2014-06-02T12:45:41Z</time>
      </trkpt>
      <trkpt lat="42.37542" lon="0.10023">
        <ele>767.75</ele>
        <time>2014-06-02T12:45:44Z</time>
      </trkpt>
      <trkpt lat="42.37559" lon="0.10005">
        <ele>765.35</ele>
        <time>2014-06-02T12:45:51Z</time>
      </trkpt>
      <trkpt lat="42.37586" lon="0.09988">
        <ele>763.9</ele>
        <time>2014-06-02T12:45:57Z</time>
      </trkpt>
      <trkpt lat="42.37608" lon="0.09995">
        <ele>761.5</ele>
        <time>2014-06-02T12:46:01Z</time>
      </trkpt>
      <trkpt lat="42.37626" lon="0.09998">
        <ele>759.58</ele>
        <time>2014-06-02T12:46:04Z</time>
      </trkpt>
      <trkpt lat="42.37643" lon="0.10013">
        <ele>757.66</ele>
        <time>2014-06-02T12:46:08Z</time>
      </trkpt>
      <trkpt lat="42.37659" lon="0.10056">
        <ele>755.73</ele>
        <time>2014-06-02T12:46:16Z</time>
      </trkpt>
      <trkpt lat="42.37659" lon="0.10061">
        <ele>756.69</ele>
        <time>2014-06-02T12:46:17Z</time>
      </trkpt>
      <trkpt lat="42.37659" lon="0.1007">
        <ele>757.18</ele>
        <time>2014-06-02T12:46:26Z</time>
      </trkpt>
      <trkpt lat="42.37654" lon="0.10105">
        <ele>755.25</ele>
        <time>2014-06-02T12:46:36Z</time>
      </trkpt>
      <trkpt lat="42.37652" lon="0.10107">
        <ele>754.77</ele>
        <time>2014-06-02T12:46:37Z</time>
      </trkpt>
      <trkpt lat="42.37647" lon="0.10108">
        <ele>753.81</ele>
        <time>2014-06-02T12:46:39Z</time>
      </trkpt>
      <trkpt lat="42.37651" lon="0.10125">
        <ele>750.93</ele>
        <time>2014-06-02T12:46:44Z</time>
      </trkpt>
      <trkpt lat="42.37656" lon="0.10133">
        <ele>750.45</ele>
        <time>2014-06-02T12:46:46Z</time>
      </trkpt>
      <trkpt lat="42.37659" lon="0.10136">
        <ele>749.49</ele>
        <time>2014-06-02T12:46:47Z</time>
      </trkpt>
      <trkpt lat="42.37672" lon="0.10144">
        <ele>747.56</ele>
        <time>2014-06-02T12:46:51Z</time>
      </trkpt>
      <trkpt lat="42.37694" lon="0.10133">
        <ele>745.16</ele>
        <time>2014-06-02T12:46:56Z</time>
      </trkpt>
      <trkpt lat="42.37698" lon="0.10125">
        <ele>744.68</ele>
        <time>2014-06-02T12:46:58Z</time>
      </trkpt>
      <trkpt lat="42.37713" lon="0.10114">
        <ele>740.83</ele>
        <time>2014-06-02T12:47:04Z</time>
      </trkpt>
      <trkpt lat="42.37721" lon="0.10123">
        <ele>737.47</ele>
        <time>2014-06-02T12:47:09Z</time>
      </trkpt>
      <trkpt lat="42.37733" lon="0.1013">
        <ele>734.1</ele>
        <time>2014-06-02T12:47:13Z</time>
      </trkpt>
      <trkpt lat="42.37744" lon="0.1013">
        <ele>732.18</ele>
        <time>2014-06-02T12:47:15Z</time>
      </trkpt>
      <trkpt lat="42.37765" lon="0.10152">
        <ele>728.82</ele>
        <time>2014-06-02T12:47:20Z</time>
      </trkpt>
      <trkpt lat="42.37775" lon="0.10177">
        <ele>727.37</ele>
        <time>2014-06-02T12:47:24Z</time>
      </trkpt>
      <trkpt lat="42.37785" lon="0.10205">
        <ele>724.01</ele>
        <time>2014-06-02T12:47:29Z</time>
      </trkpt>
      <trkpt lat="42.37795" lon="0.10237">
        <ele>720.65</ele>
        <time>2014-06-02T12:47:34Z</time>
      </trkpt>
      <trkpt lat="42.37801" lon="0.10314">
        <ele>717.76</ele>
        <time>2014-06-02T12:47:43Z</time>
      </trkpt>
      <trkpt lat="42.37802" lon="0.10345">
        <ele>716.32</ele>
        <time>2014-06-02T12:47:46Z</time>
      </trkpt>
      <trkpt lat="42.37804" lon="0.10394">
        <ele>714.4</ele>
        <time>2014-06-02T12:47:51Z</time>
      </trkpt>
      <trkpt lat="42.37804" lon="0.10445">
        <ele>711.03</ele>
        <time>2014-06-02T12:47:56Z</time>
      </trkpt>
      <trkpt lat="42.37804" lon="0.10455">
        <ele>710.07</ele>
        <time>2014-06-02T12:47:57Z</time>
      </trkpt>
      <trkpt lat="42.37807" lon="0.10473">
        <ele>708.63</ele>
        <time>2014-06-02T12:47:59Z</time>
      </trkpt>
      <trkpt lat="42.37816" lon="0.10513">
        <ele>704.78</ele>
        <time>2014-06-02T12:48:03Z</time>
      </trkpt>
      <trkpt lat="42.3785" lon="0.10557">
        <ele>701.42</ele>
        <time>2014-06-02T12:48:10Z</time>
      </trkpt>
      <trkpt lat="42.37874" lon="0.10576">
        <ele>698.05</ele>
        <time>2014-06-02T12:48:15Z</time>
      </trkpt>
      <trkpt lat="42.3788" lon="0.10578">
        <ele>697.57</ele>
        <time>2014-06-02T12:48:16Z</time>
      </trkpt>
      <trkpt lat="42.37891" lon="0.10583">
        <ele>697.09</ele>
        <time>2014-06-02T12:48:18Z</time>
      </trkpt>
      <trkpt lat="42.37908" lon="0.10586">
        <ele>695.65</ele>
        <time>2014-06-02T12:48:21Z</time>
      </trkpt>
      <trkpt lat="42.37926" lon="0.10598">
        <ele>692.77</ele>
        <time>2014-06-02T12:48:26Z</time>
      </trkpt>
      <trkpt lat="42.37943" lon="0.10613">
        <ele>691.33</ele>
        <time>2014-06-02T12:48:29Z</time>
      </trkpt>
      <trkpt lat="42.37953" lon="0.10625">
        <ele>689.88</ele>
        <time>2014-06-02T12:48:31Z</time>
      </trkpt>
      <trkpt lat="42.37969" lon="0.10637">
        <ele>688.92</ele>
        <time>2014-06-02T12:48:34Z</time>
      </trkpt>
      <trkpt lat="42.37981" lon="0.10643">
        <ele>689.4</ele>
        <time>2014-06-02T12:48:36Z</time>
      </trkpt>
      <trkpt lat="42.37994" lon="0.10662">
        <ele>687.96</ele>
        <time>2014-06-02T12:48:40Z</time>
      </trkpt>
      <trkpt lat="42.38015" lon="0.1067">
        <ele>688.92</ele>
        <time>2014-06-02T12:48:47Z</time>
      </trkpt>
      <trkpt lat="42.38025" lon="0.10652">
        <ele>688.44</ele>
        <time>2014-06-02T12:48:53Z</time>
      </trkpt>
      <trkpt lat="42.38037" lon="0.10639">
        <ele>688.44</ele>
        <time>2014-06-02T12:48:59Z</time>
      </trkpt>
      <trkpt lat="42.3804" lon="0.10639">
        <ele>688.92</ele>
        <time>2014-06-02T12:49:00Z</time>
      </trkpt>
      <trkpt lat="42.3805" lon="0.10645">
        <ele>690.36</ele>
        <time>2014-06-02T12:49:05Z</time>
      </trkpt>
      <trkpt lat="42.38064" lon="0.10656">
        <ele>691.81</ele>
        <time>2014-06-02T12:49:16Z</time>
      </trkpt>
      <trkpt lat="42.38067" lon="0.10656">
        <ele>693.25</ele>
        <time>2014-06-02T12:49:30Z</time>
      </trkpt>
      <trkpt lat="42.38077" lon="0.10656">
        <ele>693.73</ele>
        <time>2014-06-02T12:49:42Z</time>
      </trkpt>
      <trkpt lat="42.3808" lon="0.10657">
        <ele>695.17</ele>
        <time>2014-06-02T12:49:53Z</time>
      </trkpt>
      <trkpt lat="42.38085" lon="0.10655">
        <ele>695.17</ele>
        <time>2014-06-02T12:50:06Z</time>
      </trkpt>
      <trkpt lat="42.38085" lon="0.10655">
        <ele>694.21</ele>
        <time>2014-06-02T12:50:11Z</time>
      </trkpt>
      <trkpt lat="42.38087" lon="0.10654">
        <ele>694.69</ele>
        <time>2014-06-02T12:50:14Z</time>
      </trkpt>
      <trkpt lat="42.38096" lon="0.10656">
        <ele>695.17</ele>
        <time>2014-06-02T12:50:21Z</time>
      </trkpt>
      <trkpt lat="42.38101" lon="0.10656">
        <ele>696.13</ele>
        <time>2014-06-02T12:50:25Z</time>
      </trkpt>
      <trkpt lat="42.38105" lon="0.10654">
        <ele>696.13</ele>
        <time>2014-06-02T12:50:29Z</time>
      </trkpt>
      <trkpt lat="42.38112" lon="0.10647">
        <ele>697.57</ele>
        <time>2014-06-02T12:50:43Z</time>
      </trkpt>
      <trkpt lat="42.38112" lon="0.10647">
        <ele>697.57</ele>
        <time>2014-06-02T12:50:59Z</time>
      </trkpt>
      <trkpt lat="42.38116" lon="0.10645">
        <ele>697.57</ele>
        <time>2014-06-02T12:51:04Z</time>
      </trkpt>
      <trkpt lat="42.3812" lon="0.10641">
        <ele>697.57</ele>
        <time>2014-06-02T12:51:08Z</time>
      </trkpt>
      <trkpt lat="42.38133" lon="0.10632">
        <ele>698.05</ele>
        <time>2014-06-02T12:51:21Z</time>
      </trkpt>
      <trkpt lat="42.38136" lon="0.10625">
        <ele>698.05</ele>
        <time>2014-06-02T12:51:27Z</time>
      </trkpt>
      <trkpt lat="42.38141" lon="0.1062">
        <ele>698.05</ele>
        <time>2014-06-02T12:51:31Z</time>
      </trkpt>
      <trkpt lat="42.38148" lon="0.10614">
        <ele>698.53</ele>
        <time>2014-06-02T12:51:43Z</time>
      </trkpt>
      <trkpt lat="42.38148" lon="0.10613">
        <ele>698.05</ele>
        <time>2014-06-02T12:52:02Z</time>
      </trkpt>
      <trkpt lat="42.38148" lon="0.10613">
        <ele>698.05</ele>
        <time>2014-06-02T12:52:34Z</time>
      </trkpt>
      <trkpt lat="42.38148" lon="0.10613">
        <ele>698.05</ele>
        <time>2014-06-02T12:53:07Z</time>
      </trkpt>
      <trkpt lat="42.38148" lon="0.10613">
        <ele>698.53</ele>
        <time>2014-06-02T12:53:35Z</time>
      </trkpt>
      <trkpt lat="42.38148" lon="0.10613">
        <ele>698.53</ele>
        <time>2014-06-02T12:54:04Z</time>
      </trkpt>
      <trkpt lat="42.38148" lon="0.10613">
        <ele>699.02</ele>
        <time>2014-06-02T12:54:26Z</time>
      </trkpt>
      <trkpt lat="42.38148" lon="0.10613">
        <ele>698.05</ele>
        <time>2014-06-02T12:54:49Z</time>
      </trkpt>
      <trkpt lat="42.38149" lon="0.10614">
        <ele>698.05</ele>
        <time>2014-06-02T12:55:10Z</time>
      </trkpt>
      <trkpt lat="42.38149" lon="0.10614">
        <ele>698.05</ele>
        <time>2014-06-02T12:55:34Z</time>
      </trkpt>
      <trkpt lat="42.38149" lon="0.10614">
        <ele>698.53</ele>
        <time>2014-06-02T12:55:51Z</time>
      </trkpt>
      <trkpt lat="42.38151" lon="0.1061">
        <ele>698.05</ele>
        <time>2014-06-02T12:55:59Z</time>
      </trkpt>
      <trkpt lat="42.38154" lon="0.10609">
        <ele>698.05</ele>
        <time>2014-06-02T12:56:01Z</time>
      </trkpt>
      <trkpt lat="42.38164" lon="0.10612">
        <ele>698.05</ele>
        <time>2014-06-02T12:56:07Z</time>
      </trkpt>
      <trkpt lat="42.38182" lon="0.10605">
        <ele>700.46</ele>
        <time>2014-06-02T12:56:17Z</time>
      </trkpt>
      <trkpt lat="42.38188" lon="0.10607">
        <ele>701.42</ele>
        <time>2014-06-02T12:56:20Z</time>
      </trkpt>
      <trkpt lat="42.3821" lon="0.1061">
        <ele>702.86</ele>
        <time>2014-06-02T12:56:32Z</time>
      </trkpt>
      <trkpt lat="42.38218" lon="0.1061">
        <ele>703.34</ele>
        <time>2014-06-02T12:56:40Z</time>
      </trkpt>
      <trkpt lat="42.38238" lon="0.10602">
        <ele>704.78</ele>
        <time>2014-06-02T12:56:53Z</time>
      </trkpt>
      <trkpt lat="42.38252" lon="0.10594">
        <ele>706.23</ele>
        <time>2014-06-02T12:57:01Z</time>
      </trkpt>
      <trkpt lat="42.38281" lon="0.1059">
        <ele>708.15</ele>
        <time>2014-06-02T12:57:13Z</time>
      </trkpt>
      <trkpt lat="42.38307" lon="0.10599">
        <ele>710.07</ele>
        <time>2014-06-02T12:57:24Z</time>
      </trkpt>
      <trkpt lat="42.38331" lon="0.10604">
        <ele>711.51</ele>
        <time>2014-06-02T12:57:38Z</time>
      </trkpt>
      <trkpt lat="42.38347" lon="0.10613">
        <ele>710.07</ele>
        <time>2014-06-02T12:57:45Z</time>
      </trkpt>
      <trkpt lat="42.38359" lon="0.10613">
        <ele>706.71</ele>
        <time>2014-06-02T12:57:53Z</time>
      </trkpt>
      <trkpt lat="42.38359" lon="0.10614">
        <ele>706.71</ele>
        <time>2014-06-02T12:58:08Z</time>
      </trkpt>
      <trkpt lat="42.38356" lon="0.10633">
        <ele>703.34</ele>
        <time>2014-06-02T12:58:22Z</time>
      </trkpt>
      <trkpt lat="42.38354" lon="0.10639">
        <ele>702.38</ele>
        <time>2014-06-02T12:58:24Z</time>
      </trkpt>
      <trkpt lat="42.38354" lon="0.10643">
        <ele>701.9</ele>
        <time>2014-06-02T12:58:26Z</time>
      </trkpt>
      <trkpt lat="42.38364" lon="0.10661">
        <ele>697.57</ele>
        <time>2014-06-02T12:58:33Z</time>
      </trkpt>
      <trkpt lat="42.3837" lon="0.1067">
        <ele>695.17</ele>
        <time>2014-06-02T12:58:35Z</time>
      </trkpt>
      <trkpt lat="42.38387" lon="0.10679">
        <ele>691.33</ele>
        <time>2014-06-02T12:58:42Z</time>
      </trkpt>
      <trkpt lat="42.38385" lon="0.10684">
        <ele>690.84</ele>
        <time>2014-06-02T12:58:43Z</time>
      </trkpt>
      <trkpt lat="42.38382" lon="0.10691">
        <ele>690.36</ele>
        <time>2014-06-02T12:58:45Z</time>
      </trkpt>
      <trkpt lat="42.38394" lon="0.10709">
        <ele>686.04</ele>
        <time>2014-06-02T12:58:54Z</time>
      </trkpt>
      <trkpt lat="42.38397" lon="0.1071">
        <ele>686.04</ele>
        <time>2014-06-02T12:58:55Z</time>
      </trkpt>
      <trkpt lat="42.38404" lon="0.10714">
        <ele>685.56</ele>
        <time>2014-06-02T12:58:57Z</time>
      </trkpt>
      <trkpt lat="42.38413" lon="0.10717">
        <ele>684.12</ele>
        <time>2014-06-02T12:58:59Z</time>
      </trkpt>
      <trkpt lat="42.38429" lon="0.10719">
        <ele>683.63</ele>
        <time>2014-06-02T12:59:02Z</time>
      </trkpt>
      <trkpt lat="42.38456" lon="0.1072">
        <ele>683.15</ele>
        <time>2014-06-02T12:59:08Z</time>
      </trkpt>
      <trkpt lat="42.38476" lon="0.10709">
        <ele>683.63</ele>
        <time>2014-06-02T12:59:15Z</time>
      </trkpt>
      <trkpt lat="42.38497" lon="0.10717">
        <ele>683.63</ele>
        <time>2014-06-02T12:59:24Z</time>
      </trkpt>
      <trkpt lat="42.38503" lon="0.10734">
        <ele>682.19</ele>
        <time>2014-06-02T12:59:27Z</time>
      </trkpt>
      <trkpt lat="42.38515" lon="0.10765">
        <ele>678.83</ele>
        <time>2014-06-02T12:59:31Z</time>
      </trkpt>
      <trkpt lat="42.38523" lon="0.10783">
        <ele>678.35</ele>
        <time>2014-06-02T12:59:33Z</time>
      </trkpt>
      <trkpt lat="42.3855" lon="0.10834">
        <ele>676.91</ele>
        <time>2014-06-02T12:59:40Z</time>
      </trkpt>
      <trkpt lat="42.38571" lon="0.10851">
        <ele>675.94</ele>
        <time>2014-06-02T12:59:45Z</time>
      </trkpt>
      <trkpt lat="42.38582" lon="0.10854">
        <ele>674.98</ele>
        <time>2014-06-02T12:59:47Z</time>
      </trkpt>
      <trkpt lat="42.38596" lon="0.10856">
        <ele>674.02</ele>
        <time>2014-06-02T12:59:49Z</time>
      </trkpt>
      <trkpt lat="42.3861" lon="0.10855">
        <ele>672.1</ele>
        <time>2014-06-02T12:59:51Z</time>
      </trkpt>
      <trkpt lat="42.3865" lon="0.10847">
        <ele>667.77</ele>
        <time>2014-06-02T12:59:56Z</time>
      </trkpt>
      <trkpt lat="42.38657" lon="0.10852">
        <ele>667.77</ele>
        <time>2014-06-02T12:59:57Z</time>
      </trkpt>
      <trkpt lat="42.38683" lon="0.10846">
        <ele>667.77</ele>
        <time>2014-06-02T13:00:01Z</time>
      </trkpt>
      <trkpt lat="42.38696" lon="0.10848">
        <ele>667.29</ele>
        <time>2014-06-02T13:00:05Z</time>
      </trkpt>
      <trkpt lat="42.38688" lon="0.10865">
        <ele>666.33</ele>
        <time>2014-06-02T13:00:08Z</time>
      </trkpt>
      <trkpt lat="42.38657" lon="0.10887">
        <ele>664.41</ele>
        <time>2014-06-02T13:00:13Z</time>
      </trkpt>
      <trkpt lat="42.38645" lon="0.10896">
        <ele>662.97</ele>
        <time>2014-06-02T13:00:15Z</time>
      </trkpt>
      <trkpt lat="42.38639" lon="0.10914">
        <ele>658.16</ele>
        <time>2014-06-02T13:00:19Z</time>
      </trkpt>
      <trkpt lat="42.38643" lon="0.10921">
        <ele>657.2</ele>
        <time>2014-06-02T13:00:20Z</time>
      </trkpt>
      <trkpt lat="42.38649" lon="0.10939">
        <ele>655.28</ele>
        <time>2014-06-02T13:00:22Z</time>
      </trkpt>
      <trkpt lat="42.38658" lon="0.10967">
        <ele>655.28</ele>
        <time>2014-06-02T13:00:24Z</time>
      </trkpt>
      <trkpt lat="42.38673" lon="0.11005">
        <ele>655.76</ele>
        <time>2014-06-02T13:00:28Z</time>
      </trkpt>
      <trkpt lat="42.387" lon="0.11031">
        <ele>654.8</ele>
        <time>2014-06-02T13:00:32Z</time>
      </trkpt>
      <trkpt lat="42.38718" lon="0.11055">
        <ele>655.28</ele>
        <time>2014-06-02T13:00:35Z</time>
      </trkpt>
      <trkpt lat="42.38727" lon="0.11097">
        <ele>655.76</ele>
        <time>2014-06-02T13:00:40Z</time>
      </trkpt>
      <trkpt lat="42.38735" lon="0.11138">
        <ele>651.91</ele>
        <time>2014-06-02T13:00:44Z</time>
      </trkpt>
      <trkpt lat="42.38736" lon="0.11148">
        <ele>651.43</ele>
        <time>2014-06-02T13:00:45Z</time>
      </trkpt>
      <trkpt lat="42.38736" lon="0.11168">
        <ele>650.47</ele>
        <time>2014-06-02T13:00:47Z</time>
      </trkpt>
      <trkpt lat="42.38748" lon="0.11202">
        <ele>651.91</ele>
        <time>2014-06-02T13:00:51Z</time>
      </trkpt>
      <trkpt lat="42.38759" lon="0.11217">
        <ele>650.47</ele>
        <time>2014-06-02T13:00:53Z</time>
      </trkpt>
      <trkpt lat="42.38781" lon="0.11235">
        <ele>649.03</ele>
        <time>2014-06-02T13:00:56Z</time>
      </trkpt>
      <trkpt lat="42.38796" lon="0.11244">
        <ele>648.07</ele>
        <time>2014-06-02T13:00:58Z</time>
      </trkpt>
      <trkpt lat="42.38816" lon="0.11271">
        <ele>648.55</ele>
        <time>2014-06-02T13:01:02Z</time>
      </trkpt>
      <trkpt lat="42.38859" lon="0.11328">
        <ele>648.07</ele>
        <time>2014-06-02T13:01:11Z</time>
      </trkpt>
      <trkpt lat="42.38883" lon="0.11359">
        <ele>644.7</ele>
        <time>2014-06-02T13:01:15Z</time>
      </trkpt>
      <trkpt lat="42.38904" lon="0.11399">
        <ele>647.59</ele>
        <time>2014-06-02T13:01:20Z</time>
      </trkpt>
      <trkpt lat="42.38927" lon="0.11421">
        <ele>645.18</ele>
        <time>2014-06-02T13:01:24Z</time>
      </trkpt>
      <trkpt lat="42.38945" lon="0.11444">
        <ele>643.74</ele>
        <time>2014-06-02T13:01:27Z</time>
      </trkpt>
      <trkpt lat="42.38976" lon="0.11482">
        <ele>643.74</ele>
        <time>2014-06-02T13:01:33Z</time>
      </trkpt>
      <trkpt lat="42.39035" lon="0.11531">
        <ele>642.78</ele>
        <time>2014-06-02T13:01:43Z</time>
      </trkpt>
      <trkpt lat="42.39072" lon="0.11563">
        <ele>640.38</ele>
        <time>2014-06-02T13:01:49Z</time>
      </trkpt>
      <trkpt lat="42.39106" lon="0.11585">
        <ele>640.86</ele>
        <time>2014-06-02T13:01:54Z</time>
      </trkpt>
      <trkpt lat="42.39188" lon="0.11611">
        <ele>643.74</ele>
        <time>2014-06-02T13:02:07Z</time>
      </trkpt>
      <trkpt lat="42.39212" lon="0.11623">
        <ele>646.14</ele>
        <time>2014-06-02T13:02:14Z</time>
      </trkpt>
      <trkpt lat="42.39245" lon="0.11622">
        <ele>648.55</ele>
        <time>2014-06-02T13:02:26Z</time>
      </trkpt>
      <trkpt lat="42.39286" lon="0.11605">
        <ele>650.95</ele>
        <time>2014-06-02T13:02:41Z</time>
      </trkpt>
      <trkpt lat="42.39321" lon="0.11588">
        <ele>654.8</ele>
        <time>2014-06-02T13:02:55Z</time>
      </trkpt>
      <trkpt lat="42.39354" lon="0.11584">
        <ele>657.2</ele>
        <time>2014-06-02T13:03:09Z</time>
      </trkpt>
      <trkpt lat="42.39383" lon="0.11597">
        <ele>656.24</ele>
        <time>2014-06-02T13:03:20Z</time>
      </trkpt>
      <trkpt lat="42.39391" lon="0.11627">
        <ele>655.76</ele>
        <time>2014-06-02T13:03:26Z</time>
      </trkpt>
      <trkpt lat="42.39401" lon="0.11683">
        <ele>655.28</ele>
        <time>2014-06-02T13:03:36Z</time>
      </trkpt>
      <trkpt lat="42.39417" lon="0.11743">
        <ele>657.2</ele>
        <time>2014-06-02T13:03:47Z</time>
      </trkpt>
      <trkpt lat="42.39435" lon="0.11799">
        <ele>658.64</ele>
        <time>2014-06-02T13:04:02Z</time>
      </trkpt>
      <trkpt lat="42.3945" lon="0.11846">
        <ele>661.52</ele>
        <time>2014-06-02T13:04:17Z</time>
      </trkpt>
      <trkpt lat="42.39453" lon="0.11879">
        <ele>664.89</ele>
        <time>2014-06-02T13:04:30Z</time>
      </trkpt>
      <trkpt lat="42.39454" lon="0.11888">
        <ele>666.33</ele>
        <time>2014-06-02T13:04:34Z</time>
      </trkpt>
      <trkpt lat="42.3945" lon="0.11902">
        <ele>666.81</ele>
        <time>2014-06-02T13:04:41Z</time>
      </trkpt>
      <trkpt lat="42.39437" lon="0.11921">
        <ele>669.22</ele>
        <time>2014-06-02T13:04:53Z</time>
      </trkpt>
      <trkpt lat="42.39433" lon="0.11931">
        <ele>669.7</ele>
        <time>2014-06-02T13:04:58Z</time>
      </trkpt>
      <trkpt lat="42.3943" lon="0.11939">
        <ele>670.66</ele>
        <time>2014-06-02T13:05:02Z</time>
      </trkpt>
      <trkpt lat="42.39428" lon="0.11948">
        <ele>670.66</ele>
        <time>2014-06-02T13:05:06Z</time>
      </trkpt>
      <trkpt lat="42.39423" lon="0.1199">
        <ele>672.1</ele>
        <time>2014-06-02T13:05:23Z</time>
      </trkpt>
      <trkpt lat="42.39426" lon="0.12009">
        <ele>673.06</ele>
        <time>2014-06-02T13:05:37Z</time>
      </trkpt>
      <trkpt lat="42.39426" lon="0.12013">
        <ele>673.06</ele>
        <time>2014-06-02T13:05:49Z</time>
      </trkpt>
      <trkpt lat="42.39426" lon="0.12012">
        <ele>673.06</ele>
        <time>2014-06-02T13:06:06Z</time>
      </trkpt>
      <trkpt lat="42.39426" lon="0.12012">
        <ele>676.42</ele>
        <time>2014-06-02T13:06:20Z</time>
      </trkpt>
      <trkpt lat="42.39426" lon="0.12012">
        <ele>671.62</ele>
        <time>2014-06-02T13:06:21Z</time>
      </trkpt>
      <trkpt lat="42.39426" lon="0.12012">
        <ele>675.94</ele>
        <time>2014-06-02T13:06:25Z</time>
      </trkpt>
      <trkpt lat="42.39426" lon="0.12012">
        <ele>674.98</ele>
        <time>2014-06-02T13:06:26Z</time>
      </trkpt>
      <trkpt lat="42.39426" lon="0.12012">
        <ele>673.06</ele>
        <time>2014-06-02T13:06:28Z</time>
      </trkpt>
      <trkpt lat="42.39426" lon="0.12014">
        <ele>674.02</ele>
        <time>2014-06-02T13:06:47Z</time>
      </trkpt>
      <trkpt lat="42.39427" lon="0.12022">
        <ele>676.42</ele>
        <time>2014-06-02T13:07:02Z</time>
      </trkpt>
      <trkpt lat="42.39431" lon="0.12033">
        <ele>678.35</ele>
        <time>2014-06-02T13:07:15Z</time>
      </trkpt>
      <trkpt lat="42.39433" lon="0.12043">
        <ele>681.23</ele>
        <time>2014-06-02T13:07:29Z</time>
      </trkpt>
      <trkpt lat="42.39433" lon="0.12052">
        <ele>683.63</ele>
        <time>2014-06-02T13:07:43Z</time>
      </trkpt>
      <trkpt lat="42.39435" lon="0.12064">
        <ele>684.12</ele>
        <time>2014-06-02T13:07:56Z</time>
      </trkpt>
      <trkpt lat="42.39439" lon="0.12072">
        <ele>685.56</ele>
        <time>2014-06-02T13:08:07Z</time>
      </trkpt>
      <trkpt lat="42.39442" lon="0.12082">
        <ele>687</ele>
        <time>2014-06-02T13:08:19Z</time>
      </trkpt>
      <trkpt lat="42.39442" lon="0.12083">
        <ele>687.96</ele>
        <time>2014-06-02T13:08:21Z</time>
      </trkpt>
      <trkpt lat="42.39447" lon="0.12098">
        <ele>689.4</ele>
        <time>2014-06-02T13:08:36Z</time>
      </trkpt>
      <trkpt lat="42.39449" lon="0.12109">
        <ele>691.33</ele>
        <time>2014-06-02T13:08:48Z</time>
      </trkpt>
      <trkpt lat="42.39451" lon="0.1212">
        <ele>693.73</ele>
        <time>2014-06-02T13:09:02Z</time>
      </trkpt>
      <trkpt lat="42.39458" lon="0.12127">
        <ele>695.65</ele>
        <time>2014-06-02T13:09:13Z</time>
      </trkpt>
      <trkpt lat="42.39465" lon="0.12136">
        <ele>697.09</ele>
        <time>2014-06-02T13:09:26Z</time>
      </trkpt>
      <trkpt lat="42.39467" lon="0.12141">
        <ele>697.57</ele>
        <time>2014-06-02T13:09:32Z</time>
      </trkpt>
      <trkpt lat="42.39469" lon="0.12142">
        <ele>697.57</ele>
        <time>2014-06-02T13:09:34Z</time>
      </trkpt>
      <trkpt lat="42.39472" lon="0.12146">
        <ele>698.05</ele>
        <time>2014-06-02T13:09:39Z</time>
      </trkpt>
      <trkpt lat="42.39474" lon="0.12149">
        <ele>698.53</ele>
        <time>2014-06-02T13:09:42Z</time>
      </trkpt>
      <trkpt lat="42.39478" lon="0.1216">
        <ele>699.98</ele>
        <time>2014-06-02T13:09:55Z</time>
      </trkpt>
      <trkpt lat="42.39485" lon="0.1217">
        <ele>701.42</ele>
        <time>2014-06-02T13:10:07Z</time>
      </trkpt>
      <trkpt lat="42.39487" lon="0.12175">
        <ele>701.9</ele>
        <time>2014-06-02T13:10:13Z</time>
      </trkpt>
      <trkpt lat="42.39492" lon="0.12179">
        <ele>702.38</ele>
        <time>2014-06-02T13:10:18Z</time>
      </trkpt>
      <trkpt lat="42.39492" lon="0.12191">
        <ele>703.82</ele>
        <time>2014-06-02T13:10:30Z</time>
      </trkpt>
      <trkpt lat="42.39492" lon="0.12191">
        <ele>703.82</ele>
        <time>2014-06-02T13:10:31Z</time>
      </trkpt>
      <trkpt lat="42.39488" lon="0.12199">
        <ele>705.75</ele>
        <time>2014-06-02T13:10:41Z</time>
      </trkpt>
      <trkpt lat="42.3949" lon="0.12204">
        <ele>706.71</ele>
        <time>2014-06-02T13:10:51Z</time>
      </trkpt>
      <trkpt lat="42.39489" lon="0.12208">
        <ele>707.67</ele>
        <time>2014-06-02T13:11:01Z</time>
      </trkpt>
      <trkpt lat="42.39491" lon="0.12209">
        <ele>707.67</ele>
        <time>2014-06-02T13:11:02Z</time>
      </trkpt>
      <trkpt lat="42.39491" lon="0.12223">
        <ele>709.59</ele>
        <time>2014-06-02T13:11:16Z</time>
      </trkpt>
      <trkpt lat="42.39491" lon="0.12233">
        <ele>710.07</ele>
        <time>2014-06-02T13:11:29Z</time>
      </trkpt>
      <trkpt lat="42.39489" lon="0.12244">
        <ele>712.47</ele>
        <time>2014-06-02T13:11:41Z</time>
      </trkpt>
      <trkpt lat="42.39487" lon="0.12254">
        <ele>713.92</ele>
        <time>2014-06-02T13:11:54Z</time>
      </trkpt>
      <trkpt lat="42.39485" lon="0.12265">
        <ele>715.84</ele>
        <time>2014-06-02T13:12:05Z</time>
      </trkpt>
      <trkpt lat="42.39483" lon="0.12276">
        <ele>717.28</ele>
        <time>2014-06-02T13:12:19Z</time>
      </trkpt>
      <trkpt lat="42.39482" lon="0.12282">
        <ele>718.24</ele>
        <time>2014-06-02T13:12:28Z</time>
      </trkpt>
      <trkpt lat="42.39484" lon="0.12288">
        <ele>719.2</ele>
        <time>2014-06-02T13:12:36Z</time>
      </trkpt>
      <trkpt lat="42.39486" lon="0.12303">
        <ele>720.16</ele>
        <time>2014-06-02T13:12:50Z</time>
      </trkpt>
      <trkpt lat="42.39486" lon="0.12309">
        <ele>720.65</ele>
        <time>2014-06-02T13:12:56Z</time>
      </trkpt>
      <trkpt lat="42.39487" lon="0.12325">
        <ele>722.57</ele>
        <time>2014-06-02T13:13:10Z</time>
      </trkpt>
      <trkpt lat="42.39487" lon="0.12334">
        <ele>724.01</ele>
        <time>2014-06-02T13:13:22Z</time>
      </trkpt>
      <trkpt lat="42.39485" lon="0.12343">
        <ele>725.45</ele>
        <time>2014-06-02T13:13:33Z</time>
      </trkpt>
      <trkpt lat="42.39485" lon="0.12348">
        <ele>727.37</ele>
        <time>2014-06-02T13:13:41Z</time>
      </trkpt>
      <trkpt lat="42.3948" lon="0.12356">
        <ele>728.82</ele>
        <time>2014-06-02T13:13:51Z</time>
      </trkpt>
      <trkpt lat="42.39477" lon="0.12364">
        <ele>729.78</ele>
        <time>2014-06-02T13:14:01Z</time>
      </trkpt>
      <trkpt lat="42.39475" lon="0.12373">
        <ele>731.22</ele>
        <time>2014-06-02T13:14:12Z</time>
      </trkpt>
      <trkpt lat="42.39469" lon="0.12381">
        <ele>733.14</ele>
        <time>2014-06-02T13:14:25Z</time>
      </trkpt>
      <trkpt lat="42.39463" lon="0.12388">
        <ele>734.1</ele>
        <time>2014-06-02T13:14:36Z</time>
      </trkpt>
      <trkpt lat="42.39457" lon="0.12397">
        <ele>736.03</ele>
        <time>2014-06-02T13:14:49Z</time>
      </trkpt>
      <trkpt lat="42.39454" lon="0.12404">
        <ele>736.99</ele>
        <time>2014-06-02T13:15:00Z</time>
      </trkpt>
      <trkpt lat="42.39454" lon="0.12415">
        <ele>738.91</ele>
        <time>2014-06-02T13:15:16Z</time>
      </trkpt>
      <trkpt lat="42.39452" lon="0.12422">
        <ele>740.35</ele>
        <time>2014-06-02T13:15:30Z</time>
      </trkpt>
      <trkpt lat="42.39449" lon="0.12433">
        <ele>742.28</ele>
        <time>2014-06-02T13:15:42Z</time>
      </trkpt>
      <trkpt lat="42.39447" lon="0.12443">
        <ele>744.2</ele>
        <time>2014-06-02T13:15:55Z</time>
      </trkpt>
      <trkpt lat="42.39445" lon="0.12447">
        <ele>746.12</ele>
        <time>2014-06-02T13:16:07Z</time>
      </trkpt>
      <trkpt lat="42.39445" lon="0.12449">
        <ele>745.64</ele>
        <time>2014-06-02T13:16:17Z</time>
      </trkpt>
      <trkpt lat="42.39445" lon="0.12452">
        <ele>746.12</ele>
        <time>2014-06-02T13:16:29Z</time>
      </trkpt>
      <trkpt lat="42.39445" lon="0.12457">
        <ele>747.56</ele>
        <time>2014-06-02T13:16:47Z</time>
      </trkpt>
      <trkpt lat="42.39446" lon="0.12463">
        <ele>749</ele>
        <time>2014-06-02T13:16:55Z</time>
      </trkpt>
      <trkpt lat="42.39447" lon="0.12472">
        <ele>750.45</ele>
        <time>2014-06-02T13:17:07Z</time>
      </trkpt>
      <trkpt lat="42.39444" lon="0.12483">
        <ele>751.89</ele>
        <time>2014-06-02T13:17:20Z</time>
      </trkpt>
      <trkpt lat="42.39446" lon="0.12489">
        <ele>751.89</ele>
        <time>2014-06-02T13:17:23Z</time>
      </trkpt>
      <trkpt lat="42.3945" lon="0.12498">
        <ele>753.33</ele>
        <time>2014-06-02T13:17:35Z</time>
      </trkpt>
      <trkpt lat="42.39452" lon="0.12513">
        <ele>755.73</ele>
        <time>2014-06-02T13:17:50Z</time>
      </trkpt>
      <trkpt lat="42.39452" lon="0.12527">
        <ele>757.66</ele>
        <time>2014-06-02T13:18:06Z</time>
      </trkpt>
      <trkpt lat="42.3945" lon="0.12535">
        <ele>759.1</ele>
        <time>2014-06-02T13:18:14Z</time>
      </trkpt>
      <trkpt lat="42.39449" lon="0.12551">
        <ele>761.02</ele>
        <time>2014-06-02T13:18:28Z</time>
      </trkpt>
      <trkpt lat="42.39448" lon="0.12563">
        <ele>762.94</ele>
        <time>2014-06-02T13:18:42Z</time>
      </trkpt>
      <trkpt lat="42.39448" lon="0.12565">
        <ele>763.42</ele>
        <time>2014-06-02T13:18:51Z</time>
      </trkpt>
      <trkpt lat="42.39448" lon="0.12571">
        <ele>763.9</ele>
        <time>2014-06-02T13:18:54Z</time>
      </trkpt>
      <trkpt lat="42.39446" lon="0.12593">
        <ele>765.83</ele>
        <time>2014-06-02T13:19:04Z</time>
      </trkpt>
      <trkpt lat="42.39445" lon="0.12622">
        <ele>769.67</ele>
        <time>2014-06-02T13:19:16Z</time>
      </trkpt>
      <trkpt lat="42.39448" lon="0.12638">
        <ele>771.6</ele>
        <time>2014-06-02T13:19:24Z</time>
      </trkpt>
      <trkpt lat="42.39452" lon="0.12652">
        <ele>774</ele>
        <time>2014-06-02T13:19:34Z</time>
      </trkpt>
      <trkpt lat="42.39446" lon="0.12656">
        <ele>773.52</ele>
        <time>2014-06-02T13:19:46Z</time>
      </trkpt>
      <trkpt lat="42.39446" lon="0.12655">
        <ele>773.52</ele>
        <time>2014-06-02T13:20:24Z</time>
      </trkpt>
      <trkpt lat="42.39446" lon="0.12656">
        <ele>774.48</ele>
        <time>2014-06-02T13:21:01Z</time>
      </trkpt>
      <trkpt lat="42.39446" lon="0.12655">
        <ele>774.48</ele>
        <time>2014-06-02T13:21:11Z</time>
      </trkpt>
      <trkpt lat="42.3945" lon="0.12653">
        <ele>774.48</ele>
        <time>2014-06-02T13:21:21Z</time>
      </trkpt>
      <trkpt lat="42.3945" lon="0.12653">
        <ele>774</ele>
        <time>2014-06-02T13:21:50Z</time>
      </trkpt>
      <trkpt lat="42.3945" lon="0.12653">
        <ele>774</ele>
        <time>2014-06-02T13:22:22Z</time>
      </trkpt>
      <trkpt lat="42.3945" lon="0.12654">
        <ele>775.44</ele>
        <time>2014-06-02T13:22:35Z</time>
      </trkpt>
      <trkpt lat="42.3945" lon="0.12652">
        <ele>774.96</ele>
        <time>2014-06-02T13:22:58Z</time>
      </trkpt>
      <trkpt lat="42.3945" lon="0.12652">
        <ele>774.96</ele>
        <time>2014-06-02T13:23:21Z</time>
      </trkpt>
      <trkpt lat="42.3945" lon="0.12652">
        <ele>775.44</ele>
        <time>2014-06-02T13:23:41Z</time>
      </trkpt>
      <trkpt lat="42.39453" lon="0.12654">
        <ele>775.44</ele>
        <time>2014-06-02T13:23:54Z</time>
      </trkpt>
      <trkpt lat="42.39453" lon="0.12654">
        <ele>775.44</ele>
        <time>2014-06-02T13:24:23Z</time>
      </trkpt>
      <trkpt lat="42.39453" lon="0.12655">
        <ele>774.96</ele>
        <time>2014-06-02T13:24:41Z</time>
      </trkpt>
      <trkpt lat="42.3947" lon="0.12663">
        <ele>770.63</ele>
        <time>2014-06-02T13:24:48Z</time>
      </trkpt>
      <trkpt lat="42.39489" lon="0.12667">
        <ele>767.75</ele>
        <time>2014-06-02T13:24:52Z</time>
      </trkpt>
      <trkpt lat="42.3951" lon="0.12666">
        <ele>765.35</ele>
        <time>2014-06-02T13:24:56Z</time>
      </trkpt>
      <trkpt lat="42.39543" lon="0.12675">
        <ele>761.98</ele>
        <time>2014-06-02T13:25:02Z</time>
      </trkpt>
      <trkpt lat="42.39552" lon="0.12681">
        <ele>760.54</ele>
        <time>2014-06-02T13:25:04Z</time>
      </trkpt>
      <trkpt lat="42.39565" lon="0.12699">
        <ele>757.18</ele>
        <time>2014-06-02T13:25:07Z</time>
      </trkpt>
      <trkpt lat="42.39573" lon="0.12705">
        <ele>755.73</ele>
        <time>2014-06-02T13:25:09Z</time>
      </trkpt>
      <trkpt lat="42.39588" lon="0.12713">
        <ele>753.33</ele>
        <time>2014-06-02T13:25:13Z</time>
      </trkpt>
      <trkpt lat="42.39625" lon="0.12716">
        <ele>751.89</ele>
        <time>2014-06-02T13:25:20Z</time>
      </trkpt>
      <trkpt lat="42.39648" lon="0.12739">
        <ele>749</ele>
        <time>2014-06-02T13:25:26Z</time>
      </trkpt>
      <trkpt lat="42.39657" lon="0.12745">
        <ele>747.56</ele>
        <time>2014-06-02T13:25:28Z</time>
      </trkpt>
      <trkpt lat="42.39661" lon="0.1276">
        <ele>744.2</ele>
        <time>2014-06-02T13:25:30Z</time>
      </trkpt>
      <trkpt lat="42.39657" lon="0.12783">
        <ele>740.35</ele>
        <time>2014-06-02T13:25:34Z</time>
      </trkpt>
      <trkpt lat="42.39645" lon="0.12793">
        <ele>737.95</ele>
        <time>2014-06-02T13:25:37Z</time>
      </trkpt>
      <trkpt lat="42.39643" lon="0.12794">
        <ele>738.91</ele>
        <time>2014-06-02T13:25:40Z</time>
      </trkpt>
      <trkpt lat="42.39651" lon="0.12791">
        <ele>738.43</ele>
        <time>2014-06-02T13:25:55Z</time>
      </trkpt>
      <trkpt lat="42.39677" lon="0.12778">
        <ele>737.47</ele>
        <time>2014-06-02T13:26:05Z</time>
      </trkpt>
      <trkpt lat="42.39713" lon="0.1277">
        <ele>737.95</ele>
        <time>2014-06-02T13:26:16Z</time>
      </trkpt>
      <trkpt lat="42.3973" lon="0.12763">
        <ele>739.39</ele>
        <time>2014-06-02T13:26:23Z</time>
      </trkpt>
      <trkpt lat="42.39746" lon="0.12753">
        <ele>740.83</ele>
        <time>2014-06-02T13:26:31Z</time>
      </trkpt>
      <trkpt lat="42.39768" lon="0.12742">
        <ele>741.31</ele>
        <time>2014-06-02T13:26:40Z</time>
      </trkpt>
      <trkpt lat="42.39791" lon="0.12747">
        <ele>743.24</ele>
        <time>2014-06-02T13:26:50Z</time>
      </trkpt>
      <trkpt lat="42.39809" lon="0.12751">
        <ele>744.68</ele>
        <time>2014-06-02T13:27:00Z</time>
      </trkpt>
      <trkpt lat="42.39822" lon="0.12756">
        <ele>746.6</ele>
        <time>2014-06-02T13:27:08Z</time>
      </trkpt>
      <trkpt lat="42.39838" lon="0.1275">
        <ele>749.97</ele>
        <time>2014-06-02T13:27:16Z</time>
      </trkpt>
      <trkpt lat="42.39848" lon="0.12746">
        <ele>751.89</ele>
        <time>2014-06-02T13:27:21Z</time>
      </trkpt>
      <trkpt lat="42.39868" lon="0.12742">
        <ele>755.25</ele>
        <time>2014-06-02T13:27:32Z</time>
      </trkpt>
      <trkpt lat="42.39871" lon="0.12741">
        <ele>756.21</ele>
        <time>2014-06-02T13:27:34Z</time>
      </trkpt>
      <trkpt lat="42.39873" lon="0.1274">
        <ele>756.21</ele>
        <time>2014-06-02T13:27:36Z</time>
      </trkpt>
      <trkpt lat="42.39889" lon="0.12736">
        <ele>758.14</ele>
        <time>2014-06-02T13:27:46Z</time>
      </trkpt>
      <trkpt lat="42.39893" lon="0.12735">
        <ele>758.14</ele>
        <time>2014-06-02T13:27:48Z</time>
      </trkpt>
      <trkpt lat="42.39915" lon="0.12731">
        <ele>760.54</ele>
        <time>2014-06-02T13:27:59Z</time>
      </trkpt>
      <trkpt lat="42.39935" lon="0.1272">
        <ele>761.5</ele>
        <time>2014-06-02T13:28:10Z</time>
      </trkpt>
      <trkpt lat="42.39964" lon="0.1269">
        <ele>760.06</ele>
        <time>2014-06-02T13:28:20Z</time>
      </trkpt>
      <trkpt lat="42.39979" lon="0.12681">
        <ele>760.06</ele>
        <time>2014-06-02T13:28:25Z</time>
      </trkpt>
      <trkpt lat="42.39984" lon="0.12675">
        <ele>761.5</ele>
        <time>2014-06-02T13:28:28Z</time>
      </trkpt>
      <trkpt lat="42.40006" lon="0.12659">
        <ele>764.39</ele>
        <time>2014-06-02T13:28:37Z</time>
      </trkpt>
      <trkpt lat="42.40026" lon="0.12644">
        <ele>766.31</ele>
        <time>2014-06-02T13:28:45Z</time>
      </trkpt>
      <trkpt lat="42.40045" lon="0.12651">
        <ele>763.42</ele>
        <time>2014-06-02T13:28:50Z</time>
      </trkpt>
      <trkpt lat="42.40067" lon="0.12649">
        <ele>760.06</ele>
        <time>2014-06-02T13:28:54Z</time>
      </trkpt>
      <trkpt lat="42.40073" lon="0.12646">
        <ele>759.1</ele>
        <time>2014-06-02T13:28:55Z</time>
      </trkpt>
      <trkpt lat="42.40081" lon="0.12638">
        <ele>757.66</ele>
        <time>2014-06-02T13:28:58Z</time>
      </trkpt>
      <trkpt lat="42.40098" lon="0.12609">
        <ele>759.1</ele>
        <time>2014-06-02T13:29:11Z</time>
      </trkpt>
      <trkpt lat="42.40102" lon="0.12599">
        <ele>760.54</ele>
        <time>2014-06-02T13:29:15Z</time>
      </trkpt>
      <trkpt lat="42.40106" lon="0.12587">
        <ele>761.5</ele>
        <time>2014-06-02T13:29:20Z</time>
      </trkpt>
      <trkpt lat="42.40111" lon="0.12581">
        <ele>761.98</ele>
        <time>2014-06-02T13:29:25Z</time>
      </trkpt>
      <trkpt lat="42.40142" lon="0.12571">
        <ele>764.87</ele>
        <time>2014-06-02T13:29:39Z</time>
      </trkpt>
      <trkpt lat="42.40149" lon="0.12584">
        <ele>766.31</ele>
        <time>2014-06-02T13:29:46Z</time>
      </trkpt>
      <trkpt lat="42.40173" lon="0.12592">
        <ele>770.15</ele>
        <time>2014-06-02T13:30:00Z</time>
      </trkpt>
      <trkpt lat="42.40194" lon="0.12575">
        <ele>772.56</ele>
        <time>2014-06-02T13:30:14Z</time>
      </trkpt>
      <trkpt lat="42.40209" lon="0.12557">
        <ele>774.48</ele>
        <time>2014-06-02T13:30:27Z</time>
      </trkpt>
      <trkpt lat="42.40214" lon="0.12549">
        <ele>774</ele>
        <time>2014-06-02T13:30:30Z</time>
      </trkpt>
      <trkpt lat="42.40235" lon="0.12552">
        <ele>773.52</ele>
        <time>2014-06-02T13:30:39Z</time>
      </trkpt>
      <trkpt lat="42.40243" lon="0.12559">
        <ele>774.96</ele>
        <time>2014-06-02T13:30:43Z</time>
      </trkpt>
      <trkpt lat="42.40249" lon="0.12566">
        <ele>775.92</ele>
        <time>2014-06-02T13:30:47Z</time>
      </trkpt>
      <trkpt lat="42.40261" lon="0.12597">
        <ele>777.36</ele>
        <time>2014-06-02T13:30:59Z</time>
      </trkpt>
      <trkpt lat="42.40254" lon="0.12643">
        <ele>778.32</ele>
        <time>2014-06-02T13:31:14Z</time>
      </trkpt>
      <trkpt lat="42.40235" lon="0.12702">
        <ele>779.77</ele>
        <time>2014-06-02T13:31:30Z</time>
      </trkpt>
      <trkpt lat="42.40233" lon="0.12737">
        <ele>779.77</ele>
        <time>2014-06-02T13:31:42Z</time>
      </trkpt>
      <trkpt lat="42.40233" lon="0.12736">
        <ele>779.77</ele>
        <time>2014-06-02T13:31:51Z</time>
      </trkpt>
      <trkpt lat="42.40234" lon="0.12738">
        <ele>778.81</ele>
        <time>2014-06-02T13:32:03Z</time>
      </trkpt>
      <trkpt lat="42.40234" lon="0.12738">
        <ele>779.29</ele>
        <time>2014-06-02T13:32:12Z</time>
      </trkpt>
      <trkpt lat="42.40241" lon="0.1275">
        <ele>777.84</ele>
        <time>2014-06-02T13:32:16Z</time>
      </trkpt>
      <trkpt lat="42.40247" lon="0.12758">
        <ele>777.84</ele>
        <time>2014-06-02T13:32:18Z</time>
      </trkpt>
      <trkpt lat="42.40294" lon="0.12797">
        <ele>778.32</ele>
        <time>2014-06-02T13:32:31Z</time>
      </trkpt>
      <trkpt lat="42.40304" lon="0.12805">
        <ele>778.32</ele>
        <time>2014-06-02T13:32:34Z</time>
      </trkpt>
      <trkpt lat="42.4031" lon="0.12804">
        <ele>779.77</ele>
        <time>2014-06-02T13:32:37Z</time>
      </trkpt>
      <trkpt lat="42.40312" lon="0.12803">
        <ele>779.29</ele>
        <time>2014-06-02T13:32:50Z</time>
      </trkpt>
      <trkpt lat="42.40312" lon="0.12803">
        <ele>779.77</ele>
        <time>2014-06-02T13:33:10Z</time>
      </trkpt>
      <trkpt lat="42.40312" lon="0.12803">
        <ele>779.29</ele>
        <time>2014-06-02T13:33:16Z</time>
      </trkpt>
      <trkpt lat="42.40302" lon="0.12829">
        <ele>777.84</ele>
        <time>2014-06-02T13:33:25Z</time>
      </trkpt>
      <trkpt lat="42.40297" lon="0.1286">
        <ele>777.84</ele>
        <time>2014-06-02T13:33:31Z</time>
      </trkpt>
      <trkpt lat="42.40288" lon="0.12908">
        <ele>774</ele>
        <time>2014-06-02T13:33:38Z</time>
      </trkpt>
      <trkpt lat="42.40274" lon="0.12949">
        <ele>768.71</ele>
        <time>2014-06-02T13:33:42Z</time>
      </trkpt>
      <trkpt lat="42.40263" lon="0.12981">
        <ele>765.83</ele>
        <time>2014-06-02T13:33:45Z</time>
      </trkpt>
      <trkpt lat="42.40255" lon="0.13001">
        <ele>762.94</ele>
        <time>2014-06-02T13:33:47Z</time>
      </trkpt>
      <trkpt lat="42.40238" lon="0.13024">
        <ele>758.62</ele>
        <time>2014-06-02T13:33:50Z</time>
      </trkpt>
      <trkpt lat="42.40233" lon="0.1303">
        <ele>758.14</ele>
        <time>2014-06-02T13:33:51Z</time>
      </trkpt>
      <trkpt lat="42.40233" lon="0.1305">
        <ele>754.77</ele>
        <time>2014-06-02T13:33:55Z</time>
      </trkpt>
      <trkpt lat="42.40251" lon="0.13054">
        <ele>755.73</ele>
        <time>2014-06-02T13:34:01Z</time>
      </trkpt>
      <trkpt lat="42.40264" lon="0.1307">
        <ele>756.21</ele>
        <time>2014-06-02T13:34:06Z</time>
      </trkpt>
      <trkpt lat="42.40281" lon="0.13072">
        <ele>760.06</ele>
        <time>2014-06-02T13:34:12Z</time>
      </trkpt>
      <trkpt lat="42.40301" lon="0.13058">
        <ele>760.54</ele>
        <time>2014-06-02T13:34:24Z</time>
      </trkpt>
      <trkpt lat="42.40305" lon="0.13077">
        <ele>757.18</ele>
        <time>2014-06-02T13:34:30Z</time>
      </trkpt>
      <trkpt lat="42.403" lon="0.13105">
        <ele>752.85</ele>
        <time>2014-06-02T13:34:36Z</time>
      </trkpt>
      <trkpt lat="42.40297" lon="0.13127">
        <ele>748.52</ele>
        <time>2014-06-02T13:34:41Z</time>
      </trkpt>
      <trkpt lat="42.40298" lon="0.13134">
        <ele>746.6</ele>
        <time>2014-06-02T13:34:44Z</time>
      </trkpt>
      <trkpt lat="42.40306" lon="0.13118">
        <ele>742.76</ele>
        <time>2014-06-02T13:34:49Z</time>
      </trkpt>
      <trkpt lat="42.40316" lon="0.13114">
        <ele>740.35</ele>
        <time>2014-06-02T13:34:52Z</time>
      </trkpt>
      <trkpt lat="42.40318" lon="0.13113">
        <ele>739.87</ele>
        <time>2014-06-02T13:34:53Z</time>
      </trkpt>
      <trkpt lat="42.40329" lon="0.13103">
        <ele>737.47</ele>
        <time>2014-06-02T13:34:55Z</time>
      </trkpt>
      <trkpt lat="42.40338" lon="0.13092">
        <ele>734.58</ele>
        <time>2014-06-02T13:34:57Z</time>
      </trkpt>
      <trkpt lat="42.40349" lon="0.13075">
        <ele>731.22</ele>
        <time>2014-06-02T13:35:00Z</time>
      </trkpt>
      <trkpt lat="42.40354" lon="0.13066">
        <ele>729.3</ele>
        <time>2014-06-02T13:35:01Z</time>
      </trkpt>
      <trkpt lat="42.40375" lon="0.13042">
        <ele>724.97</ele>
        <time>2014-06-02T13:35:05Z</time>
      </trkpt>
      <trkpt lat="42.4038" lon="0.13036">
        <ele>724.49</ele>
        <time>2014-06-02T13:35:06Z</time>
      </trkpt>
      <trkpt lat="42.40401" lon="0.13009">
        <ele>720.16</ele>
        <time>2014-06-02T13:35:10Z</time>
      </trkpt>
      <trkpt lat="42.40412" lon="0.12995">
        <ele>716.32</ele>
        <time>2014-06-02T13:35:12Z</time>
      </trkpt>
      <trkpt lat="42.40414" lon="0.12991">
        <ele>715.36</ele>
        <time>2014-06-02T13:35:13Z</time>
      </trkpt>
      <trkpt lat="42.40421" lon="0.12984">
        <ele>711.99</ele>
        <time>2014-06-02T13:35:15Z</time>
      </trkpt>
      <trkpt lat="42.4043" lon="0.12977">
        <ele>709.11</ele>
        <time>2014-06-02T13:35:17Z</time>
      </trkpt>
      <trkpt lat="42.40442" lon="0.12968">
        <ele>704.3</ele>
        <time>2014-06-02T13:35:20Z</time>
      </trkpt>
      <trkpt lat="42.40448" lon="0.12967">
        <ele>704.3</ele>
        <time>2014-06-02T13:35:21Z</time>
      </trkpt>
      <trkpt lat="42.40472" lon="0.12974">
        <ele>700.94</ele>
        <time>2014-06-02T13:35:26Z</time>
      </trkpt>
      <trkpt lat="42.40476" lon="0.12975">
        <ele>700.46</ele>
        <time>2014-06-02T13:35:27Z</time>
      </trkpt>
      <trkpt lat="42.40481" lon="0.12986">
        <ele>698.53</ele>
        <time>2014-06-02T13:35:40Z</time>
      </trkpt>
      <trkpt lat="42.40482" lon="0.12988">
        <ele>699.02</ele>
        <time>2014-06-02T13:35:42Z</time>
      </trkpt>
      <trkpt lat="42.40491" lon="0.13007">
        <ele>695.65</ele>
        <time>2014-06-02T13:35:46Z</time>
      </trkpt>
      <trkpt lat="42.4051" lon="0.13026">
        <ele>690.36</ele>
        <time>2014-06-02T13:35:50Z</time>
      </trkpt>
      <trkpt lat="42.40533" lon="0.13018">
        <ele>685.08</ele>
        <time>2014-06-02T13:35:55Z</time>
      </trkpt>
      <trkpt lat="42.40547" lon="0.13024">
        <ele>680.75</ele>
        <time>2014-06-02T13:36:01Z</time>
      </trkpt>
      <trkpt lat="42.40553" lon="0.13021">
        <ele>676.91</ele>
        <time>2014-06-02T13:36:05Z</time>
      </trkpt>
      <trkpt lat="42.40555" lon="0.13032">
        <ele>673.54</ele>
        <time>2014-06-02T13:36:08Z</time>
      </trkpt>
      <trkpt lat="42.40549" lon="0.13045">
        <ele>670.66</ele>
        <time>2014-06-02T13:36:11Z</time>
      </trkpt>
      <trkpt lat="42.40553" lon="0.13047">
        <ele>669.22</ele>
        <time>2014-06-02T13:36:13Z</time>
      </trkpt>
      <trkpt lat="42.40559" lon="0.13049">
        <ele>666.33</ele>
        <time>2014-06-02T13:36:15Z</time>
      </trkpt>
      <trkpt lat="42.40561" lon="0.13061">
        <ele>661.52</ele>
        <time>2014-06-02T13:36:18Z</time>
      </trkpt>
      <trkpt lat="42.40567" lon="0.13068">
        <ele>658.16</ele>
        <time>2014-06-02T13:36:23Z</time>
      </trkpt>
      <trkpt lat="42.40565" lon="0.13078">
        <ele>656.24</ele>
        <time>2014-06-02T13:36:25Z</time>
      </trkpt>
      <trkpt lat="42.40564" lon="0.13083">
        <ele>654.8</ele>
        <time>2014-06-02T13:36:26Z</time>
      </trkpt>
      <trkpt lat="42.40574" lon="0.13102">
        <ele>653.35</ele>
        <time>2014-06-02T13:36:28Z</time>
      </trkpt>
      <trkpt lat="42.40584" lon="0.13113">
        <ele>651.91</ele>
        <time>2014-06-02T13:36:30Z</time>
      </trkpt>
      <trkpt lat="42.4061" lon="0.13129">
        <ele>648.55</ele>
        <time>2014-06-02T13:36:34Z</time>
      </trkpt>
      <trkpt lat="42.40616" lon="0.1313">
        <ele>648.07</ele>
        <time>2014-06-02T13:36:35Z</time>
      </trkpt>
      <trkpt lat="42.40638" lon="0.13131">
        <ele>645.66</ele>
        <time>2014-06-02T13:36:39Z</time>
      </trkpt>
      <trkpt lat="42.40648" lon="0.13133">
        <ele>641.34</ele>
        <time>2014-06-02T13:36:44Z</time>
      </trkpt>
      <trkpt lat="42.40647" lon="0.13136">
        <ele>641.34</ele>
        <time>2014-06-02T13:36:52Z</time>
      </trkpt>
      <trkpt lat="42.40623" lon="0.13157">
        <ele>636.53</ele>
        <time>2014-06-02T13:36:59Z</time>
      </trkpt>
      <trkpt lat="42.40618" lon="0.13159">
        <ele>635.09</ele>
        <time>2014-06-02T13:37:00Z</time>
      </trkpt>
      <trkpt lat="42.40599" lon="0.13161">
        <ele>631.72</ele>
        <time>2014-06-02T13:37:03Z</time>
      </trkpt>
      <trkpt lat="42.40582" lon="0.13162">
        <ele>629.8</ele>
        <time>2014-06-02T13:37:06Z</time>
      </trkpt>
      <trkpt lat="42.40572" lon="0.13167">
        <ele>625.47</ele>
        <time>2014-06-02T13:37:11Z</time>
      </trkpt>
      <trkpt lat="42.40578" lon="0.13174">
        <ele>623.55</ele>
        <time>2014-06-02T13:37:13Z</time>
      </trkpt>
      <trkpt lat="42.40587" lon="0.13177">
        <ele>622.11</ele>
        <time>2014-06-02T13:37:15Z</time>
      </trkpt>
      <trkpt lat="42.40603" lon="0.13191">
        <ele>617.78</ele>
        <time>2014-06-02T13:37:19Z</time>
      </trkpt>
      <trkpt lat="42.40608" lon="0.13197">
        <ele>615.38</ele>
        <time>2014-06-02T13:37:21Z</time>
      </trkpt>
      <trkpt lat="42.40625" lon="0.13214">
        <ele>609.61</ele>
        <time>2014-06-02T13:37:26Z</time>
      </trkpt>
      <trkpt lat="42.40627" lon="0.13232">
        <ele>605.29</ele>
        <time>2014-06-02T13:37:32Z</time>
      </trkpt>
      <trkpt lat="42.40639" lon="0.1324">
        <ele>600.96</ele>
        <time>2014-06-02T13:37:36Z</time>
      </trkpt>
      <trkpt lat="42.40639" lon="0.13245">
        <ele>599.52</ele>
        <time>2014-06-02T13:37:37Z</time>
      </trkpt>
      <trkpt lat="42.40639" lon="0.13247">
        <ele>599.52</ele>
        <time>2014-06-02T13:37:38Z</time>
      </trkpt>
      <trkpt lat="42.40647" lon="0.13256">
        <ele>595.67</ele>
        <time>2014-06-02T13:37:42Z</time>
      </trkpt>
      <trkpt lat="42.40649" lon="0.1326">
        <ele>595.67</ele>
        <time>2014-06-02T13:37:43Z</time>
      </trkpt>
      <trkpt lat="42.40656" lon="0.13281">
        <ele>592.31</ele>
        <time>2014-06-02T13:37:48Z</time>
      </trkpt>
      <trkpt lat="42.40658" lon="0.13284">
        <ele>592.31</ele>
        <time>2014-06-02T13:37:49Z</time>
      </trkpt>
      <trkpt lat="42.40663" lon="0.13299">
        <ele>588.95</ele>
        <time>2014-06-02T13:37:53Z</time>
      </trkpt>
      <trkpt lat="42.40668" lon="0.13306">
        <ele>587.98</ele>
        <time>2014-06-02T13:37:55Z</time>
      </trkpt>
      <trkpt lat="42.40678" lon="0.13341">
        <ele>581.73</ele>
        <time>2014-06-02T13:38:01Z</time>
      </trkpt>
      <trkpt lat="42.40677" lon="0.13346">
        <ele>581.25</ele>
        <time>2014-06-02T13:38:02Z</time>
      </trkpt>
      <trkpt lat="42.4067" lon="0.13352">
        <ele>579.33</ele>
        <time>2014-06-02T13:38:06Z</time>
      </trkpt>
      <trkpt lat="42.40667" lon="0.13352">
        <ele>580.77</ele>
        <time>2014-06-02T13:38:08Z</time>
      </trkpt>
      <trkpt lat="42.40667" lon="0.13353">
        <ele>580.77</ele>
        <time>2014-06-02T13:38:09Z</time>
      </trkpt>
      <trkpt lat="42.40677" lon="0.13382">
        <ele>580.77</ele>
        <time>2014-06-02T13:38:16Z</time>
      </trkpt>
      <trkpt lat="42.40689" lon="0.13405">
        <ele>579.33</ele>
        <time>2014-06-02T13:38:20Z</time>
      </trkpt>
      <trkpt lat="42.40703" lon="0.13441">
        <ele>573.08</ele>
        <time>2014-06-02T13:38:25Z</time>
      </trkpt>
      <trkpt lat="42.40714" lon="0.13454">
        <ele>572.12</ele>
        <time>2014-06-02T13:38:32Z</time>
      </trkpt>
      <trkpt lat="42.40715" lon="0.13452">
        <ele>571.64</ele>
        <time>2014-06-02T13:38:45Z</time>
      </trkpt>
      <trkpt lat="42.40715" lon="0.13453">
        <ele>572.12</ele>
        <time>2014-06-02T13:39:04Z</time>
      </trkpt>
      <trkpt lat="42.40715" lon="0.13453">
        <ele>572.12</ele>
        <time>2014-06-02T13:39:26Z</time>
      </trkpt>
      <trkpt lat="42.40716" lon="0.13453">
        <ele>571.64</ele>
        <time>2014-06-02T13:39:52Z</time>
      </trkpt>
      <trkpt lat="42.40717" lon="0.13453">
        <ele>571.16</ele>
        <time>2014-06-02T13:40:17Z</time>
      </trkpt>
      <trkpt lat="42.4072" lon="0.13451">
        <ele>571.64</ele>
        <time>2014-06-02T13:40:19Z</time>
      </trkpt>
      <trkpt lat="42.40727" lon="0.13453">
        <ele>570.68</ele>
        <time>2014-06-02T13:40:21Z</time>
      </trkpt>
      <trkpt lat="42.40757" lon="0.13471">
        <ele>567.32</ele>
        <time>2014-06-02T13:40:27Z</time>
      </trkpt>
      <trkpt lat="42.40803" lon="0.13487">
        <ele>564.91</ele>
        <time>2014-06-02T13:40:34Z</time>
      </trkpt>
      <trkpt lat="42.40822" lon="0.13501">
        <ele>562.99</ele>
        <time>2014-06-02T13:40:37Z</time>
      </trkpt>
      <trkpt lat="42.40835" lon="0.13511">
        <ele>561.55</ele>
        <time>2014-06-02T13:40:39Z</time>
      </trkpt>
      <trkpt lat="42.409" lon="0.13549">
        <ele>558.18</ele>
        <time>2014-06-02T13:40:48Z</time>
      </trkpt>
      <trkpt lat="42.40938" lon="0.13573">
        <ele>556.74</ele>
        <time>2014-06-02T13:40:53Z</time>
      </trkpt>
      <trkpt lat="42.40954" lon="0.13582">
        <ele>555.78</ele>
        <time>2014-06-02T13:40:55Z</time>
      </trkpt>
      <trkpt lat="42.40976" lon="0.13596">
        <ele>555.3</ele>
        <time>2014-06-02T13:40:58Z</time>
      </trkpt>
      <trkpt lat="42.41005" lon="0.13606">
        <ele>555.3</ele>
        <time>2014-06-02T13:41:02Z</time>
      </trkpt>
      <trkpt lat="42.41039" lon="0.13618">
        <ele>553.38</ele>
        <time>2014-06-02T13:41:07Z</time>
      </trkpt>
      <trkpt lat="42.4108" lon="0.13619">
        <ele>552.41</ele>
        <time>2014-06-02T13:41:13Z</time>
      </trkpt>
      <trkpt lat="42.41099" lon="0.1361">
        <ele>551.93</ele>
        <time>2014-06-02T13:41:16Z</time>
      </trkpt>
      <trkpt lat="42.41129" lon="0.13607">
        <ele>546.17</ele>
        <time>2014-06-02T13:41:21Z</time>
      </trkpt>
      <trkpt lat="42.41133" lon="0.13612">
        <ele>547.61</ele>
        <time>2014-06-02T13:41:22Z</time>
      </trkpt>
      <trkpt lat="42.41154" lon="0.13665">
        <ele>550.97</ele>
        <time>2014-06-02T13:41:34Z</time>
      </trkpt>
    </trkseg>
  </trk>
</gpx>